# Wetter Temperatur Luftdruck Luftfeuchtigkeit Sichtweite Windgeschwindigkeit Windrichtung Zeit
1 Clear 13 1015 41 10000 6.17 270 12:45 22.04.2021
2 Clear 14 1015 41 10000 6.17 270 12:23 22.04.2021
3 Clear 14 1014 41 10000 6.69 270 11:47 22.04.2021
4 Clear 15 1014 41 10000 6.69 270 11:23 22.04.2021
5 Clear 15 1013 36 10000 8.75 250 10:46 22.04.2021
6 Clear 15 1013 36 10000 8.75 250 10:26 22.04.2021
7 Clear 16 1012 34 10000 8.23 250 09:49 22.04.2021
8 Clear 17 1012 34 10000 7.72 240 09:30 22.04.2021
9 Clear 18 1011 30 10000 9.26 240 08:41 22.04.2021
10 Clear 19 1011 30 10000 9.26 240 08:22 22.04.2021
11 Clear 19 1011 32 10000 8.75 250 07:46 22.04.2021
12 Clear 19 1010 37 10000 7.72 230 07:24 22.04.2021
13 Clear 20 1010 30 10000 8.75 230 06:32 22.04.2021
14 Clouds 20 1010 32 10000 5.66 230 05:50 22.04.2021
15 Clear 19 1011 24 10000 6.17 280 05:20 22.04.2021
16 Clear 16 1013 47 10000 6.17 280 01:39 22.04.2021
17 Clear 12 1013 58 10000 3.09 310 23:54 21.04.2021
18 Clear 11 1013 58 10000 3.09 310 23:34 21.04.2021
19 Clear 10 1013 66 10000 3.6 320 22:44 21.04.2021
20 Clear 10 1013 66 10000 3.6 320 22:24 21.04.2021
21 Clear 10 1013 66 10000 3.6 310 21:50 21.04.2021
22 Clear 10 1013 66 10000 3.09 320 21:25 21.04.2021
23 Clear 10 1013 71 10000 3.09 330 20:59 21.04.2021
24 Clear 11 1013 71 10000 3.09 310 20:21 21.04.2021
25 Clear 10 1013 76 10000 3.09 310 19:45 21.04.2021
26 Clear 11 1013 76 10000 3.09 310 19:26 21.04.2021
27 Clouds 11 1014 71 10000 4.63 250 18:49 21.04.2021
28 Clear 11 1014 76 10000 3.09 270 18:31 21.04.2021
29 Clouds 12 1014 76 10000 4.12 290 17:49 21.04.2021
30 Clouds 12 1014 76 10000 4.12 290 17:25 21.04.2021
31 Clouds 12 1014 76 10000 4.12 290 16:57 21.04.2021
32 Clouds 12 1014 76 10000 3.6 290 16:32 21.04.2021
33 Clouds 13 1015 67 10000 4.12 290 15:43 21.04.2021
34 Clouds 13 1015 67 10000 4.12 290 15:18 21.04.2021
35 Clouds 13 1015 67 10000 4.12 290 15:18 21.04.2021
36 Clear 13 1015 74 10000 1.34 320 14:44 21.04.2021
37 Clouds 14 1015 67 10000 5.14 180 14:23 21.04.2021
38 Clouds 14 1015 67 10000 5.14 180 13:48 21.04.2021
39 Clouds 15 1015 72 10000 6.69 170 13:21 21.04.2021
40 Clouds 15 1015 68 10000 5.14 180 12:40 21.04.2021
41 Clouds 16 1015 63 10000 5.66 190 11:59 21.04.2021
42 Clouds 15 1014 63 10000 6.69 180 11:41 21.04.2021
43 Clouds 16 1014 63 10000 6.69 180 11:22 21.04.2021
44 Clear 16 1014 59 10000 0.45 174 10:38 21.04.2021
45 Clouds 17 1013 59 10000 5.66 180 09:56 21.04.2021
46 Clear 17 1013 55 10000 6.17 190 09:20 21.04.2021
47 Clear 18 1013 55 10000 7.2 170 08:42 21.04.2021
48 Clear 18 1013 55 10000 6.69 170 08:23 21.04.2021
49 Clear 19 1013 55 10000 6.69 170 07:50 21.04.2021
50 Clear 19 1013 55 10000 6.69 170 07:26 21.04.2021
51 Clear 19 1012 48 10000 7.72 170 05:57 21.04.2021
52 Clouds 17 1013 51 10000 6.69 230 01:51 21.04.2021
53 Clouds 15 1012 51 10000 9.77 240 00:20 21.04.2021
54 Clouds 14 1011 51 10000 8.75 240 23:39 20.04.2021
55 Clouds 14 1011 55 10000 9.77 230 22:49 20.04.2021
56 Clouds 14 1011 63 10000 8.23 230 22:24 20.04.2021
57 Clouds 15 1010 63 10000 6.69 250 21:56 20.04.2021
58 Clouds 15 1010 55 10000 8.75 260 21:33 20.04.2021
59 Clouds 15 1010 65 10000 2.24 275 20:59 20.04.2021
60 Clouds 15 1009 59 10000 10.29 240 20:38 20.04.2021
61 Clear 15 1010 62 10000 2.24 251 20:18 20.04.2021
62 Clear 15 1009 59 10000 6.17 240 19:46 20.04.2021
63 Clear 15 1009 59 10000 6.17 240 19:28 20.04.2021
64 Clear 14 1009 58 10000 4.63 250 18:44 20.04.2021
65 Clear 15 1009 51 10000 4.12 300 18:23 20.04.2021
66 Clear 15 1009 57 10000 3.58 327 17:41 20.04.2021
67 Clear 14 1012 79 10000 3.8 315 16:51 20.04.2021
68 Clear 15 1009 51 10000 4.63 350 16:28 20.04.2021
69 Clear 15 1010 48 10000 2.57 350 15:36 20.04.2021
70 Clear 16 1010 52 10000 3.6 360 15:18 20.04.2021
71 Clear 16 1010 48 10000 2.57 50 14:39 20.04.2021
72 Clear 17 1010 45 10000 2.57 330 14:20 20.04.2021
73 Clear 17 1011 45 10000 3.82 297 13:27 20.04.2021
74 Clouds 17 1011 58 10000 1.79 328 12:53 20.04.2021
75 Clouds 17 1011 58 10000 1.34 355 12:24 20.04.2021
76 Rain 17 1011 56 10000 2.24 329 11:46 20.04.2021
77 Clouds 17 1011 54 10000 3.13 344 11:25 20.04.2021
78 Clouds 18 1011 54 10000 2.24 344 10:47 20.04.2021
79 Clear 19 1010 43 10000 2.57 10 10:24 20.04.2021
80 Rain 20 1010 40 10000 3.09 360 09:47 20.04.2021
81 Rain 20 1010 40 10000 4.12 10 09:18 20.04.2021
82 Rain 21 1010 37 10000 4.12 360 08:42 20.04.2021
83 Rain 21 1001 59 10000 1.79 276 07:53 20.04.2021
84 Rain 22 1010 33 10000 3.6 350 07:31 20.04.2021
85 Rain 22 1012 33 10000 4.63 300 05:42 20.04.2021
86 Rain 22 1013 33 10000 3.09 300 04:43 20.04.2021
87 Rain 22 1014 33 10000 3.6 310 03:34 20.04.2021
88 Rain 16 1016 51 10000 4.63 300 00:50 20.04.2021
89 Rain 13 1014 75 10000 3.56 292 23:52 19.04.2021
90 Clear 12 1015 67 10000 3.6 320 23:29 19.04.2021
91 Clear 12 1015 71 10000 3.6 340 22:38 19.04.2021
92 Clear 12 1015 71 10000 3.6 340 22:19 19.04.2021
93 Clear 12 1015 76 10000 3.09 310 21:38 19.04.2021
94 Clear 12 1014 76 10000 4.12 330 21:20 19.04.2021
95 Clear 12 1015 76 10000 3.09 310 21:20 19.04.2021
96 Clear 12 1014 82 10000 4.63 320 20:41 19.04.2021
97 Clear 12 1014 82 10000 4.63 320 20:20 19.04.2021
98 Clear 12 1014 82 10000 4.12 310 19:46 19.04.2021
99 Clear 13 1014 88 10000 4.12 300 19:25 19.04.2021
100 Clear 13 1014 82 10000 4.12 300 18:56 19.04.2021
101 Clear 13 1014 88 10000 4.12 310 18:37 19.04.2021
102 Clear 13 1014 88 10000 4.12 310 18:18 19.04.2021
103 Clear 13 1015 82 10000 4.63 310 17:40 19.04.2021
104 Clouds 13 1015 84 10000 3.13 338 17:22 19.04.2021
105 Clouds 13 1015 84 10000 3.13 332 16:41 19.04.2021
106 Clouds 14 1016 83 10000 2.68 335 16:22 19.04.2021
107 Clouds 14 1015 82 10000 2.24 313 15:40 19.04.2021
108 Clear 15 1015 68 10000 3.09 10 15:22 19.04.2021
109 Clouds 15 1015 81 10000 1.79 349 14:41 19.04.2021
110 Clear 17 1015 72 10000 3.09 30 14:23 19.04.2021
111 Clear 17 1015 72 10000 1.54 360 13:48 19.04.2021
112 Clear 18 1015 72 10000 1.54 360 13:25 19.04.2021
113 Clear 17 1015 72 10000 2.57 30 12:45 19.04.2021
114 Clear 17 1015 72 10000 2.57 30 12:24 19.04.2021
115 Clear 18 1015 68 10000 3.09 30 11:54 19.04.2021
116 Clear 18 1015 68 10000 3.09 40 11:26 19.04.2021
117 Clear 18 1015 68 10000 3.09 40 11:26 19.04.2021
118 Clear 18 1015 68 10000 3.6 30 10:51 19.04.2021
119 Clear 18 1015 71 10000 1.79 64 10:26 19.04.2021
120 Clear 19 1014 64 10000 3.6 40 09:57 19.04.2021
121 Clear 19 1014 60 10000 4.63 40 09:36 19.04.2021
122 Clear 20 1014 60 10000 5.14 40 09:18 19.04.2021
123 Clear 21 1014 49 10000 5.14 50 08:30 19.04.2021
124 Clear 21 1014 28 10000 6.17 90 07:49 19.04.2021
125 Clear 23 1014 23 10000 2.57 300 07:20 19.04.2021
126 Clear 24 1014 29 10000 4.63 340 06:38 19.04.2021
127 Clouds 19 1018 52 10000 3.6 280 02:37 19.04.2021
128 Clouds 17 1019 67 10000 5.14 290 01:29 19.04.2021
129 Clouds 14 1019 77 10000 4.12 300 00:30 19.04.2021
130 Clouds 12 1019 88 10000 4.12 310 23:19 18.04.2021
131 Clouds 11 1018 88 10000 3.6 310 22:52 18.04.2021
132 Clouds 11 1018 88 10000 3.6 310 22:31 18.04.2021
133 Clear 12 1018 88 10000 3.6 320 21:45 18.04.2021
134 Clear 11 1018 88 10000 3.6 320 21:23 18.04.2021
135 Clear 11 1018 88 10000 3.6 320 21:23 18.04.2021
136 Clear 12 1018 88 10000 3.6 310 20:40 18.04.2021
137 Clear 12 1018 88 10000 3.6 310 20:21 18.04.2021
138 Clear 12 1018 88 10000 3.6 320 19:56 18.04.2021
139 Clear 12 1018 88 10000 3.09 330 19:35 18.04.2021
140 Clear 12 1018 88 10000 3.09 340 18:54 18.04.2021
141 Clear 12 1018 82 10000 3.6 330 18:31 18.04.2021
142 Clear 13 1019 88 10000 3.09 350 17:59 18.04.2021
143 Clear 13 1019 88 10000 3.09 350 17:41 18.04.2021
144 Clear 13 1019 88 10000 3.09 350 17:23 18.04.2021
145 Clear 13 1019 83 10000 0.89 348 16:41 18.04.2021
146 Rain 13 1019 82 10000 0.89 333 16:19 18.04.2021
147 Clear 14 1020 82 10000 0.89 330 15:41 18.04.2021
148 Clear 14 1020 81 10000 1.79 331 15:23 18.04.2021
149 Clear 15 1019 77 10000 2.57 250 14:42 18.04.2021
150 Clear 15 1019 72 10000 1.54 360 14:20 18.04.2021
151 Clear 15 1019 72 10000 1.54 360 13:54 18.04.2021
152 Clear 15 1019 72 10000 2.06 20 13:32 18.04.2021
153 Clear 16 1019 68 10000 2.06 20 12:49 18.04.2021
154 Clear 16 1019 68 10000 2.06 50 12:24 18.04.2021
155 Clear 16 1020 73 10000 0.89 30 11:41 18.04.2021
156 Clear 16 1018 76 10000 0.45 9 11:20 18.04.2021
157 Clouds 17 1019 68 10000 2.57 60 10:46 18.04.2021
158 Clouds 17 1019 68 10000 3.6 80 10:21 18.04.2021
159 Clouds 18 1018 63 10000 3.6 90 09:47 18.04.2021
160 Clouds 18 1018 63 10000 3.6 90 09:28 18.04.2021
161 Clouds 19 1018 60 10000 3.6 120 08:56 18.04.2021
162 Clouds 19 1018 60 10000 3.6 120 08:34 18.04.2021
163 Clouds 20 1018 60 10000 4.12 120 07:55 18.04.2021
164 Clouds 20 1018 60 10000 4.12 130 07:37 18.04.2021
165 Clouds 20 1020 63 10000 3.09 160 05:41 18.04.2021
166 Clouds 20 1020 63 10000 3.09 160 05:22 18.04.2021
167 Clouds 17 1022 59 10000 3.6 300 02:27 18.04.2021
168 Clouds 16 1022 72 10000 4.63 300 01:48 18.04.2021
169 Clouds 13 1022 72 10000 3.09 330 00:36 18.04.2021
170 Clouds 11 1021 82 10000 4.63 310 23:33 17.04.2021
171 Clouds 11 1021 87 10000 3.6 320 22:51 17.04.2021
172 Clouds 10 1021 87 10000 3.6 320 22:30 17.04.2021
173 Clear 10 1021 87 10000 4.12 320 21:47 17.04.2021
174 Clear 10 1021 87 10000 4.12 320 21:28 17.04.2021
175 Clear 11 1021 87 10000 4.12 310 20:47 17.04.2021
176 Clouds 11 1021 87 10000 2.57 320 20:25 17.04.2021
177 Clear 11 1021 87 10000 3.6 310 19:44 17.04.2021
178 Clear 12 1021 87 10000 3.6 310 19:20 17.04.2021
179 Clear 12 1021 82 10000 3.09 310 18:55 17.04.2021
180 Clear 12 1021 82 10000 3.09 330 18:26 17.04.2021
181 Clear 12 1021 77 10000 3.09 320 17:56 17.04.2021
182 Clear 12 1021 77 10000 3.09 360 17:38 17.04.2021
183 Clear 13 1022 82 10000 2.57 280 16:42 17.04.2021
184 Clear 13 1022 82 10000 2.57 280 16:24 17.04.2021
185 Clear 13 1022 77 10000 2.06 310 15:38 17.04.2021
186 Clouds 13 1023 84 10000 1.34 333 14:49 17.04.2021
187 Clouds 13 1023 84 10000 1.34 355 14:29 17.04.2021
188 Clouds 13 1023 84 10000 1.79 332 13:45 17.04.2021
189 Clouds 13 1023 83 10000 0.89 5 13:18 17.04.2021
190 Clouds 14 1023 81 10000 1.79 327 12:35 17.04.2021
191 Clouds 14 1023 79 10000 1.79 322 11:59 17.04.2021
192 Clouds 14 1023 78 10000 1.79 350 11:39 17.04.2021
193 Clouds 15 1023 76 10000 1.79 321 11:20 17.04.2021
194 Clouds 15 1023 76 10000 1.79 321 10:40 17.04.2021
195 Clouds 16 1022 77 10000 1.34 329 10:18 17.04.2021
196 Clouds 17 1022 74 10000 1.79 344 08:55 17.04.2021
197 Clouds 17 1022 73 10000 1.79 350 08:33 17.04.2021
198 Clouds 18 1021 48 10000 2.06 70 07:54 17.04.2021
199 Clouds 18 1021 52 10000 3.09 140 06:41 17.04.2021
200 Clouds 18 1022 55 10000 2.06 210 03:49 17.04.2021
201 Clouds 17 1023 63 10000 1.03 250 02:26 17.04.2021
202 Clouds 15 1023 72 10000 2.06 250 00:42 17.04.2021
203 Clouds 15 1023 72 10000 2.06 250 00:20 17.04.2021
204 Clouds 15 1023 72 10000 1.54 360 23:43 16.04.2021
205 Clouds 15 1023 72 10000 0.51 320 22:59 16.04.2021
206 Clouds 15 1023 72 10000 2.57 300 22:41 16.04.2021
207 Clouds 15 1023 72 10000 2.57 300 22:20 16.04.2021
208 Clouds 14 1022 77 10000 2.06 330 21:45 16.04.2021
209 Clouds 15 1022 77 10000 2.06 330 21:27 16.04.2021
210 Clouds 15 1022 72 10000 1.54 310 20:46 16.04.2021
211 Clouds 15 1022 77 10000 2.57 290 20:20 16.04.2021
212 Clouds 15 1022 67 10000 1.54 360 19:49 16.04.2021
213 Clouds 15 1022 72 10000 2.06 90 19:22 16.04.2021
214 Clouds 15 1023 67 10000 2.06 90 18:28 16.04.2021
215 Clouds 15 1023 63 10000 2.23 160 17:54 16.04.2021
216 Clouds 15 1023 63 10000 3.09 100 17:20 16.04.2021
217 Clouds 16 1023 63 10000 3.09 90 16:58 16.04.2021
218 Clouds 16 1023 59 10000 3.09 100 16:40 16.04.2021
219 Clouds 17 1023 59 10000 3.09 100 16:21 16.04.2021
220 Clouds 17 1024 59 10000 4.12 110 15:40 16.04.2021
221 Clouds 17 1024 55 10000 4.63 110 14:59 16.04.2021
222 Clouds 17 1024 55 10000 4.12 110 14:40 16.04.2021
223 Clouds 17 1024 59 10000 5.14 120 13:59 16.04.2021
224 Clouds 17 1024 59 10000 5.14 110 13:37 16.04.2021
225 Clouds 17 1024 59 10000 5.14 110 13:18 16.04.2021
226 Clouds 17 1023 59 10000 6.17 130 12:44 16.04.2021
227 Clouds 17 1023 59 10000 6.17 130 12:23 16.04.2021
228 Clouds 17 1023 59 10000 6.17 140 11:43 16.04.2021
229 Clouds 17 1023 59 10000 6.17 140 11:23 16.04.2021
230 Clouds 17 1022 59 10000 6.69 140 10:43 16.04.2021
231 Clouds 18 1022 59 10000 6.69 140 10:24 16.04.2021
232 Clouds 18 1021 59 10000 7.2 140 09:49 16.04.2021
233 Clouds 18 1021 59 10000 7.2 140 09:23 16.04.2021
234 Clouds 18 1022 65 10000 4.47 109 08:45 16.04.2021
235 Clouds 18 1021 55 10000 7.72 150 08:27 16.04.2021
236 Clouds 19 1021 59 10000 8.23 160 07:47 16.04.2021
237 Clouds 19 1021 59 10000 8.23 160 07:27 16.04.2021
238 Clouds 19 1021 63 10000 8.23 160 06:47 16.04.2021
239 Clouds 19 1020 64 10000 8.75 160 05:33 16.04.2021
240 Clouds 19 1020 64 10000 8.75 160 05:33 16.04.2021
241 Clouds 20 1021 68 10000 9.26 170 03:59 16.04.2021
242 Clear 18 1019 45 10000 5.14 250 00:49 16.04.2021
243 Clear 17 1019 45 10000 5.14 250 00:22 16.04.2021
244 Clouds 16 1019 51 10000 4.63 260 23:58 15.04.2021
245 Clouds 16 1019 48 10000 4.12 250 23:35 15.04.2021
246 Clouds 16 1018 48 10000 3.09 260 22:52 15.04.2021
247 Clouds 16 1018 48 10000 3.09 260 22:26 15.04.2021
248 Clouds 16 1017 45 10000 3.6 290 21:56 15.04.2021
249 Clear 16 1017 45 10000 4.63 260 21:37 15.04.2021
250 Clear 16 1016 45 10000 5.14 250 21:19 15.04.2021
251 Clouds 16 1017 52 10000 3.13 253 20:40 15.04.2021
252 Clear 16 1016 45 10000 6.69 250 20:20 15.04.2021
253 Clear 16 1016 45 10000 5.66 250 19:42 15.04.2021
254 Clear 16 1016 45 10000 5.66 250 19:23 15.04.2021
255 Clear 17 1015 42 10000 6.69 230 18:42 15.04.2021
256 Clear 17 1015 42 10000 6.17 250 18:20 15.04.2021
257 Clear 17 1015 42 10000 6.17 250 17:54 15.04.2021
258 Clear 18 1015 42 10000 4.63 250 17:36 15.04.2021
259 Clear 18 1015 42 10000 4.63 250 17:36 15.04.2021
260 Clear 18 1015 39 10000 4.63 250 16:57 15.04.2021
261 Clear 18 1015 39 10000 5.14 270 16:39 15.04.2021
262 Clear 18 1015 39 10000 5.14 270 16:20 15.04.2021
263 Clear 18 1015 42 10000 5.14 260 15:44 15.04.2021
264 Clear 19 1015 40 10000 5.66 260 15:25 15.04.2021
265 Clouds 18 1015 49 10000 1.34 257 14:39 15.04.2021
266 Clouds 18 1013 57 10000 5.48 256 14:21 15.04.2021
267 Clouds 19 1015 53 10000 1.79 312 13:41 15.04.2021
268 Clouds 19 1015 51 10000 2.24 288 13:18 15.04.2021
269 Clear 19 1014 37 10000 4.63 250 12:39 15.04.2021
270 Clear 19 1014 37 10000 4.63 250 12:20 15.04.2021
271 Clouds 18 1013 72 10000 0.89 249 11:44 15.04.2021
272 Clear 20 1013 56 10000 2.57 20 11:23 15.04.2021
273 Clear 20 1013 56 10000 2.57 20 11:23 15.04.2021
274 Clear 20 1013 56 10000 2.57 20 11:23 15.04.2021
275 Clear 20 1013 56 10000 2.57 20 10:49 15.04.2021
276 Clear 20 1013 56 10000 2.57 30 10:27 15.04.2021
277 Clear 21 1012 53 10000 3.6 30 09:46 15.04.2021
278 Clear 22 1012 46 10000 2.57 30 09:23 15.04.2021
279 Clear 23 1012 29 10000 4.12 230 08:47 15.04.2021
280 Clear 25 1012 27 10000 3.09 230 07:53 15.04.2021
281 Clear 26 1012 27 10000 3.09 230 07:24 15.04.2021
282 Clear 25 1012 25 10000 4.12 260 06:40 15.04.2021
283 Clear 25 1012 27 10000 4.63 280 06:21 15.04.2021
284 Clear 24 1013 25 10000 4.63 290 04:51 15.04.2021
285 Clear 20 1016 40 10000 4.63 240 01:24 15.04.2021
286 Clear 16 1015 48 10000 3.6 240 23:43 14.04.2021
287 Clear 16 1015 48 10000 3.6 240 23:25 14.04.2021
288 Clear 15 1015 48 10000 3.6 230 22:47 14.04.2021
289 Clear 15 1015 48 10000 3.6 230 22:25 14.04.2021
290 Clear 16 1014 59 10000 3.6 230 21:49 14.04.2021
291 Clear 15 1014 59 10000 3.6 230 21:31 14.04.2021
292 Clear 16 1014 55 10000 3.6 230 20:58 14.04.2021
293 Clear 15 1014 59 10000 5.66 210 20:34 14.04.2021
294 Clear 15 1014 59 10000 3.6 220 19:55 14.04.2021
295 Clear 15 1014 59 10000 4.12 200 19:21 14.04.2021
296 Clear 14 1014 67 10000 2.57 170 18:57 14.04.2021
297 Clear 17 1014 42 10000 0.51 290 18:36 14.04.2021
298 Clear 17 1014 42 10000 0.51 290 18:18 14.04.2021
299 Clear 18 1014 45 10000 0.51 260 17:29 14.04.2021
300 Clear 17 1014 55 10000 0.51 160 16:58 14.04.2021
301 Clear 17 1013 40 10000 3.6 180 16:39 14.04.2021
302 Clear 17 1013 37 10000 1.54 120 16:19 14.04.2021
303 Clear 19 1013 39 10000 2.52 263 15:39 14.04.2021
304 Clear 21 1013 28 10000 3.25 292 15:18 14.04.2021
305 Clear 19 1013 28 10000 3.6 310 14:40 14.04.2021
306 Clear 21 1013 27 10000 3.09 300 14:20 14.04.2021
307 Clear 22 1013 27 10000 3.09 300 13:46 14.04.2021
308 Clear 21 1013 25 10000 4.12 290 12:45 14.04.2021
309 Clear 22 1013 23 10000 5.66 260 12:18 14.04.2021
310 Clouds 23 1013 20 10000 7.2 270 11:42 14.04.2021
311 Clear 23 1012 19 10000 5.14 290 11:23 14.04.2021
312 Clear 23 1012 21 10000 4.12 300 10:34 14.04.2021
313 Clear 25 1011 18 10000 3.6 320 09:43 14.04.2021
314 Clouds 25 1003 40 10000 1.34 265 09:25 14.04.2021
315 Clear 25 1011 17 10000 5.66 310 08:56 14.04.2021
316 Clouds 26 1002 39 10000 1.34 275 08:30 14.04.2021
317 Clear 26 1011 21 10000 5.14 300 07:41 14.04.2021
318 Clear 26 1011 21 10000 3.6 360 06:35 14.04.2021
319 Clear 25 1012 22 10000 4.63 310 05:36 14.04.2021
320 Rain 22 1014 52 10000 2.06 130 02:40 14.04.2021
321 Rain 20 1015 42 10000 1.54 290 00:57 14.04.2021
322 Clear 19 1015 52 10000 3.09 320 00:32 14.04.2021
323 Rain 15 1014 63 10000 3.6 310 23:34 13.04.2021
324 Clear 14 1014 72 10000 3.6 310 22:45 13.04.2021
325 Clear 13 1014 72 10000 3.6 310 22:23 13.04.2021
326 Rain 13 1014 76 10000 2.57 330 21:50 13.04.2021
327 Rain 13 1014 76 10000 3.6 330 21:32 13.04.2021
328 Clear 13 1014 82 10000 3.6 290 20:55 13.04.2021
329 Clear 13 1015 76 10000 3.09 290 20:37 13.04.2021
330 Clear 13 1015 76 10000 3.09 290 20:37 13.04.2021
331 Rain 13 1015 76 10000 3.09 290 20:19 13.04.2021
332 Rain 14 1015 67 10000 3.6 330 19:27 13.04.2021
333 Rain 14 1015 72 10000 3.09 270 19:27 13.04.2021
334 Clear 14 1015 67 10000 3.6 330 18:58 13.04.2021
335 Clear 14 1015 72 10000 3.6 340 18:33 13.04.2021
336 Clear 14 1016 77 10000 3.6 360 17:44 13.04.2021
337 Clear 14 1016 77 10000 3.6 360 17:23 13.04.2021
338 Clear 15 1017 72 10000 3.6 330 16:57 13.04.2021
339 Clear 14 1017 72 10000 4.12 340 16:38 13.04.2021
340 Clouds 15 1017 67 10000 3.6 350 16:19 13.04.2021
341 Clear 15 1018 72 10000 4.63 340 15:39 13.04.2021
342 Clear 15 1018 72 10000 3.6 320 14:59 13.04.2021
343 Clear 15 1018 72 10000 3.6 320 14:59 13.04.2021
344 Clear 16 1018 68 10000 4.12 360 14:38 13.04.2021
345 Clear 16 1018 68 10000 4.63 10 14:18 13.04.2021
346 Clear 16 1018 68 10000 4.12 360 13:41 13.04.2021
347 Clear 16 1018 68 10000 4.12 360 13:22 13.04.2021
348 Clouds 16 1018 73 10000 0.45 20 12:52 13.04.2021
349 Clear 17 1017 63 10000 5.66 20 12:23 13.04.2021
350 Clear 17 1017 63 10000 5.14 20 11:48 13.04.2021
351 Rain 17 1017 63 10000 5.14 20 11:28 13.04.2021
352 Clear 18 1017 60 10000 5.66 30 10:44 13.04.2021
353 Clear 18 1017 56 10000 7.2 30 10:20 13.04.2021
354 Clear 18 1017 56 10000 7.2 30 09:52 13.04.2021
355 Clear 19 1017 56 10000 7.72 30 09:27 13.04.2021
356 Clear 19 1017 52 10000 7.72 40 08:49 13.04.2021
357 Clear 20 1017 46 10000 7.2 40 08:24 13.04.2021
358 Clear 21 1018 43 10000 6.17 40 07:51 13.04.2021
359 Clear 21 1018 43 10000 6.17 40 07:29 13.04.2021
360 Clear 22 1018 37 10000 5.66 30 06:27 13.04.2021
361 Clear 20 1021 37 10000 2.57 250 03:44 13.04.2021
362 Clouds 16 1022 51 10000 3.09 310 01:35 13.04.2021
363 Clouds 16 1022 51 10000 3.09 310 01:35 13.04.2021
364 Clouds 12 1022 67 10000 4.63 310 23:58 12.04.2021
365 Clouds 11 1022 71 10000 4.12 300 23:33 12.04.2021
366 Clouds 10 1022 76 10000 4.63 300 22:59 12.04.2021
367 Clouds 10 1021 71 10000 5.14 300 22:37 12.04.2021
368 Clouds 10 1021 76 10000 4.12 310 21:55 12.04.2021
369 Clouds 10 1021 76 10000 4.63 310 21:36 12.04.2021
370 Clouds 10 1021 76 10000 4.63 310 21:18 12.04.2021
371 Clouds 10 1021 76 10000 4.12 310 20:36 12.04.2021
372 Clouds 10 1020 76 10000 4.63 310 20:18 12.04.2021
373 Clouds 10 1020 76 10000 4.63 310 19:41 12.04.2021
374 Clouds 11 1021 71 10000 3.6 320 19:21 12.04.2021
375 Clouds 11 1021 71 10000 3.6 320 18:53 12.04.2021
376 Clouds 11 1021 71 10000 3.6 320 18:53 12.04.2021
377 Clouds 11 1021 71 10000 3.6 320 18:35 12.04.2021
378 Clouds 11 1021 71 10000 3.09 310 17:59 12.04.2021
379 Clouds 11 1021 71 10000 3.6 290 17:41 12.04.2021
380 Clouds 11 1021 71 10000 3.6 310 17:19 12.04.2021
381 Clouds 12 1021 67 10000 2.57 310 16:42 12.04.2021
382 Clouds 11 1021 67 10000 3.6 330 16:24 12.04.2021
383 Clouds 11 1021 67 10000 3.6 330 15:45 12.04.2021
384 Clouds 12 1021 58 10000 3.09 300 15:20 12.04.2021
385 Clouds 12 1021 55 10000 3.6 250 14:48 12.04.2021
386 Clouds 12 1021 55 10000 3.6 250 14:28 12.04.2021
387 Clouds 13 1020 51 10000 3.6 250 13:42 12.04.2021
388 Clouds 13 1020 51 10000 3.6 250 13:21 12.04.2021
389 Clear 14 1020 55 10000 3.6 250 12:44 12.04.2021
390 Clear 14 1020 55 10000 3.6 240 12:23 12.04.2021
391 Clear 15 1020 55 10000 3.09 190 11:47 12.04.2021
392 Clouds 16 1019 45 10000 3.09 150 10:54 12.04.2021
393 Clouds 16 1018 45 10000 3.09 140 10:28 12.04.2021
394 Clouds 16 1018 42 10000 3.6 150 09:59 12.04.2021
395 Clouds 17 1018 42 10000 3.6 150 09:40 12.04.2021
396 Clouds 18 1018 39 10000 4.12 150 08:59 12.04.2021
397 Clouds 18 1018 42 10000 5.14 160 08:30 12.04.2021
398 Clouds 18 1018 45 10000 5.66 170 07:31 12.04.2021
399 Clouds 18 1018 48 10000 7.2 170 06:49 12.04.2021
400 Clouds 19 1018 45 10000 7.72 160 05:51 12.04.2021
401 Clouds 18 1019 48 10000 7.72 200 03:58 12.04.2021
402 Clouds 13 1019 47 10000 7.72 250 00:51 12.04.2021
403 Clouds 12 1019 47 10000 7.72 250 00:24 12.04.2021
404 Clouds 11 1018 50 10000 7.72 250 23:46 11.04.2021
405 Clouds 10 1018 50 10000 7.72 250 23:23 11.04.2021
406 Clouds 9 1017 58 10000 7.72 250 22:45 11.04.2021
407 Clear 9 1018 64 10000 2.24 295 22:22 11.04.2021
408 Clear 9 1016 54 10000 8.23 250 21:46 11.04.2021
409 Clear 10 1016 54 10000 8.23 250 21:27 11.04.2021
410 Clear 10 1016 54 10000 7.72 250 20:52 11.04.2021
411 Clear 10 1016 58 10000 8.23 260 20:28 11.04.2021
412 Clear 10 1015 58 10000 8.23 250 19:54 11.04.2021
413 Clear 10 1015 58 10000 6.69 250 19:36 11.04.2021
414 Clear 10 1015 58 10000 6.69 250 19:18 11.04.2021
415 Clear 10 1015 54 10000 4.63 260 18:42 11.04.2021
416 Clear 10 1015 54 10000 4.63 260 18:24 11.04.2021
417 Clear 11 1015 50 10000 3.09 260 17:45 11.04.2021
418 Clear 11 1015 50 10000 5.66 260 17:26 11.04.2021
419 Clear 11 1015 50 10000 6.17 270 16:50 11.04.2021
420 Clear 12 1015 47 10000 4.63 270 16:23 11.04.2021
421 Clear 12 1015 47 10000 4.63 270 15:54 11.04.2021
422 Clear 12 1015 47 10000 3.6 280 15:27 11.04.2021
423 Clear 13 1015 44 10000 3.6 300 15:27 11.04.2021
424 Clear 13 1015 44 10000 3.6 300 14:55 11.04.2021
425 Clear 13 1015 44 10000 5.66 260 14:31 11.04.2021
426 Clear 13 1014 41 10000 8.75 260 13:51 11.04.2021
427 Clear 13 1014 41 10000 8.75 260 13:31 11.04.2021
428 Clear 13 1014 41 10000 8.23 270 12:54 11.04.2021
429 Clear 14 1014 38 10000 7.2 270 12:21 11.04.2021
430 Clear 14 1014 36 10000 8.75 260 11:52 11.04.2021
431 Clear 14 1013 36 10000 8.75 260 11:24 11.04.2021
432 Clear 15 1012 31 10000 9.77 260 10:49 11.04.2021
433 Clear 15 1012 31 10000 9.77 260 10:31 11.04.2021
434 Clear 15 1012 31 10000 9.26 260 09:57 11.04.2021
435 Clear 16 1011 31 10000 10.8 250 09:33 11.04.2021
436 Clear 17 1011 31 10000 10.8 260 08:59 11.04.2021
437 Clear 17 1010 29 10000 10.8 250 08:26 11.04.2021
438 Clear 18 1010 27 10000 10.29 240 07:24 11.04.2021
439 Clear 18 1009 26 10000 10.8 240 06:54 11.04.2021
440 Clear 19 1009 30 10000 10.8 260 05:43 11.04.2021
441 Clear 18 1009 30 10000 10.8 260 05:21 11.04.2021
442 Clear 18 1009 29 10000 11.83 250 04:34 11.04.2021
443 Clear 17 1009 29 10000 11.32 270 02:45 11.04.2021
444 Clear 16 1009 36 10000 11.83 250 00:40 11.04.2021
445 Clouds 15 1009 36 10000 8.75 250 23:49 10.04.2021
446 Clouds 15 1008 48 10000 9.26 230 23:26 10.04.2021
447 Clouds 13 1007 58 10000 4.12 320 22:45 10.04.2021
448 Clouds 13 1007 58 10000 4.12 320 22:23 10.04.2021
449 Clear 13 1007 67 10000 2.24 313 21:50 10.04.2021
450 Clear 13 1007 58 10000 4.63 310 21:23 10.04.2021
451 Clear 13 1007 66 10000 3.13 305 20:47 10.04.2021
452 Clear 14 1006 51 10000 5.66 310 20:24 10.04.2021
453 Clear 14 1006 51 10000 7.2 300 19:45 10.04.2021
454 Clear 14 1006 55 10000 4.63 310 19:27 10.04.2021
455 Clear 14 1006 58 10000 4.12 350 18:53 10.04.2021
456 Clear 13 1007 55 10000 3.6 350 18:33 10.04.2021
457 Clear 13 1007 64 10000 3.13 327 17:41 10.04.2021
458 Clear 13 1008 64 10000 3.13 327 17:21 10.04.2021
459 Clear 14 1008 51 10000 4.63 300 16:31 10.04.2021
460 Clear 14 1008 62 10000 1.79 326 15:55 10.04.2021
461 Clear 14 1008 57 10000 3.13 338 15:34 10.04.2021
462 Clear 15 1006 62 10000 6.03 257 14:47 10.04.2021
463 Clear 16 1008 48 10000 4.12 280 14:22 10.04.2021
464 Clear 16 1008 48 10000 4.63 260 13:43 10.04.2021
465 Clear 16 1008 48 10000 4.63 260 13:25 10.04.2021
466 Clear 16 1008 53 10000 4.47 252 12:37 10.04.2021
467 Clear 17 1007 45 10000 8.75 250 11:52 10.04.2021
468 Clear 18 1007 45 10000 8.75 240 11:26 10.04.2021
469 Clear 18 1006 42 10000 9.26 250 10:57 10.04.2021
470 Clear 18 1006 39 10000 8.75 250 10:39 10.04.2021
471 Clear 19 1005 40 10000 9.77 240 10:21 10.04.2021
472 Clear 21 1005 35 10000 10.8 240 09:29 10.04.2021
473 Clear 22 1004 35 10000 7.72 250 08:58 10.04.2021
474 Clear 22 996 51 10000 0.89 155 08:30 10.04.2021
475 Clear 23 1004 31 10000 7.72 240 07:52 10.04.2021
476 Clear 23 1004 35 10000 6.69 240 07:25 10.04.2021
477 Clear 23 1003 33 10000 8.23 250 06:27 10.04.2021
478 Clear 23 1003 33 10000 8.23 250 06:27 10.04.2021
479 Clear 22 1004 35 10000 5.66 270 04:49 10.04.2021
480 Clouds 20 1006 40 10000 9.77 270 02:58 10.04.2021
481 Clouds 20 1006 42 10000 8.23 270 02:37 10.04.2021
482 Clouds 16 1006 63 10000 4.63 260 00:55 10.04.2021
483 Clouds 16 1007 59 10000 4.63 250 00:30 10.04.2021
484 Clouds 17 1006 55 10000 7.2 250 23:49 09.04.2021
485 Clouds 16 1007 86 10000 2.68 292 23:27 09.04.2021
486 Clouds 16 1006 88 10000 1.34 309 22:44 09.04.2021
487 Clouds 17 1005 82 10000 3.6 240 22:26 09.04.2021
488 Clouds 17 1005 82 10000 3.6 270 21:39 09.04.2021
489 Clouds 17 1005 82 10000 4.12 240 21:20 09.04.2021
490 Clouds 17 1005 82 10000 4.63 240 20:46 09.04.2021
491 Clouds 17 1005 82 10000 4.63 240 20:23 09.04.2021
492 Clouds 17 1005 77 10000 3.6 250 19:58 09.04.2021
493 Clouds 18 1005 77 10000 4.12 260 19:39 09.04.2021
494 Clouds 18 1005 77 10000 4.12 260 19:20 09.04.2021
495 Clouds 18 1005 73 10000 3.09 140 18:41 09.04.2021
496 Clouds 19 1005 73 10000 3.09 140 18:22 09.04.2021
497 Clouds 19 1006 73 10000 3.6 170 17:44 09.04.2021
498 Clouds 19 1006 73 10000 2.57 150 17:22 09.04.2021
499 Clouds 19 1006 73 10000 4.12 140 16:41 09.04.2021
500 Clouds 20 1006 73 10000 4.12 140 16:20 09.04.2021
501 Clouds 20 1006 73 10000 4.63 170 15:42 09.04.2021
502 Clouds 20 1006 73 10000 4.63 170 15:23 09.04.2021
503 Clouds 20 1006 73 10000 6.17 150 14:46 09.04.2021
504 Clouds 21 1006 73 10000 7.2 160 14:19 09.04.2021
505 Clouds 21 1006 78 10000 6.69 130 13:43 09.04.2021
506 Clouds 21 1006 78 10000 7.72 140 13:22 09.04.2021
507 Clouds 21 1005 78 10000 8.23 140 12:47 09.04.2021
508 Clouds 21 1005 78 10000 8.75 140 11:57 09.04.2021
509 Clouds 21 1005 78 10000 9.26 150 11:28 09.04.2021
510 Clouds 21 1004 83 10000 10.29 150 10:56 09.04.2021
511 Clouds 22 1003 83 10000 13.38 170 10:37 09.04.2021
512 Clouds 24 1002 69 10000 12.35 190 09:55 09.04.2021
513 Clouds 26 1002 50 10000 10.29 200 09:27 09.04.2021
514 Clear 27 1001 37 10000 3.09 310 08:55 09.04.2021
515 Clear 27 1001 37 10000 4.12 320 08:28 09.04.2021
516 Clouds 27 993 65 10000 0.45 274 07:21 09.04.2021
517 Clouds 26 993 64 10000 1.34 274 06:26 09.04.2021
518 Clouds 26 1003 44 10000 5.66 300 03:57 09.04.2021
519 Clouds 26 1002 58 10000 0.89 349 03:39 09.04.2021
520 Clouds 19 1005 82 10000 4.12 290 00:39 09.04.2021
521 Clouds 18 1005 82 10000 4.12 310 00:21 09.04.2021
522 Clouds 17 1005 86 10000 1.79 338 23:32 08.04.2021
523 Clouds 16 1005 87 10000 1.79 328 22:52 08.04.2021
524 Clouds 17 1005 88 10000 3.6 310 22:27 08.04.2021
525 Clear 17 1005 88 10000 2.57 310 21:58 08.04.2021
526 Clear 17 1005 88 10000 3.6 340 21:40 08.04.2021
527 Clear 17 1005 88 10000 3.6 340 21:21 08.04.2021
528 Clear 17 1005 88 10000 3.6 310 20:58 08.04.2021
529 Clear 17 1005 94 10000 3.6 310 20:39 08.04.2021
530 Clouds 17 1006 86 10000 2.24 329 19:59 08.04.2021
531 Clear 17 1006 94 10000 3.6 290 19:40 08.04.2021
532 Clear 17 1006 94 10000 3.6 290 19:19 08.04.2021
533 Clear 18 1006 82 10000 3.6 330 18:42 08.04.2021
534 Clear 18 1007 83 10000 3.6 350 18:19 08.04.2021
535 Clear 18 1007 83 10000 3.6 350 17:42 08.04.2021
536 Clear 18 1007 83 10000 3.6 350 17:20 08.04.2021
537 Clear 18 1008 88 10000 3.6 340 16:45 08.04.2021
538 Clear 18 1008 88 10000 3.6 340 16:22 08.04.2021
539 Clear 18 1009 84 10000 1.79 350 15:46 08.04.2021
540 Clear 18 1007 93 10000 2.96 351 15:26 08.04.2021
541 Clear 19 1009 83 10000 4.12 330 14:43 08.04.2021
542 Clear 19 1010 87 10000 1.34 350 14:21 08.04.2021
543 Clear 19 1010 86 10000 1.79 5 13:49 08.04.2021
544 Clear 19 1009 73 10000 3.09 360 13:24 08.04.2021
545 Clear 19 1010 73 10000 3.6 340 12:58 08.04.2021
546 Clear 19 1010 84 10000 1.34 346 12:34 08.04.2021
547 Clouds 20 1009 73 10000 3.09 10 11:57 08.04.2021
548 Clouds 20 1009 73 10000 2.57 30 11:27 08.04.2021
549 Clouds 21 1009 73 10000 4.12 40 10:56 08.04.2021
550 Clouds 21 1009 68 10000 4.63 40 10:26 08.04.2021
551 Clouds 22 1009 68 10000 5.14 70 09:49 08.04.2021
552 Clouds 22 1009 68 10000 5.14 70 09:30 08.04.2021
553 Clouds 23 1009 60 10000 4.12 90 08:45 08.04.2021
554 Clouds 23 1009 60 10000 4.12 90 08:22 08.04.2021
555 Clouds 24 1009 64 10000 4.12 90 07:47 08.04.2021
556 Clouds 24 1010 61 10000 4.12 120 06:46 08.04.2021
557 Clouds 22 1014 83 10000 2.06 240 01:28 08.04.2021
558 Clouds 20 1014 83 10000 2.06 260 00:32 08.04.2021
559 Clouds 19 1011 98 10000 1.45 177 23:55 07.04.2021
560 Clouds 18 1013 88 10000 2.57 240 23:37 07.04.2021
561 Clouds 18 1014 94 10000 0.45 327 23:18 07.04.2021
562 Clouds 17 1014 94 10000 0.89 325 22:43 07.04.2021
563 Clouds 18 1014 94 10000 1.71 184 22:21 07.04.2021
564 Clouds 18 1013 94 9000 2.57 10 21:41 07.04.2021
565 Clouds 18 1013 94 10000 1.86 198 21:20 07.04.2021
566 Clouds 18 1013 98 10000 1.86 198 20:41 07.04.2021
567 Clouds 18 1014 93 10000 0.45 208 20:20 07.04.2021
568 Clouds 18 1013 94 10000 1.03 300 19:42 07.04.2021
569 Clouds 18 1013 94 10000 1.03 300 19:22 07.04.2021
570 Clouds 18 1014 93 10000 0.45 341 18:42 07.04.2021
571 Clouds 18 1014 93 10000 0.89 341 18:19 07.04.2021
572 Clouds 18 1014 93 10000 1.79 355 17:50 07.04.2021
573 Clouds 18 1014 94 10000 0.51 230 17:32 07.04.2021
574 Clouds 19 1014 94 10000 4.12 200 16:48 07.04.2021
575 Clouds 18 1015 91 10000 0.45 252 16:22 07.04.2021
576 Clouds 19 1015 94 10000 3.09 210 15:57 07.04.2021
577 Clouds 19 1014 96 10000 0.62 114 15:38 07.04.2021
578 Clouds 19 1016 90 10000 0.89 325 14:56 07.04.2021
579 Clouds 19 1016 91 10000 1.44 119 14:29 07.04.2021
580 Clouds 19 1016 91 10000 0.89 360 13:49 07.04.2021
581 Clouds 20 1016 88 10000 2.57 40 13:23 07.04.2021
582 Clouds 19 1016 89 10000 0.45 99 12:50 07.04.2021
583 Clouds 19 1016 89 10000 1.34 69 12:24 07.04.2021
584 Clouds 19 1014 95 10000 2.74 124 11:48 07.04.2021
585 Clouds 20 1016 83 10000 4.12 110 11:25 07.04.2021
586 Clouds 20 1017 90 10000 0.45 38 10:52 07.04.2021
587 Clouds 20 1016 90 10000 0.89 128 10:19 07.04.2021
588 Clouds 20 1016 91 10000 1.34 146 09:40 07.04.2021
589 Clouds 20 1015 91 10000 3.33 127 09:21 07.04.2021
590 Clouds 22 1015 73 10000 6.69 130 08:34 07.04.2021
591 Clouds 23 1015 69 10000 6.17 130 07:59 07.04.2021
592 Clouds 23 1015 69 10000 5.66 130 07:37 07.04.2021
593 Clouds 23 1015 73 10000 5.66 130 07:19 07.04.2021
594 Clouds 23 1015 69 10000 5.66 130 06:22 07.04.2021
595 Clouds 22 1009 83 10000 2.24 151 04:23 07.04.2021
596 Clouds 20 1019 73 10000 4.63 110 00:20 07.04.2021
597 Clouds 20 1019 88 10000 3.09 160 23:46 06.04.2021
598 Clouds 19 1019 88 10000 3.09 160 23:18 06.04.2021
599 Clouds 19 1018 88 10000 4.12 150 22:39 06.04.2021
600 Clouds 18 1019 92 10000 0.45 13 22:19 06.04.2021
601 Clouds 18 1016 96 10000 1.88 142 21:40 06.04.2021
602 Clouds 18 1019 92 10000 0.89 355 21:22 06.04.2021
603 Clouds 18 1019 92 10000 0.89 286 20:54 06.04.2021
604 Clouds 19 1018 94 10000 5.66 170 20:24 06.04.2021
605 Clouds 19 1018 88 10000 2.57 130 19:56 06.04.2021
606 Clouds 18 1018 88 10000 2.06 210 19:34 06.04.2021
607 Clouds 18 1018 88 10000 1.05 203 18:57 06.04.2021
608 Clouds 19 1018 88 10000 2.57 200 18:38 06.04.2021
609 Clouds 19 1019 88 10000 2.57 200 18:18 06.04.2021
610 Clouds 19 1019 88 10000 3.6 220 17:40 06.04.2021
611 Clear 18 1020 88 10000 0.89 342 17:18 06.04.2021
612 Clouds 19 1019 88 10000 3.09 220 16:42 06.04.2021
613 Clouds 19 1020 83 10000 0.82 104 15:59 06.04.2021
614 Clouds 20 1020 78 10000 2.57 70 15:25 06.04.2021
615 Clear 19 1021 83 10000 1.53 93 14:43 06.04.2021
616 Clouds 20 1020 78 10000 3.09 80 14:24 06.04.2021
617 Clouds 21 1021 78 10000 3.6 70 13:46 06.04.2021
618 Clouds 21 1021 78 10000 3.6 70 13:25 06.04.2021
619 Clouds 21 1020 83 10000 5.14 70 12:45 06.04.2021
620 Clouds 21 1020 83 10000 5.14 70 12:27 06.04.2021
621 Clouds 21 1020 83 10000 5.14 70 12:27 06.04.2021
622 Clouds 22 1020 78 10000 4.12 70 11:59 06.04.2021
623 Clouds 22 1020 83 10000 3.6 90 11:40 06.04.2021
624 Clouds 22 1020 83 10000 3.6 90 11:19 06.04.2021
625 Clouds 22 1020 78 10000 4.63 80 10:42 06.04.2021
626 Clouds 22 1020 78 10000 4.63 80 10:21 06.04.2021
627 Clouds 22 1020 73 10000 5.66 90 09:44 06.04.2021
628 Clouds 23 1020 73 10000 5.66 90 09:20 06.04.2021
629 Clouds 24 1019 73 10000 5.66 120 08:26 06.04.2021
630 Clear 24 1011 87 10000 3.13 161 07:22 06.04.2021
631 Clouds 24 1019 78 10000 3.6 160 06:51 06.04.2021
632 Clouds 25 1021 78 10000 5.66 170 03:55 06.04.2021
633 Clouds 22 1021 83 10000 2.06 240 00:51 06.04.2021
634 Clouds 21 1021 83 10000 2.06 240 00:22 06.04.2021
635 Clouds 20 1021 88 10000 2.57 300 23:58 05.04.2021
636 Clouds 20 1021 88 10000 2.57 330 23:39 05.04.2021
637 Clear 19 1021 90 10000 0.89 190 23:18 05.04.2021
638 Clouds 19 1020 94 10000 3.09 230 22:40 05.04.2021
639 Clouds 19 1020 94 10000 3.09 220 22:20 05.04.2021
640 Clouds 19 1020 94 10000 2.57 230 21:38 05.04.2021
641 Clouds 19 1020 94 10000 3.6 230 21:19 05.04.2021
642 Clear 19 1018 95 10000 1.2 244 20:42 05.04.2021
643 Clouds 19 1018 95 10000 3.05 159 20:42 05.04.2021
644 Clouds 19 1018 95 10000 3.05 159 20:42 05.04.2021
645 Clouds 19 1020 90 10000 0.45 335 20:22 05.04.2021
646 Clouds 19 1020 90 10000 2.43 166 19:38 05.04.2021
647 Clouds 19 1020 89 10000 0.89 308 19:19 05.04.2021
648 Clouds 19 1020 90 10000 0.89 308 18:41 05.04.2021
649 Clouds 19 1018 94 10000 1.38 169 18:20 05.04.2021
650 Clouds 19 1018 94 10000 1.37 169 17:47 05.04.2021
651 Clouds 19 1020 94 10000 2.57 220 17:24 05.04.2021
652 Clouds 19 1021 88 10000 1.34 333 16:56 05.04.2021
653 Clouds 19 1021 87 10000 0.89 338 16:37 05.04.2021
654 Clouds 20 1021 88 10000 3.09 60 16:18 05.04.2021
655 Clouds 19 1021 87 10000 0.45 291 15:38 05.04.2021
656 Clouds 20 1021 83 10000 2.06 110 15:20 05.04.2021
657 Clouds 20 1021 83 10000 2.57 110 14:36 05.04.2021
658 Clouds 21 1021 83 10000 2.57 110 14:36 05.04.2021
659 Clouds 21 1021 78 10000 2.57 100 13:54 05.04.2021
660 Clouds 21 1021 83 10000 3.09 100 13:29 05.04.2021
661 Clouds 21 1020 78 10000 3.6 80 12:47 05.04.2021
662 Clouds 21 1020 78 10000 3.6 80 12:47 05.04.2021
663 Clouds 21 1020 78 10000 3.6 80 12:26 05.04.2021
664 Clouds 21 1020 83 10000 2.57 120 11:52 05.04.2021
665 Clouds 22 1020 78 10000 4.12 130 11:30 05.04.2021
666 Clouds 22 1020 78 10000 3.6 110 10:56 05.04.2021
667 Clouds 22 1019 78 10000 4.63 130 10:36 05.04.2021
668 Clouds 23 1019 73 10000 4.63 130 09:49 05.04.2021
669 Clouds 24 1018 69 10000 4.63 130 09:26 05.04.2021
670 Clouds 24 1018 65 10000 4.63 130 08:59 05.04.2021
671 Clouds 25 1018 69 10000 4.63 140 08:37 05.04.2021
672 Clouds 25 1018 69 10000 4.63 140 08:19 05.04.2021
673 Clouds 25 1018 73 10000 6.69 170 07:33 05.04.2021
674 Clouds 25 1019 78 10000 6.17 170 03:58 05.04.2021
675 Clouds 23 1019 83 10000 6.69 180 01:34 05.04.2021
676 Clouds 21 1019 83 10000 6.69 180 00:20 05.04.2021
677 Clouds 19 1018 88 10000 6.17 180 23:38 04.04.2021
678 Clouds 18 1018 94 10000 5.14 180 23:18 04.04.2021
679 Clouds 17 1017 94 10000 2.57 190 22:49 04.04.2021
680 Clouds 18 1017 94 10000 2.57 190 22:26 04.04.2021
681 Clear 18 1017 94 10000 2.57 30 21:23 04.04.2021
682 Clear 18 1016 88 10000 3.39 189 20:51 04.04.2021
683 Clear 18 1016 88 10000 3.14 182 20:25 04.04.2021
684 Clear 19 1016 82 10000 3.14 182 19:43 04.04.2021
685 Clear 19 1016 83 10000 2.27 201 19:21 04.04.2021
686 Clear 19 1016 83 10000 2.29 201 19:21 04.04.2021
687 Clear 19 1016 83 10000 2.29 201 18:57 04.04.2021
688 Clear 19 1016 83 10000 2.29 201 18:38 04.04.2021
689 Clear 19 1016 83 10000 1.5 241 18:20 04.04.2021
690 Clouds 19 1015 88 10000 1.5 241 17:37 04.04.2021
691 Clear 20 1016 73 10000 1.3 299 17:19 04.04.2021
692 Clouds 21 1017 73 10000 0.89 34 16:41 04.04.2021
693 Clouds 21 1017 73 10000 1.58 305 15:58 04.04.2021
694 Clear 21 1017 78 10000 2.57 30 15:33 04.04.2021
695 Clear 22 1017 68 10000 2.18 327 14:45 04.04.2021
696 Clear 22 1017 68 10000 2.79 347 14:26 04.04.2021
697 Clouds 21 1020 82 10000 3.09 3 13:30 04.04.2021
698 Clear 22 1017 69 10000 3.09 20 12:55 04.04.2021
699 Clouds 22 1015 80 10000 3.09 3 12:33 04.04.2021
700 Clear 22 1016 73 10000 4.12 20 11:59 04.04.2021
701 Clear 23 1016 69 10000 4.63 20 11:39 04.04.2021
702 Clear 23 1016 73 10000 6.17 20 11:20 04.04.2021
703 Clear 23 1016 73 10000 6.69 30 10:40 04.04.2021
704 Clear 24 1016 65 10000 5.66 30 09:53 04.04.2021
705 Clear 24 1016 61 10000 6.69 30 09:25 04.04.2021
706 Clear 25 1015 61 10000 7.72 20 08:53 04.04.2021
707 Clear 25 1015 61 10000 7.72 30 08:35 04.04.2021
708 Clear 25 1015 61 10000 7.72 30 08:35 04.04.2021
709 Clear 25 1015 61 10000 6.69 30 07:54 04.04.2021
710 Clear 26 1016 57 10000 5.66 40 06:37 04.04.2021
711 Clear 26 1017 45 10000 3.6 30 05:33 04.04.2021
712 Clouds 22 1019 73 10000 3.09 290 01:28 04.04.2021
713 Clear 20 1019 83 10000 3.6 320 00:20 04.04.2021
714 Clear 19 1020 88 10000 3.6 310 23:48 03.04.2021
715 Clear 17 1019 82 10000 2.57 340 23:29 03.04.2021
716 Clear 16 1019 88 10000 2.57 300 22:52 03.04.2021
717 Clear 16 1019 94 10000 2.57 290 22:22 03.04.2021
718 Clear 16 1019 94 10000 2.57 290 21:49 03.04.2021
719 Clear 17 1019 88 10000 1.54 300 21:24 03.04.2021
720 Clear 17 1019 88 10000 2.06 300 20:51 03.04.2021
721 Clear 17 1019 88 10000 2.06 300 20:28 03.04.2021
722 Clear 17 1019 82 10000 2.06 300 19:51 03.04.2021
723 Clear 18 1019 82 10000 2.57 310 19:27 03.04.2021
724 Clear 18 1019 82 10000 2.57 330 18:52 03.04.2021
725 Clear 18 1020 77 10000 2.57 310 18:33 03.04.2021
726 Clear 19 1020 77 10000 2.57 310 17:55 03.04.2021
727 Clear 19 1021 83 10000 3.09 300 17:26 03.04.2021
728 Clouds 19 1020 86 10000 4.04 340 16:54 03.04.2021
729 Clear 19 1021 78 10000 3.6 310 16:25 03.04.2021
730 Clear 19 1021 78 10000 3.09 320 15:52 03.04.2021
731 Clouds 20 1022 80 10000 2.24 49 15:31 03.04.2021
732 Clear 20 1021 73 10000 3.09 10 14:49 03.04.2021
733 Clear 20 1021 73 10000 3.09 10 14:26 03.04.2021
734 Clouds 20 1013 87 10000 0.89 313 13:55 03.04.2021
735 Clouds 20 1013 86 10000 0.89 103 13:35 03.04.2021
736 Clear 21 1014 87 10000 1.79 321 12:59 03.04.2021
737 Clear 21 1022 73 10000 5.14 10 12:35 03.04.2021
738 Clouds 21 1022 68 10000 5.66 20 11:54 03.04.2021
739 Clouds 21 1021 68 10000 5.14 30 11:30 03.04.2021
740 Clear 21 1022 78 10000 1.79 67 10:49 03.04.2021
741 Clouds 22 1021 68 10000 6.17 30 10:27 03.04.2021
742 Clear 22 1022 73 10000 2.68 127 09:42 03.04.2021
743 Clouds 23 1021 60 10000 7.72 40 09:23 03.04.2021
744 Clear 23 1013 79 10000 0.89 298 08:38 03.04.2021
745 Clouds 24 1021 53 10000 7.2 40 07:48 03.04.2021
746 Clouds 24 1021 53 10000 7.2 30 07:27 03.04.2021
747 Clouds 25 1023 53 10000 2.57 300 04:26 03.04.2021
748 Clouds 24 1025 57 10000 2.57 300 02:58 03.04.2021
749 Clouds 24 1025 64 10000 3.09 270 02:34 03.04.2021
750 Clouds 21 1026 73 10000 3.6 290 01:31 03.04.2021
751 Clouds 18 1026 82 10000 3.6 300 00:19 03.04.2021
752 Clouds 17 1025 82 10000 3.09 300 23:46 02.04.2021
753 Clouds 16 1025 82 10000 3.09 300 23:19 02.04.2021
754 Clouds 16 1025 88 10000 3.6 310 22:45 02.04.2021
755 Clouds 16 1025 88 10000 3.09 310 22:26 02.04.2021
756 Clouds 16 1024 88 10000 4.12 340 21:42 02.04.2021
757 Clouds 16 1024 88 10000 4.12 340 21:20 02.04.2021
758 Clouds 16 1024 94 10000 3.09 330 20:47 02.04.2021
759 Clouds 16 1024 88 10000 2.57 330 20:25 02.04.2021
760 Clear 16 1025 90 10000 1.79 332 19:43 02.04.2021
761 Clouds 16 1024 88 10000 3.09 340 19:24 02.04.2021
762 Clouds 16 1024 88 10000 2.06 330 18:56 02.04.2021
763 Clouds 16 1025 82 10000 2.57 360 18:38 02.04.2021
764 Clouds 17 1025 88 10000 2.06 360 18:19 02.04.2021
765 Clouds 17 1025 82 10000 2.06 280 17:36 02.04.2021
766 Clouds 17 1026 82 10000 2.06 280 16:48 02.04.2021
767 Clouds 17 1026 82 10000 2.06 320 15:54 02.04.2021
768 Clouds 18 1026 73 10000 1.54 20 15:32 02.04.2021
769 Clouds 19 1027 77 10000 2.57 50 14:45 02.04.2021
770 Clouds 19 1027 73 10000 2.57 70 14:21 02.04.2021
771 Clear 19 1027 73 10000 2.57 70 13:41 02.04.2021
772 Clear 19 1026 73 10000 2.57 70 13:19 02.04.2021
773 Clear 20 1026 73 10000 2.57 60 12:40 02.04.2021
774 Clear 20 1026 73 10000 2.57 60 12:20 02.04.2021
775 Clear 20 1026 73 10000 2.57 60 12:20 02.04.2021
776 Clear 20 1026 73 10000 3.09 70 11:53 02.04.2021
777 Clear 21 1026 73 10000 3.6 70 11:20 02.04.2021
778 Clear 21 1025 68 10000 3.6 60 10:45 02.04.2021
779 Clear 21 1025 68 10000 3.6 60 10:27 02.04.2021
780 Clear 21 1025 68 10000 4.12 50 09:52 02.04.2021
781 Rain 22 1025 64 10000 4.63 50 09:26 02.04.2021
782 Rain 22 1025 64 10000 5.14 50 08:49 02.04.2021
783 Rain 23 1025 60 10000 5.14 80 08:28 02.04.2021
784 Rain 24 1025 57 10000 4.63 80 07:23 02.04.2021
785 Clouds 24 1025 53 10000 4.63 110 06:47 02.04.2021
786 Clouds 24 1026 60 10000 2.57 150 04:18 02.04.2021
787 Clouds 23 1027 57 10000 1.03 260 02:27 02.04.2021
788 Clouds 20 1026 73 10000 2.57 300 00:47 02.04.2021
789 Clouds 19 1026 82 10000 3.09 300 00:18 02.04.2021
790 Clouds 19 1026 82 10000 3.09 300 00:18 02.04.2021
791 Rain 17 1026 88 10000 2.57 290 23:35 01.04.2021
792 Clouds 16 1025 88 10000 2.57 300 22:55 01.04.2021
793 Rain 16 1025 82 10000 3.09 310 22:19 01.04.2021
794 Clear 16 1025 88 10000 2.57 310 21:49 01.04.2021
795 Rain 16 1025 88 10000 2.57 310 21:26 01.04.2021
796 Rain 16 1025 88 10000 3.09 340 20:47 01.04.2021
797 Rain 16 1024 88 10000 3.09 360 20:25 01.04.2021
798 Clear 17 1024 82 10000 2.57 320 19:54 01.04.2021
799 Clear 16 1024 88 10000 2.57 330 19:35 01.04.2021
800 Clouds 17 1024 88 10000 2.06 360 18:46 01.04.2021
801 Clouds 17 1025 82 10000 3.09 300 18:19 01.04.2021
802 Rain 17 1023 93 10000 2.24 294 17:52 01.04.2021
803 Rain 17 1025 88 10000 1.34 340 17:33 01.04.2021
804 Rain 18 1025 82 10000 1.91 292 16:53 01.04.2021
805 Clouds 18 1025 82 10000 2.57 270 16:31 01.04.2021
806 Rain 18 1025 77 10000 3.09 290 15:48 01.04.2021
807 Rain 18 1025 77 10000 3.09 280 15:20 01.04.2021
808 Clouds 18 1026 84 10000 1.34 309 14:47 01.04.2021
809 Rain 18 1026 83 10000 1.79 300 14:26 01.04.2021
810 Clear 19 1025 73 10000 1.54 50 13:56 01.04.2021
811 Rain 19 1025 78 10000 1.34 40 13:31 01.04.2021
812 Rain 19 1025 75 10000 0.45 71 12:54 01.04.2021
813 Rain 19 1025 73 10000 2.57 40 12:33 01.04.2021
814 Clear 20 1024 68 10000 2.57 50 11:57 01.04.2021
815 Clear 20 1024 68 10000 2.57 50 11:38 01.04.2021
816 Rain 20 1024 68 10000 2.57 50 11:18 01.04.2021
817 Clouds 20 1023 68 10000 4.12 60 10:45 01.04.2021
818 Rain 21 1023 68 10000 4.12 60 10:22 01.04.2021
819 Rain 22 1023 64 10000 4.12 80 09:31 01.04.2021
820 Clouds 22 1023 60 10000 4.12 90 08:43 01.04.2021
821 Clouds 22 1023 60 10000 4.12 90 08:24 01.04.2021
822 Rain 23 1023 60 10000 4.12 110 07:21 01.04.2021
823 Rain 23 1023 60 10000 4.12 130 06:55 01.04.2021
824 Rain 23 1023 73 10000 3.6 160 05:33 01.04.2021
825 Rain 23 1016 77 10000 0.89 147 03:18 01.04.2021
826 Rain 16 1024 77 10000 3.6 310 23:55 31.03.2021
827 Rain 16 1024 77 10000 3.6 310 23:37 31.03.2021
828 Clouds 15 1024 82 10000 3.6 310 22:44 31.03.2021
829 Clouds 15 1024 82 10000 3.09 300 22:23 31.03.2021
830 Clouds 15 1024 82 10000 3.6 290 21:57 31.03.2021
831 Clouds 15 1024 82 10000 4.12 290 21:39 31.03.2021
832 Clouds 15 1023 88 10000 3.6 290 21:19 31.03.2021
833 Clouds 15 1023 94 10000 3.6 310 20:40 31.03.2021
834 Clouds 15 1023 94 10000 3.6 310 20:21 31.03.2021
835 Clouds 15 1023 94 10000 5.14 300 19:42 31.03.2021
836 Clouds 16 1023 94 10000 5.14 300 19:20 31.03.2021
837 Clouds 15 1023 88 10000 4.12 310 18:55 31.03.2021
838 Clouds 15 1024 94 10000 4.63 320 18:35 31.03.2021
839 Rain 16 1024 94 6000 3.6 340 17:44 31.03.2021
840 Rain 16 1024 94 10000 4.12 270 17:25 31.03.2021
841 Rain 16 1024 88 10000 4.63 280 16:55 31.03.2021
842 Clouds 17 1024 94 10000 5.14 270 16:36 31.03.2021
843 Clouds 17 1024 94 8000 5.14 190 15:58 31.03.2021
844 Clouds 17 1024 94 9000 5.66 180 15:40 31.03.2021
845 Clouds 17 1024 94 6000 5.66 190 15:18 31.03.2021
846 Rain 17 1024 94 8000 5.14 210 14:41 31.03.2021
847 Rain 17 1024 94 4000 4.12 190 14:18 31.03.2021
848 Clouds 18 1024 88 4000 2.57 200 13:35 31.03.2021
849 Clouds 19 1023 68 10000 7.2 210 12:41 31.03.2021
850 Clouds 19 1023 68 10000 6.17 220 12:19 31.03.2021
851 Clouds 19 1023 68 10000 5.66 210 11:39 31.03.2021
852 Rain 19 1023 68 10000 5.66 210 11:20 31.03.2021
853 Clouds 20 1023 68 10000 5.14 190 10:46 31.03.2021
854 Clouds 20 1023 68 10000 5.14 190 10:46 31.03.2021
855 Clouds 20 1023 64 10000 6.17 190 10:24 31.03.2021
856 Clear 21 1022 60 10000 6.17 170 09:37 31.03.2021
857 Clear 21 1022 49 10000 7.2 170 08:54 31.03.2021
858 Clear 21 1022 49 10000 7.2 170 08:33 31.03.2021
859 Clouds 22 1022 52 10000 7.2 170 07:43 31.03.2021
860 Clouds 22 1022 56 10000 6.69 170 06:36 31.03.2021
861 Clouds 21 1024 73 10000 8.75 200 03:46 31.03.2021
862 Clouds 18 1024 77 10000 7.72 190 01:35 31.03.2021
863 Clouds 17 1024 77 10000 4.63 290 00:48 31.03.2021
864 Clouds 16 1024 77 10000 4.63 290 00:19 31.03.2021
865 Clouds 15 1023 72 10000 3.09 300 23:33 30.03.2021
866 Clouds 15 1023 82 10000 4.63 280 22:58 30.03.2021
867 Rain 15 1023 82 10000 5.66 280 22:39 30.03.2021
868 Clouds 15 1023 82 10000 5.66 280 22:21 30.03.2021
869 Clouds 15 1022 82 10000 5.14 300 21:46 30.03.2021
870 Clouds 15 1022 82 10000 5.14 310 21:20 30.03.2021
871 Clouds 15 1022 82 10000 5.14 310 21:20 30.03.2021
872 Clouds 15 1022 82 10000 5.14 310 20:51 30.03.2021
873 Clouds 15 1022 82 10000 4.12 310 20:28 30.03.2021
874 Clouds 15 1022 88 10000 3.6 330 19:50 30.03.2021
875 Clouds 15 1022 88 10000 3.6 330 19:27 30.03.2021
876 Clouds 15 1022 94 10000 4.12 290 18:39 30.03.2021
877 Clouds 15 1023 94 10000 4.63 220 17:56 30.03.2021
878 Clouds 15 1023 94 10000 2.57 240 17:38 30.03.2021
879 Clouds 15 1023 94 10000 2.57 240 17:20 30.03.2021
880 Clouds 16 1023 94 6000 3.6 250 16:44 30.03.2021
881 Clouds 16 1023 88 6000 8.23 210 16:23 30.03.2021
882 Clouds 17 1023 94 8000 5.66 190 15:21 30.03.2021
883 Clouds 17 1023 82 10000 5.66 190 14:57 30.03.2021
884 Clouds 17 1023 77 10000 7.72 190 14:22 30.03.2021
885 Clouds 17 1023 77 10000 2.06 220 13:59 30.03.2021
886 Clouds 18 1024 72 10000 3.6 150 13:37 30.03.2021
887 Clouds 18 1023 77 10000 6.17 190 12:49 30.03.2021
888 Clouds 18 1023 77 10000 7.72 190 12:28 30.03.2021
889 Clouds 18 1023 72 10000 7.2 200 11:56 30.03.2021
890 Clouds 18 1023 68 10000 6.69 200 11:23 30.03.2021
891 Clouds 18 1022 68 10000 7.2 200 10:46 30.03.2021
892 Clouds 18 1022 68 10000 7.2 200 10:26 30.03.2021
893 Clouds 19 1022 60 10000 7.72 200 09:50 30.03.2021
894 Clouds 20 1022 64 10000 7.72 190 09:31 30.03.2021
895 Clouds 20 1022 64 10000 9.26 190 08:56 30.03.2021
896 Clouds 20 1022 68 10000 9.26 180 08:38 30.03.2021
897 Clouds 21 1022 64 10000 8.75 180 07:52 30.03.2021
898 Clouds 21 1022 52 10000 7.72 170 07:22 30.03.2021
899 Clouds 20 1022 64 10000 7.72 170 05:49 30.03.2021
900 Clouds 21 1023 60 10000 8.23 170 05:19 30.03.2021
901 Clouds 17 1023 72 10000 7.72 200 00:40 30.03.2021
902 Clouds 16 1023 77 10000 7.72 210 23:36 29.03.2021
903 Clouds 16 1022 72 10000 7.72 200 22:52 29.03.2021
904 Clouds 16 1022 77 10000 7.2 200 22:32 29.03.2021
905 Clouds 16 1022 72 10000 7.72 200 21:51 29.03.2021
906 Clear 16 1021 77 10000 8.23 190 21:31 29.03.2021
907 Clear 17 1021 77 10000 7.72 190 20:50 29.03.2021
908 Clear 17 1021 77 10000 9.26 190 20:28 29.03.2021
909 Clear 17 1021 77 10000 8.75 190 19:50 29.03.2021
910 Clear 17 1021 82 10000 9.26 190 19:25 29.03.2021
911 Clear 17 1021 82 10000 9.26 190 18:51 29.03.2021
912 Clear 17 1022 82 10000 9.26 190 18:27 29.03.2021
913 Clouds 18 1022 82 10000 9.77 190 17:52 29.03.2021
914 Clouds 18 1022 72 10000 9.77 190 17:32 29.03.2021
915 Clouds 18 1022 72 10000 9.77 190 16:50 29.03.2021
916 Clouds 18 1022 72 10000 9.77 190 16:24 29.03.2021
917 Clouds 18 1022 77 10000 9.26 190 15:40 29.03.2021
918 Rain 18 1022 77 10000 9.26 190 15:22 29.03.2021
919 Rain 18 1022 77 10000 7.2 200 14:46 29.03.2021
920 Clouds 19 1022 82 10000 2.57 150 13:56 29.03.2021
921 Rain 18 1022 94 9000 5.14 170 13:37 29.03.2021
922 Rain 20 1022 82 6000 6.17 150 12:59 29.03.2021
923 Rain 20 1021 60 10000 5.66 130 12:40 29.03.2021
924 Clouds 20 1022 69 10000 3.13 126 11:45 29.03.2021
925 Rain 20 1021 69 10000 3.58 136 11:27 29.03.2021
926 Rain 20 1021 69 10000 3.58 136 11:27 29.03.2021
927 Clouds 21 1020 60 10000 4.63 150 10:45 29.03.2021
928 Clouds 20 1019 56 10000 4.12 160 10:19 29.03.2021
929 Clouds 22 1019 60 10000 5.14 160 09:32 29.03.2021
930 Clouds 22 1018 64 10000 4.63 150 08:35 29.03.2021
931 Clouds 22 1018 60 10000 5.66 150 07:54 29.03.2021
932 Clouds 23 1018 56 10000 5.14 130 07:20 29.03.2021
933 Clouds 23 1018 60 10000 5.66 120 06:25 29.03.2021
934 Clear 22 1020 64 10000 3.09 150 02:58 29.03.2021
935 Clouds 20 1020 68 10000 2.06 290 00:45 29.03.2021
936 Clouds 18 1020 73 10000 1.03 310 00:18 29.03.2021
937 Clear 16 1020 83 10000 2.24 305 23:25 28.03.2021
938 Clouds 15 1019 88 10000 2.42 253 22:50 28.03.2021
939 Clouds 15 1019 88 10000 2.06 310 22:30 28.03.2021
940 Clouds 16 1018 82 10000 3.09 320 21:57 28.03.2021
941 Clouds 16 1018 88 10000 3.09 310 21:38 28.03.2021
942 Clouds 16 1018 88 10000 3.09 310 21:18 28.03.2021
943 Clouds 16 1018 82 10000 2.57 310 20:42 28.03.2021
944 Clouds 16 1018 82 10000 2.57 310 20:24 28.03.2021
945 Clouds 17 1017 82 10000 2.06 220 19:42 28.03.2021
946 Clouds 17 1017 82 10000 2.06 220 19:22 28.03.2021
947 Clouds 17 1018 82 10000 2.57 220 18:53 28.03.2021
948 Clouds 17 1018 88 10000 3.09 210 18:24 28.03.2021
949 Clouds 18 1018 77 10000 3.09 210 17:46 28.03.2021
950 Clouds 18 1018 77 10000 3.09 210 17:23 28.03.2021
951 Clouds 18 1018 77 10000 3.6 220 16:45 28.03.2021
952 Clouds 18 1018 77 10000 3.6 220 16:23 28.03.2021
953 Clouds 18 1019 79 10000 1.34 5 15:25 28.03.2021
954 Clouds 18 1018 64 10000 1.61 160 14:50 28.03.2021
955 Clouds 19 1018 60 10000 2.57 80 14:30 28.03.2021
956 Clouds 19 1018 60 10000 3.6 80 13:39 28.03.2021
957 Clouds 20 1018 60 10000 3.6 80 13:20 28.03.2021
958 Clouds 20 1017 64 10000 4.12 90 12:49 28.03.2021
959 Clouds 20 1017 64 10000 4.12 90 12:29 28.03.2021
960 Clouds 20 1017 64 10000 4.63 80 11:41 28.03.2021
961 Clouds 20 1017 64 10000 4.63 80 11:21 28.03.2021
962 Clouds 20 1016 60 10000 4.63 100 10:43 28.03.2021
963 Clouds 21 1016 60 10000 4.63 100 10:23 28.03.2021
964 Clouds 21 1015 60 10000 5.66 120 09:44 28.03.2021
965 Clouds 21 1015 60 10000 5.66 120 09:24 28.03.2021
966 Clear 22 1007 73 10000 2.24 152 08:45 28.03.2021
967 Clear 23 1006 70 10000 1.79 160 07:46 28.03.2021
968 Clouds 23 1015 56 10000 6.17 120 06:30 28.03.2021
969 Clouds 23 1017 68 10000 5.14 160 03:55 28.03.2021
970 Clouds 22 1017 68 10000 3.6 170 00:53 28.03.2021
971 Clouds 21 1017 64 10000 2.57 220 00:20 28.03.2021
972 Clouds 20 1017 73 10000 3.6 230 23:40 27.03.2021
973 Clouds 18 1017 72 10000 3.6 220 22:57 27.03.2021
974 Clouds 17 1017 72 10000 4.12 230 22:36 27.03.2021
975 Clouds 16 1016 82 10000 3.6 220 21:58 27.03.2021
976 Clouds 16 1016 82 10000 3.6 220 21:37 27.03.2021
977 Clouds 16 1015 82 10000 4.12 220 21:19 27.03.2021
978 Clear 16 1015 82 10000 5.66 210 20:38 27.03.2021
979 Clear 17 1015 82 10000 5.66 210 20:20 27.03.2021
980 Clear 17 1014 82 10000 5.66 200 19:42 27.03.2021
981 Clear 17 1014 82 10000 5.66 200 19:23 27.03.2021
982 Clear 17 1014 68 10000 6.69 210 18:49 27.03.2021
983 Clear 18 1014 63 10000 4.12 250 18:28 27.03.2021
984 Clear 18 1014 63 10000 3.6 270 17:54 27.03.2021
985 Clear 18 1014 64 10000 3.09 300 17:24 27.03.2021
986 Clear 18 1014 73 10000 3.09 230 16:51 27.03.2021
987 Clear 18 1014 73 10000 3.09 230 16:29 27.03.2021
988 Clear 18 1014 73 10000 3.09 230 15:54 27.03.2021
989 Clouds 18 1014 71 10000 1.34 321 15:27 27.03.2021
990 Clouds 19 1014 65 10000 1.34 308 14:50 27.03.2021
991 Clear 19 1014 56 10000 3.6 270 13:56 27.03.2021
992 Clouds 19 1014 62 10000 1.34 355 13:26 27.03.2021
993 Clear 19 1013 53 10000 4.63 350 12:56 27.03.2021
994 Clear 20 1013 53 10000 4.63 340 12:31 27.03.2021
995 Clear 20 1013 49 10000 4.63 340 11:47 27.03.2021
996 Clear 20 1012 49 10000 6.17 10 11:27 27.03.2021
997 Rain 21 1012 50 10000 2.57 20 10:46 27.03.2021
998 Rain 21 1012 57 10000 2.24 32 10:24 27.03.2021
999 Rain 21 1012 60 10000 3.13 53 09:29 27.03.2021
1000 Rain 23 1011 43 10000 5.14 50 08:48 27.03.2021
1001 Clear 23 1011 43 10000 7.2 60 08:30 27.03.2021
1002 Rain 24 1002 72 10000 0.45 109 07:36 27.03.2021
1003 Clouds 24 1002 73 10000 0.45 148 06:52 27.03.2021
1004 Clear 25 1010 41 10000 4.63 100 06:33 27.03.2021
1005 Rain 26 1011 31 10000 5.66 230 04:40 27.03.2021
1006 Clear 23 1013 43 10000 4.12 280 00:55 27.03.2021
1007 Clear 22 1013 56 10000 4.12 280 00:31 27.03.2021
1008 Clear 21 1013 64 10000 3.6 290 23:55 26.03.2021
1009 Clear 20 1013 68 10000 3.09 300 23:22 26.03.2021
1010 Clear 17 1013 77 10000 3.09 320 22:35 26.03.2021
1011 Clear 16 1012 82 10000 2.06 300 21:38 26.03.2021
1012 Clouds 16 1013 87 10000 2.88 284 21:20 26.03.2021
1013 Clear 17 1011 88 10000 3.6 250 20:44 26.03.2021
1014 Clear 17 1011 88 10000 3.6 250 20:24 26.03.2021
1015 Clear 17 1011 82 10000 3.09 260 19:49 26.03.2021
1016 Clear 17 1011 82 10000 3.09 260 19:30 26.03.2021
1017 Clear 18 1011 82 10000 3.09 330 18:46 26.03.2021
1018 Clear 18 1011 82 10000 3.6 20 18:27 26.03.2021
1019 Clear 17 1013 77 10000 3.09 320 17:49 26.03.2021
1020 Clouds 17 1013 85 10000 1.34 360 17:18 26.03.2021
1021 Clear 18 1013 77 10000 2.57 310 16:34 26.03.2021
1022 Clouds 18 1014 84 10000 1.34 313 15:58 26.03.2021
1023 Clouds 18 1014 84 10000 1.34 313 15:58 26.03.2021
1024 Clear 18 1013 82 10000 3.09 270 15:26 26.03.2021
1025 Clouds 18 1014 83 10000 0.89 313 14:39 26.03.2021
1026 Clear 18 1014 73 10000 3.09 290 13:43 26.03.2021
1027 Clouds 18 1014 82 10000 1.34 286 13:21 26.03.2021
1028 Clouds 18 1014 80 10000 0.89 355 12:35 26.03.2021
1029 Clouds 19 1014 78 10000 0.45 82 11:47 26.03.2021
1030 Clouds 19 1014 77 10000 2.61 60 11:27 26.03.2021
1031 Clouds 20 1012 68 10000 3.09 50 10:42 26.03.2021
1032 Clouds 19 1012 68 10000 3.09 50 10:19 26.03.2021
1033 Clouds 20 1012 68 10000 4.63 70 09:41 26.03.2021
1034 Clouds 20 1012 68 10000 5.66 70 08:46 26.03.2021
1035 Clouds 21 1012 68 10000 5.66 70 08:25 26.03.2021
1036 Clouds 21 1011 64 10000 5.14 90 07:43 26.03.2021
1037 Clouds 21 1011 64 10000 5.14 90 07:21 26.03.2021
1038 Clouds 21 1011 60 10000 5.14 90 06:55 26.03.2021
1039 Clouds 22 1011 64 10000 5.66 120 05:32 26.03.2021
1040 Clouds 22 1013 64 10000 6.17 170 03:19 26.03.2021
1041 Clouds 20 1014 56 10000 3.09 270 00:50 26.03.2021
1042 Clouds 19 1013 60 10000 4.12 260 23:49 25.03.2021
1043 Clouds 18 1013 60 10000 4.12 260 23:30 25.03.2021
1044 Clouds 17 1013 72 10000 3.6 250 22:40 25.03.2021
1045 Clouds 16 1013 77 10000 4.12 250 22:18 25.03.2021
1046 Clouds 15 1012 77 10000 4.63 250 21:45 25.03.2021
1047 Clouds 15 1012 72 10000 5.66 250 21:24 25.03.2021
1048 Clouds 15 1012 72 10000 5.66 250 20:38 25.03.2021
1049 Clouds 15 1012 72 10000 5.66 250 20:18 25.03.2021
1050 Clear 16 1011 72 10000 3.6 280 19:40 25.03.2021
1051 Clear 16 1011 72 10000 3.6 280 19:21 25.03.2021
1052 Clear 16 1011 76 10000 0.89 328 18:43 25.03.2021
1053 Clear 16 1011 77 10000 3.6 260 18:25 25.03.2021
1054 Clear 17 1011 77 10000 4.63 220 17:38 25.03.2021
1055 Clear 17 1011 72 10000 4.12 220 16:59 25.03.2021
1056 Clear 18 1011 77 10000 3.6 220 16:37 25.03.2021
1057 Clear 18 1011 77 10000 4.63 220 16:19 25.03.2021
1058 Clear 18 1011 77 10000 6.17 210 15:41 25.03.2021
1059 Clear 19 1010 64 10000 4.63 200 15:19 25.03.2021
1060 Clear 19 1010 60 10000 4.12 230 14:41 25.03.2021
1061 Clear 20 1009 56 10000 5.14 270 13:40 25.03.2021
1062 Clear 20 1009 56 10000 5.14 270 13:20 25.03.2021
1063 Clear 20 1009 52 10000 6.69 270 12:38 25.03.2021
1064 Clear 21 1009 52 10000 6.69 270 12:19 25.03.2021
1065 Clear 21 1008 49 10000 6.69 260 11:45 25.03.2021
1066 Clear 22 1008 46 10000 8.23 260 11:26 25.03.2021
1067 Clear 22 1007 46 10000 7.72 270 10:50 25.03.2021
1068 Clear 22 1006 43 10000 3.6 250 10:24 25.03.2021
1069 Clear 23 1005 43 10000 2.57 200 09:54 25.03.2021
1070 Clear 23 1005 43 10000 2.57 200 09:36 25.03.2021
1071 Clouds 23 1004 57 10000 2.06 20 08:43 25.03.2021
1072 Clear 23 1004 53 10000 3.6 40 07:58 25.03.2021
1073 Clouds 23 995 90 10000 0.45 68 06:59 25.03.2021
1074 Clear 23 1003 60 10000 5.66 40 06:25 25.03.2021
1075 Clouds 23 1003 60 10000 5.14 120 05:48 25.03.2021
1076 Clear 26 1003 44 10000 4.12 270 02:48 25.03.2021
1077 Clear 23 1003 53 10000 2.06 290 00:21 25.03.2021
1078 Clear 22 1003 56 10000 2.57 310 23:51 24.03.2021
1079 Clear 20 1003 68 10000 2.35 311 23:28 24.03.2021
1080 Clear 19 1002 63 10000 2.06 310 22:48 24.03.2021
1081 Clear 18 1002 63 10000 2.06 310 22:27 24.03.2021
1082 Clouds 17 1002 70 10000 2.24 349 21:42 24.03.2021
1083 Clouds 17 1002 72 10000 2.24 350 21:23 24.03.2021
1084 Clear 17 1001 63 10000 4.63 310 20:43 24.03.2021
1085 Clouds 17 1002 71 10000 2.68 345 20:20 24.03.2021
1086 Clouds 17 1002 70 10000 3.13 347 19:48 24.03.2021
1087 Clear 18 1001 63 10000 3.09 330 19:28 24.03.2021
1088 Clear 18 1000 63 10000 3.6 310 18:49 24.03.2021
1089 Clear 18 1001 67 10000 2.68 311 18:23 24.03.2021
1090 Clear 18 998 71 10000 4.55 308 17:51 24.03.2021
1091 Clear 18 1001 66 10000 3.58 288 17:31 24.03.2021
1092 Clear 19 1001 65 10000 4.02 345 16:52 24.03.2021
1093 Clear 19 1001 64 10000 2.68 322 16:29 24.03.2021
1094 Clear 19 1001 65 10000 2.68 37 15:50 24.03.2021
1095 Clear 19 1000 71 10000 0.89 299 15:32 24.03.2021
1096 Clear 20 1002 60 10000 4.02 313 14:48 24.03.2021
1097 Clear 20 1002 59 10000 3.58 304 14:26 24.03.2021
1098 Clear 20 1002 59 10000 4.47 275 13:55 24.03.2021
1099 Clear 21 1002 59 10000 2.68 342 13:28 24.03.2021
1100 Clear 21 1001 49 10000 5.66 270 12:44 24.03.2021
1101 Clear 22 1001 50 10000 7.2 260 12:23 24.03.2021
1102 Clear 22 1001 50 10000 7.2 260 11:49 24.03.2021
1103 Clear 23 1000 47 10000 6.17 290 10:59 24.03.2021
1104 Clear 24 999 44 10000 4.12 310 10:41 24.03.2021
1105 Clear 24 999 39 10000 4.12 310 10:22 24.03.2021
1106 Clear 25 999 39 10000 4.12 310 09:53 24.03.2021
1107 Clear 26 998 34 10000 5.14 290 09:22 24.03.2021
1108 Clear 25 998 34 10000 8.23 300 08:52 24.03.2021
1109 Clouds 27 990 61 10000 1.79 238 08:26 24.03.2021
1110 Clear 28 997 30 10000 6.69 280 07:41 24.03.2021
1111 Clear 28 997 30 10000 5.14 260 06:54 24.03.2021
1112 Clear 28 997 32 10000 8.23 260 05:35 24.03.2021
1113 Clouds 24 998 53 10000 6.69 310 00:55 24.03.2021
1114 Clouds 24 998 60 10000 5.14 310 00:28 24.03.2021
1115 Clouds 21 998 73 10000 5.66 330 23:22 23.03.2021
1116 Clouds 20 998 78 10000 5.66 310 22:58 23.03.2021
1117 Clouds 20 998 83 10000 5.66 300 22:40 23.03.2021
1118 Clouds 19 998 94 10000 4.63 310 21:58 23.03.2021
1119 Clear 19 998 100 10000 3.6 300 21:39 23.03.2021
1120 Clear 18 998 100 10000 3.6 300 21:19 23.03.2021
1121 Clear 19 991 99 10000 0.45 56 20:40 23.03.2021
1122 Clear 19 991 99 10000 0.89 336 20:22 23.03.2021
1123 Fog 18 998 100 700 1.03 360 19:44 23.03.2021
1124 Fog 18 998 94 900 2.06 360 19:23 23.03.2021
1125 Fog 18 998 100 100 4.4 309 18:43 23.03.2021
1126 Fog 18 998 100 150 2.06 310 18:21 23.03.2021
1127 Rain 19 998 94 300 1.54 280 17:44 23.03.2021
1128 Fog 19 998 94 900 2.06 280 17:21 23.03.2021
1129 Rain 19 998 100 9000 1.03 300 16:26 23.03.2021
1130 Clear 19 998 94 10000 1.03 300 15:55 23.03.2021
1131 Rain 19 998 94 10000 2.57 300 15:36 23.03.2021
1132 Rain 19 998 100 10000 2.57 290 14:50 23.03.2021
1133 Clear 19 999 100 10000 4.4 331 14:21 23.03.2021
1134 Clear 19 999 100 10000 4.39 331 13:49 23.03.2021
1135 Clouds 19 991 99 10000 0.45 56 13:26 23.03.2021
1136 Clouds 19 999 94 10000 2.57 280 12:47 23.03.2021
1137 Clouds 19 999 94 10000 2.57 280 12:27 23.03.2021
1138 Clouds 20 992 99 10000 0.89 43 11:56 23.03.2021
1139 Clouds 20 992 99 10000 0.45 26 11:36 23.03.2021
1140 Clouds 20 991 99 10000 1.34 36 10:44 23.03.2021
1141 Clouds 20 991 99 10000 1.34 340 10:22 23.03.2021
1142 Clouds 20 991 99 10000 1.34 286 09:57 23.03.2021
1143 Clouds 20 991 99 10000 0.89 271 09:29 23.03.2021
1144 Clouds 20 991 99 10000 0.89 328 08:58 23.03.2021
1145 Rain 20 998 88 10000 6.69 20 08:39 23.03.2021
1146 Clouds 20 999 88 10000 7.2 30 08:20 23.03.2021
1147 Clouds 20 991 99 10000 1.34 30 07:28 23.03.2021
1148 Rain 20 992 99 10000 1.34 37 06:59 23.03.2021
1149 Rain 19 992 99 5647 1.34 35 06:23 23.03.2021
1150 Clouds 18 1004 94 4500 9.77 30 03:21 23.03.2021
1151 Clouds 18 999 99 5228 1.79 348 00:56 23.03.2021
1152 Clouds 19 1008 88 6000 9.77 30 23:33 22.03.2021
1153 Clouds 18 1000 99 4616 2.68 35 22:46 22.03.2021
1154 Clouds 19 1009 88 7000 8.75 30 22:24 22.03.2021
1155 Clouds 18 1009 94 5000 7.72 30 21:57 22.03.2021
1156 Clouds 18 1009 94 5000 7.72 30 21:36 22.03.2021
1157 Clouds 18 1010 94 6000 7.72 30 21:18 22.03.2021
1158 Clouds 18 1010 94 10000 7.72 30 20:38 22.03.2021
1159 Clouds 18 1011 94 8000 7.2 30 20:19 22.03.2021
1160 Clouds 18 1011 94 8000 6.17 30 19:48 22.03.2021
1161 Clouds 18 1011 94 6000 8.23 30 19:29 22.03.2021
1162 Clouds 18 1012 94 8000 7.2 30 18:46 22.03.2021
1163 Clouds 18 1012 94 9000 6.17 40 18:27 22.03.2021
1164 Clouds 18 1013 94 4000 5.66 30 17:57 22.03.2021
1165 Clouds 18 1013 94 10000 5.66 30 17:37 22.03.2021
1166 Clouds 18 1014 94 10000 8.23 30 17:18 22.03.2021
1167 Clouds 18 1014 94 10000 5.14 50 16:43 22.03.2021
1168 Clouds 18 1015 94 10000 4.12 50 15:59 22.03.2021
1169 Clouds 18 1016 88 10000 5.14 30 15:38 22.03.2021
1170 Clouds 18 1016 94 10000 5.66 30 15:18 22.03.2021
1171 Clouds 17 1016 94 10000 5.66 30 14:50 22.03.2021
1172 Clouds 18 1017 94 10000 7.72 30 14:31 22.03.2021
1173 Clouds 18 1018 94 9000 5.66 20 13:47 22.03.2021
1174 Clouds 18 1018 94 9000 5.66 20 13:25 22.03.2021
1175 Clouds 18 1018 88 10000 3.6 30 12:53 22.03.2021
1176 Clouds 18 1018 88 10000 3.6 30 12:24 22.03.2021
1177 Clouds 18 1019 94 10000 3.6 20 11:48 22.03.2021
1178 Clouds 18 1019 94 10000 3.6 20 11:25 22.03.2021
1179 Clouds 18 1010 99 8162 0.89 3 10:44 22.03.2021
1180 Clouds 18 1019 94 9000 4.12 30 10:24 22.03.2021
1181 Clouds 18 1018 94 8000 5.66 40 09:44 22.03.2021
1182 Clouds 18 1019 94 6000 3.6 40 09:23 22.03.2021
1183 Clouds 18 1019 94 8000 3.09 40 08:45 22.03.2021
1184 Clouds 18 1019 94 8000 3.09 40 08:25 22.03.2021
1185 Clouds 18 1019 94 10000 4.12 40 07:46 22.03.2021
1186 Clouds 18 1019 94 6000 4.63 60 06:59 22.03.2021
1187 Clouds 18 1019 94 6000 4.63 60 06:36 22.03.2021
1188 Clouds 19 1021 88 4000 3.6 40 02:47 22.03.2021
1189 Clouds 19 1022 88 10000 3.6 10 00:33 22.03.2021
1190 Clouds 18 1023 94 10000 5.14 30 23:55 21.03.2021
1191 Clouds 18 1023 94 6000 4.12 30 23:20 21.03.2021
1192 Clouds 18 1023 94 6000 4.12 30 22:58 21.03.2021
1193 Clouds 18 1014 99 10000 1.34 160 22:30 21.03.2021
1194 Clouds 18 1014 99 10000 1.34 113 21:42 21.03.2021
1195 Clouds 18 1014 99 6592 1.34 141 21:24 21.03.2021
1196 Clouds 18 1022 94 6000 5.14 20 20:48 21.03.2021
1197 Clouds 18 1022 94 6000 5.14 40 20:29 21.03.2021
1198 Clouds 18 1021 94 6000 5.66 10 19:59 21.03.2021
1199 Clouds 18 1013 99 5901 0.89 186 19:28 21.03.2021
1200 Clouds 19 1021 100 3000 5.66 20 18:56 21.03.2021
1201 Clouds 19 1013 99 9027 4.92 279 18:32 21.03.2021
1202 Clouds 19 1013 99 9023 0.89 135 17:59 21.03.2021
1203 Clouds 19 1013 99 9027 0.45 43 17:40 21.03.2021
1204 Drizzle 19 1022 94 10000 3.6 20 17:18 21.03.2021
1205 Clouds 19 1014 99 10000 1.34 136 16:48 21.03.2021
1206 Clouds 19 1023 94 8000 7.2 70 16:22 21.03.2021
1207 Clouds 19 1023 88 9000 7.72 70 15:42 21.03.2021
1208 Clouds 20 1023 88 9000 7.72 70 15:20 21.03.2021
1209 Clouds 19 1023 88 6000 9.26 60 14:46 21.03.2021
1210 Clouds 19 1015 99 8152 4.02 148 14:27 21.03.2021
1211 Clouds 19 1015 99 8152 4.02 138 13:57 21.03.2021
1212 Clouds 19 1015 99 8151 4.02 138 13:57 21.03.2021
1213 Clouds 19 1015 99 8151 4.02 133 13:38 21.03.2021
1214 Drizzle 19 1024 88 10000 7.2 60 12:43 21.03.2021
1215 Drizzle 19 1024 88 10000 7.2 60 12:25 21.03.2021
1216 Drizzle 19 1024 88 10000 7.2 60 12:25 21.03.2021
1217 Drizzle 19 1024 88 10000 7.2 60 12:25 21.03.2021
1218 Clouds 19 1016 99 8660 1.34 141 11:41 21.03.2021
1219 Clouds 19 1016 99 7841 1.34 154 11:20 21.03.2021
1220 Drizzle 18 1024 94 10000 4.12 90 10:44 21.03.2021
1221 Rain 18 1024 94 10000 4.12 90 10:26 21.03.2021
1222 Clouds 18 1024 88 10000 5.14 90 09:47 21.03.2021
1223 Clouds 18 1024 88 10000 5.14 90 09:29 21.03.2021
1224 Rain 18 1024 82 10000 3.6 100 08:56 21.03.2021
1225 Rain 18 1024 77 8000 7.2 80 08:31 21.03.2021
1226 Rain 18 1024 77 10000 7.2 50 07:50 21.03.2021
1227 Rain 19 1024 77 10000 7.2 60 07:23 21.03.2021
1228 Rain 19 1024 73 10000 8.75 60 06:21 21.03.2021
1229 Drizzle 19 1024 73 10000 8.23 60 03:41 21.03.2021
1230 Clouds 19 1025 83 8000 11.83 60 00:57 21.03.2021
1231 Rain 19 1016 99 10000 4.02 136 00:37 21.03.2021
1232 Clouds 19 1025 88 7000 9.77 70 00:19 21.03.2021
1233 Clouds 19 1024 88 7000 8.75 70 23:42 20.03.2021
1234 Clouds 19 1024 88 6000 10.29 80 23:19 20.03.2021
1235 Clouds 19 1015 99 10000 3.58 136 22:24 20.03.2021
1236 Clouds 20 1023 83 9000 10.8 70 21:49 20.03.2021
1237 Clouds 20 1023 88 8000 8.23 80 21:27 20.03.2021
1238 Clouds 19 1023 88 8000 9.26 70 20:50 20.03.2021
1239 Clouds 20 1023 88 7000 8.23 70 20:25 20.03.2021
1240 Rain 20 1014 99 10000 3.13 144 20:25 20.03.2021
1241 Clouds 20 1022 83 9000 10.8 70 19:56 20.03.2021
1242 Clouds 20 1014 99 10000 5.36 144 19:38 20.03.2021
1243 Clouds 20 1021 78 10000 9.77 80 19:20 20.03.2021
1244 Clouds 21 1022 78 10000 9.77 70 18:44 20.03.2021
1245 Clouds 20 1022 78 10000 9.77 70 18:21 20.03.2021
1246 Clouds 20 1014 96 6101 5.36 139 17:42 20.03.2021
1247 Clouds 20 1013 96 9655 4.47 118 17:22 20.03.2021
1248 Clouds 21 1022 78 10000 9.77 80 16:43 20.03.2021
1249 Clouds 21 1022 78 10000 9.77 80 16:20 20.03.2021
1250 Clouds 21 1022 73 10000 10.29 70 15:49 20.03.2021
1251 Clouds 21 1023 73 10000 9.77 70 15:29 20.03.2021
1252 Clouds 21 1023 73 10000 10.29 70 14:41 20.03.2021
1253 Clouds 21 1023 73 10000 10.29 70 14:20 20.03.2021
1254 Clouds 20 1014 93 7460 3.13 109 13:32 20.03.2021
1255 Clouds 20 1014 98 7530 4.47 110 12:42 20.03.2021
1256 Clouds 20 1023 78 10000 10.8 70 12:23 20.03.2021
1257 Clouds 20 1022 88 8000 9.77 70 11:44 20.03.2021
1258 Clouds 20 1022 88 8000 10.29 70 11:23 20.03.2021
1259 Clouds 20 1022 88 9000 11.32 70 10:47 20.03.2021
1260 Clouds 20 1014 99 4254 1.79 19 10:27 20.03.2021
1261 Clouds 20 1021 94 6000 12.35 60 09:54 20.03.2021
1262 Clouds 20 1013 99 4806 0.89 44 09:27 20.03.2021
1263 Rain 21 1021 94 9000 12.35 80 08:56 20.03.2021
1264 Rain 20 1021 94 8000 11.32 70 08:28 20.03.2021
1265 Clouds 20 1020 94 2000 12.86 80 07:50 20.03.2021
1266 Rain 20 1020 94 2000 12.86 80 07:31 20.03.2021
1267 Clouds 20 1020 94 3000 11.32 80 06:46 20.03.2021
1268 Clouds 19 1021 94 1500 9.26 50 05:37 20.03.2021
1269 Clouds 20 1021 94 2000 11.32 90 03:46 20.03.2021
1270 Clouds 20 1022 94 3000 10.8 70 02:44 20.03.2021
1271 Clouds 20 1023 88 6000 8.23 120 23:57 19.03.2021
1272 Rain 19 1023 94 3000 7.72 130 23:29 19.03.2021
1273 Clouds 19 1023 94 6000 7.72 110 22:48 19.03.2021
1274 Clouds 19 1023 100 4000 10.29 110 22:27 19.03.2021
1275 Clouds 19 1014 99 4478 1.79 113 21:56 19.03.2021
1276 Clouds 20 1013 99 4906 0.89 82 21:22 19.03.2021
1277 Clouds 19 1013 99 4906 1.34 144 20:57 19.03.2021
1278 Clouds 19 1013 99 4898 2.68 15 20:39 19.03.2021
1279 Clouds 19 1013 99 4608 0.89 25 20:21 19.03.2021
1280 Clouds 19 1022 94 6000 9.77 120 19:43 19.03.2021
1281 Clouds 20 1022 94 10000 9.26 110 19:19 19.03.2021
1282 Clouds 20 1022 94 3000 10.8 130 18:40 19.03.2021
1283 Clouds 20 1022 94 9000 10.29 120 18:18 19.03.2021
1284 Clouds 19 1022 94 7000 8.23 110 17:52 19.03.2021
1285 Clouds 20 1023 94 3500 8.75 100 17:28 19.03.2021
1286 Clouds 19 1014 99 7964 5.36 110 16:52 19.03.2021
1287 Clouds 20 1014 98 8561 5.36 143 16:27 19.03.2021
1288 Clouds 20 1023 78 10000 10.8 120 15:55 19.03.2021
1289 Clouds 21 1023 78 10000 9.77 120 15:26 19.03.2021
1290 Clouds 21 1024 83 10000 9.26 120 14:47 19.03.2021
1291 Clouds 20 1024 83 10000 9.26 120 14:27 19.03.2021
1292 Clouds 21 1024 78 10000 9.77 120 13:40 19.03.2021
1293 Clouds 20 1024 78 10000 10.29 130 12:57 19.03.2021
1294 Clouds 20 1024 73 10000 9.26 120 12:35 19.03.2021
1295 Clouds 21 1024 73 10000 9.26 120 11:44 19.03.2021
1296 Clouds 21 1024 78 10000 9.26 110 10:54 19.03.2021
1297 Clouds 21 1024 83 10000 9.26 120 10:31 19.03.2021
1298 Clouds 21 1024 73 10000 8.23 110 09:49 19.03.2021
1299 Clouds 21 1024 73 10000 8.23 110 09:30 19.03.2021
1300 Clouds 22 1015 87 10000 2.24 161 08:58 19.03.2021
1301 Clouds 22 1015 84 10000 2.68 157 08:39 19.03.2021
1302 Clouds 22 1024 68 10000 7.2 100 08:18 19.03.2021
1303 Clouds 22 1024 64 10000 8.23 110 07:37 19.03.2021
1304 Clouds 22 1015 84 10000 3.13 158 06:51 19.03.2021
1305 Clouds 23 1016 82 10000 4.02 152 03:34 19.03.2021
1306 Clouds 21 1017 91 10000 2.68 151 00:58 19.03.2021
1307 Clouds 21 1025 73 10000 7.72 100 23:48 18.03.2021
1308 Clouds 21 1025 73 10000 8.23 90 23:25 18.03.2021
1309 Clouds 20 1025 77 10000 7.72 90 22:39 18.03.2021
1310 Clouds 21 1025 77 10000 7.72 90 22:20 18.03.2021
1311 Clouds 21 1024 73 10000 7.2 100 21:39 18.03.2021
1312 Clouds 20 1024 73 10000 7.72 100 20:54 18.03.2021
1313 Clouds 20 1023 73 9000 6.17 90 20:35 18.03.2021
1314 Clouds 21 1023 73 10000 6.69 100 19:59 18.03.2021
1315 Clouds 21 1023 68 10000 6.17 100 19:41 18.03.2021
1316 Clouds 21 1023 68 10000 6.17 100 19:21 18.03.2021
1317 Clouds 21 1023 68 10000 7.2 90 18:38 18.03.2021
1318 Clouds 21 1023 68 10000 6.69 90 17:51 18.03.2021
1319 Clouds 21 1023 68 10000 7.72 90 17:26 18.03.2021
1320 Clouds 21 1023 73 10000 8.23 90 16:51 18.03.2021
1321 Clouds 21 1024 73 10000 8.75 90 16:32 18.03.2021
1322 Clouds 21 1024 78 10000 8.75 80 15:56 18.03.2021
1323 Drizzle 20 1024 78 10000 9.26 80 15:37 18.03.2021
1324 Drizzle 20 1024 78 10000 9.26 80 15:18 18.03.2021
1325 Clouds 20 1024 73 10000 9.77 80 14:41 18.03.2021
1326 Clouds 20 1024 73 10000 9.77 80 13:57 18.03.2021
1327 Clouds 20 1016 99 10000 3.58 112 13:27 18.03.2021
1328 Clouds 20 1016 99 10000 4.02 110 12:57 18.03.2021
1329 Clouds 19 1016 99 10000 4.02 117 12:37 18.03.2021
1330 Clouds 19 1015 98 10000 3.58 101 12:18 18.03.2021
1331 Clouds 19 1015 99 10000 3.58 106 11:43 18.03.2021
1332 Drizzle 19 1024 88 9000 10.8 90 10:58 18.03.2021
1333 Clouds 18 1023 94 8000 9.77 90 10:39 18.03.2021
1334 Clouds 18 1023 94 8000 8.75 100 10:20 18.03.2021
1335 Clouds 18 1023 94 10000 5.66 110 09:45 18.03.2021
1336 Clouds 17 1023 94 2500 3.6 270 09:26 18.03.2021
1337 Clouds 17 1023 94 3500 3.6 300 08:45 18.03.2021
1338 Clouds 17 1023 94 3500 3.6 300 08:23 18.03.2021
1339 Clouds 18 1023 94 2000 5.66 340 07:45 18.03.2021
1340 Clouds 18 1023 94 10000 2.57 40 06:44 18.03.2021
1341 Clouds 19 1023 82 5000 6.17 20 06:25 18.03.2021
1342 Clouds 19 1024 94 5000 2.06 200 05:26 18.03.2021
1343 Clouds 21 1024 73 10000 8.75 90 00:48 18.03.2021
1344 Clouds 21 1024 68 10000 9.77 90 23:37 17.03.2021
1345 Clouds 20 1023 73 10000 8.23 90 22:42 17.03.2021
1346 Clouds 20 1023 73 10000 8.23 90 22:23 17.03.2021
1347 Clouds 21 1023 73 10000 7.72 90 21:51 17.03.2021
1348 Clouds 20 1023 73 10000 8.23 90 21:32 17.03.2021
1349 Clouds 20 1023 78 10000 6.69 90 20:55 17.03.2021
1350 Clouds 20 1022 88 10000 6.17 110 20:37 17.03.2021
1351 Clouds 20 1023 94 8000 7.2 120 20:19 17.03.2021
1352 Clouds 20 1022 88 10000 8.23 110 19:41 17.03.2021
1353 Clouds 20 1022 88 10000 8.23 110 19:20 17.03.2021
1354 Clouds 20 1022 78 10000 7.72 120 18:52 17.03.2021
1355 Clouds 20 1022 83 10000 7.72 110 18:32 17.03.2021
1356 Clouds 19 1023 83 10000 8.23 100 17:43 17.03.2021
1357 Clouds 19 1023 83 10000 8.23 100 17:23 17.03.2021
1358 Clouds 19 1023 94 10000 8.23 100 16:43 17.03.2021
1359 Clouds 18 1023 94 9000 2.57 90 16:21 17.03.2021
1360 Clouds 18 1024 94 6000 5.66 80 15:49 17.03.2021
1361 Clouds 19 1024 82 5000 8.23 100 15:30 17.03.2021
1362 Clouds 19 1023 83 10000 6.69 110 14:43 17.03.2021
1363 Clouds 19 1024 77 10000 7.72 110 14:21 17.03.2021
1364 Clouds 19 1024 77 10000 8.75 120 13:55 17.03.2021
1365 Clouds 19 1024 77 10000 9.26 100 13:27 17.03.2021
1366 Clouds 19 1024 77 10000 8.75 100 12:50 17.03.2021
1367 Clouds 19 1024 77 10000 7.72 100 12:29 17.03.2021
1368 Clouds 19 1024 77 10000 7.72 100 11:50 17.03.2021
1369 Clouds 19 1024 77 10000 8.75 100 11:23 17.03.2021
1370 Clouds 18 1024 88 10000 7.72 100 10:54 17.03.2021
1371 Clouds 18 1023 88 10000 8.75 100 10:25 17.03.2021
1372 Clouds 18 1023 88 9000 8.75 90 09:48 17.03.2021
1373 Clouds 18 1023 88 9000 8.75 90 09:48 17.03.2021
1374 Clouds 19 1023 77 10000 8.23 90 09:25 17.03.2021
1375 Clouds 18 1023 77 10000 8.23 90 08:58 17.03.2021
1376 Clouds 19 1023 73 10000 8.75 100 08:38 17.03.2021
1377 Clouds 19 1023 73 10000 7.72 110 07:49 17.03.2021
1378 Clouds 19 1023 77 10000 8.75 100 07:30 17.03.2021
1379 Clouds 20 1023 64 10000 9.77 100 06:42 17.03.2021
1380 Clouds 22 1024 60 10000 8.23 110 04:23 17.03.2021
1381 Clouds 21 1024 60 10000 9.26 100 03:24 17.03.2021
1382 Clouds 20 1025 56 10000 8.23 110 00:40 17.03.2021
1383 Clouds 19 1025 68 10000 8.23 130 23:33 16.03.2021
1384 Clouds 19 1025 83 10000 7.2 160 22:59 16.03.2021
1385 Clouds 19 1024 82 10000 7.72 170 22:35 16.03.2021
1386 Clouds 19 1024 73 10000 7.72 160 21:54 16.03.2021
1387 Clouds 19 1024 73 10000 7.2 160 21:35 16.03.2021
1388 Clouds 18 1024 68 10000 7.2 150 20:59 16.03.2021
1389 Clouds 18 1024 68 10000 7.2 150 20:59 16.03.2021
1390 Clouds 19 1024 63 10000 4.12 140 20:41 16.03.2021
1391 Clouds 19 1024 60 10000 5.14 140 20:18 16.03.2021
1392 Clouds 19 1023 60 10000 7.2 130 19:42 16.03.2021
1393 Clouds 19 1023 60 10000 7.2 130 19:23 16.03.2021
1394 Clouds 19 1023 64 10000 7.72 120 18:47 16.03.2021
1395 Clouds 19 1023 64 10000 7.72 120 18:29 16.03.2021
1396 Clouds 19 1024 64 10000 6.17 120 17:50 16.03.2021
1397 Clouds 19 1024 68 10000 8.23 120 17:32 16.03.2021
1398 Clouds 19 1015 84 10000 1.79 156 16:53 16.03.2021
1399 Clouds 19 1015 84 10000 1.79 156 16:53 16.03.2021
1400 Clouds 19 1015 81 10000 2.24 159 16:31 16.03.2021
1401 Clouds 19 1024 68 10000 8.23 120 15:47 16.03.2021
1402 Clouds 20 1024 73 10000 10.29 120 15:22 16.03.2021
1403 Clouds 20 1024 68 10000 8.23 120 15:22 16.03.2021
1404 Clouds 20 1024 73 10000 10.29 120 14:59 16.03.2021
1405 Clouds 20 1024 73 10000 10.29 120 14:40 16.03.2021
1406 Clouds 20 1024 73 10000 10.29 120 14:21 16.03.2021
1407 Clouds 20 1024 68 10000 9.26 110 13:55 16.03.2021
1408 Clouds 20 1025 68 10000 9.26 110 13:28 16.03.2021
1409 Clouds 20 1025 68 10000 9.26 110 12:55 16.03.2021
1410 Clouds 20 1025 73 10000 8.23 110 12:36 16.03.2021
1411 Clouds 20 1024 83 10000 8.23 100 11:56 16.03.2021
1412 Clouds 19 1024 78 10000 6.69 100 11:32 16.03.2021
1413 Clouds 19 1023 83 10000 7.2 110 10:46 16.03.2021
1414 Clouds 19 1023 83 10000 7.2 110 10:21 16.03.2021
1415 Clouds 19 1024 83 10000 7.72 110 09:40 16.03.2021
1416 Clouds 19 1024 83 10000 7.72 110 09:20 16.03.2021
1417 Clouds 19 1023 88 10000 9.77 120 08:55 16.03.2021
1418 Clouds 19 1023 88 9000 7.72 120 08:36 16.03.2021
1419 Clouds 19 1023 94 8000 5.14 80 07:53 16.03.2021
1420 Clouds 19 1023 88 5000 4.63 70 07:24 16.03.2021
1421 Clouds 20 1023 94 4000 4.12 130 06:38 16.03.2021
1422 Clouds 20 1023 83 10000 4.63 220 05:37 16.03.2021
1423 Clouds 20 1024 94 10000 4.63 210 04:26 16.03.2021
1424 Clouds 20 1025 82 10000 5.66 210 02:27 16.03.2021
1425 Clouds 19 1026 82 10000 7.2 200 00:47 16.03.2021
1426 Clouds 18 1025 88 10000 5.14 200 23:54 15.03.2021
1427 Clouds 17 1025 82 8000 1.03 60 23:27 15.03.2021
1428 Clouds 17 1025 72 10000 2.57 270 22:49 15.03.2021
1429 Clouds 17 1024 67 10000 3.09 310 22:29 15.03.2021
1430 Clouds 16 1024 63 10000 4.12 310 21:52 15.03.2021
1431 Clouds 17 1024 67 10000 3.6 330 21:32 15.03.2021
1432 Clouds 16 1024 67 10000 3.6 320 20:56 15.03.2021
1433 Clouds 16 1024 67 10000 4.12 340 20:37 15.03.2021
1434 Clouds 16 1024 67 10000 4.12 340 20:19 15.03.2021
1435 Clouds 16 1023 67 10000 3.6 310 19:48 15.03.2021
1436 Clouds 15 1023 67 10000 3.6 290 19:30 15.03.2021
1437 Clouds 15 1023 72 10000 3.09 250 18:48 15.03.2021
1438 Clouds 15 1023 72 10000 3.09 300 18:23 15.03.2021
1439 Clouds 15 1023 72 10000 3.09 300 17:55 15.03.2021
1440 Clouds 15 1023 67 10000 3.6 300 17:29 15.03.2021
1441 Clouds 15 1023 67 10000 3.09 280 16:50 15.03.2021
1442 Clouds 15 1024 67 10000 4.12 230 16:31 15.03.2021
1443 Clouds 15 1024 72 10000 5.14 250 15:45 15.03.2021
1444 Clouds 15 1024 72 10000 5.14 250 15:25 15.03.2021
1445 Clouds 16 1024 67 10000 5.14 260 14:44 15.03.2021
1446 Clouds 17 1024 59 10000 4.12 170 14:22 15.03.2021
1447 Clouds 17 1024 59 10000 4.12 170 13:47 15.03.2021
1448 Clear 17 1024 63 10000 4.12 160 13:25 15.03.2021
1449 Clear 17 1023 55 10000 4.63 150 12:48 15.03.2021
1450 Clouds 18 1023 59 10000 5.14 160 12:19 15.03.2021
1451 Clouds 18 1023 59 10000 5.66 150 11:52 15.03.2021
1452 Clouds 18 1023 59 10000 5.66 150 11:32 15.03.2021
1453 Clouds 19 1023 60 10000 5.66 160 10:54 15.03.2021
1454 Clouds 19 1022 64 10000 5.66 160 10:30 15.03.2021
1455 Clouds 19 1022 64 10000 5.66 160 09:52 15.03.2021
1456 Clouds 19 1022 64 10000 5.66 160 09:34 15.03.2021
1457 Clouds 20 1021 64 10000 5.66 160 08:54 15.03.2021
1458 Clouds 20 1021 64 10000 5.66 160 08:32 15.03.2021
1459 Clouds 21 1021 56 10000 4.63 150 07:53 15.03.2021
1460 Clouds 21 1021 64 10000 4.63 160 07:32 15.03.2021
1461 Clouds 22 1021 64 10000 6.17 170 06:40 15.03.2021
1462 Clouds 21 1021 68 10000 8.23 170 05:32 15.03.2021
1463 Clouds 20 1022 63 10000 8.75 190 01:36 15.03.2021
1464 Clouds 18 1022 68 10000 7.2 200 23:58 14.03.2021
1465 Clouds 16 1022 67 10000 6.69 200 23:20 14.03.2021
1466 Clouds 14 1021 77 10000 3.09 260 22:47 14.03.2021
1467 Clouds 14 1021 77 10000 3.09 260 22:23 14.03.2021
1468 Clouds 13 1021 76 10000 4.12 300 21:45 14.03.2021
1469 Clouds 14 1021 77 10000 4.12 260 21:19 14.03.2021
1470 Clouds 13 1020 77 10000 5.14 250 20:49 14.03.2021
1471 Clouds 13 1020 77 10000 5.14 250 20:26 14.03.2021
1472 Clouds 13 1020 77 10000 5.14 250 20:26 14.03.2021
1473 Clouds 14 1020 67 10000 7.72 220 19:48 14.03.2021
1474 Clouds 14 1020 67 10000 7.72 220 19:24 14.03.2021
1475 Clouds 14 1020 72 10000 6.69 220 18:56 14.03.2021
1476 Clouds 15 1020 72 10000 7.72 210 18:28 14.03.2021
1477 Clouds 15 1020 67 10000 7.72 220 17:41 14.03.2021
1478 Clouds 15 1020 67 10000 7.72 220 17:23 14.03.2021
1479 Clouds 15 1020 67 10000 7.72 220 16:52 14.03.2021
1480 Clouds 15 1020 67 10000 8.75 200 16:32 14.03.2021
1481 Clouds 16 1020 63 10000 9.26 190 15:57 14.03.2021
1482 Clouds 15 1021 82 10000 1.79 288 15:39 14.03.2021
1483 Clouds 15 1021 77 10000 8.23 200 14:45 14.03.2021
1484 Clouds 16 1021 77 10000 8.75 160 14:26 14.03.2021
1485 Clouds 16 1020 72 10000 7.72 220 13:50 14.03.2021
1486 Clouds 15 1020 72 10000 7.72 220 13:31 14.03.2021
1487 Clouds 16 1020 77 10000 7.72 220 12:47 14.03.2021
1488 Clouds 16 1020 77 10000 7.72 220 12:29 14.03.2021
1489 Clouds 16 1020 82 10000 8.75 190 11:58 14.03.2021
1490 Clouds 16 1019 82 10000 8.75 200 11:36 14.03.2021
1491 Clouds 15 1019 88 10000 8.75 210 10:59 14.03.2021
1492 Clouds 15 1018 88 10000 8.75 200 10:38 14.03.2021
1493 Clouds 15 1018 88 10000 8.75 200 10:19 14.03.2021
1494 Clouds 15 1018 94 8000 8.75 200 09:44 14.03.2021
1495 Drizzle 15 1018 94 6000 5.66 240 09:23 14.03.2021
1496 Clouds 15 1018 94 6000 7.2 230 08:51 14.03.2021
1497 Clouds 15 1017 94 5000 11.32 190 08:32 14.03.2021
1498 Drizzle 16 1017 94 6000 9.77 190 07:52 14.03.2021
1499 Drizzle 16 1016 94 10000 10.29 190 07:20 14.03.2021
1500 Clouds 16 1015 82 10000 12.86 180 05:33 14.03.2021
1501 Clouds 16 1015 82 10000 12.86 180 05:33 14.03.2021
1502 Clouds 18 1014 94 4000 12.35 180 00:59 14.03.2021
1503 Clouds 18 1014 94 4000 12.35 180 00:59 14.03.2021
1504 Clouds 19 1013 94 4500 12.86 180 00:20 14.03.2021
1505 Clouds 19 1013 94 4500 12.86 180 00:20 14.03.2021
1506 Clouds 19 1012 94 8000 12.86 180 23:57 13.03.2021
1507 Clouds 19 1012 94 6000 9.77 190 23:37 13.03.2021
1508 Clouds 19 1012 94 2000 10.8 190 22:58 13.03.2021
1509 Clouds 20 1011 94 8000 11.32 180 22:40 13.03.2021
1510 Clouds 20 1011 88 9000 9.77 190 21:50 13.03.2021
1511 Clouds 20 1010 94 7000 10.8 190 21:30 13.03.2021
1512 Clouds 21 1011 88 6000 10.29 200 20:56 13.03.2021
1513 Clouds 21 1010 94 10000 9.77 190 20:32 13.03.2021
1514 Clouds 21 1010 94 4000 8.75 190 19:58 13.03.2021
1515 Clouds 21 1010 94 2000 8.75 190 19:37 13.03.2021
1516 Clouds 21 1010 88 3000 9.26 190 19:18 13.03.2021
1517 Clouds 21 1010 88 3000 9.26 190 19:18 13.03.2021
1518 Clouds 22 1009 88 10000 11.32 180 18:40 13.03.2021
1519 Clouds 23 1009 88 10000 11.32 180 18:19 13.03.2021
1520 Clouds 24 1009 83 10000 10.29 200 17:46 13.03.2021
1521 Clouds 24 1008 78 10000 2.57 230 17:27 13.03.2021
1522 Clouds 24 1008 83 10000 1.03 130 16:51 13.03.2021
1523 Drizzle 24 1008 78 10000 1.54 310 16:31 13.03.2021
1524 Drizzle 25 1008 73 10000 2.06 50 15:54 13.03.2021
1525 Clouds 25 1010 73 10000 3.6 220 14:56 13.03.2021
1526 Clouds 25 1010 69 10000 6.69 250 14:38 13.03.2021
1527 Clouds 25 1010 69 10000 6.69 250 14:18 13.03.2021
1528 Clouds 26 1001 84 10000 0.89 318 13:26 13.03.2021
1529 Clouds 26 1002 82 10000 1.34 326 12:52 13.03.2021
1530 Clear 25 1010 57 10000 6.69 10 12:30 13.03.2021
1531 Clear 26 1009 57 10000 8.23 10 11:53 13.03.2021
1532 Clear 26 1009 61 10000 9.26 20 11:31 13.03.2021
1533 Clouds 26 1009 57 10000 8.75 20 10:56 13.03.2021
1534 Clouds 26 1009 57 10000 7.72 20 10:31 13.03.2021
1535 Clouds 25 1001 81 10000 3.13 303 09:59 13.03.2021
1536 Clouds 26 1009 65 10000 10.8 30 09:31 13.03.2021
1537 Rain 26 1009 61 10000 10.8 30 08:54 13.03.2021
1538 Clouds 27 1009 65 10000 9.77 30 08:21 13.03.2021
1539 Clouds 27 1009 61 10000 10.8 30 07:57 13.03.2021
1540 Rain 27 1009 61 10000 9.26 30 07:30 13.03.2021
1541 Rain 27 1010 58 10000 8.23 30 05:29 13.03.2021
1542 Clouds 28 1013 61 10000 3.6 10 02:20 13.03.2021
1543 Clouds 25 1014 73 10000 3.09 340 00:33 13.03.2021
1544 Clouds 22 1015 83 10000 3.6 360 23:38 12.03.2021
1545 Clouds 22 1015 83 10000 3.6 360 23:20 12.03.2021
1546 Clouds 21 1014 88 10000 2.06 310 22:32 12.03.2021
1547 Rain 20 1014 94 10000 2.57 290 21:56 12.03.2021
1548 Rain 20 1006 99 10000 0.89 29 21:38 12.03.2021
1549 Clear 20 1006 99 10000 0.89 48 21:18 12.03.2021
1550 Clear 20 1005 99 10000 1.34 23 20:48 12.03.2021
1551 Clouds 20 1013 94 10000 3.6 20 20:23 12.03.2021
1552 Clouds 21 1013 100 9000 3.09 40 19:45 12.03.2021
1553 Rain 21 1013 94 10000 4.12 40 19:27 12.03.2021
1554 Clouds 21 1014 94 10000 4.12 40 18:53 12.03.2021
1555 Clear 21 1014 94 9000 3.09 50 18:29 12.03.2021
1556 Clear 21 1014 94 10000 2.06 40 17:45 12.03.2021
1557 Rain 21 1014 94 10000 2.06 40 17:27 12.03.2021
1558 Clear 21 1014 94 10000 2.57 40 16:49 12.03.2021
1559 Clear 21 1015 94 10000 3.09 40 16:28 12.03.2021
1560 Clear 21 1015 88 10000 2.06 280 15:45 12.03.2021
1561 Clear 21 1015 88 10000 2.06 280 15:21 12.03.2021
1562 Clouds 22 1015 88 10000 3.09 330 14:42 12.03.2021
1563 Clouds 22 1015 88 10000 3.09 330 14:19 12.03.2021
1564 Rain 22 1016 88 10000 3.6 360 13:40 12.03.2021
1565 Clouds 22 1016 88 10000 4.63 360 13:20 12.03.2021
1566 Clouds 22 1016 88 10000 4.63 360 12:50 12.03.2021
1567 Clouds 23 1016 88 10000 8.23 20 12:30 12.03.2021
1568 Clouds 23 1016 88 10000 8.23 20 12:30 12.03.2021
1569 Clouds 23 1008 99 10000 1.79 0 11:57 12.03.2021
1570 Clouds 23 1008 99 10000 1.34 11 11:38 12.03.2021
1571 Clouds 23 1015 94 10000 7.2 30 11:00 12.03.2021
1572 Clouds 23 1015 88 9000 6.69 20 10:41 12.03.2021
1573 Clouds 23 1015 88 9000 6.69 20 10:20 12.03.2021
1574 Clouds 24 1007 95 10000 1.34 269 09:29 12.03.2021
1575 Clouds 24 1014 83 3000 6.17 10 08:57 12.03.2021
1576 Clouds 24 1015 73 10000 8.23 60 08:39 12.03.2021
1577 Clouds 25 1014 73 10000 9.26 30 07:41 12.03.2021
1578 Clouds 25 1014 73 10000 9.26 30 07:21 12.03.2021
1579 Clouds 25 1006 87 10000 0.45 274 06:42 12.03.2021
1580 Rain 26 1015 65 10000 6.69 40 05:52 12.03.2021
1581 Clouds 23 1018 65 10000 6.69 350 00:55 12.03.2021
1582 Clouds 23 1018 73 10000 4.12 360 23:56 11.03.2021
1583 Clouds 22 1009 88 10000 0.45 333 22:59 11.03.2021
1584 Clouds 22 1017 78 10000 3.09 290 22:39 11.03.2021
1585 Clouds 21 1018 82 10000 0.45 342 22:20 11.03.2021
1586 Clouds 21 1009 90 10000 1.79 298 21:46 11.03.2021
1587 Clouds 21 1009 90 10000 0.89 295 21:25 11.03.2021
1588 Clouds 21 1008 90 10000 1.79 300 20:49 11.03.2021
1589 Clouds 21 1008 90 10000 2.24 298 20:23 11.03.2021
1590 Clouds 21 1008 90 10000 2.68 297 19:54 11.03.2021
1591 Clouds 21 1008 90 10000 2.24 301 19:36 11.03.2021
1592 Clouds 21 1017 82 10000 1.34 28 18:53 11.03.2021
1593 Clouds 21 1017 78 10000 6.69 10 18:35 11.03.2021
1594 Clouds 22 1017 78 10000 7.2 10 17:53 11.03.2021
1595 Rain 22 1017 78 10000 6.69 10 17:35 11.03.2021
1596 Clouds 22 1018 78 10000 8.23 10 16:38 11.03.2021
1597 Clouds 22 1018 78 10000 8.23 10 16:19 11.03.2021
1598 Clouds 22 1018 83 10000 5.14 30 15:44 11.03.2021
1599 Clouds 22 1018 83 10000 5.14 30 15:20 11.03.2021
1600 Clouds 22 1019 83 10000 4.63 20 14:45 11.03.2021
1601 Clouds 22 1019 83 10000 4.63 20 14:18 11.03.2021
1602 Clouds 22 1020 83 10000 3.6 30 13:45 11.03.2021
1603 Clouds 22 1020 83 10000 3.6 30 13:22 11.03.2021
1604 Clouds 22 1020 83 10000 4.12 20 12:55 11.03.2021
1605 Clouds 22 1020 88 9000 5.66 30 12:30 11.03.2021
1606 Clouds 22 1020 88 9000 5.66 30 12:30 11.03.2021
1607 Clouds 22 1020 78 5000 7.2 30 11:49 11.03.2021
1608 Clouds 22 1020 69 10000 7.72 40 11:31 11.03.2021
1609 Clouds 23 1019 73 10000 7.2 50 10:57 11.03.2021
1610 Clouds 23 1019 73 10000 7.2 50 10:28 11.03.2021
1611 Clouds 23 1019 73 10000 7.2 50 09:53 11.03.2021
1612 Clouds 23 1019 73 10000 7.2 50 09:34 11.03.2021
1613 Rain 23 1019 73 10000 7.2 50 08:59 11.03.2021
1614 Clouds 23 1018 65 10000 8.23 40 08:40 11.03.2021
1615 Clouds 23 1018 64 10000 9.26 50 07:59 11.03.2021
1616 Clouds 24 1018 65 10000 10.29 40 07:21 11.03.2021
1617 Clouds 24 1018 61 10000 8.75 50 06:48 11.03.2021
1618 Clouds 25 1019 57 10000 8.23 50 06:23 11.03.2021
1619 Clouds 25 1019 57 10000 8.23 40 06:23 11.03.2021
1620 Clouds 24 1021 57 10000 7.2 30 02:48 11.03.2021
1621 -273 0 0 0 0 0 00:47 11.03.2021
1622 -273 0 0 0 0 0 00:46 11.03.2021
1623 -273 0 0 0 0 0 23:27 10.03.2021
1624 Clouds 21 1013 90 10000 1.34 297 23:25 10.03.2021
1625 Clouds 21 1013 91 10000 0.45 281 23:25 10.03.2021
1626 Clouds 21 1021 73 10000 1.03 320 22:43 10.03.2021
1627 Clouds 20 1021 73 10000 1.03 320 22:23 10.03.2021
1628 Clouds 20 1021 78 10000 2.06 300 21:45 10.03.2021
1629 Clouds 20 1021 78 10000 2.06 290 21:23 10.03.2021
1630 Clouds 20 1020 73 10000 2.06 310 20:46 10.03.2021
1631 Clouds 20 1020 73 10000 2.06 310 20:28 10.03.2021
1632 Clouds 20 1020 73 10000 3.6 30 19:50 10.03.2021
1633 Clouds 20 1020 73 10000 3.6 30 19:28 10.03.2021
1634 Clouds 21 1020 64 10000 4.63 20 18:46 10.03.2021
1635 Clouds 21 1020 64 10000 4.63 20 18:24 10.03.2021
1636 Clouds 21 1020 64 10000 6.69 30 17:57 10.03.2021
1637 Clouds 21 1020 64 10000 5.66 30 17:37 10.03.2021
1638 Clouds 21 1020 64 10000 5.66 30 17:19 10.03.2021
1639 Clouds 21 1020 68 10000 6.17 30 16:44 10.03.2021
1640 Clouds 22 1020 68 10000 6.17 30 16:24 10.03.2021
1641 Clouds 22 1021 68 10000 5.14 40 15:47 10.03.2021
1642 Clouds 22 1021 68 10000 5.14 40 15:25 10.03.2021
1643 Clouds 22 1021 68 10000 5.14 40 15:25 10.03.2021
1644 Clouds 22 1021 68 10000 6.17 40 14:57 10.03.2021
1645 Clouds 22 1021 73 10000 6.17 50 14:21 10.03.2021
1646 Drizzle 22 1021 73 10000 6.17 50 13:53 10.03.2021
1647 Drizzle 22 1021 73 10000 6.17 50 13:31 10.03.2021
1648 Clouds 22 1021 73 10000 6.17 50 12:47 10.03.2021
1649 Clouds 22 1021 64 10000 6.69 50 12:24 10.03.2021
1650 Clouds 22 1021 64 10000 6.69 60 11:50 10.03.2021
1651 Clouds 22 1021 64 10000 6.69 60 11:22 10.03.2021
1652 Clouds 22 1021 64 10000 5.66 70 10:50 10.03.2021
1653 Clouds 22 1020 68 10000 6.17 80 10:31 10.03.2021
1654 Clouds 22 1020 64 10000 6.69 80 09:55 10.03.2021
1655 Clouds 22 1020 64 10000 6.69 70 09:37 10.03.2021
1656 Clouds 22 1019 64 10000 7.2 70 09:18 10.03.2021
1657 Clouds 22 1019 64 10000 5.66 70 08:43 10.03.2021
1658 Clouds 23 1019 64 10000 5.66 70 08:25 10.03.2021
1659 Clouds 23 1019 60 10000 7.72 80 07:44 10.03.2021
1660 Clouds 23 1019 60 10000 7.72 80 07:24 10.03.2021
1661 Clouds 23 1019 57 10000 6.69 90 06:52 10.03.2021
1662 Clouds 23 1021 64 10000 5.14 100 02:44 10.03.2021
1663 Clouds 22 1021 64 10000 4.63 110 00:31 10.03.2021
1664 Clouds 22 1020 64 10000 5.66 110 23:33 09.03.2021
1665 Clouds 21 1020 78 10000 4.63 140 22:52 09.03.2021
1666 Clouds 21 1020 78 10000 4.63 140 22:34 09.03.2021
1667 Clouds 21 1020 78 10000 6.69 160 21:59 09.03.2021
1668 Clouds 21 1019 73 10000 3.09 90 21:38 09.03.2021
1669 Clouds 21 1019 68 10000 3.09 130 21:20 09.03.2021
1670 Clouds 21 1019 68 10000 3.09 130 20:55 09.03.2021
1671 Clouds 21 1018 78 10000 3.6 130 20:36 09.03.2021
1672 Clouds 21 1018 68 10000 3.09 110 20:18 09.03.2021
1673 Clouds 21 1018 68 10000 3.6 110 19:43 09.03.2021
1674 Clouds 21 1018 68 10000 3.6 110 19:24 09.03.2021
1675 Clouds 21 1018 73 10000 3.6 110 18:40 09.03.2021
1676 Clouds 21 1018 68 10000 4.12 110 18:18 09.03.2021
1677 Clouds 22 1018 68 10000 4.12 110 17:45 09.03.2021
1678 Clouds 21 1018 68 10000 4.12 110 17:24 09.03.2021
1679 Clouds 22 1018 68 10000 4.12 110 16:40 09.03.2021
1680 Clouds 22 1018 68 10000 4.12 110 16:21 09.03.2021
1681 Clouds 22 1018 68 10000 4.12 110 15:56 09.03.2021
1682 Clouds 22 1018 68 10000 4.63 120 15:25 09.03.2021
1683 Clouds 22 1018 68 10000 4.63 120 14:52 09.03.2021
1684 Clouds 22 1018 64 10000 5.14 120 14:26 09.03.2021
1685 Clouds 22 1018 73 10000 5.66 130 13:42 09.03.2021
1686 Clouds 22 1018 73 10000 5.66 130 13:21 09.03.2021
1687 Clouds 22 1018 73 10000 6.17 130 12:54 09.03.2021
1688 Clouds 22 1018 73 10000 6.69 130 12:35 09.03.2021
1689 Clouds 22 1017 68 10000 5.66 130 11:44 09.03.2021
1690 Clouds 22 1017 73 10000 6.69 130 11:22 09.03.2021
1691 Clouds 22 1016 68 10000 5.66 140 10:59 09.03.2021
1692 Clouds 22 1016 68 10000 6.69 130 10:39 09.03.2021
1693 Clouds 22 1015 68 10000 6.17 130 10:21 09.03.2021
1694 Clouds 22 1014 68 10000 6.69 130 09:46 09.03.2021
1695 Clouds 22 1014 68 10000 6.69 130 09:27 09.03.2021
1696 Clouds 23 1014 73 10000 7.72 130 08:57 09.03.2021
1697 Clouds 23 1005 81 10000 3.13 160 08:33 09.03.2021
1698 Clouds 23 1013 69 10000 7.72 130 07:47 09.03.2021
1699 Clouds 23 1013 69 10000 7.72 130 07:27 09.03.2021
1700 Clouds 24 1004 81 10000 2.68 156 06:59 09.03.2021
1701 Clouds 24 1012 65 10000 7.72 140 05:53 09.03.2021
1702 Clear 28 1013 58 10000 4.47 113 01:43 09.03.2021
1703 Clear 25 1011 47 10000 3.09 240 23:58 08.03.2021
1704 Clear 25 1011 50 10000 3.6 280 23:39 08.03.2021
1705 Clear 24 1011 57 10000 4.12 290 23:19 08.03.2021
1706 Clear 22 1010 64 10000 3.09 290 22:40 08.03.2021
1707 Clear 20 1010 68 10000 3.09 320 22:21 08.03.2021
1708 Clear 20 1010 73 10000 3.09 310 21:50 08.03.2021
1709 Clear 20 1010 73 10000 3.09 310 21:50 08.03.2021
1710 Clear 20 1010 73 10000 3.09 310 21:29 08.03.2021
1711 Clear 20 1009 78 10000 2.57 330 20:43 08.03.2021
1712 Clear 20 1009 78 10000 2.57 330 20:22 08.03.2021
1713 Clear 20 1009 83 10000 2.57 270 19:53 08.03.2021
1714 Clear 21 1009 78 10000 3.6 260 19:27 08.03.2021
1715 Clear 21 1008 78 10000 4.12 290 18:38 08.03.2021
1716 Clear 21 1008 78 10000 4.12 290 18:19 08.03.2021
1717 Clear 21 1008 73 10000 4.63 300 17:46 08.03.2021
1718 Clear 21 1008 73 10000 4.63 300 17:24 08.03.2021
1719 Clear 21 1008 78 10000 2.57 300 16:44 08.03.2021
1720 Clear 21 1008 78 10000 2.57 300 16:25 08.03.2021
1721 Clear 22 1009 78 10000 3.09 300 15:47 08.03.2021
1722 Clear 21 1009 73 10000 3.09 270 15:24 08.03.2021
1723 Clear 21 1009 73 10000 2.06 260 14:38 08.03.2021
1724 Clear 22 1009 73 10000 2.06 260 14:19 08.03.2021
1725 Clear 22 1009 64 10000 3.09 320 13:25 08.03.2021
1726 Clear 22 1009 69 10000 4.12 320 12:59 08.03.2021
1727 Clear 23 1009 64 10000 5.14 340 12:41 08.03.2021
1728 Clear 23 1009 64 10000 5.14 340 12:20 08.03.2021
1729 Clear 23 1009 61 10000 5.14 10 11:37 08.03.2021
1730 Clear 23 1009 61 10000 5.14 10 11:18 08.03.2021
1731 Clear 24 1008 57 10000 6.17 350 10:41 08.03.2021
1732 Clear 24 1008 57 10000 6.17 350 10:19 08.03.2021
1733 Clouds 24 1009 69 10000 2.68 12 09:41 08.03.2021
1734 Clear 24 1008 50 10000 5.14 340 09:22 08.03.2021
1735 Clouds 23 1008 53 10000 4.12 290 08:27 08.03.2021
1736 Clouds 26 1007 57 10000 8.75 350 07:23 08.03.2021
1737 Clouds 27 998 74 10000 1.34 279 06:42 08.03.2021
1738 Clear 30 1009 40 10000 7.2 310 03:37 08.03.2021
1739 Clear 25 1011 57 10000 4.12 330 00:43 08.03.2021
1740 Clear 23 1011 68 10000 3.09 310 23:54 07.03.2021
1741 Clear 21 1011 73 10000 3.6 310 23:28 07.03.2021
1742 Clear 21 1012 73 10000 3.6 290 22:59 07.03.2021
1743 Clouds 20 1011 73 10000 3.09 300 22:41 07.03.2021
1744 Clouds 19 1012 85 10000 0.45 5 22:20 07.03.2021
1745 Clouds 19 1012 85 10000 0.45 5 21:42 07.03.2021
1746 Clouds 19 1012 85 10000 0.89 328 21:24 07.03.2021
1747 Clear 19 1011 78 10000 1.89 319 20:46 07.03.2021
1748 Clear 19 1011 78 10000 2.06 326 20:28 07.03.2021
1749 Clear 19 1011 78 10000 2.06 326 19:56 07.03.2021
1750 Clear 19 1011 83 10000 2.06 310 19:37 07.03.2021
1751 Clear 19 1011 83 10000 2.06 310 19:19 07.03.2021
1752 Clear 19 1011 78 10000 2.06 310 18:40 07.03.2021
1753 Clear 19 1011 78 10000 2.06 310 18:19 07.03.2021
1754 Clear 19 1011 78 10000 2.57 300 17:39 07.03.2021
1755 Clear 19 1011 78 10000 2.57 300 17:20 07.03.2021
1756 Clear 20 1012 78 10000 2.57 310 16:56 07.03.2021
1757 Clear 20 1012 73 10000 3.09 340 16:37 07.03.2021
1758 Clouds 20 1012 73 10000 4.12 350 16:18 07.03.2021
1759 Clouds 21 1012 78 10000 4.12 350 15:42 07.03.2021
1760 Clouds 21 1012 73 10000 4.63 360 15:21 07.03.2021
1761 Clouds 21 1013 73 10000 5.66 10 14:30 07.03.2021
1762 Clouds 22 1013 73 10000 5.14 20 13:59 07.03.2021
1763 Clouds 21 1013 68 10000 6.17 20 13:40 07.03.2021
1764 Clouds 22 1013 68 10000 7.72 30 13:20 07.03.2021
1765 Clear 22 1013 64 10000 7.72 30 12:44 07.03.2021
1766 Clear 22 1013 64 10000 7.72 30 12:24 07.03.2021
1767 Clear 22 1012 60 10000 7.72 30 11:25 07.03.2021
1768 Clear 22 1012 60 10000 7.72 30 10:59 07.03.2021
1769 Clear 22 1012 64 10000 7.2 30 10:39 07.03.2021
1770 Clear 22 1012 64 10000 7.2 30 10:21 07.03.2021
1771 Clouds 22 1011 60 10000 7.72 30 09:40 07.03.2021
1772 Clouds 22 1011 60 10000 7.72 30 09:21 07.03.2021
1773 Clear 23 1011 50 10000 8.75 40 08:45 07.03.2021
1774 Clouds 24 1011 50 10000 8.23 30 08:23 07.03.2021
1775 Clouds 24 1011 50 10000 7.72 40 07:25 07.03.2021
1776 Clouds 23 1014 53 10000 3.6 110 02:41 07.03.2021
1777 Clouds 22 1015 56 10000 2.57 260 00:45 07.03.2021
1778 Clouds 20 1015 60 10000 3.6 300 23:45 06.03.2021
1779 Clouds 20 1015 60 10000 3.6 300 23:24 06.03.2021
1780 Clouds 18 1015 68 10000 3.09 310 22:48 06.03.2021
1781 Clouds 17 1015 68 10000 3.09 310 22:28 06.03.2021
1782 Clouds 17 1015 68 10000 3.09 300 21:58 06.03.2021
1783 Clouds 16 1014 72 10000 3.09 320 21:22 06.03.2021
1784 Clouds 16 1014 72 10000 3.09 290 20:52 06.03.2021
1785 Clouds 16 1014 72 10000 3.09 290 20:33 06.03.2021
1786 Clouds 16 1014 72 10000 4.12 290 19:50 06.03.2021
1787 Clouds 17 1014 72 10000 4.12 290 19:22 06.03.2021
1788 Clouds 17 1014 68 10000 3.6 300 18:56 06.03.2021
1789 Clouds 18 1014 72 10000 3.09 270 18:37 06.03.2021
1790 Clouds 18 1014 72 10000 3.09 270 18:18 06.03.2021
1791 Clouds 18 1014 68 10000 4.12 100 17:44 06.03.2021
1792 Clouds 18 1014 68 10000 4.12 100 17:22 06.03.2021
1793 Clouds 18 1014 68 10000 5.66 150 16:52 06.03.2021
1794 Clouds 18 1014 64 10000 4.12 200 16:29 06.03.2021
1795 Clouds 19 1015 68 10000 5.66 170 15:54 06.03.2021
1796 Clouds 19 1015 68 10000 5.66 170 15:32 06.03.2021
1797 Clouds 19 1015 64 10000 4.63 150 14:54 06.03.2021
1798 Clouds 19 1015 64 10000 4.12 160 14:30 06.03.2021
1799 Clouds 20 1014 60 10000 4.63 160 13:44 06.03.2021
1800 Clouds 20 1015 64 10000 4.12 150 13:23 06.03.2021
1801 Clouds 20 1015 64 10000 4.12 150 12:46 06.03.2021
1802 Clouds 20 1015 56 10000 4.63 150 12:20 06.03.2021
1803 Clouds 20 1015 56 10000 4.63 150 12:20 06.03.2021
1804 Clouds 20 1015 56 10000 4.63 150 12:20 06.03.2021
1805 Clouds 20 1014 64 10000 4.63 150 11:57 06.03.2021
1806 Clouds 20 1014 56 10000 4.63 150 11:22 06.03.2021
1807 Clouds 20 1014 65 10000 2.24 155 10:52 06.03.2021
1808 Clouds 20 1013 60 10000 4.63 150 10:28 06.03.2021
1809 Clouds 20 1013 56 10000 5.66 160 09:50 06.03.2021
1810 Clouds 20 1013 60 10000 6.69 160 09:21 06.03.2021
1811 Rain 21 1012 60 10000 7.72 140 08:52 06.03.2021
1812 Rain 21 1012 60 10000 7.72 160 08:25 06.03.2021
1813 Clouds 22 1012 53 10000 6.69 150 07:42 06.03.2021
1814 Clouds 22 1012 53 10000 6.69 150 07:21 06.03.2021
1815 Clouds 22 1012 53 10000 7.2 170 05:40 06.03.2021
1816 Clouds 21 1013 56 10000 7.2 170 02:52 06.03.2021
1817 Clouds 21 1013 60 10000 8.23 170 01:28 06.03.2021
1818 Clouds 21 1013 60 10000 7.2 180 00:44 06.03.2021
1819 Clouds 20 1012 64 10000 8.23 190 23:39 05.03.2021
1820 Clouds 20 1012 64 10000 8.23 190 23:39 05.03.2021
1821 Clouds 19 1012 64 10000 8.75 180 23:18 05.03.2021
1822 Clouds 19 1012 60 10000 8.75 180 22:43 05.03.2021
1823 Clouds 19 1012 60 10000 8.75 180 22:20 05.03.2021
1824 Clouds 18 1011 68 10000 8.75 180 21:42 05.03.2021
1825 Clouds 18 1011 68 10000 8.75 180 21:23 05.03.2021
1826 Clouds 18 1010 63 10000 7.2 190 20:43 05.03.2021
1827 Clouds 18 1010 63 10000 7.2 190 20:23 05.03.2021
1828 Clouds 18 1010 72 10000 6.69 200 19:45 05.03.2021
1829 Clouds 18 1010 72 10000 6.69 190 19:22 05.03.2021
1830 Clouds 18 1010 77 10000 8.23 200 18:44 05.03.2021
1831 Clouds 18 1010 77 10000 8.23 200 18:25 05.03.2021
1832 Clouds 19 1010 72 10000 8.75 180 17:51 05.03.2021
1833 Clouds 19 1010 72 10000 8.75 180 17:32 05.03.2021
1834 Clouds 19 1011 64 1800 7.72 180 16:43 05.03.2021
1835 Clouds 19 1011 64 1800 7.72 180 16:23 05.03.2021
1836 Clouds 19 1011 64 10000 8.23 190 15:54 05.03.2021
1837 Clouds 19 1011 64 10000 7.2 190 15:27 05.03.2021
1838 Clouds 19 1011 68 10000 6.69 180 14:52 05.03.2021
1839 Clouds 19 1011 73 10000 7.72 190 14:34 05.03.2021
1840 Rain 19 1011 68 10000 6.69 180 13:44 05.03.2021
1841 Rain 19 1011 68 10000 6.69 180 13:21 05.03.2021
1842 Clouds 20 1011 60 10000 7.72 160 12:46 05.03.2021
1843 Rain 20 1010 64 10000 8.23 170 11:40 05.03.2021
1844 Clouds 20 1010 68 10000 8.75 170 11:20 05.03.2021
1845 Rain 20 1010 68 10000 8.75 170 10:57 05.03.2021
1846 Clouds 20 1010 65 10000 3.58 143 10:37 05.03.2021
1847 Clouds 20 1010 65 10000 2.68 119 10:19 05.03.2021
1848 Clouds 20 1010 65 10000 4.02 164 09:42 05.03.2021
1849 Clouds 20 1008 60 10000 7.2 170 09:23 05.03.2021
1850 Clouds 21 1008 60 10000 7.72 170 08:39 05.03.2021
1851 Clouds 21 1008 56 10000 8.23 170 08:20 05.03.2021
1852 Clouds 21 1008 56 10000 8.75 170 07:35 05.03.2021
1853 Rain 22 1008 56 10000 9.26 170 06:43 05.03.2021
1854 Rain 22 1008 56 10000 9.26 170 06:25 05.03.2021
1855 Clouds 22 1008 68 10000 11.32 170 01:40 05.03.2021
1856 Clouds 23 1007 64 10000 6.69 190 23:55 04.03.2021
1857 Clouds 22 1007 68 10000 5.66 190 23:25 04.03.2021
1858 Clouds 19 1007 68 10000 4.63 220 22:31 04.03.2021
1859 Clouds 19 1007 68 10000 4.12 230 21:55 04.03.2021
1860 Rain 18 1006 72 10000 5.14 220 21:33 04.03.2021
1861 Clouds 18 1006 72 10000 4.12 230 20:59 04.03.2021
1862 Clear 19 1005 73 10000 5.66 210 20:40 04.03.2021
1863 Rain 19 1005 77 10000 6.17 210 20:21 04.03.2021
1864 Rain 19 1005 77 10000 6.17 210 19:53 04.03.2021
1865 Clear 19 1005 73 10000 5.14 210 19:26 04.03.2021
1866 Rain 18 1005 73 10000 4.12 210 18:54 04.03.2021
1867 Rain 18 1005 72 10000 4.63 230 18:30 04.03.2021
1868 Clear 19 1005 82 10000 2.57 250 17:58 04.03.2021
1869 Clear 19 1005 82 10000 3.09 240 17:39 04.03.2021
1870 Clear 19 1005 82 10000 3.09 240 17:18 04.03.2021
1871 Clear 19 1005 73 10000 2.57 240 16:43 04.03.2021
1872 Rain 19 1005 73 10000 2.57 240 16:24 04.03.2021
1873 Rain 20 1006 73 10000 3.09 320 15:46 04.03.2021
1874 Rain 20 1006 73 10000 3.09 320 15:27 04.03.2021
1875 Clear 19 1006 68 10000 4.12 350 14:44 04.03.2021
1876 Clear 20 1006 68 10000 3.6 350 14:18 04.03.2021
1877 Clear 20 1007 64 10000 3.6 330 13:42 04.03.2021
1878 Clear 21 1007 64 10000 3.6 330 13:22 04.03.2021
1879 Clear 20 1005 77 10000 3.14 350 12:42 04.03.2021
1880 Clear 21 1008 72 10000 2.68 42 11:58 04.03.2021
1881 Rain 21 1008 72 10000 3.13 38 11:40 04.03.2021
1882 Clear 22 999 79 10000 1.34 299 11:19 04.03.2021
1883 Clear 22 1008 71 10000 2.68 5 10:37 04.03.2021
1884 Clear 22 998 78 10000 1.34 291 10:18 04.03.2021
1885 Rain 23 998 78 10000 1.79 300 09:28 04.03.2021
1886 Rain 23 998 78 10000 1.79 300 09:28 04.03.2021
1887 Clear 24 998 79 10000 0.89 105 08:53 04.03.2021
1888 Rain 24 1007 53 10000 8.75 30 08:31 04.03.2021
1889 Clear 24 1007 57 10000 8.75 30 07:46 04.03.2021
1890 Clear 26 1007 47 10000 6.69 50 06:50 04.03.2021
1891 Rain 26 1008 36 10000 7.72 80 06:21 04.03.2021
1892 Clouds 24 1012 44 10000 4.63 340 02:39 04.03.2021
1893 Clouds 22 1015 60 10000 2.06 250 00:31 04.03.2021
1894 Clouds 18 1015 72 10000 3.09 310 22:41 03.03.2021
1895 Clouds 17 1015 72 10000 3.09 310 22:23 03.03.2021
1896 Clouds 17 1014 77 10000 3.09 310 21:43 03.03.2021
1897 Clouds 16 1014 72 10000 2.57 270 21:24 03.03.2021
1898 Clouds 17 1014 72 10000 2.57 270 20:55 03.03.2021
1899 Clouds 17 1014 77 10000 3.6 250 20:37 03.03.2021
1900 Clouds 16 1014 77 10000 3.09 260 19:57 03.03.2021
1901 Clouds 16 1014 72 10000 3.6 280 19:38 03.03.2021
1902 Clouds 17 1014 72 10000 4.12 310 19:18 03.03.2021
1903 Clouds 16 1014 72 10000 3.6 280 19:18 03.03.2021
1904 Clouds 16 1014 68 10000 3.09 290 18:41 03.03.2021
1905 Clouds 17 1014 72 10000 2.57 300 17:59 03.03.2021
1906 Clouds 17 1014 72 10000 2.57 300 17:59 03.03.2021
1907 Clouds 17 1014 72 10000 3.6 240 17:36 03.03.2021
1908 Clouds 17 1015 68 10000 5.14 170 17:18 03.03.2021
1909 Clouds 17 1015 68 10000 5.14 170 16:39 03.03.2021
1910 Clouds 18 1015 64 10000 4.63 170 16:21 03.03.2021
1911 Clouds 18 1015 64 10000 5.14 170 15:33 03.03.2021
1912 Clouds 19 1016 68 10000 5.66 170 14:52 03.03.2021
1913 Clouds 19 1016 68 10000 5.66 170 14:29 03.03.2021
1914 Clouds 19 1015 68 10000 5.66 170 13:52 03.03.2021
1915 Clouds 19 1015 68 10000 5.66 170 13:31 03.03.2021
1916 Clouds 19 1015 68 10000 5.14 160 12:44 03.03.2021
1917 Clouds 19 1015 68 10000 5.14 160 12:24 03.03.2021
1918 Clouds 19 1015 68 10000 5.14 170 11:47 03.03.2021
1919 Clouds 19 1015 68 10000 5.14 170 11:28 03.03.2021
1920 Clouds 19 1015 68 10000 6.17 170 10:50 03.03.2021
1921 Clouds 19 1015 64 10000 6.17 170 10:30 03.03.2021
1922 Clouds 20 1015 64 10000 5.66 150 09:48 03.03.2021
1923 Clouds 20 1014 56 10000 6.17 150 09:26 03.03.2021
1924 Clouds 20 1014 60 10000 6.17 150 08:41 03.03.2021
1925 Clouds 20 1005 73 10000 2.24 163 08:21 03.03.2021
1926 Clouds 21 1014 60 10000 7.2 170 07:41 03.03.2021
1927 Clouds 21 1015 60 10000 7.2 170 06:51 03.03.2021
1928 Clouds 21 1015 60 10000 7.2 160 05:49 03.03.2021
1929 Clouds 21 1015 60 10000 7.2 170 04:59 03.03.2021
1930 Clouds 21 1015 56 10000 8.23 170 04:35 03.03.2021
1931 Clouds 20 1016 64 10000 9.26 170 02:19 03.03.2021
1932 Clouds 19 1015 68 10000 10.29 170 23:59 02.03.2021
1933 Clouds 19 1015 72 10000 9.77 170 23:31 02.03.2021
1934 Clouds 18 1015 72 10000 10.29 180 22:42 02.03.2021
1935 Clouds 18 1015 72 10000 10.29 180 22:19 02.03.2021
1936 Clouds 18 1014 72 10000 10.29 180 21:41 02.03.2021
1937 Clouds 18 1014 72 10000 9.26 180 21:22 02.03.2021
1938 Clouds 18 1014 72 10000 9.26 180 20:49 02.03.2021
1939 Clouds 18 1014 68 10000 9.77 170 20:23 02.03.2021
1940 Clouds 18 1014 68 10000 8.75 180 19:58 02.03.2021
1941 Clouds 18 1013 72 10000 8.23 170 19:39 02.03.2021
1942 Clouds 18 1013 72 10000 8.23 170 19:21 02.03.2021
1943 Clouds 18 1013 68 10000 7.72 170 18:41 02.03.2021
1944 Clouds 18 1013 68 10000 7.72 170 18:21 02.03.2021
1945 Clouds 18 1014 64 10000 7.72 170 17:50 02.03.2021
1946 Clouds 18 1014 68 10000 7.72 170 17:30 02.03.2021
1947 Clouds 18 1014 68 10000 7.72 170 17:30 02.03.2021
1948 Clouds 18 1014 68 10000 7.72 170 17:30 02.03.2021
1949 Clouds 18 1014 68 10000 7.72 170 17:30 02.03.2021
1950 Clouds 18 1014 68 10000 7.72 170 17:30 02.03.2021
1951 Clouds 18 1014 64 10000 7.2 170 16:56 02.03.2021
1952 Clouds 19 1014 64 10000 6.69 170 16:23 02.03.2021
1953 Clouds 18 1015 76 10000 1.79 137 15:51 02.03.2021
1954 Clouds 18 1015 77 10000 0.45 254 15:25 02.03.2021
1955 Clouds 18 1015 64 10000 5.14 170 14:24 02.03.2021
1956 Clouds 19 1015 68 10000 6.69 170 13:54 02.03.2021
1957 Clouds 19 1015 68 10000 6.69 170 13:36 02.03.2021
1958 Clouds 19 1014 64 10000 6.69 170 13:18 02.03.2021
1959 Clouds 19 1014 64 10000 7.72 170 12:30 02.03.2021
1960 Clouds 20 1014 64 10000 7.72 170 11:54 02.03.2021
1961 Clouds 20 1014 60 10000 6.69 170 11:36 02.03.2021
1962 Clouds 20 1014 60 10000 6.69 160 11:18 02.03.2021
1963 Clouds 20 1013 64 10000 7.2 170 10:33 02.03.2021
1964 Clouds 20 1013 68 10000 7.2 170 09:59 02.03.2021
1965 Clouds 20 1013 68 10000 7.2 170 09:40 02.03.2021
1966 Clouds 20 1012 60 10000 7.72 170 09:19 02.03.2021
1967 Clouds 20 1012 64 10000 7.2 150 08:38 02.03.2021
1968 Clouds 21 1012 60 10000 8.23 160 07:58 02.03.2021
1969 Clouds 21 1012 60 10000 8.23 160 07:27 02.03.2021
1970 Clouds 21 1012 60 10000 8.75 160 06:34 02.03.2021
1971 Clouds 21 1012 60 10000 9.26 160 05:46 02.03.2021
1972 Clouds 22 1012 60 10000 9.26 170 05:27 02.03.2021
1973 Clouds 20 1012 77 10000 7.72 180 01:44 02.03.2021
1974 Clouds 20 1012 77 10000 7.72 180 01:44 02.03.2021
1975 Clouds 20 1012 77 10000 7.72 180 01:44 02.03.2021
1976 Clouds 21 1012 73 10000 8.23 170 01:44 02.03.2021
1977 Clouds 20 1012 77 10000 7.72 180 01:26 02.03.2021
1978 Clouds 22 1011 78 9000 7.2 170 00:28 02.03.2021
1979 Clouds 21 1011 83 5000 4.12 190 23:26 01.03.2021
1980 Clouds 21 1010 73 10000 4.63 160 22:42 01.03.2021
1981 Clouds 20 1010 78 10000 5.66 170 22:21 01.03.2021
1982 Clouds 20 1010 78 10000 4.63 170 21:46 01.03.2021
1983 Clouds 20 1010 78 10000 4.63 170 21:24 01.03.2021
1984 Clouds 20 1009 78 10000 5.66 170 20:48 01.03.2021
1985 Clouds 20 1009 78 10000 5.66 170 20:27 01.03.2021
1986 Clouds 20 1009 78 10000 6.69 160 19:54 01.03.2021
1987 Clouds 21 1008 78 10000 6.17 160 19:33 01.03.2021
1988 Clouds 21 1008 78 10000 6.69 160 18:46 01.03.2021
1989 Clouds 21 1008 78 10000 6.69 160 18:25 01.03.2021
1990 Clouds 21 1008 78 10000 8.23 160 17:56 01.03.2021
1991 Clouds 21 1008 78 10000 9.26 160 17:37 01.03.2021
1992 Clouds 21 1008 83 10000 9.77 170 17:18 01.03.2021
1993 Clouds 21 1008 83 10000 9.77 170 16:43 01.03.2021
1994 Clouds 21 1008 83 10000 9.77 170 16:24 01.03.2021
1995 Clouds 22 1008 83 10000 11.32 180 15:41 01.03.2021
1996 Clouds 22 1008 88 10000 12.35 190 15:20 01.03.2021
1997 Clouds 22 1008 88 10000 12.35 190 14:47 01.03.2021
1998 Clouds 22 1007 88 10000 12.86 190 14:28 01.03.2021
1999 Clear 22 1007 83 10000 11.32 170 13:40 01.03.2021
2000 Clear 23 1007 83 10000 11.32 170 13:22 01.03.2021
2001 Clear 24 1007 83 10000 11.32 180 12:52 01.03.2021
2002 Clear 24 1007 83 10000 11.32 180 12:52 01.03.2021
2003 Clear 25 1006 88 10000 9.77 210 12:34 01.03.2021
2004 Clear 25 1005 83 10000 3.09 220 11:59 01.03.2021
2005 Rain 26 1005 78 10000 1.54 30 11:40 01.03.2021
2006 Clear 26 1004 74 10000 5.14 20 10:44 01.03.2021
2007 Clear 26 1004 74 10000 5.14 20 10:23 01.03.2021
2008 Clear 26 1004 74 10000 7.2 30 09:58 01.03.2021
2009 Clear 27 1004 74 10000 8.75 30 09:40 01.03.2021
2010 Clear 28 1004 69 10000 9.26 30 09:21 01.03.2021
2011 Clear 28 1004 69 10000 9.26 30 08:48 01.03.2021
2012 Clear 28 1004 69 10000 8.23 50 08:18 01.03.2021
2013 Clear 29 1004 65 10000 8.23 40 06:53 01.03.2021
2014 Clear 30 1007 58 10000 7.72 40 04:45 01.03.2021
2015 Clouds 26 1010 61 10000 5.14 330 00:56 01.03.2021
2016 Clouds 23 1010 73 10000 3.6 330 23:36 28.02.2021
2017 Clouds 22 1010 73 10000 2.57 340 22:51 28.02.2021
2018 Clouds 20 1011 89 10000 1.79 331 22:23 28.02.2021
2019 Clouds 20 1011 89 10000 0.89 348 21:54 28.02.2021
2020 Clouds 20 1010 83 10000 2.06 350 21:32 28.02.2021
2021 Clouds 20 1010 83 10000 0.87 350 20:58 28.02.2021
2022 Clouds 20 1010 88 10000 0.87 350 20:37 28.02.2021
2023 Clouds 20 1010 88 10000 0.51 121 20:37 28.02.2021
2024 Clouds 20 1010 83 10000 0.51 121 19:56 28.02.2021
2025 Clouds 20 1009 88 10000 2.57 40 19:37 28.02.2021
2026 Clouds 20 1010 88 10000 2.57 40 19:19 28.02.2021
2027 Clouds 20 1010 88 10000 2 178 18:38 28.02.2021
2028 Clouds 21 1010 88 10000 2.27 182 18:20 28.02.2021
2029 Clouds 21 1010 88 10000 2.26 182 17:47 28.02.2021
2030 Clouds 21 1010 83 10000 2.36 160 17:27 28.02.2021
2031 Clouds 22 1011 83 10000 2.57 110 16:54 28.02.2021
2032 Clouds 22 1011 83 10000 2.57 110 16:36 28.02.2021
2033 Clouds 22 1011 83 10000 2.06 130 15:57 28.02.2021
2034 Clouds 22 1012 83 10000 2.57 120 15:37 28.02.2021
2035 Clouds 22 1012 78 10000 2.57 140 15:18 28.02.2021
2036 Clouds 22 1012 78 10000 2.57 140 14:48 28.02.2021
2037 Clouds 22 1012 78 10000 4.12 110 14:25 28.02.2021
2038 Clouds 22 1012 78 10000 4.12 110 13:52 28.02.2021
2039 Clouds 22 1012 78 10000 4.12 110 13:21 28.02.2021
2040 Clouds 23 1012 78 10000 4.12 110 12:56 28.02.2021
2041 Clouds 23 1003 90 10000 1.34 148 12:38 28.02.2021
2042 Clouds 23 1012 78 10000 4.63 110 12:19 28.02.2021
2043 Clouds 23 1003 90 10000 2.24 148 11:44 28.02.2021
2044 Clouds 23 1003 90 10000 2.24 149 11:25 28.02.2021
2045 Clouds 23 1002 90 10000 1.34 147 10:55 28.02.2021
2046 Clouds 23 1010 73 10000 4.63 100 10:29 28.02.2021
2047 Clouds 23 1010 73 10000 5.14 100 09:54 28.02.2021
2048 Clouds 24 1010 73 10000 5.14 110 09:34 28.02.2021
2049 Clouds 24 1009 69 10000 5.14 110 08:52 28.02.2021
2050 Clouds 24 1009 69 10000 6.17 120 08:32 28.02.2021
2051 Clouds 25 1009 65 10000 6.17 130 07:57 28.02.2021
2052 Clouds 25 1009 69 10000 6.17 130 07:38 28.02.2021
2053 Clouds 25 1009 69 10000 6.17 140 06:55 28.02.2021
2054 Clouds 25 1010 65 10000 5.14 120 05:52 28.02.2021
2055 Clouds 26 1003 78 10000 1.79 160 03:45 28.02.2021
2056 Clouds 25 1013 73 10000 6.17 160 02:19 28.02.2021
2057 Clouds 23 1013 73 10000 5.66 170 00:58 28.02.2021
2058 Clouds 23 1013 83 10000 5.66 180 00:37 28.02.2021
2059 Clouds 22 1012 88 10000 7.2 190 23:48 27.02.2021
2060 Clouds 21 1012 88 10000 6.69 190 23:20 27.02.2021
2061 Clouds 21 1012 88 10000 6.69 180 22:49 27.02.2021
2062 Clouds 21 1011 94 10000 7.72 180 22:23 27.02.2021
2063 Clouds 20 1011 94 10000 4.63 190 21:51 27.02.2021
2064 Clouds 20 1011 94 10000 4.63 190 21:33 27.02.2021
2065 Clouds 20 1011 94 10000 1.44 213 20:54 27.02.2021
2066 Clouds 20 1010 94 10000 4.12 190 20:34 27.02.2021
2067 Clear 20 1010 94 10000 3.09 210 19:58 27.02.2021
2068 Clouds 20 1010 94 9000 3.09 210 19:39 27.02.2021
2069 Clouds 20 1010 94 9000 3.09 210 19:21 27.02.2021
2070 Clear 20 1010 88 10000 1.54 220 18:38 27.02.2021
2071 Clear 20 1010 94 10000 2.06 220 18:18 27.02.2021
2072 Clear 21 1010 94 10000 2.57 220 17:43 27.02.2021
2073 Clear 21 1011 88 10000 2.57 260 17:20 27.02.2021
2074 Clear 21 1011 88 10000 2.57 260 16:50 27.02.2021
2075 Clouds 21 1011 83 10000 2.06 360 16:30 27.02.2021
2076 Clouds 21 1011 88 10000 2.06 350 15:49 27.02.2021
2077 Clouds 21 1011 88 10000 2.06 350 15:31 27.02.2021
2078 Clouds 21 1003 96 10000 1.34 288 14:43 27.02.2021
2079 Clouds 21 1003 98 10000 1.34 295 14:25 27.02.2021
2080 Clouds 21 1003 98 10000 0.45 295 13:49 27.02.2021
2081 Clouds 21 1012 83 10000 3.6 30 13:27 27.02.2021
2082 Clouds 21 1012 83 10000 3.09 10 12:52 27.02.2021
2083 Clear 21 1003 96 10000 0.89 287 12:28 27.02.2021
2084 Clouds 22 1012 83 10000 5.66 30 11:56 27.02.2021
2085 Clouds 22 1011 83 10000 4.63 30 11:38 27.02.2021
2086 Clouds 22 1011 83 10000 5.14 20 11:18 27.02.2021
2087 Clear 21 1003 98 10000 1.34 296 10:42 27.02.2021
2088 Clear 22 1003 98 10000 2.24 296 10:19 27.02.2021
2089 Clouds 22 1011 78 10000 6.69 30 09:44 27.02.2021
2090 Clouds 22 1011 78 10000 6.69 30 09:25 27.02.2021
2091 Clouds 22 1010 69 10000 4.63 50 08:39 27.02.2021
2092 Clouds 23 1010 69 10000 4.63 50 08:20 27.02.2021
2093 Clouds 23 1011 69 10000 5.66 30 07:37 27.02.2021
2094 Clouds 22 1013 83 10000 3.6 30 04:26 27.02.2021
2095 Drizzle 20 1014 88 7000 2.06 220 00:41 27.02.2021
2096 Drizzle 20 1014 88 4000 2.06 180 23:54 26.02.2021
2097 Drizzle 20 1014 88 5000 2.57 240 23:27 26.02.2021
2098 Clouds 20 1014 83 10000 2.06 200 22:46 26.02.2021
2099 Drizzle 20 1014 83 10000 1.61 54 22:26 26.02.2021
2100 Drizzle 20 1013 83 10000 1.61 54 21:43 26.02.2021
2101 Drizzle 20 1013 88 10000 1.54 230 21:24 26.02.2021
2102 Drizzle 20 1013 73 10000 3.09 210 20:44 26.02.2021
2103 Drizzle 20 1013 73 10000 3.09 210 20:21 26.02.2021
2104 Clouds 21 1013 68 10000 1.54 100 19:50 26.02.2021
2105 Clouds 21 1013 68 10000 2.57 90 19:25 26.02.2021
2106 Clouds 21 1013 68 10000 2.57 70 18:42 26.02.2021
2107 Clouds 21 1013 68 10000 3.09 80 18:23 26.02.2021
2108 Clouds 20 1013 73 10000 4.12 80 17:44 26.02.2021
2109 Clouds 20 1013 73 10000 4.12 80 17:26 26.02.2021
2110 Clouds 21 1013 73 10000 4.12 90 16:53 26.02.2021
2111 Clouds 21 1014 68 10000 3.6 90 16:32 26.02.2021
2112 Clouds 21 1014 68 10000 3.6 80 15:58 26.02.2021
2113 Clouds 21 1014 68 10000 4.63 80 15:39 26.02.2021
2114 Clouds 21 1014 68 10000 4.63 80 15:20 26.02.2021
2115 Clouds 21 1015 68 10000 3.6 80 14:47 26.02.2021
2116 Clouds 21 1015 68 10000 3.6 80 14:26 26.02.2021
2117 Clouds 21 1014 68 10000 5.14 110 13:46 26.02.2021
2118 Clouds 21 1014 68 10000 5.14 110 13:25 26.02.2021
2119 Clouds 21 1014 68 10000 6.17 110 12:43 26.02.2021
2120 Clouds 21 1014 68 10000 6.17 110 12:25 26.02.2021
2121 Clouds 22 1013 68 10000 6.17 110 11:38 26.02.2021
2122 Clouds 22 1013 68 10000 7.2 120 10:54 26.02.2021
2123 Clouds 22 1012 68 10000 7.2 110 10:21 26.02.2021
2124 Clouds 22 1012 73 10000 6.69 120 09:47 26.02.2021
2125 Clouds 22 1011 68 10000 7.72 120 09:27 26.02.2021
2126 Clouds 22 1009 74 10000 2.68 63 08:32 26.02.2021
2127 Clouds 23 1010 69 10000 7.72 130 07:55 26.02.2021
2128 Clouds 24 1009 53 10000 6.17 120 07:20 26.02.2021
2129 Clouds 25 1009 61 10000 5.66 130 05:40 26.02.2021
2130 Clouds 25 1009 61 10000 6.17 130 04:52 26.02.2021
2131 Clear 27 1001 73 10000 2.24 156 02:36 26.02.2021
2132 Clouds 23 1010 83 10000 5.14 170 00:25 26.02.2021
2133 Clouds 22 1010 83 10000 4.12 190 23:31 25.02.2021
2134 Clouds 21 1010 88 10000 3.09 230 22:51 25.02.2021
2135 Clouds 19 1010 83 10000 3.6 240 22:33 25.02.2021
2136 Clouds 19 1009 83 10000 3.6 260 21:50 25.02.2021
2137 Clouds 18 1009 88 10000 3.6 280 21:31 25.02.2021
2138 Clouds 18 1008 88 10000 2.06 220 20:54 25.02.2021
2139 Clear 18 1008 88 10000 4.63 300 20:36 25.02.2021
2140 Clouds 18 1007 88 10000 4.63 310 20:18 25.02.2021
2141 Clouds 18 1007 88 10000 4.63 310 20:18 25.02.2021
2142 Clouds 18 1007 88 10000 4.63 310 19:46 25.02.2021
2143 Clear 18 1007 88 10000 3.6 290 19:19 25.02.2021
2144 Clear 19 1007 88 10000 4.12 300 18:39 25.02.2021
2145 Clear 18 1007 88 10000 2.57 310 18:18 25.02.2021
2146 Clear 18 1007 88 10000 3.09 310 17:33 25.02.2021
2147 Clear 19 1007 94 10000 3.6 320 16:56 25.02.2021
2148 Clear 19 1007 88 10000 3.6 320 16:33 25.02.2021
2149 Clear 19 1007 88 10000 3.6 320 15:49 25.02.2021
2150 Clear 19 1007 88 10000 3.6 320 15:28 25.02.2021
2151 Clear 20 1008 88 10000 3.6 320 14:37 25.02.2021
2152 Clear 20 1008 88 10000 3.6 360 14:18 25.02.2021
2153 Clear 20 1008 88 10000 3.09 320 13:41 25.02.2021
2154 Clear 20 1008 88 10000 3.09 320 13:20 25.02.2021
2155 Clear 21 1009 83 10000 2.06 350 12:38 25.02.2021
2156 Clear 21 1008 88 10000 3.6 330 12:20 25.02.2021
2157 Clear 21 1008 88 10000 3.09 260 11:43 25.02.2021
2158 Clouds 21 1008 83 10000 3.6 310 10:53 25.02.2021
2159 Clear 21 1008 83 10000 3.6 330 10:35 25.02.2021
2160 Clouds 22 1008 83 10000 4.12 340 09:48 25.02.2021
2161 Clouds 22 1008 83 10000 4.12 340 09:28 25.02.2021
2162 Clouds 22 1008 83 10000 5.92 360 08:46 25.02.2021
2163 Clouds 22 1009 78 10000 2.57 180 08:21 25.02.2021
2164 Clouds 20 1009 88 10000 4.63 240 07:42 25.02.2021
2165 Clouds 20 1009 88 10000 4.63 240 07:18 25.02.2021
2166 Clouds 22 1009 88 10000 3.6 130 05:55 25.02.2021
2167 Clouds 22 1011 88 7000 3.09 260 01:52 25.02.2021
2168 Clouds 22 1012 88 10000 2.57 270 01:27 25.02.2021
2169 Clouds 21 1012 88 10000 2.06 300 00:33 25.02.2021
2170 Clouds 20 1011 88 10000 3.6 280 23:40 24.02.2021
2171 Clouds 19 1011 94 10000 2.57 300 22:58 24.02.2021
2172 Clouds 18 1002 92 10000 1.34 280 22:30 24.02.2021
2173 Clouds 18 1011 88 10000 1.54 350 21:56 24.02.2021
2174 Clouds 18 1011 88 10000 2.57 340 21:34 24.02.2021
2175 Clouds 18 1010 94 10000 2.57 340 20:51 24.02.2021
2176 Clouds 18 1011 94 10000 3.6 340 20:29 24.02.2021
2177 Clouds 18 1011 94 10000 3.09 10 19:51 24.02.2021
2178 Clouds 18 1011 94 10000 3.09 350 19:24 24.02.2021
2179 Clouds 18 1011 94 10000 3.09 350 18:54 24.02.2021
2180 Clouds 18 1011 94 10000 2.06 350 18:33 24.02.2021
2181 Clouds 18 1012 94 10000 2.06 260 17:45 24.02.2021
2182 Clouds 18 1012 94 10000 2.57 260 17:25 24.02.2021
2183 Clouds 19 1012 94 10000 2.06 250 16:49 24.02.2021
2184 Clouds 19 1012 88 10000 2.06 270 16:22 24.02.2021
2185 Clouds 19 1013 88 10000 2.57 190 15:56 24.02.2021
2186 Clouds 19 1013 88 10000 2.06 250 15:36 24.02.2021
2187 Clouds 19 1014 88 10000 2.06 260 14:52 24.02.2021
2188 Clouds 19 1014 88 10000 4.04 29 14:32 24.02.2021
2189 Clouds 20 1014 88 10000 4.04 29 13:56 24.02.2021
2190 Clouds 20 1014 88 10000 1.54 280 13:37 24.02.2021
2191 Clouds 20 1014 88 10000 1.54 280 13:19 24.02.2021
2192 Clouds 20 1015 88 10000 2.06 200 12:42 24.02.2021
2193 Clouds 20 1015 88 10000 2.06 170 12:23 24.02.2021
2194 Clouds 20 1015 88 10000 3.09 160 11:42 24.02.2021
2195 Clouds 20 1015 88 10000 4.63 180 10:48 24.02.2021
2196 Clouds 20 1015 88 10000 4.63 180 10:26 24.02.2021
2197 Clouds 20 1015 88 10000 6.17 180 09:41 24.02.2021
2198 Clouds 21 1015 83 10000 5.66 170 09:18 24.02.2021
2199 Clouds 21 1015 83 10000 6.69 180 08:33 24.02.2021
2200 Clouds 21 1015 83 10000 7.72 180 07:55 24.02.2021
2201 Clouds 21 1015 83 10000 7.2 180 07:20 24.02.2021
2202 Clouds 21 1015 83 10000 6.69 180 06:20 24.02.2021
2203 Clouds 20 1017 88 10000 7.72 180 02:47 24.02.2021
2204 Clouds 19 1018 88 10000 7.72 190 00:20 24.02.2021
2205 Clouds 18 1018 94 10000 7.72 190 23:20 23.02.2021
2206 Clouds 17 1017 94 6000 8.75 200 22:37 23.02.2021
2207 Clouds 17 1017 94 6000 8.75 200 22:19 23.02.2021
2208 Clouds 17 1017 100 6000 4.12 260 21:41 23.02.2021
2209 Clouds 17 1017 100 6000 4.63 250 21:22 23.02.2021
2210 Clouds 17 1016 94 2500 3.6 260 20:47 23.02.2021
2211 Clouds 17 1016 94 2500 3.6 260 20:47 23.02.2021
2212 Clouds 16 1016 100 6000 7.72 230 20:29 23.02.2021
2213 Clouds 17 1016 94 10000 6.69 220 19:47 23.02.2021
2214 Clouds 17 1016 94 10000 6.69 220 19:27 23.02.2021
2215 Clouds 17 1016 94 6000 6.17 230 18:53 23.02.2021
2216 Clouds 17 1016 88 10000 5.66 130 18:31 23.02.2021
2217 Clouds 17 1016 88 10000 6.17 180 17:54 23.02.2021
2218 Clouds 17 1016 88 10000 7.2 170 17:30 23.02.2021
2219 Clouds 17 1016 94 10000 7.72 190 16:48 23.02.2021
2220 Clouds 17 1016 88 10000 7.72 190 16:25 23.02.2021
2221 Clouds 17 1016 88 10000 8.75 180 15:57 23.02.2021
2222 Clouds 17 1017 94 8000 7.2 170 15:38 23.02.2021
2223 Clouds 17 1017 94 8000 7.2 170 15:18 23.02.2021
2224 Clouds 17 1017 88 10000 7.2 190 14:42 23.02.2021
2225 Clouds 17 1017 94 6000 8.75 180 14:24 23.02.2021
2226 Clouds 17 1017 94 6000 8.75 180 13:43 23.02.2021
2227 Clouds 18 1017 94 10000 5.66 210 13:23 23.02.2021
2228 Clouds 18 1017 94 4000 6.17 200 12:51 23.02.2021
2229 Clouds 18 1017 88 4000 9.26 170 12:20 23.02.2021
2230 Clouds 19 1016 77 8000 10.29 170 11:47 23.02.2021
2231 Clouds 19 1016 73 10000 11.32 170 11:21 23.02.2021
2232 Clouds 19 1015 73 10000 9.26 190 10:48 23.02.2021
2233 Clouds 19 1015 73 10000 9.26 190 10:30 23.02.2021
2234 Clouds 19 1014 73 10000 11.83 170 09:43 23.02.2021
2235 Clouds 19 1014 73 10000 11.32 170 09:24 23.02.2021
2236 Clouds 19 1014 73 10000 10.8 180 08:49 23.02.2021
2237 Clouds 19 1014 73 10000 10.8 180 08:22 23.02.2021
2238 Clouds 20 1014 68 10000 11.32 170 07:49 23.02.2021
2239 Clouds 20 1014 64 10000 10.8 180 05:32 23.02.2021
2240 Clouds 19 1014 64 10000 10.29 180 04:46 23.02.2021
2241 Clouds 20 1014 68 10000 9.77 170 02:34 23.02.2021
2242 Clouds 20 1013 77 10000 8.75 170 00:20 23.02.2021
2243 Clouds 20 1012 68 10000 10.29 170 23:52 22.02.2021
2244 Clouds 20 1012 73 10000 9.77 170 23:21 22.02.2021
2245 Clouds 20 1011 68 10000 9.77 160 22:41 22.02.2021
2246 Clouds 20 1011 68 10000 9.77 160 22:20 22.02.2021
2247 Clouds 20 1011 73 10000 10.29 170 21:45 22.02.2021
2248 Clouds 20 1010 68 10000 8.75 180 21:23 22.02.2021
2249 Clouds 20 1010 68 10000 8.75 180 20:52 22.02.2021
2250 Clouds 20 1010 73 10000 8.23 190 20:29 22.02.2021
2251 Clouds 20 1010 73 10000 8.23 200 19:53 22.02.2021
2252 Clouds 20 1009 73 10000 7.72 190 19:35 22.02.2021
2253 Clouds 20 1009 73 10000 7.72 200 18:57 22.02.2021
2254 Clouds 20 1009 68 10000 9.26 190 18:39 22.02.2021
2255 Clouds 20 1009 68 10000 9.26 190 18:20 22.02.2021
2256 Clouds 20 1009 68 10000 9.77 180 17:26 22.02.2021
2257 Clouds 21 1009 73 10000 10.29 170 16:55 22.02.2021
2258 Clouds 20 1007 80 10000 7.54 175 16:35 22.02.2021
2259 Clouds 20 1009 73 10000 10.29 180 15:52 22.02.2021
2260 Clouds 20 1009 73 10000 9.77 180 15:28 22.02.2021
2261 Clouds 20 1009 78 10000 11.83 180 14:48 22.02.2021
2262 Clouds 20 1009 83 10000 11.32 180 14:29 22.02.2021
2263 Clouds 20 1009 83 10000 11.32 180 13:47 22.02.2021
2264 Drizzle 20 1009 83 10000 12.86 180 12:59 22.02.2021
2265 Drizzle 20 1009 83 10000 12.86 180 12:40 22.02.2021
2266 Drizzle 20 1009 94 10000 11.83 190 12:20 22.02.2021
2267 Clouds 20 1009 88 10000 11.83 190 11:44 22.02.2021
2268 Clouds 20 1008 88 10000 12.86 180 11:25 22.02.2021
2269 Clouds 21 1008 88 10000 12.86 190 10:50 22.02.2021
2270 Clouds 21 1007 94 10000 11.83 180 10:27 22.02.2021
2271 Clouds 22 1007 88 10000 10.8 180 09:49 22.02.2021
2272 Clouds 22 1006 88 10000 10.8 190 09:29 22.02.2021
2273 Clouds 23 1006 88 10000 10.8 180 08:54 22.02.2021
2274 Clouds 23 1005 88 10000 9.77 190 08:31 22.02.2021
2275 Clouds 24 1003 83 10000 8.18 168 07:58 22.02.2021
2276 Clouds 24 1005 83 10000 9.26 190 07:26 22.02.2021
2277 Clouds 25 1005 78 10000 10.29 170 06:46 22.02.2021
2278 Clouds 26 1005 78 10000 9.26 170 05:45 22.02.2021
2279 Clouds 28 1006 73 10000 8.23 160 03:29 22.02.2021
2280 Clouds 27 1006 78 10000 7.72 160 02:51 22.02.2021
2281 Clouds 26 1006 69 10000 3.6 200 00:46 22.02.2021
2282 Clear 25 1006 73 10000 3.09 190 00:23 22.02.2021
2283 Clear 24 1006 73 10000 2.57 230 23:35 21.02.2021
2284 Clear 22 1006 78 10000 2.06 220 22:55 21.02.2021
2285 Clouds 21 1006 83 10000 2.06 260 22:24 21.02.2021
2286 Clouds 21 1006 83 10000 2.06 310 21:49 21.02.2021
2287 Clouds 20 1006 88 10000 1.54 290 21:30 21.02.2021
2288 Clear 20 1005 83 10000 2.57 270 20:49 21.02.2021
2289 Clear 20 1005 83 10000 2.57 270 20:20 21.02.2021
2290 Clear 20 1005 88 10000 3.09 240 19:59 21.02.2021
2291 Clear 20 1005 88 10000 3.09 250 19:39 21.02.2021
2292 Clear 20 1005 88 10000 3.09 250 19:20 21.02.2021
2293 Clear 21 1005 88 10000 3.09 250 18:26 21.02.2021
2294 Clouds 21 1006 88 10000 3.09 230 17:47 21.02.2021
2295 Clear 21 1006 88 10000 3.09 210 17:21 21.02.2021
2296 Clouds 21 1007 88 10000 3.6 230 16:50 21.02.2021
2297 Clouds 21 1007 88 10000 3.6 230 16:29 21.02.2021
2298 Clouds 21 1007 88 10000 3.09 210 15:26 21.02.2021
2299 Clouds 22 1007 88 10000 2.57 160 14:59 21.02.2021
2300 Clouds 22 1008 83 10000 2.57 200 14:39 21.02.2021
2301 Clouds 22 1008 88 10000 2.57 210 13:59 21.02.2021
2302 Clouds 22 1008 88 10000 2.57 210 13:30 21.02.2021
2303 Clouds 22 1008 83 10000 1.03 270 12:56 21.02.2021
2304 Clouds 22 1009 88 10000 0.55 121 12:27 21.02.2021
2305 Clouds 23 1009 83 10000 2.57 150 11:43 21.02.2021
2306 Clouds 23 1009 78 10000 4.12 110 10:52 21.02.2021
2307 Clouds 23 1009 78 10000 4.12 110 10:22 21.02.2021
2308 Clouds 24 1008 73 10000 4.63 130 09:52 21.02.2021
2309 Clouds 24 1008 73 10000 4.63 130 09:26 21.02.2021
2310 Clouds 24 1008 65 10000 4.63 130 08:43 21.02.2021
2311 Clouds 25 1008 69 10000 4.63 110 08:19 21.02.2021
2312 Clouds 26 1008 69 10000 5.66 120 07:31 21.02.2021
2313 Clouds 26 1008 69 10000 6.17 150 06:47 21.02.2021
2314 Clouds 26 1010 73 10000 5.14 170 02:48 21.02.2021
2315 Clouds 26 1010 73 10000 5.14 170 02:29 21.02.2021
2316 Clouds 25 1011 78 10000 4.12 170 00:42 21.02.2021
2317 Clouds 25 1011 78 10000 4.12 170 00:18 21.02.2021
2318 Drizzle 23 1011 78 10000 4.12 160 23:18 20.02.2021
2319 Clouds 22 1011 83 10000 3.09 200 22:41 20.02.2021
2320 Clouds 21 1011 83 10000 3.09 200 22:23 20.02.2021
2321 Clouds 21 1011 88 10000 3.6 220 21:44 20.02.2021
2322 Clouds 21 1011 88 10000 3.6 220 21:24 20.02.2021
2323 Clouds 21 1011 88 10000 2.57 210 20:46 20.02.2021
2324 Clouds 21 1011 88 10000 2.57 210 20:22 20.02.2021
2325 Clouds 21 1010 88 10000 3.09 220 19:52 20.02.2021
2326 Clouds 21 1010 94 10000 2.57 210 19:29 20.02.2021
2327 Clouds 21 1011 94 10000 3.09 220 18:41 20.02.2021
2328 Clouds 21 1011 94 10000 3.09 220 18:21 20.02.2021
2329 Clouds 21 1011 88 10000 2.06 40 17:39 20.02.2021
2330 Clouds 21 1012 88 10000 2.06 40 16:57 20.02.2021
2331 Clouds 22 1012 88 10000 2.06 40 16:32 20.02.2021
2332 Clouds 22 1012 88 10000 2.06 40 16:32 20.02.2021
2333 Clouds 22 1012 83 10000 1.49 209 15:55 20.02.2021
2334 Clear 21 1012 83 10000 1.48 209 15:36 20.02.2021
2335 Clouds 22 1013 83 10000 0.54 210 14:48 20.02.2021
2336 Clouds 22 1013 83 10000 0.05 159 14:24 20.02.2021
2337 Clouds 22 1013 83 10000 0.05 159 13:49 20.02.2021
2338 Clouds 22 1013 78 10000 0.49 52 13:27 20.02.2021
2339 Clouds 22 1013 78 10000 0.05 38 13:27 20.02.2021
2340 Clouds 23 1013 78 10000 2.57 40 12:51 20.02.2021
2341 Clouds 22 1013 78 10000 3.6 50 12:32 20.02.2021
2342 Clouds 23 1013 73 10000 4.12 50 11:48 20.02.2021
2343 Clouds 23 1013 73 10000 4.12 50 11:30 20.02.2021
2344 Clouds 23 1013 78 10000 5.14 50 10:50 20.02.2021
2345 Clear 24 1004 91 10000 0.89 112 09:59 20.02.2021
2346 Clouds 24 1012 78 10000 6.69 50 09:40 20.02.2021
2347 Clear 25 1004 90 10000 0.89 54 08:49 20.02.2021
2348 Clouds 25 1012 73 10000 7.2 50 08:19 20.02.2021
2349 Clouds 27 1015 57 10000 3.6 80 03:41 20.02.2021
2350 Clouds 26 1016 65 10000 4.63 80 02:31 20.02.2021
2351 Clouds 25 1016 69 10000 3.6 40 01:51 20.02.2021
2352 Clouds 25 1016 73 10000 2.57 150 00:48 20.02.2021
2353 Clouds 24 1016 73 10000 2.57 150 00:24 20.02.2021
2354 Clouds 22 1016 83 10000 2.06 200 23:24 19.02.2021
2355 Clouds 22 1016 88 10000 2.06 230 22:42 19.02.2021
2356 Clouds 21 1016 88 10000 1.93 231 22:19 19.02.2021
2357 Clouds 20 1016 88 10000 1.93 231 21:39 19.02.2021
2358 Clouds 20 1016 88 10000 2.04 234 21:21 19.02.2021
2359 Clouds 20 1015 94 10000 1.03 180 20:40 19.02.2021
2360 Clouds 20 1015 94 10000 1.03 180 20:22 19.02.2021
2361 Clouds 20 1016 94 10000 0.51 250 19:44 19.02.2021
2362 Clouds 20 1016 94 10000 0.51 250 19:20 19.02.2021
2363 Rain 20 1015 94 10000 1.43 249 18:46 19.02.2021
2364 Clouds 20 1015 94 10000 0.92 270 18:26 19.02.2021
2365 Clouds 20 1015 88 10000 2.06 300 17:35 19.02.2021
2366 Clouds 20 1016 88 10000 2.06 270 16:41 19.02.2021
2367 Clouds 20 1016 88 10000 2.06 270 16:21 19.02.2021
2368 Clouds 20 1016 88 10000 2.06 10 15:53 19.02.2021
2369 Clouds 21 1016 83 10000 0.51 10 15:27 19.02.2021
2370 Clouds 21 1017 78 10000 2.57 360 14:48 19.02.2021
2371 Clouds 22 1017 78 10000 2.57 360 14:27 19.02.2021
2372 Clouds 22 1018 83 10000 1.54 10 13:54 19.02.2021
2373 Clouds 22 1018 78 10000 3.09 10 13:35 19.02.2021
2374 Clouds 22 1018 78 10000 3.6 30 12:52 19.02.2021
2375 Clouds 22 1018 83 10000 4.12 50 12:25 19.02.2021
2376 Clouds 22 1018 83 10000 3.6 50 11:54 19.02.2021
2377 Clouds 22 1018 83 10000 3.6 80 11:26 19.02.2021
2378 Clouds 23 1018 83 10000 3.6 80 10:55 19.02.2021
2379 Clouds 23 1017 78 10000 4.63 80 10:32 19.02.2021
2380 Clouds 24 1017 78 10000 4.63 70 09:52 19.02.2021
2381 Clouds 24 1017 78 10000 5.14 90 09:27 19.02.2021
2382 Clouds 24 1017 73 10000 5.66 80 08:55 19.02.2021
2383 Clouds 25 1017 69 10000 5.14 90 08:28 19.02.2021
2384 Clouds 25 1017 69 10000 4.63 100 07:54 19.02.2021
2385 Clouds 25 1017 65 10000 4.63 110 07:36 19.02.2021
2386 Clouds 25 1017 69 10000 5.14 70 06:58 19.02.2021
2387 Clouds 25 1017 65 10000 5.14 80 06:31 19.02.2021
2388 Clouds 26 1019 61 10000 5.66 100 04:42 19.02.2021
2389 Clouds 25 1011 83 10000 2.68 145 02:31 19.02.2021
2390 Clouds 25 1021 65 10000 7.72 70 01:26 19.02.2021
2391 Clouds 24 1012 86 6653 2.24 151 00:27 19.02.2021
2392 Clouds 24 1013 87 6705 2.68 135 23:45 18.02.2021
2393 Clouds 23 1021 78 10000 8.23 70 23:27 18.02.2021
2394 Clouds 23 1021 83 10000 7.2 70 22:37 18.02.2021
2395 Clouds 22 1021 78 10000 5.66 80 22:18 18.02.2021
2396 Clouds 21 1021 88 10000 6.69 70 21:40 18.02.2021
2397 Clouds 21 1021 83 10000 7.2 60 21:21 18.02.2021
2398 Clouds 21 1021 83 10000 6.17 80 20:39 18.02.2021
2399 Clouds 21 1020 83 10000 6.69 80 20:21 18.02.2021
2400 Clouds 21 1021 83 10000 6.17 80 19:43 18.02.2021
2401 Clouds 21 1021 83 10000 6.17 80 19:20 18.02.2021
2402 Clouds 21 1021 83 10000 6.17 80 18:50 18.02.2021
2403 Clouds 21 1021 83 10000 6.17 80 18:26 18.02.2021
2404 Clouds 21 1021 83 10000 6.69 70 17:49 18.02.2021
2405 Clouds 21 1021 88 10000 5.66 60 17:24 18.02.2021
2406 Clouds 21 1021 94 10000 7.2 90 16:47 18.02.2021
2407 Clouds 21 1021 94 10000 7.2 90 16:29 18.02.2021
2408 Clouds 21 1022 83 6000 6.17 90 15:43 18.02.2021
2409 Clear 20 1013 99 10000 2.24 130 15:24 18.02.2021
2410 Clear 20 1013 99 10000 3.13 115 14:55 18.02.2021
2411 Clear 20 1023 88 10000 2.24 71 14:34 18.02.2021
2412 Clouds 21 1023 83 10000 6.69 80 13:50 18.02.2021
2413 Clouds 20 1023 87 10000 2.24 113 13:22 18.02.2021
2414 Clouds 20 1023 83 10000 4.12 140 12:56 18.02.2021
2415 Clouds 21 1023 83 10000 5.66 100 12:36 18.02.2021
2416 Clouds 21 1023 78 10000 5.66 100 11:48 18.02.2021
2417 Clouds 21 1023 78 10000 4.12 100 11:28 18.02.2021
2418 Clouds 21 1023 78 10000 4.12 90 10:58 18.02.2021
2419 Clouds 22 1023 73 10000 4.63 80 10:40 18.02.2021
2420 Clouds 22 1023 78 10000 5.14 80 10:20 18.02.2021
2421 Clouds 22 1023 83 10000 5.14 170 09:39 18.02.2021
2422 Clouds 23 1023 83 10000 5.14 160 09:19 18.02.2021
2423 Clouds 23 1023 83 10000 5.66 160 08:31 18.02.2021
2424 Clouds 22 1023 83 10000 7.2 150 07:58 18.02.2021
2425 Clouds 23 1023 83 10000 5.14 160 07:30 18.02.2021
2426 Clouds 24 1023 64 10000 4.12 150 06:29 18.02.2021
2427 Clouds 23 1025 57 10000 5.66 110 01:20 18.02.2021
2428 Clouds 23 1024 46 10000 6.69 90 23:48 17.02.2021
2429 Clouds 23 1024 46 10000 6.69 90 23:20 17.02.2021
2430 Clouds 22 1024 60 10000 5.66 90 22:46 17.02.2021
2431 Rain 21 1024 60 10000 4.63 90 22:22 17.02.2021
2432 Clouds 21 1024 68 10000 4.12 110 21:48 17.02.2021
2433 Clouds 20 1024 68 10000 4.12 110 21:21 17.02.2021
2434 Clouds 20 1023 64 10000 5.66 90 20:45 17.02.2021
2435 Rain 20 1023 64 10000 5.66 90 20:25 17.02.2021
2436 Clear 20 1023 64 10000 5.66 100 19:46 17.02.2021
2437 Rain 19 1023 64 10000 5.66 100 19:27 17.02.2021
2438 Clear 20 1023 60 10000 4.63 100 18:41 17.02.2021
2439 Clear 20 1023 60 10000 4.63 100 18:22 17.02.2021
2440 Clear 20 1023 68 10000 4.63 110 17:40 17.02.2021
2441 Clear 20 1023 73 10000 7.2 110 17:19 17.02.2021
2442 Clouds 20 1023 83 10000 5.14 130 16:45 17.02.2021
2443 Rain 20 1024 77 10000 3.6 90 16:24 17.02.2021
2444 Clouds 20 1024 77 10000 3.6 90 15:44 17.02.2021
2445 Rain 20 1024 73 10000 4.63 130 15:25 17.02.2021
2446 Clouds 21 1024 73 10000 6.17 140 14:46 17.02.2021
2447 Clouds 21 1024 73 10000 6.17 140 14:28 17.02.2021
2448 Clouds 21 1024 64 10000 6.17 100 13:47 17.02.2021
2449 Clouds 21 1024 64 10000 6.17 100 13:29 17.02.2021
2450 Clouds 21 1024 64 10000 6.17 100 13:29 17.02.2021
2451 Clouds 21 1024 68 10000 3.09 90 12:47 17.02.2021
2452 Clouds 21 1024 68 10000 7.2 100 12:24 17.02.2021
2453 Clouds 21 1024 73 10000 7.72 100 11:44 17.02.2021
2454 Clouds 21 1024 73 10000 7.72 100 11:22 17.02.2021
2455 Clouds 21 1024 78 10000 6.17 100 10:49 17.02.2021
2456 Clouds 21 1024 78 10000 5.66 110 10:31 17.02.2021
2457 Clouds 21 1024 78 9000 3.09 140 09:52 17.02.2021
2458 Clouds 22 1023 77 9000 8.23 110 09:29 17.02.2021
2459 Clouds 22 1023 50 10000 6.17 130 08:45 17.02.2021
2460 Clouds 22 1023 50 10000 6.17 130 08:23 17.02.2021
2461 Clouds 23 1023 60 10000 5.66 110 07:34 17.02.2021
2462 Clouds 23 1023 53 10000 8.23 110 06:36 17.02.2021
2463 Rain 23 1024 57 10000 6.69 130 03:47 17.02.2021
2464 Clouds 22 1024 78 10000 4.63 200 02:30 17.02.2021
2465 Clouds 22 1024 83 10000 8.23 170 01:34 17.02.2021
2466 Clouds 22 1024 68 10000 7.72 160 00:25 17.02.2021
2467 Rain 21 1023 73 10000 5.66 160 23:39 16.02.2021
2468 Clouds 20 1023 83 10000 4.63 150 22:46 16.02.2021
2469 Clouds 19 1023 83 10000 5.14 160 22:26 16.02.2021
2470 Rain 19 1023 83 10000 8.23 160 21:59 16.02.2021
2471 Clouds 19 1022 83 10000 5.14 190 21:39 16.02.2021
2472 Clouds 19 1022 83 10000 5.14 190 21:39 16.02.2021
2473 Rain 19 1022 83 10000 5.14 190 21:39 16.02.2021
2474 Rain 19 1022 83 10000 5.14 190 21:21 16.02.2021
2475 Clouds 19 1022 82 10000 6.17 160 20:50 16.02.2021
2476 Clouds 19 1022 82 10000 6.17 160 20:24 16.02.2021
2477 Clouds 19 1022 88 10000 7.2 180 19:49 16.02.2021
2478 Rain 19 1021 88 10000 7.2 170 19:29 16.02.2021
2479 Rain 19 1022 83 6000 6.17 150 18:53 16.02.2021
2480 Rain 19 1021 83 9000 6.69 190 18:27 16.02.2021
2481 Clouds 19 1021 78 10000 7.72 160 17:58 16.02.2021
2482 Clouds 20 1021 78 10000 6.69 150 17:38 16.02.2021
2483 Clouds 20 1021 73 10000 5.66 140 17:20 16.02.2021
2484 Clouds 20 1022 73 10000 5.14 110 16:44 16.02.2021
2485 Clouds 20 1022 73 10000 5.14 110 16:21 16.02.2021
2486 Clouds 20 1022 78 10000 5.66 110 15:43 16.02.2021
2487 Clouds 20 1022 78 10000 5.66 110 15:24 16.02.2021
2488 Clouds 20 1022 83 10000 6.17 100 14:44 16.02.2021
2489 Clouds 20 1022 83 10000 6.17 100 14:25 16.02.2021
2490 Rain 20 1022 88 10000 5.66 100 13:48 16.02.2021
2491 Clouds 20 1022 88 10000 5.66 100 13:24 16.02.2021
2492 Clouds 20 1022 94 4000 7.2 150 12:43 16.02.2021
2493 Clouds 20 1022 88 10000 4.63 130 12:20 16.02.2021
2494 Clouds 20 1022 94 9000 2.57 120 11:44 16.02.2021
2495 Clouds 20 1022 94 6000 6.17 140 11:22 16.02.2021
2496 Clouds 20 1022 94 4000 4.63 160 10:50 16.02.2021
2497 Clouds 20 1022 94 4000 4.63 160 10:31 16.02.2021
2498 Clouds 21 1022 88 6000 4.63 140 09:56 16.02.2021
2499 Clouds 21 1022 94 8000 3.6 180 09:36 16.02.2021
2500 Rain 21 1022 94 4000 2.57 150 09:18 16.02.2021
2501 Rain 22 1012 88 10000 0.45 161 08:39 16.02.2021
2502 Clouds 23 1012 88 10000 0.89 153 08:18 16.02.2021
2503 Rain 23 1021 88 10000 7.72 150 07:20 16.02.2021
2504 Clouds 25 1022 61 10000 6.17 140 04:33 16.02.2021
2505 Clouds 23 1023 76 10000 5.36 113 00:45 16.02.2021
2506 Clouds 22 1021 78 10000 5.66 110 23:31 15.02.2021
2507 Clouds 21 1021 83 10000 5.66 120 22:59 15.02.2021
2508 Clouds 21 1020 94 10000 3.09 150 22:41 15.02.2021
2509 Clouds 20 1020 94 10000 3.09 180 21:59 15.02.2021
2510 Clouds 20 1020 94 10000 4.12 170 21:38 15.02.2021
2511 Clouds 19 1019 100 10000 4.63 180 21:19 15.02.2021
2512 Clouds 19 1019 100 10000 6.69 180 20:45 15.02.2021
2513 Clouds 19 1019 100 10000 6.69 180 20:24 15.02.2021
2514 Clouds 19 1019 94 10000 6.69 190 19:44 15.02.2021
2515 Clouds 19 1019 94 10000 7.2 190 19:22 15.02.2021
2516 Clouds 19 1019 94 4000 6.17 190 18:44 15.02.2021
2517 Clouds 19 1019 94 8000 6.17 190 18:26 15.02.2021
2518 Clouds 19 1019 94 10000 6.17 190 17:42 15.02.2021
2519 Clouds 19 1019 94 10000 6.69 200 17:22 15.02.2021
2520 Clouds 19 1019 94 10000 7.2 190 16:55 15.02.2021
2521 Clouds 19 1019 88 10000 7.2 190 16:27 15.02.2021
2522 Clouds 19 1020 88 10000 8.23 200 15:50 15.02.2021
2523 Clouds 19 1020 88 10000 8.23 200 15:22 15.02.2021
2524 Clouds 19 1020 94 10000 8.75 200 14:54 15.02.2021
2525 Clouds 19 1020 94 10000 9.26 190 14:36 15.02.2021
2526 Clouds 19 1020 94 10000 9.77 180 14:18 15.02.2021
2527 Clouds 19 1020 94 10000 9.77 180 13:44 15.02.2021
2528 Clouds 19 1020 94 9000 11.83 180 13:18 15.02.2021
2529 Clouds 19 1020 94 9000 11.83 180 12:43 15.02.2021
2530 Clouds 19 1020 94 5000 12.35 180 12:19 15.02.2021
2531 Clouds 19 1020 100 4000 11.83 180 11:42 15.02.2021
2532 Clouds 19 1020 100 4000 11.83 180 11:19 15.02.2021
2533 Clouds 19 1020 88 6000 11.83 180 10:46 15.02.2021
2534 Clouds 19 1019 88 6000 11.83 180 10:23 15.02.2021
2535 Clouds 19 1019 88 10000 13.89 180 09:54 15.02.2021
2536 Clouds 20 1019 88 10000 13.89 180 09:33 15.02.2021
2537 Clouds 19 1019 88 10000 13.89 180 09:33 15.02.2021
2538 Clouds 20 1019 73 10000 15.43 180 08:44 15.02.2021
2539 Clouds 21 1018 73 10000 14.4 180 07:39 15.02.2021
2540 Clouds 21 1018 73 10000 14.4 180 06:53 15.02.2021
2541 Clouds 21 1018 73 10000 14.4 180 06:34 15.02.2021
2542 Clouds 21 1019 64 10000 11.83 180 02:29 15.02.2021
2543 Clouds 21 1019 64 10000 10.8 180 00:41 15.02.2021
2544 Clouds 20 1018 64 10000 10.8 180 23:33 14.02.2021
2545 Clouds 20 1018 64 10000 9.77 180 22:55 14.02.2021
2546 Rain 20 1018 64 10000 11.32 170 22:36 14.02.2021
2547 Clouds 20 1018 64 10000 11.32 170 22:18 14.02.2021
2548 Clouds 20 1017 60 10000 11.32 170 21:43 14.02.2021
2549 Rain 19 1009 77 10000 2.24 165 21:23 14.02.2021
2550 Rain 19 1009 77 10000 2.24 165 21:23 14.02.2021
2551 Clouds 19 1016 73 10000 10.29 170 20:42 14.02.2021
2552 Clouds 19 1016 73 10000 10.29 170 20:22 14.02.2021
2553 Rain 19 1016 73 10000 11.32 170 19:40 14.02.2021
2554 Clouds 19 1007 78 10000 2.24 156 18:51 14.02.2021
2555 Clouds 19 1016 68 10000 10.8 170 18:29 14.02.2021
2556 Rain 19 1007 79 10000 2.24 176 17:56 14.02.2021
2557 Clouds 19 1007 79 10000 0.89 158 17:35 14.02.2021
2558 Rain 19 1016 73 10000 9.77 170 16:52 14.02.2021
2559 Rain 19 1016 73 10000 9.77 160 16:26 14.02.2021
2560 Clouds 20 1017 68 10000 8.75 160 15:49 14.02.2021
2561 Clouds 20 1017 68 10000 8.75 160 15:30 14.02.2021
2562 Clouds 19 1017 78 10000 8.23 170 14:47 14.02.2021
2563 Clouds 19 1017 78 10000 8.23 170 14:26 14.02.2021
2564 Clouds 20 1017 78 10000 8.23 170 13:48 14.02.2021
2565 Clouds 20 1017 78 10000 8.23 170 13:27 14.02.2021
2566 Clouds 19 1017 77 10000 8.23 180 12:38 14.02.2021
2567 Clouds 20 1017 77 10000 8.23 180 12:18 14.02.2021
2568 Clouds 20 1017 78 10000 7.72 180 11:47 14.02.2021
2569 Clouds 20 1017 73 10000 7.72 180 11:20 14.02.2021
2570 Clouds 20 1016 73 10000 7.72 190 10:35 14.02.2021
2571 Rain 21 1016 73 10000 8.75 190 09:55 14.02.2021
2572 Rain 21 1016 78 10000 9.26 180 09:37 14.02.2021
2573 Rain 21 1016 78 10000 9.26 180 09:19 14.02.2021
2574 Clouds 22 1015 73 10000 9.26 180 08:35 14.02.2021
2575 Clouds 22 1015 73 10000 9.77 180 07:54 14.02.2021
2576 Clouds 23 1015 68 10000 9.26 170 06:37 14.02.2021
2577 Rain 22 1015 73 10000 9.77 180 05:37 14.02.2021
2578 Rain 23 1016 68 10000 8.75 190 03:23 14.02.2021
2579 Clouds 22 1016 68 10000 8.75 180 01:42 14.02.2021
2580 Clouds 21 1016 78 10000 8.75 180 00:46 14.02.2021
2581 Clouds 21 1016 78 10000 8.23 190 00:18 14.02.2021
2582 Clouds 19 1016 83 10000 7.72 190 23:38 13.02.2021
2583 Clouds 19 1016 88 10000 7.72 200 23:20 13.02.2021
2584 Clouds 19 1016 83 10000 7.72 190 23:20 13.02.2021
2585 Clouds 18 1015 83 10000 6.69 200 22:33 13.02.2021
2586 Clouds 18 1015 88 10000 7.72 200 21:53 13.02.2021
2587 Clouds 17 1015 88 10000 4.63 240 21:35 13.02.2021
2588 Clouds 17 1015 88 10000 5.66 220 20:52 13.02.2021
2589 Clouds 17 1015 82 10000 6.69 210 20:28 13.02.2021
2590 Clouds 17 1015 82 10000 6.69 210 20:28 13.02.2021
2591 Clouds 17 1014 88 10000 7.2 220 19:49 13.02.2021
2592 Clouds 17 1014 88 10000 7.2 220 19:25 13.02.2021
2593 Clouds 17 1014 88 10000 5.66 220 18:52 13.02.2021
2594 Clouds 17 1014 88 10000 5.66 220 18:33 13.02.2021
2595 Clouds 17 1014 82 10000 5.14 220 17:46 13.02.2021
2596 Clouds 17 1014 82 10000 5.14 220 17:26 13.02.2021
2597 Clouds 17 1014 82 10000 5.14 220 16:59 13.02.2021
2598 Clouds 18 1014 88 10000 6.17 210 16:41 13.02.2021
2599 Clouds 18 1014 88 10000 5.66 210 15:58 13.02.2021
2600 Clouds 18 1015 82 10000 6.17 210 15:27 13.02.2021
2601 Clouds 19 1015 77 10000 5.66 210 14:42 13.02.2021
2602 Clouds 19 1015 77 10000 5.66 210 14:24 13.02.2021
2603 Clouds 19 1006 87 10000 1.34 162 13:44 13.02.2021
2604 Clouds 19 1006 86 10000 0.89 166 13:23 13.02.2021
2605 Clouds 19 1006 86 10000 1.34 154 12:41 13.02.2021
2606 Clouds 19 1006 88 10000 0.89 195 12:18 13.02.2021
2607 Clouds 19 1006 90 10000 1.34 167 11:41 13.02.2021
2608 Clouds 19 1006 90 10000 1.34 166 11:19 13.02.2021
2609 Rain 19 1005 94 10000 1.34 153 10:44 13.02.2021
2610 Clouds 19 1005 95 10000 1.79 149 10:23 13.02.2021
2611 Clouds 19 1004 94 10000 0.89 164 09:52 13.02.2021
2612 Clouds 19 1004 95 10000 1.34 162 09:29 13.02.2021
2613 Clouds 19 1011 83 10000 8.75 160 08:54 13.02.2021
2614 Clouds 19 1011 83 10000 8.75 160 08:30 13.02.2021
2615 Rain 19 1010 88 10000 9.77 160 07:46 13.02.2021
2616 Clouds 19 1010 88 10000 9.26 160 06:37 13.02.2021
2617 Clouds 19 1009 94 4000 8.75 150 05:20 13.02.2021
2618 Rain 19 1009 94 8000 8.23 150 03:58 13.02.2021
2619 Clouds 20 1008 94 9000 9.26 160 01:32 13.02.2021
2620 Clouds 20 1008 100 4000 8.23 170 00:36 13.02.2021
2621 Clouds 20 1007 100 4000 8.75 180 23:53 12.02.2021
2622 Rain 21 1007 100 4000 9.26 180 23:20 12.02.2021
2623 Rain 21 1007 94 9000 7.2 190 22:40 12.02.2021
2624 Rain 22 1007 94 9000 7.2 190 22:18 12.02.2021
2625 Clouds 22 1006 94 8000 4.94 172 21:45 12.02.2021
2626 Rain 22 1006 94 8000 2.2 198 21:25 12.02.2021
2627 Rain 22 1005 94 6000 2.2 198 20:46 12.02.2021
2628 Rain 22 1005 100 4000 4.28 317 20:27 12.02.2021
2629 Clouds 22 1005 94 7000 1.54 90 19:55 12.02.2021
2630 Rain 22 1005 94 5000 2.57 150 19:30 12.02.2021
2631 Clouds 23 1005 94 10000 2.57 260 18:55 12.02.2021
2632 Rain 23 1005 94 10000 2.57 260 18:29 12.02.2021
2633 Clear 22 1005 94 10000 1.54 310 17:44 12.02.2021
2634 Clouds 22 1005 94 10000 2.06 280 17:20 12.02.2021
2635 Clear 22 1005 88 10000 2.06 50 16:27 12.02.2021
2636 Clear 22 1006 94 10000 2.06 60 15:46 12.02.2021
2637 Drizzle 22 1006 94 10000 4.63 70 15:21 12.02.2021
2638 Clouds 22 1007 100 9000 3.6 60 14:42 12.02.2021
2639 Rain 22 1006 94 9000 3.6 110 13:59 12.02.2021
2640 Clouds 22 1007 94 9000 3.6 130 13:40 12.02.2021
2641 Rain 22 1007 94 9000 3.6 130 13:40 12.02.2021
2642 Clouds 22 1007 94 9000 3.09 160 12:56 12.02.2021
2643 Clouds 22 1007 94 9000 5.66 160 12:37 12.02.2021
2644 Rain 23 1007 94 9000 6.17 170 12:18 12.02.2021
2645 Clouds 23 1007 88 9000 4.63 140 11:38 12.02.2021
2646 Clouds 23 1007 88 10000 8.23 170 11:19 12.02.2021
2647 Clouds 25 1006 73 10000 7.72 180 10:41 12.02.2021
2648 Clear 25 1004 61 10000 7.72 40 09:49 12.02.2021
2649 Clear 26 1004 61 10000 7.72 40 09:25 12.02.2021
2650 Clear 28 1003 51 10000 8.23 30 08:49 12.02.2021
2651 Clear 27 1003 51 10000 8.23 30 08:28 12.02.2021
2652 Clear 29 1003 51 10000 8.75 30 07:53 12.02.2021
2653 Rain 32 1003 45 10000 7.72 40 07:31 12.02.2021
2654 Clear 33 1004 27 10000 7.72 330 06:55 12.02.2021
2655 Rain 31 1004 27 10000 7.72 330 06:55 12.02.2021
2656 Clear 31 1005 31 10000 6.69 360 05:47 12.02.2021
2657 Clear 30 1005 33 10000 5.14 10 04:30 12.02.2021
2658 Clear 26 1008 50 10000 4.63 20 01:32 12.02.2021
2659 Clear 22 1008 53 10000 3.09 360 23:41 11.02.2021
2660 Clear 21 1008 53 10000 3.09 360 23:22 11.02.2021
2661 Clear 20 1008 60 10000 4.63 10 22:46 11.02.2021
2662 Clear 20 1008 60 10000 4.63 10 22:24 11.02.2021
2663 Clear 20 1008 60 10000 5.66 20 21:57 11.02.2021
2664 Clouds 19 1008 72 10000 1.34 333 21:36 11.02.2021
2665 Clouds 19 1008 72 10000 0.89 111 21:18 11.02.2021
2666 Clear 19 1008 56 10000 5.66 20 20:42 11.02.2021
2667 Rain 19 1008 56 10000 5.66 20 20:21 11.02.2021
2668 Clear 19 1008 60 10000 5.14 20 19:48 11.02.2021
2669 Rain 19 1008 60 10000 5.14 20 19:28 11.02.2021
2670 Rain 19 1008 64 10000 3.6 340 18:49 11.02.2021
2671 Clear 19 1009 64 10000 3.6 320 18:28 11.02.2021
2672 Clear 19 1009 64 10000 3.6 320 18:28 11.02.2021
2673 Clear 20 1009 68 10000 3.6 320 17:53 11.02.2021
2674 Clear 20 1009 64 10000 6.69 10 17:22 11.02.2021
2675 Clear 20 1009 60 10000 7.72 10 16:57 11.02.2021
2676 Rain 20 1009 60 10000 8.23 10 16:39 11.02.2021
2677 Rain 20 1010 64 10000 9.26 10 16:20 11.02.2021
2678 Rain 21 1010 64 10000 9.77 20 15:41 11.02.2021
2679 Rain 21 1010 64 10000 9.77 20 15:23 11.02.2021
2680 Rain 21 1011 64 10000 8.75 20 14:44 11.02.2021
2681 Rain 21 1011 60 10000 7.72 20 14:25 11.02.2021
2682 Rain 22 1012 60 10000 7.72 20 13:38 11.02.2021
2683 Rain 21 1012 60 10000 8.23 20 13:19 11.02.2021
2684 Rain 22 1011 60 10000 9.26 30 12:44 11.02.2021
2685 Rain 22 1011 60 10000 9.26 30 12:21 11.02.2021
2686 Rain 21 1011 60 10000 9.77 30 11:42 11.02.2021
2687 Rain 21 1010 60 10000 9.77 30 11:21 11.02.2021
2688 Rain 22 1010 60 10000 9.77 30 10:44 11.02.2021
2689 Rain 22 1010 60 10000 9.77 30 10:25 11.02.2021
2690 Clear 22 1011 69 10000 2.68 47 09:53 11.02.2021
2691 Clear 23 1009 53 10000 9.77 40 09:22 11.02.2021
2692 Clear 23 1001 77 10000 0.89 324 08:51 11.02.2021
2693 Clear 24 1010 47 10000 9.26 40 08:21 11.02.2021
2694 Clear 24 1002 73 10000 2.24 359 06:58 11.02.2021
2695 Clear 25 1011 44 10000 9.26 50 06:35 11.02.2021
2696 Rain 25 1012 47 10000 7.72 50 04:55 11.02.2021
2697 Clouds 25 1013 41 10000 3.6 100 02:29 11.02.2021
2698 Clouds 24 1015 50 10000 2.57 350 00:50 11.02.2021
2699 Clouds 23 1015 50 10000 2.57 350 00:20 11.02.2021
2700 Clear 22 1015 53 10000 4.12 330 23:40 10.02.2021
2701 Clear 20 1014 60 10000 3.6 320 22:52 10.02.2021
2702 Clear 19 1014 60 10000 3.6 320 22:29 10.02.2021
2703 Clear 19 1014 60 10000 3.6 320 22:29 10.02.2021
2704 Rain 19 1014 68 10000 3.09 350 21:58 10.02.2021
2705 Rain 18 1014 64 10000 2.57 340 21:38 10.02.2021
2706 Rain 18 1014 64 10000 2.57 340 21:19 10.02.2021
2707 Rain 18 1014 68 10000 2.57 320 20:40 10.02.2021
2708 Rain 18 1014 68 10000 2.57 320 20:22 10.02.2021
2709 Rain 18 1014 78 10000 0.89 355 19:45 10.02.2021
2710 Rain 18 1014 78 10000 1.34 355 19:24 10.02.2021
2711 Rain 18 1014 77 10000 0.89 342 18:42 10.02.2021
2712 Rain 18 1014 76 10000 0.45 337 18:22 10.02.2021
2713 Rain 18 1014 76 10000 0.45 340 17:55 10.02.2021
2714 Rain 19 1014 64 10000 2.06 20 17:24 10.02.2021
2715 Rain 19 1014 64 10000 2.06 20 17:24 10.02.2021
2716 Rain 19 1014 76 10000 0.45 360 16:53 10.02.2021
2717 Rain 20 1014 56 10000 2.57 20 16:31 10.02.2021
2718 Rain 20 1015 56 10000 2.06 30 15:55 10.02.2021
2719 Rain 19 1015 64 10000 2.57 50 15:24 10.02.2021
2720 Rain 20 1015 64 10000 2.57 50 14:51 10.02.2021
2721 Rain 20 1015 60 10000 3.6 90 14:31 10.02.2021
2722 Rain 20 1015 60 10000 3.6 90 13:53 10.02.2021
2723 Rain 20 1015 64 10000 3.09 90 13:29 10.02.2021
2724 Rain 20 1016 64 10000 3.6 90 12:52 10.02.2021
2725 Rain 20 1016 64 10000 3.6 90 12:30 10.02.2021
2726 Rain 20 1016 64 10000 3.6 90 12:30 10.02.2021
2727 Rain 20 1015 60 10000 4.12 90 11:56 10.02.2021
2728 Rain 20 1015 60 10000 4.12 90 11:37 10.02.2021
2729 Rain 20 1015 60 10000 4.12 80 11:19 10.02.2021
2730 Clouds 21 1015 60 10000 4.63 80 10:22 10.02.2021
2731 Clouds 21 1015 53 10000 4.63 90 09:45 10.02.2021
2732 Rain 21 1015 53 10000 4.63 90 09:26 10.02.2021
2733 Clouds 22 1014 56 10000 5.14 80 08:51 10.02.2021
2734 Clouds 22 1014 53 10000 4.63 100 08:32 10.02.2021
2735 Clouds 22 1014 49 10000 5.14 120 07:31 10.02.2021
2736 Clouds 22 1006 72 10000 2.24 154 06:21 10.02.2021
2737 Clouds 22 1017 56 10000 6.69 110 01:21 10.02.2021
2738 Clouds 20 1018 81 10000 0.89 31 23:49 09.02.2021
2739 Clouds 19 1018 85 10000 1.79 325 23:30 09.02.2021
2740 Clouds 18 1021 91 10000 3.31 120 22:45 09.02.2021
2741 Clouds 17 1018 88 10000 1.79 319 22:23 09.02.2021
2742 Clouds 18 1017 88 10000 4.12 150 21:48 09.02.2021
2743 Clouds 17 1016 88 10000 3.09 260 21:24 09.02.2021
2744 Drizzle 17 1016 88 10000 2.57 290 20:44 09.02.2021
2745 Drizzle 17 1016 88 10000 2.57 290 20:25 09.02.2021
2746 Clouds 16 1016 82 10000 3.09 300 19:52 09.02.2021
2747 Clouds 16 1016 88 10000 3.6 250 19:29 09.02.2021
2748 Clouds 17 1016 82 10000 2.06 310 18:49 09.02.2021
2749 Clouds 16 1016 82 10000 3.09 140 18:31 09.02.2021
2750 Clouds 17 1016 82 10000 3.09 150 17:56 09.02.2021
2751 Clouds 18 1016 77 10000 3.09 180 17:36 09.02.2021
2752 Clouds 18 1016 77 10000 3.09 180 17:18 09.02.2021
2753 Clouds 18 1016 73 10000 4.63 170 16:38 09.02.2021
2754 Clouds 18 1016 73 10000 4.63 170 16:18 09.02.2021
2755 Clouds 18 1016 73 10000 3.6 170 15:41 09.02.2021
2756 Clouds 18 1016 73 10000 3.6 170 15:23 09.02.2021
2757 Clouds 18 1017 73 10000 3.6 160 14:48 09.02.2021
2758 Clouds 18 1017 73 10000 4.12 150 14:26 09.02.2021
2759 Clouds 19 1017 73 10000 4.12 170 13:43 09.02.2021
2760 Clouds 19 1017 73 10000 4.12 170 13:21 09.02.2021
2761 Clouds 20 1017 68 10000 4.63 150 12:48 09.02.2021
2762 Clouds 20 1017 73 10000 5.14 160 12:28 09.02.2021
2763 Clouds 20 1017 64 10000 5.14 150 11:44 09.02.2021
2764 Clouds 20 1018 72 10000 2.24 148 11:44 09.02.2021
2765 Clouds 20 1017 68 10000 6.17 160 11:23 09.02.2021
2766 Clouds 20 1017 68 10000 6.17 160 10:58 09.02.2021
2767 Clouds 20 1016 68 10000 6.17 160 10:38 09.02.2021
2768 Clouds 20 1016 68 10000 5.66 160 10:18 09.02.2021
2769 Clouds 20 1016 68 10000 7.2 160 09:41 09.02.2021
2770 Clouds 20 1016 68 10000 7.2 160 09:21 09.02.2021
2771 Clouds 21 1016 73 10000 6.69 170 08:34 09.02.2021
2772 Clouds 21 1016 73 10000 6.69 160 07:57 09.02.2021
2773 Clouds 23 1016 68 10000 7.72 170 05:55 09.02.2021
2774 Clouds 23 1017 60 10000 5.66 170 03:50 09.02.2021
2775 Clouds 22 1018 60 10000 5.66 170 02:27 09.02.2021
2776 Clouds 22 1018 49 10000 5.14 140 00:33 09.02.2021
2777 Clouds 22 1017 53 10000 5.66 140 23:57 08.02.2021
2778 Clouds 21 1017 53 10000 6.17 140 23:20 08.02.2021
2779 Clouds 21 1017 53 10000 6.17 140 22:43 08.02.2021
2780 Clouds 21 1017 60 10000 5.14 140 22:24 08.02.2021
2781 Clouds 20 1017 56 10000 5.66 150 21:54 08.02.2021
2782 Clouds 20 1016 60 10000 5.66 140 21:31 08.02.2021
2783 Clouds 20 1016 64 10000 5.66 140 20:59 08.02.2021
2784 Clouds 20 1016 64 10000 6.17 140 20:38 08.02.2021
2785 Clouds 20 1016 64 10000 6.17 140 20:20 08.02.2021
2786 Clouds 20 1015 68 10000 6.17 140 19:42 08.02.2021
2787 Clouds 20 1015 68 10000 6.17 140 19:22 08.02.2021
2788 Clouds 20 1015 73 10000 5.66 140 18:48 08.02.2021
2789 Clouds 20 1015 73 10000 5.66 140 18:23 08.02.2021
2790 Clouds 20 1015 77 10000 6.69 130 17:45 08.02.2021
2791 Clouds 20 1015 77 10000 6.69 130 17:25 08.02.2021
2792 Clouds 20 1015 77 10000 4.63 140 16:44 08.02.2021
2793 Clouds 20 1015 77 10000 4.63 140 16:21 08.02.2021
2794 Clouds 20 1015 83 10000 5.14 130 15:48 08.02.2021
2795 Clouds 19 1015 77 10000 5.14 150 15:20 08.02.2021
2796 Clouds 20 1015 77 10000 5.14 150 14:58 08.02.2021
2797 Clouds 20 1015 73 10000 4.63 150 14:39 08.02.2021
2798 Clouds 20 1015 73 10000 4.63 150 14:20 08.02.2021
2799 Clouds 20 1015 73 10000 4.12 150 13:40 08.02.2021
2800 Clouds 20 1015 73 10000 3.6 160 13:22 08.02.2021
2801 Clouds 20 1015 73 10000 3.6 150 12:37 08.02.2021
2802 Clouds 20 1015 73 10000 4.12 140 11:51 08.02.2021
2803 Clouds 20 1015 73 10000 5.14 140 11:23 08.02.2021
2804 Clouds 20 1015 73 10000 5.66 150 10:46 08.02.2021
2805 Clouds 20 1015 73 10000 5.66 150 10:24 08.02.2021
2806 Clouds 21 1014 73 10000 5.66 150 09:55 08.02.2021
2807 Clouds 21 1014 68 10000 5.66 150 09:36 08.02.2021
2808 Clouds 21 1014 68 10000 6.17 160 08:52 08.02.2021
2809 Clouds 21 1013 73 10000 6.17 150 08:24 08.02.2021
2810 Clouds 22 1013 78 10000 7.2 170 07:38 08.02.2021
2811 Clouds 22 1013 68 10000 6.69 170 06:33 08.02.2021
2812 Clouds 22 1013 68 10000 7.2 170 04:54 08.02.2021
2813 Clouds 21 1014 73 10000 8.23 180 02:26 08.02.2021
2814 Clouds 21 1014 78 10000 8.23 190 00:25 08.02.2021
2815 Clouds 21 1014 78 10000 8.23 190 23:53 07.02.2021
2816 Clouds 20 1014 78 10000 6.69 190 23:28 07.02.2021
2817 Clouds 20 1014 78 10000 6.69 190 22:56 07.02.2021
2818 Clouds 20 1013 78 10000 7.72 180 22:38 07.02.2021
2819 Clouds 20 1013 78 10000 8.23 180 22:19 07.02.2021
2820 Clouds 20 1013 78 10000 8.23 180 21:49 07.02.2021
2821 Clouds 20 1012 73 10000 7.72 170 21:24 07.02.2021
2822 Clouds 20 1012 73 10000 7.72 170 20:49 07.02.2021
2823 Clouds 20 1012 77 10000 7.2 160 20:28 07.02.2021
2824 Clouds 20 1012 68 10000 7.72 160 19:49 07.02.2021
2825 Clouds 20 1012 68 10000 7.72 160 19:29 07.02.2021
2826 Clouds 20 1011 68 10000 7.72 160 18:48 07.02.2021
2827 Clouds 20 1011 68 10000 7.72 160 18:27 07.02.2021
2828 Clouds 20 1011 68 10000 8.23 160 17:58 07.02.2021
2829 Clouds 20 1011 73 10000 7.72 160 17:39 07.02.2021
2830 Clouds 20 1011 73 10000 7.72 160 17:18 07.02.2021
2831 Clouds 21 1011 73 10000 7.72 160 16:42 07.02.2021
2832 Clouds 21 1011 73 10000 7.72 160 16:21 07.02.2021
2833 Clouds 21 1012 73 10000 7.2 160 15:44 07.02.2021
2834 Clouds 21 1011 73 10000 7.72 160 15:22 07.02.2021
2835 Clouds 21 1011 64 10000 8.23 150 14:46 07.02.2021
2836 Clouds 21 1011 64 10000 8.23 150 14:27 07.02.2021
2837 Clouds 21 1011 64 10000 8.23 150 13:52 07.02.2021
2838 Clouds 21 1011 68 10000 8.75 150 13:30 07.02.2021
2839 Clouds 21 1011 73 10000 8.23 140 12:43 07.02.2021
2840 Clouds 21 1011 73 10000 7.72 140 12:22 07.02.2021
2841 Clouds 22 1010 73 10000 6.69 140 11:46 07.02.2021
2842 Clouds 22 1010 73 10000 6.69 140 11:27 07.02.2021
2843 Clouds 22 1009 68 10000 6.17 130 10:48 07.02.2021
2844 Clouds 22 1009 68 10000 6.17 130 10:24 07.02.2021
2845 Clear 22 1009 76 10000 5.36 138 09:46 07.02.2021
2846 Clouds 22 1008 73 10000 6.69 130 09:21 07.02.2021
2847 Clouds 23 1008 69 10000 8.23 130 08:26 07.02.2021
2848 Clouds 24 1007 65 10000 8.23 130 07:32 07.02.2021
2849 Clouds 25 1006 69 10000 8.23 150 05:57 07.02.2021
2850 Clear 26 1006 65 10000 4.63 140 03:52 07.02.2021
2851 Clear 26 1010 63 10000 2.24 214 01:37 07.02.2021
2852 Clear 25 1006 53 10000 3.6 200 00:35 07.02.2021
2853 Clear 24 1006 57 10000 4.63 240 23:46 06.02.2021
2854 Clear 22 1005 78 10000 3.6 270 22:42 06.02.2021
2855 Clear 20 1005 88 10000 2.57 310 21:43 06.02.2021
2856 Clear 19 1004 88 10000 2.06 320 21:23 06.02.2021
2857 Clouds 19 1004 94 10000 3.09 290 20:52 06.02.2021
2858 Clouds 19 1004 94 10000 3.09 290 20:26 06.02.2021
2859 Clouds 19 1004 94 10000 3.09 290 19:57 06.02.2021
2860 Clear 20 1003 94 10000 3.6 290 19:34 06.02.2021
2861 Clear 20 1003 94 10000 3.6 300 18:54 06.02.2021
2862 Clear 20 1003 94 10000 1.03 10 18:34 06.02.2021
2863 Clear 20 1003 88 10000 3.6 290 17:56 06.02.2021
2864 Clear 20 1003 88 10000 4.12 280 17:38 06.02.2021
2865 Clear 20 1003 88 10000 4.12 280 17:19 06.02.2021
2866 Clear 21 1004 88 10000 3.09 300 16:41 06.02.2021
2867 Clouds 21 1004 88 10000 2.24 327 16:23 06.02.2021
2868 Clear 21 1003 88 10000 2.06 320 15:48 06.02.2021
2869 Clear 21 1004 88 10000 3.09 330 15:25 06.02.2021
2870 Clouds 21 996 95 10000 0.45 287 14:46 06.02.2021
2871 Clouds 21 1004 83 10000 2.57 10 14:28 06.02.2021
2872 Clouds 22 1004 83 10000 0.51 260 13:53 06.02.2021
2873 Clouds 22 1004 83 10000 3.6 330 13:34 06.02.2021
2874 Clear 22 1003 83 10000 5.66 10 12:23 06.02.2021
2875 Clouds 22 1003 78 10000 5.66 10 11:57 06.02.2021
2876 Clouds 22 1003 88 10000 6.69 20 11:38 06.02.2021
2877 Clouds 23 1002 78 10000 6.69 30 11:19 06.02.2021
2878 Clouds 23 1002 83 10000 6.69 30 10:47 06.02.2021
2879 Clouds 23 1002 83 10000 6.69 30 10:25 06.02.2021
2880 Clouds 24 1001 78 10000 7.72 20 09:37 06.02.2021
2881 Clouds 23 1001 78 10000 7.72 20 09:18 06.02.2021
2882 Clouds 23 1001 83 10000 7.2 30 08:52 06.02.2021
2883 Clouds 23 1001 83 10000 7.72 30 08:28 06.02.2021
2884 Clouds 23 994 95 10000 2.24 302 06:50 06.02.2021
2885 Clouds 23 1002 78 10000 7.72 30 05:39 06.02.2021
2886 Clouds 23 995 92 10000 0.89 277 02:43 06.02.2021
2887 Clouds 24 1004 69 10000 5.66 30 00:56 06.02.2021
2888 Clouds 23 1004 78 10000 5.66 30 00:37 06.02.2021
2889 Clouds 23 1004 73 10000 5.14 30 00:18 06.02.2021
2890 Clouds 23 996 88 10000 0.45 339 23:30 05.02.2021
2891 Clouds 23 1004 73 10000 5.66 20 22:50 05.02.2021
2892 Clouds 22 996 90 10000 0.45 310 22:25 05.02.2021
2893 Clouds 22 996 90 10000 0.89 296 21:57 05.02.2021
2894 Clear 22 1004 73 10000 4.63 20 21:37 05.02.2021
2895 Clear 22 1004 78 10000 4.63 10 20:56 05.02.2021
2896 Clouds 22 1003 78 10000 4.12 20 20:20 05.02.2021
2897 Clouds 22 1004 78 10000 5.14 10 19:46 05.02.2021
2898 Clouds 22 1004 78 10000 5.14 10 19:18 05.02.2021
2899 Clouds 22 1004 78 10000 7.2 20 18:43 05.02.2021
2900 Clouds 22 1004 78 10000 6.69 30 18:19 05.02.2021
2901 Clouds 22 1005 78 10000 6.69 10 17:42 05.02.2021
2902 Clouds 22 1005 78 10000 6.69 10 17:20 05.02.2021
2903 Clouds 22 1006 83 10000 7.72 20 16:43 05.02.2021
2904 Clouds 22 1006 83 10000 7.72 20 16:21 05.02.2021
2905 Rain 22 1006 83 10000 8.75 20 15:51 05.02.2021
2906 Clouds 22 1006 83 10000 6.17 20 15:25 05.02.2021
2907 Clouds 23 1007 83 10000 8.75 20 14:40 05.02.2021
2908 Clouds 23 1007 83 10000 9.26 30 14:22 05.02.2021
2909 Clouds 23 1007 78 10000 8.75 20 13:57 05.02.2021
2910 Clouds 23 1008 78 10000 8.23 20 13:33 05.02.2021
2911 Clouds 23 1007 78 10000 10.29 30 12:47 05.02.2021
2912 Clouds 23 1007 73 10000 10.29 30 12:25 05.02.2021
2913 Clouds 23 1007 78 10000 9.26 30 11:40 05.02.2021
2914 Clouds 23 999 91 10000 1.34 28 11:21 05.02.2021
2915 Clouds 23 1007 73 10000 10.29 30 10:54 05.02.2021
2916 Clouds 23 1007 73 10000 10.8 30 10:27 05.02.2021
2917 Clouds 23 1006 69 10000 10.8 40 09:47 05.02.2021
2918 Clouds 24 1006 69 10000 10.8 40 09:27 05.02.2021
2919 Clouds 24 1006 69 10000 11.83 40 08:52 05.02.2021
2920 Clouds 25 1006 61 10000 13.38 40 08:22 05.02.2021
2921 Clouds 25 1007 61 10000 12.86 30 07:36 05.02.2021
2922 Clouds 26 1007 57 10000 11.83 30 06:52 05.02.2021
2923 Clouds 26 1009 61 10000 12.35 40 05:37 05.02.2021
2924 Clouds 27 1010 61 10000 12.35 30 03:22 05.02.2021
2925 Clouds 27 1010 61 10000 11.32 40 02:24 05.02.2021
2926 Clouds 26 1011 61 10000 9.77 20 00:41 05.02.2021
2927 Clouds 25 1012 61 10000 8.23 20 00:20 05.02.2021
2928 Clouds 25 1012 61 10000 8.23 20 23:58 04.02.2021
2929 Clear 24 1012 71 10000 4.02 46 23:39 04.02.2021
2930 Clouds 24 1011 73 10000 7.72 30 23:20 04.02.2021
2931 Clouds 24 1011 73 10000 7.72 30 23:20 04.02.2021
2932 Clouds 23 1011 78 10000 6.17 30 22:51 04.02.2021
2933 Rain 23 1011 78 10000 6.17 30 22:27 04.02.2021
2934 Clouds 22 1011 83 10000 2.57 30 21:42 04.02.2021
2935 Clouds 21 1011 83 10000 2.57 30 21:20 04.02.2021
2936 Clouds 21 1010 83 10000 2.57 30 20:52 04.02.2021
2937 Clouds 21 1010 83 10000 2.57 350 20:34 04.02.2021
2938 Clouds 21 1010 83 10000 2.57 40 19:45 04.02.2021
2939 Clouds 21 1010 78 10000 3.6 20 18:57 04.02.2021
2940 Clouds 21 1010 78 10000 3.09 360 18:36 04.02.2021
2941 Clouds 21 1010 83 10000 3.09 30 18:18 04.02.2021
2942 Clouds 21 1010 83 10000 3.6 30 17:41 04.02.2021
2943 Clouds 22 1010 83 10000 4.63 20 17:20 04.02.2021
2944 Clouds 22 1010 83 10000 4.63 20 16:41 04.02.2021
2945 Clouds 22 1010 83 10000 4.63 20 16:19 04.02.2021
2946 Clouds 22 1011 83 10000 6.69 10 15:40 04.02.2021
2947 Clear 22 1010 83 10000 7.72 30 15:21 04.02.2021
2948 Clouds 22 1011 78 10000 7.72 30 14:49 04.02.2021
2949 Clouds 22 1011 83 10000 6.17 20 14:21 04.02.2021
2950 Clouds 22 1011 83 10000 6.17 20 13:56 04.02.2021
2951 Clouds 23 1011 78 10000 6.69 20 13:36 04.02.2021
2952 Clouds 23 1011 73 10000 8.23 40 12:57 04.02.2021
2953 Clear 23 1011 69 10000 8.23 30 12:20 04.02.2021
2954 Clear 23 1010 73 10000 8.75 30 11:42 04.02.2021
2955 Clear 23 1010 73 10000 8.75 30 11:24 04.02.2021
2956 Clear 23 1010 73 10000 9.77 30 10:43 04.02.2021
2957 Clear 23 1010 73 10000 9.77 30 09:56 04.02.2021
2958 Clear 23 1009 69 10000 9.77 40 09:37 04.02.2021
2959 Clear 23 1009 69 10000 9.77 40 09:18 04.02.2021
2960 Clear 24 1009 65 10000 10.8 40 08:41 04.02.2021
2961 Clouds 24 1009 61 10000 12.35 40 08:20 04.02.2021
2962 Clouds 25 1009 65 10000 11.32 30 07:41 04.02.2021
2963 Clouds 26 1009 57 10000 11.83 40 06:55 04.02.2021
2964 Clouds 26 1009 54 10000 11.83 40 06:35 04.02.2021
2965 Clouds 26 1010 51 10000 10.8 40 03:53 04.02.2021
2966 Clouds 27 1012 50 10000 10.29 20 02:26 04.02.2021
2967 Clouds 25 1013 57 10000 6.69 20 00:42 04.02.2021
2968 Clouds 23 1013 69 10000 1.54 330 23:40 03.02.2021
2969 Clouds 22 1013 68 10000 2.06 350 22:44 03.02.2021
2970 Clear 21 1013 81 10000 0.89 327 22:23 03.02.2021
2971 Clouds 20 1012 78 10000 2.06 310 21:58 03.02.2021
2972 Clouds 19 1012 77 10000 3.09 250 21:38 03.02.2021
2973 Clouds 19 1012 77 10000 3.09 250 21:20 03.02.2021
2974 Clouds 18 1011 77 10000 2.06 350 20:46 03.02.2021
2975 Clouds 18 1011 77 10000 2.06 350 20:26 03.02.2021
2976 Clouds 18 1011 77 10000 2.06 350 19:46 03.02.2021
2977 Clouds 18 1011 77 10000 2.06 360 19:23 03.02.2021
2978 Clouds 18 1012 77 10000 1.54 270 18:50 03.02.2021
2979 Clouds 19 1012 82 10000 2.57 250 18:21 03.02.2021
2980 Clouds 18 1012 82 10000 2.57 250 17:57 03.02.2021
2981 Clouds 19 1012 82 10000 3.09 250 17:36 03.02.2021
2982 Clouds 19 1012 82 10000 0.51 280 17:18 03.02.2021
2983 Clouds 19 1012 77 10000 1.54 280 16:35 03.02.2021
2984 Rain 19 1012 77 10000 2.57 280 15:50 03.02.2021
2985 Clouds 19 1012 73 10000 3.09 360 15:30 03.02.2021
2986 Clouds 20 1012 73 10000 3.09 20 14:59 03.02.2021
2987 Clouds 20 1012 68 10000 3.6 10 14:40 03.02.2021
2988 Clouds 20 1012 68 10000 3.6 10 14:19 03.02.2021
2989 Clouds 20 1012 68 10000 4.12 30 13:43 03.02.2021
2990 Clouds 20 1012 64 10000 3.6 20 13:18 03.02.2021
2991 Clouds 20 1012 64 10000 3.6 20 12:39 03.02.2021
2992 Rain 20 1012 64 10000 3.6 20 12:19 03.02.2021
2993 Clouds 20 1012 64 10000 4.63 50 11:41 03.02.2021
2994 Clouds 20 1012 64 10000 4.63 50 11:21 03.02.2021
2995 Clouds 20 1012 64 10000 5.14 70 10:27 03.02.2021
2996 Clouds 20 1012 64 10000 5.66 60 09:58 03.02.2021
2997 Clouds 21 1012 64 10000 5.66 80 09:38 03.02.2021
2998 Rain 21 1012 64 10000 5.66 80 09:19 03.02.2021
2999 Clouds 21 1012 60 10000 6.69 90 08:43 03.02.2021
3000 Clear 22 1003 73 10000 2.68 131 07:54 03.02.2021
3001 Clouds 22 1012 53 10000 6.17 120 06:42 03.02.2021
3002 Clear 23 1012 46 10000 6.69 120 04:56 03.02.2021
3003 Clear 22 1012 49 10000 5.66 150 04:37 03.02.2021
3004 Clear 23 1013 53 10000 6.17 160 03:49 03.02.2021
3005 Clouds 22 1013 53 10000 7.72 160 02:40 03.02.2021
3006 Clouds 22 1013 53 10000 7.72 170 01:47 03.02.2021
3007 Clouds 21 1013 60 10000 7.2 190 00:24 03.02.2021
3008 Clouds 20 1013 68 10000 6.69 190 23:43 02.02.2021
3009 Clouds 20 1013 68 10000 6.69 190 23:25 02.02.2021
3010 Clouds 19 1013 72 10000 6.17 210 22:46 02.02.2021
3011 Clouds 18 1013 77 10000 6.69 210 22:20 02.02.2021
3012 Clouds 17 1014 79 10000 0.89 236 21:46 02.02.2021
3013 Clouds 18 1013 77 10000 7.72 210 21:46 02.02.2021
3014 Clouds 17 1013 82 10000 5.66 220 21:24 02.02.2021
3015 Clouds 17 1014 79 10000 0.89 210 21:24 02.02.2021
3016 Clouds 17 1013 82 10000 5.66 220 20:49 02.02.2021
3017 Clouds 17 1013 82 10000 6.69 210 20:21 02.02.2021
3018 Clouds 17 1012 82 10000 7.72 200 19:55 02.02.2021
3019 Clouds 17 1012 82 10000 8.23 200 19:37 02.02.2021
3020 Clouds 18 1012 82 10000 8.23 200 19:18 02.02.2021
3021 Clouds 18 1012 82 10000 6.17 230 18:41 02.02.2021
3022 Clouds 18 1012 82 10000 6.17 230 18:22 02.02.2021
3023 Clouds 17 1012 88 10000 6.69 210 17:39 02.02.2021
3024 Clouds 18 1012 82 10000 6.17 250 17:21 02.02.2021
3025 Clouds 18 1012 82 10000 6.17 250 16:50 02.02.2021
3026 Clouds 18 1013 77 10000 8.75 190 16:30 02.02.2021
3027 Clouds 18 1013 87 10000 6.32 192 15:57 02.02.2021
3028 Clouds 18 1013 87 10000 6.32 192 15:57 02.02.2021
3029 Clouds 18 1013 83 10000 5.66 200 15:32 02.02.2021
3030 Clouds 19 1013 77 10000 8.23 170 14:55 02.02.2021
3031 Clouds 19 1013 78 10000 7.2 170 14:37 02.02.2021
3032 Clouds 19 1013 77 10000 8.75 170 14:18 02.02.2021
3033 Clouds 20 1013 73 10000 8.75 170 13:42 02.02.2021
3034 Clouds 20 1013 73 10000 8.75 170 13:22 02.02.2021
3035 Clouds 20 1013 73 10000 9.26 170 12:51 02.02.2021
3036 Clouds 21 1013 68 10000 9.26 170 11:56 02.02.2021
3037 Clouds 21 1013 68 10000 8.75 160 11:38 02.02.2021
3038 Clouds 20 1013 68 10000 9.26 160 11:18 02.02.2021
3039 Clouds 21 1012 64 10000 8.75 160 10:43 02.02.2021
3040 Clouds 21 1012 64 10000 8.75 160 10:25 02.02.2021
3041 Clouds 21 1012 64 10000 8.75 160 09:45 02.02.2021
3042 Clouds 21 1011 60 10000 8.23 160 09:21 02.02.2021
3043 Clouds 21 1011 53 10000 9.26 160 08:38 02.02.2021
3044 Clouds 21 1002 73 10000 4.02 163 07:47 02.02.2021
3045 Clouds 21 1002 73 10000 1.79 161 07:23 02.02.2021
3046 Clouds 21 1002 73 10000 3.13 161 06:40 02.02.2021
3047 Clouds 22 1010 64 10000 8.23 170 05:51 02.02.2021
3048 Clouds 23 1010 68 10000 8.23 160 04:18 02.02.2021
3049 Clouds 22 1010 68 10000 7.72 180 02:25 02.02.2021
3050 Clouds 21 1010 77 10000 6.69 210 00:46 02.02.2021
3051 Clouds 19 1010 82 10000 7.2 210 23:58 01.02.2021
3052 Clouds 18 1010 88 10000 7.72 200 22:59 01.02.2021
3053 Clouds 18 1010 88 10000 7.72 200 22:39 01.02.2021
3054 Clouds 18 1009 88 10000 8.75 200 22:20 01.02.2021
3055 Drizzle 18 1009 94 10000 8.75 190 21:46 01.02.2021
3056 Clouds 17 1009 94 9000 8.23 190 21:22 01.02.2021
3057 Clouds 17 1008 100 6000 10.29 200 20:44 01.02.2021
3058 Clouds 18 1008 100 6000 10.29 200 20:25 01.02.2021
3059 Clouds 18 1008 94 10000 8.23 190 19:49 01.02.2021
3060 Clouds 18 1007 94 10000 2.57 300 19:21 01.02.2021
3061 Clouds 18 1007 94 10000 2.57 300 18:58 01.02.2021
3062 Clouds 18 1007 94 10000 3.09 290 18:39 01.02.2021
3063 Clouds 18 1007 94 10000 3.09 290 18:21 01.02.2021
3064 Clouds 18 1007 100 10000 3.6 260 17:42 01.02.2021
3065 Clouds 18 1008 94 10000 3.09 240 17:19 01.02.2021
3066 Clouds 18 1008 94 10000 5.66 240 16:41 01.02.2021
3067 Clouds 18 1009 94 8000 5.66 260 16:22 01.02.2021
3068 Clouds 19 1009 100 8000 4.63 260 15:40 01.02.2021
3069 Clouds 19 1009 100 8000 4.63 260 15:19 01.02.2021
3070 Clouds 19 1009 100 10000 5.66 230 14:51 01.02.2021
3071 Clouds 20 1009 94 6000 7.72 210 14:23 01.02.2021
3072 Clouds 21 1010 88 10000 6.17 240 13:42 01.02.2021
3073 Clouds 22 1010 88 10000 6.17 240 13:24 01.02.2021
3074 Clouds 23 1008 69 10000 8.75 10 12:44 01.02.2021
3075 Clouds 23 1008 69 10000 8.75 10 12:25 01.02.2021
3076 Clear 23 1008 73 10000 9.26 20 11:43 01.02.2021
3077 Clouds 23 1000 88 10000 1.79 287 11:21 01.02.2021
3078 Clouds 23 1000 88 10000 2.24 296 10:47 01.02.2021
3079 Clouds 23 1000 87 10000 4.02 289 10:21 01.02.2021
3080 Clouds 23 1000 87 10000 3.13 290 09:51 01.02.2021
3081 Clouds 23 1008 69 10000 10.29 20 09:25 01.02.2021
3082 Clouds 24 1008 65 10000 10.8 30 08:56 01.02.2021
3083 Clouds 24 1009 57 10000 10.29 30 08:24 01.02.2021
3084 Clouds 25 1010 65 10000 7.72 60 06:59 01.02.2021
3085 Clouds 25 1013 65 10000 6.17 130 04:33 01.02.2021
3086 Clouds 25 1015 73 10000 4.63 160 02:39 01.02.2021
3087 Clouds 22 1016 83 10000 3.6 180 23:57 31.01.2021
3088 Clouds 22 1016 83 10000 4.12 200 22:57 31.01.2021
3089 Clouds 21 1015 83 10000 3.6 190 22:37 31.01.2021
3090 Clouds 21 1015 83 10000 3.6 180 22:19 31.01.2021
3091 Clouds 21 1015 83 10000 3.6 160 21:46 31.01.2021
3092 Clouds 21 1015 88 10000 3.09 160 21:19 31.01.2021
3093 Drizzle 21 1015 88 10000 3.6 140 20:43 31.01.2021
3094 Drizzle 21 1015 83 10000 4.63 170 20:21 31.01.2021
3095 Clouds 21 1015 83 10000 4.63 160 19:39 31.01.2021
3096 Clouds 21 1015 83 10000 4.63 160 19:21 31.01.2021
3097 Clouds 21 1015 83 10000 5.14 160 18:56 31.01.2021
3098 Clouds 21 1015 83 10000 5.14 150 18:38 31.01.2021
3099 Clouds 21 1015 83 10000 4.63 160 18:18 31.01.2021
3100 Clouds 21 1015 83 10000 4.63 150 17:41 31.01.2021
3101 Clouds 21 1015 83 10000 5.66 170 17:22 31.01.2021
3102 Clouds 21 1016 83 10000 5.66 170 16:42 31.01.2021
3103 Clouds 21 1016 83 10000 4.63 160 16:20 31.01.2021
3104 Clouds 21 1016 83 10000 4.63 160 15:50 31.01.2021
3105 Clouds 21 1017 83 10000 5.66 160 15:28 31.01.2021
3106 Clouds 21 1017 83 10000 5.66 170 14:40 31.01.2021
3107 Clouds 21 1017 83 10000 6.17 170 14:19 31.01.2021
3108 Clouds 21 1017 83 10000 6.17 160 13:48 31.01.2021
3109 Clouds 21 1017 83 10000 6.17 160 13:23 31.01.2021
3110 Clouds 21 1018 83 10000 6.17 160 12:47 31.01.2021
3111 Clouds 21 1018 83 10000 6.17 160 12:21 31.01.2021
3112 Clouds 21 1017 83 10000 5.66 170 11:41 31.01.2021
3113 Clouds 21 1017 83 10000 5.66 160 11:21 31.01.2021
3114 Clouds 20 1017 83 10000 5.66 160 10:48 31.01.2021
3115 Clouds 21 1017 83 10000 5.14 160 10:30 31.01.2021
3116 Clouds 21 1016 83 10000 6.17 160 09:49 31.01.2021
3117 Drizzle 21 1016 83 10000 6.69 160 08:58 31.01.2021
3118 Clouds 21 1016 83 10000 6.69 160 08:32 31.01.2021
3119 Clouds 21 1016 88 10000 7.2 160 06:55 31.01.2021
3120 Clouds 21 1016 83 10000 8.75 150 05:31 31.01.2021
3121 Clouds 22 1015 83 10000 8.75 150 00:40 31.01.2021
3122 Clouds 22 1015 83 10000 9.26 160 00:21 31.01.2021
3123 Clouds 22 1015 88 10000 8.75 160 23:28 30.01.2021
3124 Clouds 22 1015 83 10000 8.23 160 22:56 30.01.2021
3125 Clouds 22 1014 88 10000 9.26 170 22:29 30.01.2021
3126 Clouds 22 1013 94 10000 7.72 170 21:40 30.01.2021
3127 Clouds 22 1013 94 10000 7.72 170 21:40 30.01.2021
3128 Clouds 22 1013 94 10000 7.72 170 21:20 30.01.2021
3129 Clouds 22 1013 94 9000 7.2 180 20:46 30.01.2021
3130 Clouds 22 1012 94 10000 8.23 180 20:27 30.01.2021
3131 Clouds 22 1011 94 10000 9.26 190 19:44 30.01.2021
3132 Clouds 22 1011 94 10000 9.26 190 19:25 30.01.2021
3133 Clouds 22 1011 94 10000 9.77 190 18:42 30.01.2021
3134 Clouds 22 1011 94 10000 10.8 170 18:21 30.01.2021
3135 Clouds 22 1011 94 10000 5.66 160 17:58 30.01.2021
3136 Clouds 22 1011 94 10000 3.6 140 17:19 30.01.2021
3137 Clouds 22 1011 94 10000 4.12 140 16:47 30.01.2021
3138 Clouds 22 1011 94 10000 4.12 140 16:25 30.01.2021
3139 Clouds 22 1011 88 10000 2.57 160 15:57 30.01.2021
3140 Clouds 22 1011 88 10000 2.57 160 15:57 30.01.2021
3141 Clouds 22 1011 83 10000 4.12 150 15:39 30.01.2021
3142 Clouds 22 1011 83 10000 4.12 150 15:20 30.01.2021
3143 Clear 23 1011 83 10000 2.57 210 14:50 30.01.2021
3144 Clouds 23 1003 96 10000 1.76 332 14:22 30.01.2021
3145 Clouds 23 1003 96 10000 0.45 326 13:33 30.01.2021
3146 Clouds 23 1003 96 10000 0.89 294 12:49 30.01.2021
3147 Clouds 23 1002 96 10000 2.68 308 12:29 30.01.2021
3148 Clouds 23 1002 96 10000 2.68 308 12:29 30.01.2021
3149 Clouds 24 1010 73 10000 7.2 30 11:59 30.01.2021
3150 Clouds 24 1010 78 10000 4.12 20 11:31 30.01.2021
3151 Clouds 24 1009 78 10000 7.2 40 10:49 30.01.2021
3152 Clear 25 1009 69 10000 8.23 40 09:52 30.01.2021
3153 Clear 26 1009 69 10000 8.23 40 09:31 30.01.2021
3154 Clouds 27 1008 61 10000 9.26 30 08:47 30.01.2021
3155 Clouds 27 1008 61 10000 9.26 30 08:25 30.01.2021
3156 Clear 29 1009 58 10000 5.66 30 06:53 30.01.2021
3157 Clouds 27 1009 65 10000 6.17 20 06:19 30.01.2021
3158 Clouds 25 1012 69 10000 2.57 330 03:35 30.01.2021
3159 Clouds 24 1012 78 10000 2.57 300 02:25 30.01.2021
3160 Clouds 24 1012 78 10000 3.09 340 01:31 30.01.2021
3161 Clouds 23 1012 88 10000 4.12 10 00:47 30.01.2021
3162 Clouds 22 1004 99 10000 1.34 49 00:21 30.01.2021
3163 Clouds 22 1013 90 10000 0.89 14 23:49 29.01.2021
3164 Rain 22 1004 99 10000 1.34 49 23:27 29.01.2021
3165 Clouds 22 1011 94 10000 5.66 20 22:45 29.01.2021
3166 Clouds 22 1004 99 10000 0.89 37 22:22 29.01.2021
3167 Clouds 22 1003 99 10000 0.89 25 21:44 29.01.2021
3168 Clouds 21 1003 99 10000 0.89 25 21:25 29.01.2021
3169 Clouds 21 1003 99 10000 0.89 33 20:42 29.01.2021
3170 Clouds 21 1003 99 10000 0.89 31 20:21 29.01.2021
3171 Clouds 21 1003 99 10000 0.89 25 19:39 29.01.2021
3172 Clouds 21 1003 99 10000 0.89 27 19:20 29.01.2021
3173 Rain 21 1002 99 10000 0.89 24 18:48 29.01.2021
3174 Clouds 21 1003 99 10000 0.89 21 17:47 29.01.2021
3175 Clouds 21 1003 99 10000 0.89 22 17:22 29.01.2021
3176 Clouds 21 1003 99 10000 0.89 28 16:49 29.01.2021
3177 Clouds 21 1003 99 10000 0.89 26 16:24 29.01.2021
3178 Clouds 21 1003 99 10000 0.89 26 16:24 29.01.2021
3179 Clouds 21 1004 99 10000 0.89 29 15:55 29.01.2021
3180 Clouds 21 1004 99 10000 0.89 24 15:36 29.01.2021
3181 Clouds 21 1005 99 10000 1.34 17 15:18 29.01.2021
3182 Clouds 21 1005 99 10000 1.34 83 14:22 29.01.2021
3183 Clouds 21 1005 99 10000 3.58 342 13:46 29.01.2021
3184 Clouds 21 1005 99 10000 2.68 117 13:27 29.01.2021
3185 Clouds 21 1006 99 10000 1.34 10 12:36 29.01.2021
3186 Clouds 21 1013 98 10000 3.58 54 12:18 29.01.2021
3187 Drizzle 20 1014 94 5000 8.75 70 11:41 29.01.2021
3188 Drizzle 20 1014 94 3500 8.23 70 11:18 29.01.2021
3189 Drizzle 20 1014 94 3500 8.23 70 10:46 29.01.2021
3190 Clouds 20 1006 99 10000 1.34 23 10:22 29.01.2021
3191 Rain 20 1006 99 10000 0.89 18 09:39 29.01.2021
3192 Drizzle 20 1014 100 2500 7.72 70 08:50 29.01.2021
3193 Drizzle 20 1014 100 3000 8.75 70 08:27 29.01.2021
3194 Drizzle 20 1014 100 3000 8.75 70 07:48 29.01.2021
3195 Clouds 20 1014 100 3500 9.26 70 07:29 29.01.2021
3196 Clouds 20 1006 99 10000 1.34 119 06:49 29.01.2021
3197 Clouds 20 1008 99 10000 2.68 143 04:53 29.01.2021
3198 Clouds 20 1017 94 4000 5.66 70 02:26 29.01.2021
3199 Clouds 19 1018 94 10000 7.72 60 00:37 29.01.2021
3200 Clouds 19 1018 94 3500 7.2 70 00:19 29.01.2021
3201 Clouds 20 1018 94 4000 7.2 70 23:39 28.01.2021
3202 Clouds 20 1018 88 6000 6.69 70 23:20 28.01.2021
3203 Clouds 19 1018 88 4000 8.23 70 22:42 28.01.2021
3204 Drizzle 19 1018 94 8000 5.14 70 22:24 28.01.2021
3205 Clouds 19 1010 99 10000 2.24 141 21:48 28.01.2021
3206 Clouds 19 1017 94 10000 4.12 120 21:30 28.01.2021
3207 Clouds 18 1017 94 7000 5.66 70 20:47 28.01.2021
3208 Clouds 19 1009 99 10000 0.89 126 20:20 28.01.2021
3209 Drizzle 18 1017 94 10000 6.17 90 19:59 28.01.2021
3210 Drizzle 19 1017 94 10000 6.17 90 19:37 28.01.2021
3211 Clouds 19 1017 94 3000 6.69 80 19:18 28.01.2021
3212 Clouds 19 1018 88 5000 6.69 80 18:42 28.01.2021
3213 Clouds 19 1018 94 10000 3.09 90 18:20 28.01.2021
3214 Clouds 19 1018 94 5000 4.12 110 17:44 28.01.2021
3215 Clouds 19 1018 94 6000 6.69 70 17:26 28.01.2021
3216 Clouds 19 1010 98 10000 2.68 161 16:44 28.01.2021
3217 Clouds 19 1010 95 10000 2.24 161 16:22 28.01.2021
3218 Clouds 19 1019 83 10000 8.75 70 15:41 28.01.2021
3219 Clouds 20 1019 83 10000 4.63 110 14:58 28.01.2021
3220 Clouds 20 1019 83 10000 6.69 120 14:39 28.01.2021
3221 Clouds 20 1019 83 10000 6.69 120 14:20 28.01.2021
3222 Clouds 20 1020 83 10000 7.2 130 13:44 28.01.2021
3223 Clouds 19 1020 94 10000 5.66 140 12:53 28.01.2021
3224 Rain 19 1020 88 10000 9.26 130 12:34 28.01.2021
3225 Rain 19 1020 94 5000 8.23 120 11:59 28.01.2021
3226 Clouds 19 1021 94 4000 6.17 130 11:40 28.01.2021
3227 Clouds 19 1020 94 5000 6.69 140 11:20 28.01.2021
3228 Clouds 19 1020 94 5000 6.69 140 10:52 28.01.2021
3229 Drizzle 19 1020 94 6000 7.72 130 10:33 28.01.2021
3230 Clouds 19 1020 83 10000 8.75 120 09:48 28.01.2021
3231 Clouds 19 1020 83 10000 8.75 120 09:23 28.01.2021
3232 Clouds 19 1019 88 10000 10.29 130 08:54 28.01.2021
3233 Clouds 20 1019 78 5000 9.77 120 08:19 28.01.2021
3234 Clouds 20 1019 78 5000 9.77 120 07:44 28.01.2021
3235 Clouds 20 1020 73 10000 8.75 130 06:50 28.01.2021
3236 Clouds 20 1020 73 10000 8.23 110 06:25 28.01.2021
3237 Clouds 21 1020 60 10000 8.23 130 04:28 28.01.2021
3238 Clouds 19 1021 78 9000 9.26 150 01:39 28.01.2021
3239 Drizzle 20 1020 78 5000 9.77 120 23:49 27.01.2021
3240 Clouds 20 1012 92 10000 3.13 162 23:24 27.01.2021
3241 Clouds 20 1020 78 10000 9.26 120 22:42 27.01.2021
3242 Clouds 19 1012 94 10000 2.68 160 22:22 27.01.2021
3243 Clouds 19 1011 96 10000 2.68 163 21:43 27.01.2021
3244 Clouds 19 1019 83 10000 10.29 130 21:24 27.01.2021
3245 Clouds 19 1011 97 10000 2.68 161 20:55 27.01.2021
3246 Clouds 20 1019 78 10000 8.75 150 20:30 27.01.2021
3247 Clouds 19 1018 78 10000 8.75 140 19:56 27.01.2021
3248 Clouds 19 1018 78 10000 8.23 150 19:37 27.01.2021
3249 Clouds 19 1009 95 10000 4.02 160 19:18 27.01.2021
3250 Clouds 19 1009 96 10000 2.68 159 18:40 27.01.2021
3251 Rain 19 1009 96 10000 2.68 162 18:21 27.01.2021
3252 Clouds 19 1018 88 10000 8.75 140 17:40 27.01.2021
3253 Clouds 19 1018 88 10000 8.75 140 17:18 27.01.2021
3254 Rain 19 1018 94 10000 8.23 150 16:45 27.01.2021
3255 Rain 19 1018 94 10000 8.23 160 16:27 27.01.2021
3256 Rain 19 1009 99 10000 2.68 160 15:50 27.01.2021
3257 Rain 19 1009 99 10000 1.79 158 15:30 27.01.2021
3258 Clouds 19 1018 88 10000 8.23 140 14:41 27.01.2021
3259 Clouds 19 1018 88 10000 8.75 140 14:21 27.01.2021
3260 Drizzle 19 1018 94 10000 9.26 140 13:43 27.01.2021
3261 Clouds 19 1018 94 10000 7.72 130 12:48 27.01.2021
3262 Clouds 19 1018 94 10000 8.75 140 12:26 27.01.2021
3263 Clouds 19 1018 94 8000 9.26 140 11:55 27.01.2021
3264 Clouds 19 1017 94 6000 8.23 130 11:36 27.01.2021
3265 Clouds 19 1017 94 6000 8.23 130 11:18 27.01.2021
3266 Clouds 19 1017 94 7000 8.75 140 10:38 27.01.2021
3267 Clouds 20 1017 94 7000 8.75 140 10:19 27.01.2021
3268 Drizzle 19 1016 100 8000 8.75 170 09:40 27.01.2021
3269 Clouds 20 1015 94 8000 8.75 180 08:56 27.01.2021
3270 Rain 20 1014 88 5000 9.77 190 07:59 27.01.2021
3271 Clouds 21 1014 88 10000 10.29 190 07:40 27.01.2021
3272 Clouds 21 1014 88 10000 11.32 180 06:50 27.01.2021
3273 Clouds 21 1014 88 10000 10.29 180 06:19 27.01.2021
3274 Clouds 21 1014 94 6000 12.35 170 05:39 27.01.2021
3275 Clouds 22 1013 83 10000 12.86 170 03:29 27.01.2021
3276 Clouds 21 1013 94 8000 11.83 170 02:23 27.01.2021
3277 Clouds 21 1013 94 5000 11.83 170 01:49 27.01.2021
3278 Drizzle 21 1012 94 6000 11.83 170 00:33 27.01.2021
3279 Clouds 21 1012 94 5000 10.8 170 23:49 26.01.2021
3280 Drizzle 22 1011 94 6000 11.32 160 23:28 26.01.2021
3281 Clouds 22 1010 88 10000 11.83 170 22:50 26.01.2021
3282 Clouds 22 1010 88 10000 11.83 170 22:23 26.01.2021
3283 Clouds 22 1009 94 10000 11.32 170 21:54 26.01.2021
3284 Clouds 21 1009 94 10000 12.86 180 21:34 26.01.2021
3285 Clouds 21 1008 88 10000 12.86 180 20:58 26.01.2021
3286 Clear 21 1008 94 10000 12.86 190 20:40 26.01.2021
3287 Clear 22 1008 94 10000 12.86 190 20:21 26.01.2021
3288 Clouds 22 1006 88 10000 11.83 190 19:45 26.01.2021
3289 Clouds 22 1006 88 10000 11.83 190 19:22 26.01.2021
3290 Clouds 22 1006 94 10000 12.35 190 18:48 26.01.2021
3291 Clouds 23 1006 94 10000 11.32 190 18:27 26.01.2021
3292 Clouds 23 1006 94 10000 11.32 190 18:27 26.01.2021
3293 Clouds 23 1006 94 10000 9.77 190 17:55 26.01.2021
3294 Clouds 24 1006 88 10000 8.75 180 17:37 26.01.2021
3295 Clouds 24 1005 88 10000 8.75 180 16:56 26.01.2021
3296 Clouds 24 1005 88 10000 8.75 180 16:37 26.01.2021
3297 Clouds 24 1005 88 10000 7.72 170 16:19 26.01.2021
3298 Clouds 24 1005 88 10000 7.72 160 15:44 26.01.2021
3299 Clouds 24 1005 88 10000 7.72 150 15:24 26.01.2021
3300 Clouds 24 1005 88 10000 7.72 150 14:46 26.01.2021
3301 Clear 24 1006 88 10000 7.72 160 14:28 26.01.2021
3302 Clouds 25 1006 83 9000 8.23 160 13:37 26.01.2021
3303 Clouds 25 1005 83 8000 11.32 180 13:18 26.01.2021
3304 Clear 27 1004 69 10000 13.38 180 12:42 26.01.2021
3305 Clear 27 1004 69 10000 13.38 180 12:22 26.01.2021
3306 Clouds 29 1003 42 10000 1.54 240 11:51 26.01.2021
3307 Clouds 29 1003 42 10000 1.54 240 11:30 26.01.2021
3308 Clear 28 1001 48 10000 9.77 20 10:45 26.01.2021
3309 Clear 29 1001 48 10000 9.77 20 10:26 26.01.2021
3310 Clear 30 1000 42 10000 10.8 30 09:42 26.01.2021
3311 Clear 30 1000 42 10000 10.8 30 09:23 26.01.2021
3312 Clear 30 999 42 10000 9.26 30 08:50 26.01.2021
3313 Clear 30 999 40 10000 11.83 30 08:21 26.01.2021
3314 Clear 33 999 38 10000 11.83 30 07:27 26.01.2021
3315 Clear 36 999 26 10000 10.29 40 05:59 26.01.2021
3316 Clear 36 999 23 10000 9.77 30 05:41 26.01.2021
3317 Clear 38 1000 16 10000 4.63 290 03:58 26.01.2021
3318 Clear 36 1001 22 10000 8.23 320 02:19 26.01.2021
3319 Clear 33 1002 33 10000 5.66 330 00:54 26.01.2021
3320 Clear 29 1002 54 10000 2.57 290 23:36 25.01.2021
3321 Clear 28 1002 65 10000 3.09 310 22:57 25.01.2021
3322 Clear 26 1002 69 10000 3.09 330 22:36 25.01.2021
3323 Clear 24 1002 73 10000 2.06 30 21:50 25.01.2021
3324 Clear 23 1002 78 10000 2.57 30 21:26 25.01.2021
3325 Clear 22 1002 83 10000 2.57 40 20:51 25.01.2021
3326 Clear 22 1002 83 10000 2.57 30 20:33 25.01.2021
3327 Clear 22 1001 88 10000 3.6 30 19:51 25.01.2021
3328 Clear 22 1001 83 10000 3.6 30 19:31 25.01.2021
3329 Clear 22 1001 83 10000 3.6 30 18:49 25.01.2021
3330 Clear 22 1001 83 10000 3.6 30 18:28 25.01.2021
3331 Clear 22 1002 83 10000 3.6 20 17:58 25.01.2021
3332 Clear 22 1002 83 10000 3.6 20 17:40 25.01.2021
3333 Clear 22 1002 83 10000 3.6 20 17:22 25.01.2021
3334 Clear 23 1003 83 10000 3.6 20 16:41 25.01.2021
3335 Clear 23 1003 83 10000 5.14 40 16:22 25.01.2021
3336 Clear 23 1003 83 10000 5.14 40 15:49 25.01.2021
3337 Clouds 23 1003 83 10000 4.12 30 15:29 25.01.2021
3338 Clouds 23 1004 78 10000 5.14 30 14:50 25.01.2021
3339 Clouds 23 1004 78 10000 5.14 30 14:20 25.01.2021
3340 Clouds 23 1004 78 10000 6.17 20 13:54 25.01.2021
3341 Clouds 23 1004 78 10000 6.17 20 13:54 25.01.2021
3342 Clouds 23 1004 78 10000 6.69 10 13:34 25.01.2021
3343 Clear 24 1004 78 10000 7.72 20 12:46 25.01.2021
3344 Clear 24 1004 73 10000 9.26 20 12:24 25.01.2021
3345 Clear 24 1004 78 10000 9.77 30 11:55 25.01.2021
3346 Clear 24 1003 78 10000 9.77 30 11:20 25.01.2021
3347 Clear 25 1003 73 10000 9.26 30 10:43 25.01.2021
3348 Clear 25 1003 69 10000 9.77 30 10:20 25.01.2021
3349 Clear 25 1003 69 10000 9.77 30 09:46 25.01.2021
3350 Clear 26 1003 61 10000 9.77 30 09:28 25.01.2021
3351 Clear 27 1003 57 10000 10.29 30 08:32 25.01.2021
3352 Clear 28 1004 45 10000 11.83 30 07:46 25.01.2021
3353 Clear 29 1004 45 10000 11.83 30 07:26 25.01.2021
3354 Clear 30 1005 45 10000 7.2 40 06:22 25.01.2021
3355 Clear 29 1008 45 10000 6.17 80 01:35 25.01.2021
3356 Clear 28 1009 48 10000 4.63 40 00:31 25.01.2021
3357 Clouds 26 1001 79 10000 1.34 2 23:20 24.01.2021
3358 Clear 25 1009 65 10000 4.63 30 22:47 24.01.2021
3359 Clear 24 1009 65 10000 4.63 30 22:28 24.01.2021
3360 Clear 24 1009 65 10000 4.63 30 22:27 24.01.2021
3361 Clear 24 1009 65 10000 4.63 30 22:27 24.01.2021
3362 Clear 24 1009 65 10000 4.63 30 22:27 24.01.2021
3363 Clear 23 1009 69 10000 4.63 20 21:55 24.01.2021
3364 Clear 22 1009 73 10000 4.63 30 21:27 24.01.2021
3365 Clear 22 1009 78 10000 4.63 20 20:46 24.01.2021
3366 Clear 22 1008 78 10000 5.66 20 20:23 24.01.2021
3367 Clear 22 1008 78 10000 5.66 20 20:23 24.01.2021
3368 Clear 22 1008 78 10000 4.12 10 19:57 24.01.2021
3369 Clear 22 1008 78 10000 5.14 30 19:38 24.01.2021
3370 Clear 22 1008 78 10000 5.14 30 19:19 24.01.2021
3371 Clear 23 1008 78 10000 4.63 30 18:54 24.01.2021
3372 Clear 22 1008 78 10000 5.14 20 18:36 24.01.2021
3373 Clear 23 1008 73 10000 4.63 20 18:18 24.01.2021
3374 Clear 23 1008 73 10000 3.6 30 17:42 24.01.2021
3375 Clear 23 1008 73 10000 3.6 30 17:18 24.01.2021
3376 Clear 23 1009 73 10000 5.66 20 16:41 24.01.2021
3377 Clear 23 1009 69 10000 5.66 30 16:21 24.01.2021
3378 Clear 23 1009 69 10000 5.66 30 15:46 24.01.2021
3379 Clear 23 1009 69 10000 5.14 30 15:21 24.01.2021
3380 Clear 24 1009 69 10000 6.69 40 14:56 24.01.2021
3381 Clear 24 1009 69 10000 5.66 30 14:32 24.01.2021
3382 Clear 25 1010 65 10000 6.69 30 13:36 24.01.2021
3383 Clear 25 1010 65 10000 5.66 20 12:55 24.01.2021
3384 Clear 25 1010 61 10000 5.66 10 12:36 24.01.2021
3385 Clear 25 1009 61 10000 7.2 20 12:18 24.01.2021
3386 Clear 26 1009 54 10000 7.72 20 11:45 24.01.2021
3387 Clear 26 1010 47 10000 7.2 30 11:22 24.01.2021
3388 Clear 27 1009 36 10000 8.75 40 10:42 24.01.2021
3389 Clear 27 1009 28 10000 4.63 290 09:57 24.01.2021
3390 Clear 28 1008 30 10000 10.29 30 09:22 24.01.2021
3391 Clear 29 1008 32 10000 11.83 30 08:52 24.01.2021
3392 Clear 31 1008 35 10000 10.8 30 07:22 24.01.2021
3393 Clear 34 1011 43 10000 7.2 80 02:34 24.01.2021
3394 Clear 32 1011 48 10000 3.09 10 00:59 24.01.2021
3395 Clear 30 1012 58 10000 4.12 10 00:24 24.01.2021
3396 Clear 30 1012 58 10000 4.12 10 00:24 24.01.2021
3397 Clear 28 1012 65 10000 3.6 360 23:47 23.01.2021
3398 Clear 27 1012 65 10000 3.6 360 23:25 23.01.2021
3399 Clear 26 1012 69 10000 3.6 350 22:51 23.01.2021
3400 Clouds 25 1012 78 10000 3.09 320 22:32 23.01.2021
3401 Clouds 23 1012 78 10000 3.09 330 21:51 23.01.2021
3402 Clouds 23 1012 88 10000 0.51 180 21:22 23.01.2021
3403 Clouds 22 1011 88 10000 0.8 331 20:47 23.01.2021
3404 Clouds 21 1011 88 9000 0.51 170 20:24 23.01.2021
3405 Clear 21 1015 90 10000 0.93 223 19:46 23.01.2021
3406 Clouds 22 1011 94 9000 1.54 170 19:22 23.01.2021
3407 Clear 22 1012 84 10000 0.45 231 18:49 23.01.2021
3408 Clouds 22 1011 94 10000 3.09 160 18:26 23.01.2021
3409 Clear 22 1011 94 10000 3.09 150 17:54 23.01.2021
3410 Clear 22 1011 94 10000 3.09 150 17:27 23.01.2021
3411 Clear 22 1011 88 10000 3.6 150 16:50 23.01.2021
3412 Clear 23 1012 88 10000 3.09 150 16:30 23.01.2021
3413 Clear 23 1012 88 10000 3.6 160 15:42 23.01.2021
3414 Clear 24 1012 88 10000 3.6 160 15:24 23.01.2021
3415 Clear 24 1012 83 10000 3.6 160 14:34 23.01.2021
3416 Clear 24 1012 88 10000 4.63 160 13:55 23.01.2021
3417 Clear 24 1012 88 10000 4.63 160 13:36 23.01.2021
3418 Clear 25 1012 88 10000 4.12 170 12:57 23.01.2021
3419 Clear 25 1012 73 10000 4.12 160 12:37 23.01.2021
3420 Clear 25 1012 73 10000 4.12 160 12:18 23.01.2021
3421 Clear 26 1011 57 10000 2.06 40 11:33 23.01.2021
3422 Clear 26 1011 54 10000 4.12 20 10:52 23.01.2021
3423 Clouds 26 1002 79 10000 2.68 123 10:22 23.01.2021
3424 Clouds 27 1002 74 10000 2.68 150 09:49 23.01.2021
3425 Clouds 27 1002 75 10000 1.34 347 08:57 23.01.2021
3426 Clouds 27 1010 65 10000 8.75 30 08:37 23.01.2021
3427 Clear 27 1010 61 10000 7.72 50 07:37 23.01.2021
3428 Clear 28 1011 58 10000 6.17 70 05:32 23.01.2021
3429 Clear 27 1013 64 10000 2.68 167 00:56 23.01.2021
3430 Clear 27 1012 69 10000 6.17 170 23:53 22.01.2021
3431 Clear 26 1012 73 10000 6.69 180 23:34 22.01.2021
3432 Clear 25 1012 78 10000 5.14 180 22:40 22.01.2021
3433 Clear 24 1011 78 10000 3.6 180 21:51 22.01.2021
3434 Clear 23 1011 83 10000 3.09 180 21:32 22.01.2021
3435 Clear 23 1010 83 10000 2.57 160 20:59 22.01.2021
3436 Clear 23 1010 83 10000 3.6 150 20:39 22.01.2021
3437 Clear 22 1010 83 10000 5.14 160 19:59 22.01.2021
3438 Clear 22 1009 83 10000 6.17 160 19:26 22.01.2021
3439 Clear 22 1009 88 10000 5.66 160 18:59 22.01.2021
3440 Clear 22 1008 88 10000 6.69 180 18:41 22.01.2021
3441 Clear 22 1008 88 10000 6.69 180 18:22 22.01.2021
3442 Clear 23 1008 83 10000 4.63 160 17:43 22.01.2021
3443 Clear 23 1008 83 10000 4.63 160 17:24 22.01.2021
3444 Clear 23 1008 78 10000 4.27 170 16:44 22.01.2021
3445 Clear 24 1008 78 10000 3.47 176 16:23 22.01.2021
3446 Clear 24 1008 69 10000 3.09 50 15:30 22.01.2021
3447 Clear 24 1008 69 10000 2.57 50 14:59 22.01.2021
3448 Clear 24 1009 69 10000 2.57 60 14:31 22.01.2021
3449 Clear 25 1008 65 10000 2.57 40 13:50 22.01.2021
3450 Clear 25 1008 61 10000 3.09 10 13:31 22.01.2021
3451 Clear 25 1009 61 10000 3.6 30 12:52 22.01.2021
3452 Clear 25 1008 57 10000 3.6 10 12:23 22.01.2021
3453 Clear 25 1008 57 10000 8.23 20 11:47 22.01.2021
3454 Clear 26 1008 57 10000 8.23 20 11:22 22.01.2021
3455 Clouds 26 999 78 10000 0.45 11 10:45 22.01.2021
3456 Clear 27 1007 54 10000 6.69 30 10:20 22.01.2021
3457 Clear 28 1007 54 10000 8.23 30 09:35 22.01.2021
3458 Clear 28 1006 45 10000 9.26 30 08:51 22.01.2021
3459 Clear 29 1006 45 10000 9.26 30 08:30 22.01.2021
3460 Clear 29 1006 51 10000 9.26 30 07:40 22.01.2021
3461 Clear 31 1008 40 10000 5.66 80 03:41 22.01.2021
3462 Clear 28 1010 42 10000 3.6 10 00:54 22.01.2021
3463 Clouds 27 1002 73 10000 0.89 163 00:25 22.01.2021
3464 Clear 25 1011 57 10000 3.09 10 23:42 21.01.2021
3465 Clear 23 1011 60 10000 4.63 10 22:59 21.01.2021
3466 Clear 22 1012 68 10000 4.63 10 22:41 21.01.2021
3467 Clear 20 1011 68 10000 3.09 10 21:44 21.01.2021
3468 Clouds 19 1012 80 10000 0.89 35 21:23 21.01.2021
3469 Clear 19 1011 73 10000 3.09 10 20:59 21.01.2021
3470 Clear 19 1011 73 10000 3.6 10 20:41 21.01.2021
3471 Clear 18 1011 77 10000 2.57 20 20:20 21.01.2021
3472 Clear 18 1011 77 10000 2.57 20 19:46 21.01.2021
3473 Clear 19 1011 78 10000 3.6 10 19:25 21.01.2021
3474 Clear 18 1011 77 10000 3.6 340 18:43 21.01.2021
3475 Clear 19 1011 77 10000 3.6 340 18:21 21.01.2021
3476 Clear 19 1011 77 10000 3.09 340 17:57 21.01.2021
3477 Clear 19 1011 77 10000 3.09 340 17:57 21.01.2021
3478 Clear 19 1011 77 10000 3.09 350 17:21 21.01.2021
3479 Clear 19 1012 73 10000 3.6 330 16:58 21.01.2021
3480 Clear 19 1012 73 10000 2.57 330 16:38 21.01.2021
3481 Clear 19 1012 73 10000 2.57 330 16:20 21.01.2021
3482 Clear 19 1012 78 10000 4.12 330 15:47 21.01.2021
3483 Clear 20 1012 73 10000 5.14 360 15:24 21.01.2021
3484 Clear 20 1010 85 10000 4 351 14:46 21.01.2021
3485 Clear 21 1013 73 10000 6.69 10 14:24 21.01.2021
3486 Clear 21 1013 68 10000 8.75 20 13:43 21.01.2021
3487 Clear 21 1013 68 10000 8.75 20 13:23 21.01.2021
3488 Clear 21 1013 68 10000 8.75 20 13:23 21.01.2021
3489 Clear 21 1013 68 10000 8.75 20 13:23 21.01.2021
3490 Clear 21 1013 64 10000 8.75 30 12:44 21.01.2021
3491 Clear 21 1013 64 10000 8.75 30 12:24 21.01.2021
3492 Clear 21 1013 64 10000 8.75 30 11:52 21.01.2021
3493 Clear 22 1013 64 10000 8.23 30 11:30 21.01.2021
3494 Clouds 21 1014 71 10000 2.24 31 10:53 21.01.2021
3495 Clear 22 1013 57 10000 8.75 30 10:34 21.01.2021
3496 Clouds 22 1012 68 10000 4.47 44 09:49 21.01.2021
3497 Clear 23 1013 50 10000 9.77 40 09:30 21.01.2021
3498 Clouds 23 1004 72 10000 0.89 249 08:57 21.01.2021
3499 Clear 24 1013 44 10000 9.26 40 08:27 21.01.2021
3500 Clouds 24 1004 69 10000 1.34 291 07:45 21.01.2021
3501 Clear 24 1005 69 10000 0.89 249 07:25 21.01.2021
3502 Clouds 25 1015 41 10000 9.26 60 05:59 21.01.2021
3503 Clouds 25 1016 41 10000 7.72 60 04:29 21.01.2021
3504 Clouds 25 1018 44 10000 2.06 40 02:18 21.01.2021
3505 Clouds 23 1019 50 10000 2.57 330 00:41 21.01.2021
3506 Clouds 21 1020 53 10000 3.09 280 23:44 20.01.2021
3507 Clouds 21 1020 53 10000 3.09 280 23:24 20.01.2021
3508 Clouds 20 1020 60 10000 3.09 300 22:50 20.01.2021
3509 Clouds 19 1020 63 10000 3.09 310 22:29 20.01.2021
3510 Clouds 17 1020 68 10000 3.09 330 21:49 20.01.2021
3511 Clouds 15 1019 72 10000 3.6 340 21:23 20.01.2021
3512 Clouds 15 1019 77 10000 2.06 340 20:52 20.01.2021
3513 Clouds 15 1019 72 10000 3.09 290 20:23 20.01.2021
3514 Clouds 15 1019 72 10000 3.09 260 19:48 20.01.2021
3515 Clouds 15 1019 72 10000 3.09 260 19:29 20.01.2021
3516 Clear 16 1019 72 10000 2.57 260 18:43 20.01.2021
3517 Clear 15 1019 72 10000 2.57 260 18:22 20.01.2021
3518 Clouds 15 1019 77 10000 2.57 260 17:52 20.01.2021
3519 Clouds 16 1019 72 10000 2.06 240 17:34 20.01.2021
3520 Clear 16 1019 72 10000 2.57 240 16:51 20.01.2021
3521 Clear 16 1020 72 10000 2.57 300 16:23 20.01.2021
3522 Clear 16 1020 72 10000 2.06 270 15:45 20.01.2021
3523 Clear 16 1020 72 10000 0.75 29 15:19 20.01.2021
3524 Clear 16 1020 77 10000 0.75 29 14:43 20.01.2021
3525 Clear 17 1021 68 10000 2.06 190 14:21 20.01.2021
3526 Clear 17 1021 68 10000 3.09 200 13:40 20.01.2021
3527 Clear 17 1021 68 10000 3.09 210 12:59 20.01.2021
3528 Clear 18 1021 68 10000 3.09 200 12:27 20.01.2021
3529 Clear 18 1021 60 10000 2.06 130 11:53 20.01.2021
3530 Clear 18 1021 56 10000 2.57 130 11:34 20.01.2021
3531 Clouds 19 1021 56 10000 2.57 120 10:50 20.01.2021
3532 Clouds 20 1021 60 10000 3.6 140 10:28 20.01.2021
3533 Clouds 20 1021 62 10000 2.68 119 09:44 20.01.2021
3534 Clouds 20 1012 68 10000 1.34 158 09:23 20.01.2021
3535 Clear 21 1021 52 10000 4.12 140 08:47 20.01.2021
3536 Clear 21 1021 52 10000 4.12 140 08:24 20.01.2021
3537 Clear 21 1021 46 10000 4.63 130 07:56 20.01.2021
3538 Clear 21 1021 46 10000 4.63 120 07:25 20.01.2021
3539 Clouds 21 1022 49 10000 5.66 170 05:38 20.01.2021
3540 Clouds 21 1014 66 10000 2.68 161 03:22 20.01.2021
3541 Clouds 20 1023 56 10000 5.66 150 00:59 20.01.2021
3542 Clouds 19 1023 56 10000 5.66 150 00:31 20.01.2021
3543 Clouds 19 1023 52 10000 5.14 150 23:46 19.01.2021
3544 Clouds 18 1023 60 10000 5.14 160 23:19 19.01.2021
3545 Clouds 18 1023 56 10000 5.66 150 22:42 19.01.2021
3546 Clouds 18 1023 56 10000 5.66 150 22:22 19.01.2021
3547 Clouds 17 1023 84 10000 1.79 313 21:59 19.01.2021
3548 Clouds 17 1021 95 10000 5.36 154 21:41 19.01.2021
3549 Clouds 17 1023 85 10000 2.24 271 21:22 19.01.2021
3550 Clouds 17 1022 68 10000 6.17 150 20:43 19.01.2021
3551 Clouds 17 1022 68 10000 6.17 150 20:22 19.01.2021
3552 Rain 17 1021 82 10000 3.6 190 19:48 19.01.2021
3553 Rain 17 1021 82 10000 3.6 190 19:27 19.01.2021
3554 Clouds 17 1021 77 10000 6.69 160 18:46 19.01.2021
3555 Clouds 17 1021 77 10000 6.69 160 18:26 19.01.2021
3556 Clouds 17 1021 72 10000 6.69 150 17:46 19.01.2021
3557 Clouds 17 1021 88 10000 5.66 200 17:26 19.01.2021
3558 Rain 17 1021 82 10000 7.2 160 16:49 19.01.2021
3559 Rain 17 1022 86 10000 2.68 166 16:26 19.01.2021
3560 Rain 17 1021 77 10000 5.14 160 15:57 19.01.2021
3561 Rain 17 1021 77 10000 5.14 160 15:57 19.01.2021
3562 Rain 17 1021 82 10000 2.57 110 15:37 19.01.2021
3563 Rain 17 1022 82 10000 6.17 160 14:57 19.01.2021
3564 Rain 17 1022 88 10000 6.69 170 14:39 19.01.2021
3565 Drizzle 18 1022 88 10000 8.75 190 14:20 19.01.2021
3566 Clouds 19 1022 72 10000 5.66 150 13:40 19.01.2021
3567 Clouds 19 1022 72 10000 5.66 150 13:21 19.01.2021
3568 Clouds 19 1022 68 10000 5.66 130 12:47 19.01.2021
3569 Clouds 19 1021 68 10000 7.2 150 12:28 19.01.2021
3570 Clouds 19 1021 64 10000 7.2 140 11:43 19.01.2021
3571 Clouds 19 1021 64 10000 7.2 140 11:23 19.01.2021
3572 Clouds 19 1021 60 10000 7.72 140 10:50 19.01.2021
3573 Clouds 20 1020 64 10000 7.72 140 10:31 19.01.2021
3574 Clouds 20 1020 68 10000 3.58 144 09:52 19.01.2021
3575 Rain 20 1019 64 10000 8.75 160 09:27 19.01.2021
3576 Rain 20 1019 60 10000 9.77 160 08:52 19.01.2021
3577 Clouds 20 1018 60 10000 8.75 160 08:21 19.01.2021
3578 Clouds 21 1019 66 10000 3.58 127 07:38 19.01.2021
3579 Clouds 21 1018 56 10000 9.26 160 06:50 19.01.2021
3580 Clouds 22 1018 60 10000 10.29 160 02:31 19.01.2021
3581 Clouds 21 1017 68 10000 10.8 160 00:49 19.01.2021
3582 Rain 21 1016 73 10000 9.77 160 23:58 18.01.2021
3583 Rain 21 1016 82 10000 4.02 127 23:32 18.01.2021
3584 Clouds 22 1015 83 10000 8.75 160 22:51 18.01.2021
3585 Rain 23 1014 78 10000 5.66 170 22:26 18.01.2021
3586 Rain 23 1014 78 10000 5.66 170 21:55 18.01.2021
3587 Rain 22 1014 83 10000 5.14 160 21:37 18.01.2021
3588 Rain 22 1013 88 10000 6.17 160 21:19 18.01.2021
3589 Rain 21 1013 88 10000 5.66 160 20:42 18.01.2021
3590 Rain 22 1013 88 10000 5.66 160 20:22 18.01.2021
3591 Rain 22 1011 88 10000 7.72 160 19:48 18.01.2021
3592 Rain 22 1011 88 10000 7.72 160 19:30 18.01.2021
3593 Clouds 21 1011 94 10000 8.23 170 18:47 18.01.2021
3594 Clear 21 1012 85 10000 1.79 161 18:23 18.01.2021
3595 Clear 21 1011 87 10000 2.68 190 17:45 18.01.2021
3596 Clear 21 1010 88 10000 6.69 190 17:22 18.01.2021
3597 Clear 21 1010 88 10000 3.6 190 16:46 18.01.2021
3598 Clear 21 1010 88 10000 3.6 190 16:22 18.01.2021
3599 Clear 21 1010 88 10000 4.12 190 15:49 18.01.2021
3600 Clear 21 1010 88 10000 3.09 160 15:25 18.01.2021
3601 Clear 21 1010 88 10000 3.6 150 14:46 18.01.2021
3602 Clear 22 1010 88 10000 3.6 150 14:28 18.01.2021
3603 Clear 22 1010 83 10000 2.57 170 13:54 18.01.2021
3604 Clear 22 1010 78 10000 2.06 260 13:36 18.01.2021
3605 Clear 22 1013 82 10000 1.9 335 13:18 18.01.2021
3606 Clear 22 1010 78 10000 4.12 30 12:41 18.01.2021
3607 Clear 23 1009 78 10000 5.14 20 12:18 18.01.2021
3608 Clear 23 1007 76 10000 1.15 342 11:40 18.01.2021
3609 Clear 23 1010 70 10000 0.89 69 11:21 18.01.2021
3610 Clear 23 1010 70 10000 0.89 69 11:21 18.01.2021
3611 Clear 24 1009 61 10000 6.17 30 10:46 18.01.2021
3612 Clear 24 1000 82 10000 0.89 328 09:51 18.01.2021
3613 Clear 25 1000 82 10000 1.34 221 09:32 18.01.2021
3614 Clear 26 1008 47 10000 7.2 50 08:56 18.01.2021
3615 Clear 26 1008 47 10000 8.75 50 08:25 18.01.2021
3616 Clear 26 999 78 10000 0.89 285 07:48 18.01.2021
3617 Clear 27 1009 47 10000 9.26 60 06:35 18.01.2021
3618 Clear 28 1010 51 10000 7.72 40 04:41 18.01.2021
3619 Clear 28 1010 51 10000 7.72 40 04:22 18.01.2021
3620 Clear 28 1011 48 10000 8.23 40 03:46 18.01.2021
3621 Clear 28 1011 48 10000 8.23 40 03:25 18.01.2021
3622 Clear 28 1012 47 10000 6.17 20 02:53 18.01.2021
3623 Clear 27 1013 39 10000 3.6 10 02:19 18.01.2021
3624 Clouds 25 1014 47 10000 5.66 340 00:41 18.01.2021
3625 Clouds 24 1014 57 10000 5.66 330 23:51 17.01.2021
3626 Clouds 23 1014 57 10000 5.14 340 23:25 17.01.2021
3627 Clear 22 1014 57 10000 5.14 310 22:50 17.01.2021
3628 Clear 22 1014 60 10000 2.57 300 22:23 17.01.2021
3629 Clear 20 1014 68 10000 3.6 320 21:43 17.01.2021
3630 Clear 19 1014 68 10000 3.6 320 21:24 17.01.2021
3631 Clouds 18 1014 68 10000 2.57 340 20:54 17.01.2021
3632 Clouds 18 1014 73 10000 3.09 250 20:36 17.01.2021
3633 Clouds 18 1014 73 10000 2.06 240 20:18 17.01.2021
3634 Clouds 18 1013 73 10000 2.57 250 19:40 17.01.2021
3635 Clouds 19 1013 77 10000 3.09 280 18:54 17.01.2021
3636 Clear 19 1013 73 10000 3.09 280 18:29 17.01.2021
3637 Clear 19 1014 73 10000 1.54 40 17:51 17.01.2021
3638 Clear 20 1014 73 10000 1.54 40 17:29 17.01.2021
3639 Clear 20 1014 68 10000 2.57 70 16:56 17.01.2021
3640 Clear 20 1015 68 10000 3.09 80 16:37 17.01.2021
3641 Clear 20 1015 68 10000 3.09 80 16:18 17.01.2021
3642 Clouds 21 1015 68 10000 4.12 80 15:37 17.01.2021
3643 Clouds 21 1015 64 10000 4.12 120 15:19 17.01.2021
3644 Clouds 21 1015 64 10000 4.12 120 14:42 17.01.2021
3645 Clouds 21 1015 64 10000 4.12 130 14:23 17.01.2021
3646 Clouds 21 1016 60 10000 3.6 120 13:43 17.01.2021
3647 Clouds 21 1016 60 10000 3.6 120 13:24 17.01.2021
3648 Clouds 21 1016 64 10000 4.63 120 12:46 17.01.2021
3649 Clouds 21 1016 70 10000 1.79 131 12:25 17.01.2021
3650 Clouds 20 1016 69 10000 2.68 132 11:26 17.01.2021
3651 Clouds 20 1015 64 10000 4.63 120 10:57 17.01.2021
3652 Clouds 21 1014 60 10000 4.63 110 10:37 17.01.2021
3653 Clouds 21 1015 67 10000 2.68 121 10:18 17.01.2021
3654 Clouds 22 1013 56 10000 5.66 100 09:18 17.01.2021
3655 Clear 22 1004 70 10000 2.68 150 08:41 17.01.2021
3656 Clouds 23 1005 66 10000 2.68 166 04:45 17.01.2021
3657 Clouds 24 1014 47 10000 6.17 120 04:27 17.01.2021
3658 Clouds 24 1014 56 10000 6.17 180 01:38 17.01.2021
3659 Clouds 23 1014 46 10000 5.66 180 00:37 17.01.2021
3660 Clouds 22 1014 43 10000 4.12 210 00:18 17.01.2021
3661 Clouds 22 1014 43 10000 4.12 210 23:46 16.01.2021
3662 Clear 21 1013 43 10000 6.17 230 23:18 16.01.2021
3663 Clear 20 1013 42 10000 7.2 230 22:28 16.01.2021
3664 Clear 18 1013 42 10000 7.2 240 21:58 16.01.2021
3665 Clear 17 1013 45 10000 5.66 240 21:24 16.01.2021
3666 Clear 16 1012 63 10000 5.66 240 20:53 16.01.2021
3667 Clear 16 1012 63 10000 5.66 240 20:53 16.01.2021
3668 Clear 16 1012 63 10000 4.12 250 20:29 16.01.2021
3669 Rain 16 1012 63 10000 3.6 280 19:55 16.01.2021
3670 Clouds 15 1012 63 10000 5.14 280 19:37 16.01.2021
3671 Clear 16 1012 67 10000 3.09 290 19:18 16.01.2021
3672 Clear 17 1012 63 10000 3.09 300 18:40 16.01.2021
3673 Clear 17 1012 63 10000 3.09 300 18:20 16.01.2021
3674 Clear 17 1011 59 10000 2.06 320 17:41 16.01.2021
3675 Clear 17 1011 59 10000 2.06 320 17:21 16.01.2021
3676 Clear 17 1011 55 10000 2.57 290 16:45 16.01.2021
3677 Clear 18 1011 55 10000 2.57 290 16:25 16.01.2021
3678 Clear 17 1012 52 10000 2.57 290 15:48 16.01.2021
3679 Rain 18 1012 52 10000 3.09 280 14:59 16.01.2021
3680 Rain 19 1011 43 10000 1.54 360 14:19 16.01.2021
3681 Clear 19 1011 43 10000 1.54 360 13:48 16.01.2021
3682 Rain 19 1011 46 10000 2.57 10 13:21 16.01.2021
3683 Clear 19 1011 46 10000 2.57 50 12:39 16.01.2021
3684 Clear 19 1011 46 10000 2.57 50 12:20 16.01.2021
3685 Clear 20 1010 43 10000 3.6 50 11:46 16.01.2021
3686 Clear 20 1010 43 10000 3.6 50 11:24 16.01.2021
3687 Clear 20 1010 43 10000 4.12 50 10:45 16.01.2021
3688 Clear 21 1010 51 10000 1.34 360 10:20 16.01.2021
3689 Rain 22 1009 49 10000 2.24 83 09:33 16.01.2021
3690 Rain 23 1007 31 10000 6.69 50 08:35 16.01.2021
3691 Rain 23 1007 31 10000 7.2 50 07:32 16.01.2021
3692 Rain 23 1007 29 10000 5.14 70 06:43 16.01.2021
3693 Clear 25 1008 27 10000 7.2 120 04:39 16.01.2021
3694 Rain 24 1009 27 10000 3.6 120 02:56 16.01.2021
3695 Clear 22 1009 24 10000 7.2 260 00:50 16.01.2021
3696 Clear 21 1009 24 10000 5.14 230 00:28 16.01.2021
3697 Clear 21 1009 28 10000 7.72 230 23:58 15.01.2021
3698 Clear 20 1009 28 10000 8.23 260 23:22 15.01.2021
3699 Clear 19 1009 30 10000 8.75 250 22:25 15.01.2021
3700 Clear 18 1008 29 10000 9.26 270 21:46 15.01.2021
3701 Clear 18 1008 29 10000 9.26 270 21:21 15.01.2021
3702 Clear 17 1007 25 10000 8.23 280 20:41 15.01.2021
3703 Clear 17 1007 25 10000 8.23 280 20:22 15.01.2021
3704 Clouds 18 1007 29 10000 8.23 260 19:41 15.01.2021
3705 Clouds 18 1007 29 10000 8.23 260 19:23 15.01.2021
3706 Clear 19 1006 27 10000 7.2 250 18:44 15.01.2021
3707 Clear 19 1006 27 10000 7.2 250 18:44 15.01.2021
3708 Clear 19 1006 27 10000 7.2 250 18:19 15.01.2021
3709 Clear 19 1006 27 10000 7.72 250 17:52 15.01.2021
3710 Clear 20 1005 24 10000 7.72 240 17:26 15.01.2021
3711 Clear 20 1005 24 10000 9.26 240 16:55 15.01.2021
3712 Clear 21 1005 28 10000 8.23 230 16:26 15.01.2021
3713 Clear 21 1005 33 10000 9.26 220 15:56 15.01.2021
3714 Clouds 22 1006 32 10000 5.36 239 15:37 15.01.2021
3715 Clouds 22 1005 33 10000 7.6 252 15:18 15.01.2021
3716 Clouds 23 1005 33 10000 7.6 267 14:37 15.01.2021
3717 Rain 23 1003 29 10000 9.77 230 14:18 15.01.2021
3718 Clouds 24 1003 41 10000 10.8 220 13:40 15.01.2021
3719 Clouds 24 1003 78 10000 8.75 220 13:19 15.01.2021
3720 Clear 24 1002 83 10000 3.09 270 12:40 15.01.2021
3721 Clear 24 1002 83 10000 3.09 270 12:21 15.01.2021
3722 Clouds 23 1001 78 10000 5.14 10 11:42 15.01.2021
3723 Clouds 23 1001 78 10000 5.14 10 11:42 15.01.2021
3724 Rain 23 1001 78 10000 5.14 10 11:18 15.01.2021
3725 Rain 24 1001 78 10000 6.69 10 10:48 15.01.2021
3726 Clear 24 1000 73 10000 6.69 20 10:21 15.01.2021
3727 Clear 25 1000 69 10000 8.23 30 09:48 15.01.2021
3728 Clear 25 1000 69 10000 8.23 30 09:29 15.01.2021
3729 Rain 25 1000 65 10000 12.35 30 08:28 15.01.2021
3730 Rain 26 1000 61 10000 9.26 40 07:44 15.01.2021
3731 Clear 26 1000 61 10000 9.26 40 07:23 15.01.2021
3732 Clear 26 1001 57 10000 8.75 40 06:37 15.01.2021
3733 Clouds 26 1005 57 10000 6.17 120 02:45 15.01.2021
3734 Clouds 25 1007 65 10000 4.12 150 00:47 15.01.2021
3735 Clouds 23 1008 78 10000 3.6 210 23:31 14.01.2021
3736 Clouds 22 1008 83 10000 3.6 200 22:58 14.01.2021
3737 Clouds 22 1008 83 10000 3.09 200 22:38 14.01.2021
3738 Clouds 21 1008 83 10000 3.09 200 22:20 14.01.2021
3739 Clouds 21 1008 78 10000 2.57 240 21:41 14.01.2021
3740 Clouds 21 1008 78 10000 2.57 240 21:20 14.01.2021
3741 Clouds 21 1008 83 10000 3.09 230 20:48 14.01.2021
3742 Clouds 21 1008 83 10000 3.09 230 20:22 14.01.2021
3743 Rain 21 1008 88 10000 3.6 240 19:42 14.01.2021
3744 Clouds 21 1007 88 10000 4.12 210 19:23 14.01.2021
3745 Clouds 21 1007 83 10000 5.66 200 18:50 14.01.2021
3746 Rain 21 1007 83 10000 5.14 210 18:19 14.01.2021
3747 Clouds 21 1007 88 10000 5.66 200 17:45 14.01.2021
3748 Clouds 21 1007 88 10000 5.66 200 17:26 14.01.2021
3749 Rain 21 1008 88 10000 7.72 200 16:39 14.01.2021
3750 Clouds 21 1008 88 10000 7.72 200 15:57 14.01.2021
3751 Clouds 21 1009 88 10000 7.2 200 15:39 14.01.2021
3752 Clouds 21 1008 88 10000 8.75 190 14:58 14.01.2021
3753 Clouds 21 1008 88 10000 10.29 190 14:37 14.01.2021
3754 Clouds 21 1008 88 10000 10.29 190 14:18 14.01.2021
3755 Clouds 21 1009 88 9000 9.26 190 13:48 14.01.2021
3756 Clouds 22 1009 83 9000 10.8 180 13:20 14.01.2021
3757 Clouds 22 1009 88 9000 10.8 180 12:47 14.01.2021
3758 Clouds 22 1008 88 9000 10.29 180 12:19 14.01.2021
3759 Clouds 22 1008 88 8000 10.8 170 11:43 14.01.2021
3760 Rain 22 1008 88 8000 10.8 170 11:21 14.01.2021
3761 Rain 22 1008 88 8000 12.35 170 10:52 14.01.2021
3762 Rain 23 1007 88 9000 12.35 170 10:27 14.01.2021
3763 Rain 24 1006 94 8000 13.89 170 09:48 14.01.2021
3764 Clouds 26 998 85 10000 2.68 156 09:23 14.01.2021
3765 Clouds 25 1005 78 9000 10.8 190 08:49 14.01.2021
3766 Clouds 28 1004 51 10000 6.69 100 08:27 14.01.2021
3767 Rain 27 1004 48 10000 10.29 30 07:49 14.01.2021
3768 Rain 29 1004 48 10000 10.29 30 06:58 14.01.2021
3769 Clear 32 1005 48 10000 9.26 30 05:56 14.01.2021
3770 Clear 30 1009 54 10000 5.66 20 01:42 14.01.2021
3771 Clear 24 1010 65 10000 5.14 30 23:55 13.01.2021
3772 Clouds 22 1002 87 10000 0.45 97 23:23 13.01.2021
3773 Clouds 22 1002 88 10000 0.89 277 22:30 13.01.2021
3774 Clouds 22 1002 88 10000 0.89 30 21:59 13.01.2021
3775 Clouds 21 1002 88 10000 0.45 293 21:59 13.01.2021
3776 Clear 22 1011 78 10000 4.12 20 21:41 13.01.2021
3777 Clear 21 1011 78 10000 4.12 30 21:19 13.01.2021
3778 Clear 21 1011 78 10000 3.6 20 20:42 13.01.2021
3779 Clear 21 1011 78 10000 3.6 10 20:20 13.01.2021
3780 Clear 21 1011 78 10000 2.57 310 19:43 13.01.2021
3781 Clear 21 1011 78 10000 2.57 310 19:22 13.01.2021
3782 Clouds 20 1012 85 10000 3.13 273 18:42 13.01.2021
3783 Clear 21 1011 83 10000 2.57 360 18:22 13.01.2021
3784 Clouds 21 1011 78 10000 4.12 10 17:41 13.01.2021
3785 Clouds 21 1011 78 10000 4.12 10 17:18 13.01.2021
3786 Clouds 21 1012 78 10000 6.69 360 16:36 13.01.2021
3787 Clouds 22 1012 83 10000 7.72 10 16:18 13.01.2021
3788 Clouds 22 1013 83 10000 8.75 20 15:40 13.01.2021
3789 Clouds 22 1013 73 10000 9.26 20 14:59 13.01.2021
3790 Clouds 22 1013 73 10000 7.72 20 14:27 13.01.2021
3791 Clouds 23 1014 78 10000 8.23 20 13:39 13.01.2021
3792 Clear 23 1014 73 10000 7.72 20 13:19 13.01.2021
3793 Clear 23 1018 84 10000 0.89 245 12:45 13.01.2021
3794 Clear 23 1012 84 10000 1.79 51 12:24 13.01.2021
3795 Clear 23 1014 73 10000 7.72 30 11:50 13.01.2021
3796 Clear 23 1014 69 10000 8.23 30 11:32 13.01.2021
3797 Clear 23 1014 69 10000 8.23 30 10:48 13.01.2021
3798 Clear 23 1014 69 10000 8.75 30 10:27 13.01.2021
3799 Clouds 25 1014 61 10000 9.77 20 09:40 13.01.2021
3800 Clouds 25 1013 61 10000 10.29 40 08:59 13.01.2021
3801 Clouds 26 1013 54 10000 9.77 30 08:40 13.01.2021
3802 Clouds 26 1013 54 10000 9.77 30 08:20 13.01.2021
3803 Clouds 26 1014 51 10000 9.26 40 07:28 13.01.2021
3804 Clear 27 1006 73 10000 1.34 229 05:55 13.01.2021
3805 Clouds 27 1016 39 10000 9.26 30 04:18 13.01.2021
3806 Clouds 28 1016 42 10000 8.23 40 03:43 13.01.2021
3807 Clouds 28 1016 42 10000 8.23 40 03:22 13.01.2021
3808 Clouds 26 1017 54 10000 5.14 50 00:48 13.01.2021
3809 Clouds 25 1017 53 10000 4.63 40 23:43 12.01.2021
3810 Clouds 24 1017 57 10000 2.06 30 22:59 12.01.2021
3811 Clouds 24 1017 69 10000 2.06 230 22:39 12.01.2021
3812 Clouds 23 1017 73 10000 2.41 21 22:19 12.01.2021
3813 Rain 22 1017 73 10000 2.41 21 21:44 12.01.2021
3814 Clouds 21 1017 73 10000 2.11 22 21:25 12.01.2021
3815 Clouds 21 1016 83 10000 2.11 22 20:47 12.01.2021
3816 Clouds 21 1016 83 10000 2.57 70 20:27 12.01.2021
3817 Rain 21 1016 88 10000 2.57 120 19:44 12.01.2021
3818 Clouds 21 1016 88 10000 2.57 120 19:26 12.01.2021
3819 Clouds 21 1016 83 10000 2.57 110 18:41 12.01.2021
3820 Clouds 21 1016 83 10000 3.09 90 18:22 12.01.2021
3821 Clear 22 1016 83 10000 4.12 70 17:37 12.01.2021
3822 Clear 22 1016 78 10000 5.66 70 17:19 12.01.2021
3823 Rain 22 1016 78 10000 6.17 60 16:43 12.01.2021
3824 Clear 22 1016 78 10000 6.17 50 16:22 12.01.2021
3825 Clouds 22 1016 78 10000 6.69 50 15:29 12.01.2021
3826 Clear 22 1016 78 10000 7.2 50 14:58 12.01.2021
3827 Clear 22 1016 78 10000 7.2 50 14:40 12.01.2021
3828 Clear 22 1016 78 10000 7.2 50 14:19 12.01.2021
3829 Clear 22 1016 73 10000 4.63 30 13:47 12.01.2021
3830 Clear 22 1015 73 10000 3.6 20 12:40 12.01.2021
3831 Clear 23 1015 73 10000 3.6 20 12:21 12.01.2021
3832 Clear 23 1014 69 10000 7.72 30 11:40 12.01.2021
3833 Clear 24 1013 65 10000 8.23 30 10:50 12.01.2021
3834 Clear 25 1013 65 10000 8.23 30 10:21 12.01.2021
3835 Clear 25 1013 57 10000 9.26 30 09:57 12.01.2021
3836 Clear 26 1013 54 10000 8.75 20 09:27 12.01.2021
3837 Clear 26 1012 50 10000 8.23 30 08:51 12.01.2021
3838 Clear 27 1012 51 10000 9.26 30 08:25 12.01.2021
3839 Clear 27 1012 48 10000 9.26 40 07:36 12.01.2021
3840 Clear 27 1012 42 10000 8.75 50 06:35 12.01.2021
3841 Clear 29 1013 48 10000 8.23 40 05:34 12.01.2021
3842 Clear 28 1013 45 10000 6.17 60 03:27 12.01.2021
3843 Clear 29 1014 42 10000 4.63 40 02:19 12.01.2021
3844 Clear 28 1014 44 10000 5.14 30 01:28 12.01.2021
3845 Clear 25 1015 53 10000 3.09 30 23:57 11.01.2021
3846 Clear 24 1015 57 10000 3.09 20 23:36 11.01.2021
3847 Clear 23 1015 57 10000 3.6 10 23:18 11.01.2021
3848 Clear 22 1015 64 10000 4.12 10 22:44 11.01.2021
3849 Clouds 22 1015 78 10000 1.79 20 22:26 11.01.2021
3850 Clouds 21 1014 82 10000 0.89 45 21:42 11.01.2021
3851 Clouds 20 1014 82 10000 0.89 45 21:23 11.01.2021
3852 Clear 19 1014 73 10000 3.6 30 20:47 11.01.2021
3853 Clear 19 1014 73 10000 3.6 30 20:28 11.01.2021
3854 Clear 19 1014 68 10000 4.63 40 19:57 11.01.2021
3855 Clear 19 1014 73 10000 4.12 10 19:33 11.01.2021
3856 Clear 19 1014 78 10000 3.6 310 18:46 11.01.2021
3857 Clear 19 1014 78 10000 3.6 310 18:27 11.01.2021
3858 Clear 20 1014 78 10000 4.12 330 17:56 11.01.2021
3859 Clear 20 1014 78 10000 3.6 320 17:38 11.01.2021
3860 Clear 20 1014 73 10000 5.66 360 17:19 11.01.2021
3861 Rain 21 1014 73 10000 6.17 360 16:41 11.01.2021
3862 Rain 21 1014 73 10000 6.17 360 16:22 11.01.2021
3863 Rain 21 1014 68 10000 6.17 10 15:49 11.01.2021
3864 Rain 21 1015 68 10000 7.72 10 15:29 11.01.2021
3865 Rain 22 1015 68 10000 7.72 20 14:40 11.01.2021
3866 Clear 22 1015 68 10000 7.72 20 14:19 11.01.2021
3867 Clear 22 1015 68 10000 7.2 20 13:43 11.01.2021
3868 Clear 22 1015 64 10000 8.75 30 13:19 11.01.2021
3869 Clear 22 1015 64 10000 7.72 20 12:41 11.01.2021
3870 Rain 22 1015 64 10000 7.72 20 12:21 11.01.2021
3871 Clear 22 1015 64 10000 8.23 30 11:43 11.01.2021
3872 Rain 23 1015 64 10000 8.75 30 10:55 11.01.2021
3873 Clear 23 1015 61 10000 8.75 30 10:28 11.01.2021
3874 Clear 24 1014 57 10000 10.8 40 09:45 11.01.2021
3875 Clear 25 1014 50 10000 9.26 40 09:24 11.01.2021
3876 Clear 25 1014 44 10000 8.75 30 08:47 11.01.2021
3877 Clear 25 1014 47 10000 8.75 40 08:22 11.01.2021
3878 Clouds 25 1006 72 10000 1.34 326 07:40 11.01.2021
3879 Clear 26 1015 47 10000 8.75 40 07:19 11.01.2021
3880 Clear 26 1015 47 10000 8.75 40 06:47 11.01.2021
3881 Rain 27 1018 41 10000 4.12 30 02:23 11.01.2021
3882 Rain 25 1019 53 10000 5.14 350 00:40 11.01.2021
3883 Clouds 23 1019 57 10000 3.09 340 23:47 10.01.2021
3884 Rain 22 1019 68 10000 2.06 310 22:51 10.01.2021
3885 Clouds 21 1019 68 10000 2.06 310 22:29 10.01.2021
3886 Clouds 20 1019 78 10000 2.06 290 21:58 10.01.2021
3887 Rain 19 1018 78 10000 2.06 340 21:39 10.01.2021
3888 Rain 19 1018 78 10000 2.06 340 21:18 10.01.2021
3889 Clear 18 1018 95 10000 1.34 315 20:47 10.01.2021
3890 Rain 18 1018 83 10000 3.6 340 20:26 10.01.2021
3891 Rain 18 1018 83 10000 2.06 310 19:40 10.01.2021
3892 Rain 18 1018 83 10000 2.06 310 19:22 10.01.2021
3893 Rain 18 1018 83 10000 2.57 280 18:45 10.01.2021
3894 Rain 18 1018 83 10000 2.57 280 18:20 10.01.2021
3895 Rain 19 1018 78 10000 3.09 300 17:26 10.01.2021
3896 Rain 19 1018 78 10000 3.09 320 16:51 10.01.2021
3897 Clouds 18 1018 78 10000 2.57 310 16:30 10.01.2021
3898 Clouds 19 1019 78 10000 3.09 300 15:41 10.01.2021
3899 Clouds 19 1019 78 10000 3.09 300 15:22 10.01.2021
3900 Clouds 20 1019 73 10000 3.6 360 14:41 10.01.2021
3901 Clouds 21 1019 68 10000 3.6 10 14:22 10.01.2021
3902 Clouds 21 1019 68 10000 3.6 10 13:46 10.01.2021
3903 Clouds 21 1019 68 10000 4.12 20 13:27 10.01.2021
3904 Rain 21 1019 68 10000 4.12 20 12:59 10.01.2021
3905 Clear 21 1019 68 10000 4.63 30 12:41 10.01.2021
3906 Clear 22 1019 68 10000 5.14 30 11:57 10.01.2021
3907 Clear 22 1019 68 10000 5.14 30 11:21 10.01.2021
3908 Clear 22 1018 76 10000 2.68 45 10:53 10.01.2021
3909 Clear 22 1018 60 10000 6.17 40 10:25 10.01.2021
3910 Clear 23 1018 71 10000 3.58 45 09:46 10.01.2021
3911 Clear 24 1009 78 10000 0.89 327 08:50 10.01.2021
3912 Rain 25 1018 50 10000 7.72 70 08:19 10.01.2021
3913 Clear 25 1018 44 10000 8.23 60 07:27 10.01.2021
3914 Rain 26 1018 44 10000 8.23 50 06:18 10.01.2021
3915 Rain 26 1019 42 10000 8.23 60 05:34 10.01.2021
3916 Rain 26 1020 54 10000 5.66 60 02:55 10.01.2021
3917 Rain 24 1020 53 10000 2.57 270 00:48 10.01.2021
3918 Clouds 23 1021 64 10000 3.09 290 23:43 09.01.2021
3919 Rain 22 1021 64 10000 3.09 290 23:25 09.01.2021
3920 Rain 20 1021 68 10000 3.09 300 22:44 09.01.2021
3921 Rain 19 1020 77 10000 2.06 290 22:18 09.01.2021
3922 Rain 19 1020 77 10000 2.06 290 21:55 09.01.2021
3923 Rain 18 1020 77 10000 2.57 310 21:37 09.01.2021
3924 Clouds 17 1020 82 10000 3.09 330 21:18 09.01.2021
3925 Clouds 17 1019 82 10000 2.57 330 20:39 09.01.2021
3926 Clouds 17 1019 82 10000 3.09 330 19:44 09.01.2021
3927 Clouds 17 1019 82 10000 3.09 330 19:22 09.01.2021
3928 Clear 17 1019 82 10000 2.06 300 18:44 09.01.2021
3929 Clear 17 1019 82 10000 2.06 300 18:26 09.01.2021
3930 Clear 17 1019 82 10000 3.09 330 17:47 09.01.2021
3931 Clear 18 1019 82 10000 3.09 330 17:27 09.01.2021
3932 Clouds 18 1020 82 10000 3.09 280 16:36 09.01.2021
3933 Clouds 18 1020 77 10000 2.57 300 15:52 09.01.2021
3934 Clear 18 1021 77 10000 2.57 290 15:32 09.01.2021
3935 Rain 19 1021 68 10000 2.06 10 14:41 09.01.2021
3936 Clear 19 1021 68 10000 2.06 20 14:20 09.01.2021
3937 Clear 20 1021 68 10000 2.06 20 13:49 09.01.2021
3938 Clear 19 1021 82 10000 1.79 70 13:30 09.01.2021
3939 Clear 19 1021 82 10000 1.79 70 13:30 09.01.2021
3940 Clear 20 1021 73 10000 0.51 40 12:50 09.01.2021
3941 Clear 20 1021 73 10000 0.51 40 12:25 09.01.2021
3942 Clear 20 1021 68 10000 3.09 30 11:56 09.01.2021
3943 Clear 21 1021 64 10000 3.6 40 11:33 09.01.2021
3944 Clear 21 1021 64 10000 3.6 40 11:33 09.01.2021
3945 Clear 21 1021 64 10000 4.63 40 10:55 09.01.2021
3946 Clouds 21 1020 64 10000 4.63 70 10:36 09.01.2021
3947 Clouds 22 1020 56 10000 5.14 80 09:54 09.01.2021
3948 Clouds 22 1020 56 10000 5.14 80 09:29 09.01.2021
3949 Clouds 22 1020 53 10000 5.14 70 08:59 09.01.2021
3950 Clear 23 1020 53 10000 5.66 130 07:38 09.01.2021
3951 Clear 23 1020 46 10000 5.66 120 06:40 09.01.2021
3952 Clear 24 1021 50 10000 5.66 120 04:54 09.01.2021
3953 Rain 24 1022 50 10000 5.66 120 03:47 09.01.2021
3954 Rain 24 1022 53 10000 6.69 120 02:39 09.01.2021
3955 Rain 23 1022 53 10000 6.69 120 02:19 09.01.2021
3956 Rain 23 1023 56 10000 5.66 130 00:49 09.01.2021
3957 Clouds 23 1023 56 10000 5.66 130 00:23 09.01.2021
3958 Clouds 22 1022 56 10000 6.69 130 23:38 08.01.2021
3959 Clouds 20 1022 60 10000 6.17 130 22:38 08.01.2021
3960 Clouds 19 1022 68 10000 6.17 140 21:47 08.01.2021
3961 Clouds 18 1021 73 10000 5.66 140 20:58 08.01.2021
3962 Drizzle 17 1021 73 10000 6.17 140 20:33 08.01.2021
3963 Clouds 17 1021 73 10000 6.69 140 19:57 08.01.2021
3964 Clouds 18 1021 68 10000 6.69 120 19:24 08.01.2021
3965 Clouds 18 1021 73 10000 4.63 160 18:53 08.01.2021
3966 Clouds 18 1021 73 10000 4.12 160 18:31 08.01.2021
3967 Clouds 18 1021 77 10000 4.12 150 17:50 08.01.2021
3968 Clouds 18 1021 72 10000 4.63 150 17:24 08.01.2021
3969 Clouds 18 1021 72 10000 5.14 140 16:47 08.01.2021
3970 Rain 19 1022 68 10000 5.66 130 15:48 08.01.2021
3971 Rain 19 1022 68 10000 6.17 130 15:27 08.01.2021
3972 Rain 19 1023 68 10000 5.66 130 14:37 08.01.2021
3973 Clouds 19 1023 64 10000 5.66 130 13:50 08.01.2021
3974 Rain 19 1023 64 10000 6.17 130 13:21 08.01.2021
3975 Clouds 20 1023 64 10000 6.17 130 12:51 08.01.2021
3976 Clouds 20 1024 64 10000 5.14 140 12:22 08.01.2021
3977 Clouds 20 1023 64 10000 6.17 140 11:48 08.01.2021
3978 Rain 20 1023 64 10000 6.17 140 11:29 08.01.2021
3979 Rain 20 1023 60 10000 6.17 160 10:56 08.01.2021
3980 Clouds 20 1023 60 10000 6.17 160 10:38 08.01.2021
3981 Clouds 20 1023 60 10000 5.66 160 09:53 08.01.2021
3982 Clouds 20 1023 60 10000 6.69 160 09:34 08.01.2021
3983 Clouds 20 1022 60 10000 7.72 150 08:41 08.01.2021
3984 Clouds 21 1022 60 10000 8.23 150 07:29 08.01.2021
3985 Clouds 21 1022 60 10000 8.23 140 06:43 08.01.2021
3986 Rain 21 1023 56 10000 9.26 130 00:35 08.01.2021
3987 Rain 20 1023 64 10000 7.72 140 23:42 07.01.2021
3988 Rain 19 1023 60 10000 8.75 130 22:51 07.01.2021
3989 Rain 19 1023 60 10000 8.75 130 22:33 07.01.2021
3990 Rain 19 1022 68 10000 7.72 140 21:50 07.01.2021
3991 Rain 18 1022 68 10000 7.72 140 21:30 07.01.2021
3992 Rain 18 1022 68 10000 7.72 140 20:52 07.01.2021
3993 Rain 18 1022 82 10000 6.17 110 20:34 07.01.2021
3994 Rain 18 1021 64 10000 8.23 160 19:49 07.01.2021
3995 Rain 18 1012 75 10000 1.34 156 19:24 07.01.2021
3996 Rain 18 1021 68 10000 7.2 160 18:47 07.01.2021
3997 Rain 18 1021 63 10000 8.23 130 18:20 07.01.2021
3998 Rain 18 1021 64 10000 8.23 160 17:35 07.01.2021
3999 Rain 19 1021 60 10000 7.72 150 16:57 07.01.2021
4000 Rain 19 1021 56 10000 8.75 160 16:32 07.01.2021
4001 Rain 19 1022 60 10000 8.23 150 15:57 07.01.2021
4002 Clouds 19 1022 60 10000 7.72 150 15:31 07.01.2021
4003 Rain 19 1022 60 10000 7.72 150 15:31 07.01.2021
4004 Clouds 18 1013 68 10000 1.34 174 14:34 07.01.2021
4005 Clouds 19 1022 60 10000 8.75 150 13:59 07.01.2021
4006 Clouds 19 1022 60 10000 9.77 150 13:31 07.01.2021
4007 Rain 19 1023 67 10000 2.68 143 12:56 07.01.2021
4008 Rain 19 1022 64 10000 10.3 160 12:29 07.01.2021
4009 Rain 19 1022 68 10000 10.3 160 11:48 07.01.2021
4010 Rain 19 1022 68 10000 10.3 160 11:29 07.01.2021
4011 Clouds 19 1022 84 10000 6.26 160 10:39 07.01.2021
4012 Rain 20 1022 68 10000 8.2 150 10:19 07.01.2021
4013 Clouds 20 1022 68 10000 6.7 130 09:42 07.01.2021
4014 Rain 20 1021 73 10000 6.7 140 09:18 07.01.2021
4015 Rain 21 1021 68 10000 6.7 150 08:25 07.01.2021
4016 Rain 21 1021 68 10000 8.7 160 07:44 07.01.2021
4017 Rain 22 1020 64 10000 4.6 130 06:52 07.01.2021
4018 Rain 20 1021 93 4000 6.7 150 03:35 07.01.2021
4019 Rain 21 1021 73 10000 8.7 190 00:27 07.01.2021
4020 Clouds 22 1020 64 10000 8.7 160 23:36 06.01.2021
4021 Clouds 21 1020 56 10000 7.7 150 22:37 06.01.2021
4022 Clouds 20 1019 52 10000 7.7 140 21:43 06.01.2021
4023 Clouds 20 1019 60 10000 8.2 150 21:23 06.01.2021
4024 Clouds 19 1019 60 10000 8.2 150 20:51 06.01.2021
4025 Rain 19 1018 64 10000 8.7 150 20:24 06.01.2021
4026 Rain 19 1018 68 10000 8.2 150 19:54 06.01.2021
4027 Clouds 19 1018 68 10000 8.2 150 19:36 06.01.2021
4028 Clouds 19 1018 68 10000 8.2 150 19:18 06.01.2021
4029 Clouds 19 1017 68 10000 7.7 160 18:40 06.01.2021
4030 Clouds 19 1017 68 10000 7.7 160 18:21 06.01.2021
4031 Clouds 19 1017 68 10000 7.7 150 17:42 06.01.2021
4032 Clouds 19 1017 68 10000 7.7 150 17:22 06.01.2021
4033 Rain 19 1017 64 10000 8.2 150 16:41 06.01.2021
4034 Rain 19 1017 64 10000 9.3 150 16:19 06.01.2021
4035 Rain 18 1018 77 10000 7.2 140 15:52 06.01.2021
4036 Rain 19 1018 77 10000 7.2 140 15:31 06.01.2021
4037 Rain 19 1018 72 10000 6.7 140 14:46 06.01.2021
4038 Rain 19 1018 77 10000 7.2 150 14:20 06.01.2021
4039 Rain 19 1018 77 10000 9.3 150 13:42 06.01.2021
4040 Rain 20 1018 82 10000 7.2 130 13:22 06.01.2021
4041 Rain 20 1018 82 10000 8.2 170 12:48 06.01.2021
4042 Rain 20 1018 77 10000 7.7 160 12:20 06.01.2021
4043 Rain 20 1017 77 10000 8.2 150 11:36 06.01.2021
4044 Rain 20 1017 77 10000 8.2 150 11:18 06.01.2021
4045 Rain 21 1016 68 10000 8.2 150 10:20 06.01.2021
4046 Rain 21 1016 73 10000 8.7 160 09:50 06.01.2021
4047 Rain 21 1015 68 10000 9.3 150 08:58 06.01.2021
4048 Rain 21 1015 68 10000 9.3 150 08:30 06.01.2021
4049 Rain 21 1015 73 10000 10.3 170 07:54 06.01.2021
4050 Rain 22 1015 73 10000 10.8 160 06:48 06.01.2021
4051 Clouds 23 1014 73 10000 9.8 160 05:34 06.01.2021
4052 Clouds 23 1015 78 10000 9.8 170 04:34 06.01.2021
4053 Clouds 22 1015 78 10000 9.3 180 02:47 06.01.2021
4054 Clouds 22 1015 73 10000 8.7 180 02:25 06.01.2021
4055 Rain 22 1014 78 10000 8.7 190 00:51 06.01.2021
4056 Clouds 21 1014 83 10000 6.2 180 23:32 05.01.2021
4057 Clouds 20 1014 83 10000 7.2 190 22:45 05.01.2021
4058 Clouds 20 1013 83 10000 6.7 190 22:21 05.01.2021
4059 Clouds 20 1013 83 10000 6.7 190 21:56 05.01.2021
4060 Clouds 20 1012 89 10000 3.58 200 20:58 05.01.2021
4061 Clouds 20 1012 89 10000 3.58 200 20:28 05.01.2021
4062 Clouds 19 1012 88 10000 6.2 190 19:45 05.01.2021
4063 Clouds 19 1011 94 10000 7.7 180 19:23 05.01.2021
4064 Clouds 19 1011 93 10000 4.02 200 18:46 05.01.2021
4065 Clouds 19 1011 88 10000 3.13 163 18:28 05.01.2021
4066 Clouds 20 1011 88 10000 6.7 200 17:53 05.01.2021
4067 Clouds 19 1010 94 10000 6.7 190 17:31 05.01.2021
4068 Clouds 20 1010 88 10000 9.8 170 16:53 05.01.2021
4069 Clouds 20 1010 88 10000 9.8 170 16:53 05.01.2021
4070 Rain 19 1011 90 10000 2.68 180 16:23 05.01.2021
4071 Rain 19 1010 94 10000 7.7 190 15:59 05.01.2021
4072 Rain 20 1011 88 10000 9.3 170 15:35 05.01.2021
4073 Rain 20 1011 83 10000 4.47 180 14:48 05.01.2021
4074 Rain 20 1010 83 10000 7.7 160 13:57 05.01.2021
4075 Rain 21 1010 94 10000 7.7 170 13:39 05.01.2021
4076 Rain 21 1010 94 10000 8.2 180 13:20 05.01.2021
4077 Rain 22 1009 94 10000 5.1 170 12:46 05.01.2021
4078 Rain 22 1009 88 10000 3.1 130 12:20 05.01.2021
4079 -273 0 0 0 0 0 11:32 05.01.2021
4080 Rain 22 1008 83 10000 3.1 90 11:31 05.01.2021
4081 Rain 23 1008 78 10000 4.1 120 10:46 05.01.2021
4082 Rain 23 1008 73 10000 4.6 120 10:25 05.01.2021
4083 Rain 23 1007 78 10000 4.1 120 09:48 05.01.2021
4084 Rain 24 1006 78 10000 3.6 100 09:27 05.01.2021
4085 Thunderstorm 25 1006 69 10000 5.1 110 08:23 05.01.2021
4086 Rain 25 1006 69 10000 4.6 120 06:46 05.01.2021
4087 Clouds 27 1007 61 10000 5.1 90 03:48 05.01.2021
4088 Clouds 25 1008 73 10000 1.5 270 00:48 05.01.2021
4089 Clouds 23 1008 78 10000 3.1 200 23:45 04.01.2021
4090 Clouds 22 1008 78 10000 3.1 240 23:25 04.01.2021
4091 Clouds 21 1008 83 10000 3.1 250 22:49 04.01.2021
4092 Clouds 21 1008 88 10000 3.1 250 22:27 04.01.2021
4093 Clouds 20 1008 88 10000 2.6 290 21:47 04.01.2021
4094 Clouds 20 1008 88 10000 3.1 320 21:29 04.01.2021
4095 Clouds 19 1008 88 10000 2.6 260 20:44 04.01.2021
4096 Clouds 19 1007 94 10000 2.6 260 20:25 04.01.2021
4097 Clouds 19 1007 94 10000 3.1 220 19:52 04.01.2021
4098 Clouds 19 1006 94 10000 3.6 180 19:25 04.01.2021
4099 Clouds 19 1006 94 10000 3.6 180 18:54 04.01.2021
4100 Clouds 19 1005 94 10000 4.6 190 18:24 04.01.2021
4101 Clouds 19 1006 94 10000 4.1 200 17:44 04.01.2021
4102 Clouds 19 1006 88 10000 3.1 210 17:25 04.01.2021
4103 Clouds 19 1007 89 10000 1.34 311 16:47 04.01.2021
4104 Clouds 19 1006 88 10000 3.6 190 16:27 04.01.2021
4105 Clouds 19 1006 88 10000 3.6 190 15:50 04.01.2021
4106 Clouds 19 1006 94 10000 4.1 180 15:31 04.01.2021
4107 Rain 19 1006 83 10000 3.1 160 14:46 04.01.2021
4108 Rain 19 1007 83 10000 1.73 355 13:48 04.01.2021
4109 Rain 19 1007 83 10000 1.5 280 13:25 04.01.2021
4110 Rain 19 1007 83 10000 3.1 350 12:44 04.01.2021
4111 Rain 19 1007 83 10000 4.1 340 11:58 04.01.2021
4112 Rain 20 1007 83 10000 3.6 320 11:22 04.01.2021
4113 Rain 19 1006 93 10000 2.68 315 10:53 04.01.2021
4114 Rain 20 1006 93 10000 2.68 315 10:29 04.01.2021
4115 Rain 20 1006 83 10000 3.6 340 09:58 04.01.2021
4116 Rain 20 1006 83 10000 3.6 320 09:22 04.01.2021
4117 Rain 20 1005 83 10000 4.6 300 08:47 04.01.2021
4118 Rain 21 1003 88 10000 6.7 130 08:18 04.01.2021
4119 Rain 22 1003 83 10000 6.7 190 07:44 04.01.2021
4120 Rain 26 996 88 10000 0.45 30 05:34 04.01.2021
4121 Clouds 27 1004 72 10000 0.89 90 04:31 04.01.2021
4122 Clear 25 1006 73 10000 2.6 290 00:48 04.01.2021
4123 Clouds 24 1006 78 10000 1 330 23:51 03.01.2021
4124 Clouds 23 1006 83 10000 2.1 320 23:25 03.01.2021
4125 Clouds 22 1006 83 10000 1.95 310 22:56 03.01.2021
4126 Clouds 22 1006 83 10000 1.95 310 22:33 03.01.2021
4127 Clear 21 1006 94 10000 1.5 270 21:57 03.01.2021
4128 Clear 20 1006 88 10000 2.6 240 21:30 03.01.2021
4129 Clouds 20 1006 94 10000 2.6 250 20:53 03.01.2021
4130 Clouds 20 1006 94 10000 2.6 250 20:34 03.01.2021
4131 Clouds 20 1005 94 10000 2.6 10 19:58 03.01.2021
4132 Clouds 20 1005 94 10000 2.6 10 19:37 03.01.2021
4133 Clouds 20 1005 94 10000 3.6 30 19:18 03.01.2021
4134 Clouds 20 1005 88 10000 2.6 40 18:41 03.01.2021
4135 Clouds 20 1005 94 10000 1 50 18:20 03.01.2021
4136 Clouds 21 1005 88 10000 1 10 17:49 03.01.2021
4137 Clouds 21 1005 83 10000 2.1 10 17:26 03.01.2021
4138 Clouds 21 1006 88 10000 2.6 20 16:44 03.01.2021
4139 Clouds 21 1006 88 10000 2.6 340 16:20 03.01.2021
4140 Clouds 21 1006 83 10000 0.5 340 15:48 03.01.2021
4141 Clouds 21 1007 88 10000 2.6 350 15:29 03.01.2021
4142 Clouds 21 1007 83 10000 1.81 303 14:57 03.01.2021
4143 Clouds 21 1007 83 10000 1.81 303 14:30 03.01.2021
4144 Clouds 22 1007 83 10000 1.47 325 13:45 03.01.2021
4145 Clouds 22 1007 83 10000 2.6 360 13:23 03.01.2021
4146 Clouds 22 1007 83 10000 3.1 10 12:50 03.01.2021
4147 Clouds 22 1007 83 10000 6.2 20 11:43 03.01.2021
4148 Clouds 22 1007 83 10000 5.1 30 11:24 03.01.2021
4149 Clouds 22 1007 83 10000 5.1 30 10:52 03.01.2021
4150 Clouds 23 999 99 10000 0.89 295 10:30 03.01.2021
4151 Clouds 23 1006 78 10000 7.2 30 09:41 03.01.2021
4152 Clouds 23 1006 78 10000 7.7 30 09:23 03.01.2021
4153 Rain 24 1006 78 10000 7.2 20 07:54 03.01.2021
4154 Clouds 25 1006 69 10000 8.7 20 05:59 03.01.2021
4155 Rain 23 1009 94 10000 5.1 30 02:28 03.01.2021
4156 Rain 22 1009 94 10000 5.7 20 01:48 03.01.2021
4157 Drizzle 21 1009 94 10000 7.7 50 00:21 03.01.2021
4158 Rain 20 1009 94 9000 5.7 50 23:30 02.01.2021
4159 Rain 20 1001 99 10000 0.89 154 22:58 02.01.2021
4160 Rain 20 1001 99 10000 0.89 149 22:33 02.01.2021
4161 Rain 20 1001 99 10000 0.89 145 21:55 02.01.2021
4162 Rain 20 1010 100 10000 5.7 50 21:33 02.01.2021
4163 Rain 20 1010 94 6000 4.1 40 20:59 02.01.2021
4164 Drizzle 20 1010 94 6000 4.1 40 20:39 02.01.2021
4165 Rain 20 1009 94 6000 5.1 50 20:19 02.01.2021
4166 Rain 20 1009 94 6000 3.1 40 19:40 02.01.2021
4167 Rain 20 1009 94 10000 2.6 60 19:18 02.01.2021
4168 Rain 19 1009 94 10000 2.1 40 18:40 02.01.2021
4169 Rain 19 1009 94 10000 2.6 30 18:21 02.01.2021
4170 Rain 19 1009 94 8000 2.1 40 17:45 02.01.2021
4171 Drizzle 19 1010 94 10000 2.6 30 17:22 02.01.2021
4172 Rain 19 1010 94 10000 2.6 10 16:38 02.01.2021
4173 Rain 19 1011 94 10000 3.6 30 16:19 02.01.2021
4174 Rain 19 1011 94 10000 3.1 30 15:41 02.01.2021
4175 Rain 19 1011 94 10000 2.6 30 15:21 02.01.2021
4176 Rain 19 1011 94 10000 3.6 40 14:37 02.01.2021
4177 Rain 19 1011 94 10000 5.7 60 13:59 02.01.2021
4178 Rain 19 1012 93 10000 4.1 50 13:38 02.01.2021
4179 Drizzle 19 1012 100 4000 6.7 40 12:54 02.01.2021
4180 Rain 19 1012 93 4000 7.2 50 12:32 02.01.2021
4181 Rain 19 1012 88 10000 5.7 50 11:49 02.01.2021
4182 Drizzle 19 1012 100 4000 6.2 50 11:22 02.01.2021
4183 Rain 19 1012 100 6000 6.2 60 10:52 02.01.2021
4184 Drizzle 19 1012 100 6000 6.2 60 10:30 02.01.2021
4185 Rain 19 1012 94 3000 5.7 50 09:54 02.01.2021
4186 Drizzle 19 1012 100 5000 4.1 70 09:28 02.01.2021
4187 Rain 20 1012 93 3500 5.7 70 08:50 02.01.2021
4188 Rain 20 1012 93 3500 5.7 70 08:28 02.01.2021
4189 Drizzle 20 1012 88 4000 4.1 120 07:49 02.01.2021
4190 Rain 20 1012 88 10000 3.6 150 07:22 02.01.2021
4191 Clouds 21 1013 94 10000 3.6 170 06:52 02.01.2021
4192 Rain 20 1013 93 5000 4.6 180 05:45 02.01.2021
4193 Clouds 19 1016 93 10000 5.1 200 00:59 02.01.2021
4194 Rain 18 1016 88 10000 5.7 200 00:37 02.01.2021
4195 Clouds 18 1016 93 10000 4.6 210 00:37 02.01.2021
4196 Clouds 18 1016 93 10000 5.1 200 23:57 01.01.2021
4197 Rain 18 1016 88 5000 4.1 230 23:23 01.01.2021
4198 Rain 17 1017 88 7000 2.6 270 22:50 01.01.2021
4199 Rain 17 1016 88 10000 3.6 230 22:27 01.01.2021
4200 Rain 17 1016 88 10000 4.1 230 21:59 01.01.2021
4201 Rain 17 1016 88 10000 4.1 230 21:41 01.01.2021
4202 Rain 17 1016 93 10000 4.1 220 21:19 01.01.2021
4203 Rain 17 1016 88 10000 4.1 250 20:44 01.01.2021
4204 Rain 17 1016 82 10000 4.1 270 20:18 01.01.2021
4205 Rain 17 1016 77 10000 3.6 270 19:41 01.01.2021
4206 Rain 17 1016 77 10000 3.1 300 19:21 01.01.2021
4207 Rain 17 1016 77 10000 3.1 320 18:45 01.01.2021
4208 Clouds 17 1016 77 10000 3.1 300 18:23 01.01.2021
4209 Rain 17 1016 77 10000 3.1 300 17:47 01.01.2021
4210 Rain 17 1016 77 10000 3.6 350 17:23 01.01.2021
4211 Rain 17 1017 77 10000 3.1 270 16:50 01.01.2021
4212 Rain 17 1017 77 10000 3.6 230 16:25 01.01.2021
4213 Rain 17 1017 77 10000 3.6 180 15:41 01.01.2021
4214 Rain 17 1018 77 10000 6.2 170 14:48 01.01.2021
4215 Rain 17 1018 77 10000 6.7 170 14:27 01.01.2021
4216 Rain 17 1018 82 10000 7.2 170 13:40 01.01.2021
4217 Rain 17 1019 82 10000 3.1 230 12:57 01.01.2021
4218 Clouds 17 1019 82 10000 3.1 230 12:36 01.01.2021
4219 Clouds 18 1019 72 10000 3.6 280 12:18 01.01.2021
4220 Rain 17 1019 82 10000 4.1 240 11:38 01.01.2021
4221 Rain 17 1019 82 10000 3.1 140 11:18 01.01.2021
4222 Rain 18 1019 82 10000 6.7 160 10:34 01.01.2021
4223 Rain 18 1019 77 10000 5.1 150 09:45 01.01.2021
4224 Rain 19 1019 68 10000 4.6 140 08:54 01.01.2021
4225 Rain 19 1019 68 10000 4.6 140 08:25 01.01.2021
4226 Rain 20 1020 60 10000 6.7 160 04:52 01.01.2021
4227 Rain 21 1021 60 10000 7.7 140 02:26 01.01.2021
4228 Clouds 20 1021 64 10000 7.7 150 01:35 01.01.2021
4229 Clouds 20 1021 68 10000 6.7 150 00:28 01.01.2021
4230 Clouds 20 1021 60 10000 7.2 150 23:22 31.12.2020
4231 Clouds 20 1021 60 10000 7.2 150 22:58 31.12.2020
4232 Rain 20 1021 64 10000 6.7 140 22:38 31.12.2020
4233 Rain 19 1021 68 10000 7.2 130 22:19 31.12.2020
4234 Rain 19 1020 72 10000 8.2 140 21:47 31.12.2020
4235 Rain 19 1020 72 10000 8.2 140 21:47 31.12.2020
4236 Rain 18 1020 72 10000 8.2 140 21:23 31.12.2020
4237 Rain 18 1020 72 10000 7.7 140 20:49 31.12.2020
4238 Rain 18 1020 72 10000 7.7 140 20:18 31.12.2020
4239 Rain 18 1019 72 10000 7.7 150 19:46 31.12.2020
4240 Rain 18 1019 77 10000 8.2 150 19:28 31.12.2020
4241 Rain 18 1019 77 10000 8.2 160 18:49 31.12.2020
4242 Rain 18 1019 77 10000 8.2 160 18:24 31.12.2020
4243 Rain 18 1019 82 10000 8.2 160 17:44 31.12.2020
4244 Drizzle 18 1019 88 7000 7.7 160 17:23 31.12.2020
4245 Rain 18 1020 93 6000 5.7 160 16:43 31.12.2020
4246 Rain 18 1020 93 6000 5.1 160 16:25 31.12.2020
4247 Drizzle 18 1021 88 6000 5.7 150 15:50 31.12.2020
4248 Clouds 18 1011 98 10000 1.34 171 15:23 31.12.2020
4249 Clouds 18 1011 98 10000 1.34 171 15:23 31.12.2020
4250 Drizzle 19 1020 82 9000 6.2 170 14:58 31.12.2020
4251 Rain 19 1020 77 10000 5.1 170 14:39 31.12.2020
4252 Clouds 19 1020 72 10000 5.7 160 14:21 31.12.2020
4253 Clear 19 1021 72 10000 5.7 160 13:39 31.12.2020
4254 Clouds 19 1021 72 10000 6.7 150 13:21 31.12.2020
4255 Clouds 19 1021 72 10000 6.7 150 12:55 31.12.2020
4256 Clouds 19 1021 72 10000 6.7 150 12:36 31.12.2020
4257 Rain 20 1021 73 10000 5.7 150 11:53 31.12.2020
4258 Rain 20 1021 73 10000 5.7 150 11:32 31.12.2020
4259 Clouds 20 1020 73 10000 6.7 140 10:52 31.12.2020
4260 Clouds 20 1020 73 10000 6.2 130 10:30 31.12.2020
4261 Clouds 20 1020 73 10000 6.2 130 09:59 31.12.2020
4262 Clouds 20 1020 77 10000 6.2 130 09:39 31.12.2020
4263 Rain 20 1019 77 10000 6.7 130 09:21 31.12.2020
4264 Rain 20 1019 77 10000 7.2 130 08:46 31.12.2020
4265 Clouds 20 1019 77 10000 7.7 130 08:27 31.12.2020
4266 Rain 20 1019 83 10000 7.7 130 07:52 31.12.2020
4267 Rain 21 1019 94 6000 6.7 110 06:50 31.12.2020
4268 Rain 21 1020 94 5000 6.2 150 05:30 31.12.2020
4269 Clouds 23 1020 64 10000 6.2 140 03:25 31.12.2020
4270 Clouds 22 1020 64 10000 6.2 150 02:27 31.12.2020
4271 Clouds 22 1020 64 10000 6.2 150 01:55 31.12.2020
4272 Clouds 22 1020 64 10000 6.2 150 01:34 31.12.2020
4273 Clouds 22 1020 64 10000 7.2 150 00:56 31.12.2020
4274 Clouds 22 1020 64 10000 6.2 150 00:26 31.12.2020
4275 Clouds 22 1020 64 10000 6.2 140 23:36 30.12.2020
4276 Clouds 21 1011 82 10000 1.79 162 23:18 30.12.2020
4277 Clouds 20 1011 85 10000 2.24 162 22:35 30.12.2020
4278 Clouds 20 1019 73 10000 6.7 150 21:54 30.12.2020
4279 Clouds 20 1019 73 10000 6.7 150 21:54 30.12.2020
4280 Clouds 20 1018 73 10000 6.2 150 21:27 30.12.2020
4281 Clouds 19 1018 77 10000 5.7 150 20:53 30.12.2020
4282 Clouds 19 1018 77 10000 5.7 150 20:29 30.12.2020
4283 Clouds 19 1017 72 10000 4.1 150 20:00 30.12.2020
4284 Clouds 19 1017 72 10000 4.1 150 19:37 30.12.2020
4285 Clouds 18 1017 72 10000 5.1 150 19:18 30.12.2020
4286 Clouds 18 1017 77 10000 4.6 160 18:40 30.12.2020
4287 Clouds 19 1017 77 10000 4.6 160 18:22 30.12.2020
4288 Clouds 19 1017 77 10000 4.6 160 17:48 30.12.2020
4289 Clouds 19 1018 77 10000 4.6 170 17:29 30.12.2020
4290 Clouds 19 1018 72 10000 4.1 160 16:48 30.12.2020
4291 Clouds 19 1018 72 10000 4.1 160 16:20 30.12.2020
4292 Clouds 19 1018 72 10000 4.1 150 15:42 30.12.2020
4293 Clouds 19 1019 77 10000 4.1 140 15:24 30.12.2020
4294 Clouds 19 1019 72 10000 4.1 120 14:43 30.12.2020
4295 Clouds 19 1019 72 10000 4.1 110 14:22 30.12.2020
4296 Clouds 19 1019 72 10000 4.1 110 13:20 30.12.2020
4297 Clouds 20 1019 72 10000 4.6 110 12:27 30.12.2020
4298 Clouds 20 1019 68 10000 4.6 100 11:49 30.12.2020
4299 Clouds 20 1019 68 10000 4.6 110 11:23 30.12.2020
4300 Clouds 20 1019 68 10000 5.7 120 10:59 30.12.2020
4301 Clouds 20 1019 68 10000 5.7 120 10:39 30.12.2020
4302 Clouds 20 1019 68 10000 5.1 120 10:20 30.12.2020
4303 Clouds 20 1010 82 10000 1.34 156 09:46 30.12.2020
4304 Clouds 21 1018 60 10000 6.7 100 09:18 30.12.2020
4305 Clouds 21 1018 64 10000 6.7 120 08:23 30.12.2020
4306 Clouds 21 1009 79 10000 3.13 155 07:28 30.12.2020
4307 Clouds 21 1009 83 10000 2.24 155 06:43 30.12.2020
4308 Clouds 22 1018 60 10000 6.7 140 05:50 30.12.2020
4309 Clouds 22 1018 60 10000 7.2 130 05:31 30.12.2020
4310 Clouds 22 1018 60 10000 7.2 130 04:29 30.12.2020
4311 Clouds 22 1019 64 10000 7.2 120 03:28 30.12.2020
4312 Clouds 21 1019 64 10000 7.7 120 02:38 30.12.2020
4313 Rain 20 1019 68 10000 8.7 120 01:51 30.12.2020
4314 Rain 20 1010 87 10000 2.68 158 01:32 30.12.2020
4315 Clouds 19 1010 90 10000 3.13 157 00:47 30.12.2020
4316 Rain 19 1018 88 10000 7.2 150 00:29 30.12.2020
4317 Clouds 19 1010 95 10000 2.24 165 23:53 29.12.2020
4318 Rain 19 1018 88 10000 7.7 150 23:35 29.12.2020
4319 Rain 18 1018 88 5000 7.2 110 22:56 29.12.2020
4320 Rain 19 1018 88 5000 7.2 110 22:37 29.12.2020
4321 Rain 18 1018 93 6000 6.2 130 22:19 29.12.2020
4322 Rain 18 1017 93 3500 7.7 130 21:44 29.12.2020
4323 Rain 18 1017 93 4000 7.2 140 21:24 29.12.2020
4324 Drizzle 18 1017 93 5000 8.2 120 20:45 29.12.2020
4325 Rain 18 1016 93 10000 6.7 170 20:25 29.12.2020
4326 Rain 18 1016 93 6000 7.2 150 19:47 29.12.2020
4327 Rain 18 1017 93 9000 7.2 150 19:23 29.12.2020
4328 Rain 18 1016 93 8000 8.7 140 18:54 29.12.2020
4329 Rain 18 1016 93 5000 7.7 140 18:31 29.12.2020
4330 Drizzle 18 1016 100 10000 9.3 170 17:56 29.12.2020
4331 Rain 18 1016 100 9000 8.7 170 17:36 29.12.2020
4332 Rain 18 1016 100 9000 8.7 170 17:18 29.12.2020
4333 Rain 18 1017 88 10000 8.7 160 16:34 29.12.2020
4334 Rain 18 1017 93 10000 9.3 160 15:53 29.12.2020
4335 Rain 18 1017 93 10000 9.3 160 15:34 29.12.2020
4336 Rain 18 1017 93 10000 9.3 160 15:34 29.12.2020
4337 Rain 18 1017 88 10000 9.8 150 14:56 29.12.2020
4338 Rain 18 1017 93 6000 9.8 160 14:36 29.12.2020
4339 Rain 19 1017 93 6000 9.8 160 14:18 29.12.2020
4340 Rain 19 1017 100 8000 10.8 160 13:39 29.12.2020
4341 Rain 19 1016 100 6000 8.7 160 13:18 29.12.2020
4342 Rain 19 1016 93 10000 7.7 210 12:37 29.12.2020
4343 Rain 19 1016 93 10000 7.7 210 12:19 29.12.2020
4344 Rain 18 1016 93 10000 8.2 190 11:51 29.12.2020
4345 Rain 18 1016 93 8000 7.7 190 11:31 29.12.2020
4346 Rain 18 1015 88 10000 10.3 200 10:22 29.12.2020
4347 Clouds 19 1015 88 10000 9.8 190 09:47 29.12.2020
4348 Clouds 19 1014 88 10000 10.3 190 09:19 29.12.2020
4349 Rain 19 1014 88 10000 10.3 190 08:50 29.12.2020
4350 Rain 19 1014 82 10000 10.3 190 08:19 29.12.2020
4351 Clouds 20 1013 82 10000 9.3 190 07:26 29.12.2020
4352 Rain 19 1014 88 10000 8.2 190 06:26 29.12.2020
4353 Rain 20 1015 88 10000 4.6 190 03:45 29.12.2020
4354 Rain 18 1014 88 10000 6.7 190 00:47 29.12.2020
4355 Rain 18 1014 88 10000 4.1 190 00:20 29.12.2020
4356 Rain 17 1014 93 10000 4.1 190 23:34 28.12.2020
4357 Thunderstorm 18 1014 88 8000 6.7 220 22:28 28.12.2020
4358 Rain 18 1014 88 10000 7.2 200 21:45 28.12.2020
4359 Rain 18 1012 88 10000 7.2 190 21:26 28.12.2020
4360 Rain 18 1011 88 10000 7.2 170 20:43 28.12.2020
4361 Rain 18 1011 88 10000 6.7 160 20:22 28.12.2020
4362 Rain 18 1011 88 10000 6.7 180 19:49 28.12.2020
4363 Rain 18 1010 82 10000 8.7 170 19:24 28.12.2020
4364 Rain 17 1011 88 10000 4.6 180 18:53 28.12.2020
4365 Clouds 17 1011 88 10000 4.6 190 18:28 28.12.2020
4366 Clouds 17 1011 88 10000 4.6 210 17:47 28.12.2020
4367 Rain 17 1012 88 10000 3.6 210 17:29 28.12.2020
4368 Rain 17 1012 88 10000 3.6 260 16:50 28.12.2020
4369 Rain 17 1013 88 10000 3.6 240 16:28 28.12.2020
4370 Rain 17 1013 88 10000 4.1 280 15:53 28.12.2020
4371 Rain 17 1013 93 10000 3.1 280 15:33 28.12.2020
4372 Rain 17 1013 88 10000 3.1 240 14:29 28.12.2020
4373 Rain 17 1013 93 10000 3.6 250 13:47 28.12.2020
4374 Rain 17 1013 93 10000 2.1 160 13:20 28.12.2020
4375 Rain 17 1012 93 10000 5.7 210 12:27 28.12.2020
4376 Rain 18 1012 88 10000 6.2 230 11:55 28.12.2020
4377 Rain 18 1012 88 10000 6.2 230 11:36 28.12.2020
4378 Rain 18 1012 88 10000 3.1 190 11:18 28.12.2020
4379 Rain 18 1012 93 9000 3.6 180 10:29 28.12.2020
4380 Rain 18 1011 93 10000 7.2 150 09:57 28.12.2020
4381 Rain 18 1011 93 10000 7.2 150 09:37 28.12.2020
4382 Rain 18 1010 88 8000 6.7 150 09:18 28.12.2020
4383 Rain 20 1009 73 10000 10.3 150 06:53 28.12.2020
4384 Rain 21 1009 73 10000 10.8 150 05:18 28.12.2020
4385 Rain 23 1008 78 10000 12.3 160 03:34 28.12.2020
4386 Rain 25 1008 78 9000 10.8 170 01:55 28.12.2020
4387 Clouds 28 1007 65 10000 4.02 225 23:55 27.12.2020
4388 Clouds 27 998 75 10000 0.45 229 23:29 27.12.2020
4389 Clouds 25 1006 54 10000 2.6 280 22:40 27.12.2020
4390 Clear 26 1005 61 10000 5.7 320 21:55 27.12.2020
4391 Clear 25 1005 69 10000 3.6 330 21:22 27.12.2020
4392 Clear 24 1004 73 10000 4.1 300 20:32 27.12.2020
4393 Clear 25 1003 61 10000 3.1 310 19:24 27.12.2020
4394 Clear 24 1003 61 10000 3.6 330 18:51 27.12.2020
4395 Clear 24 1003 69 10000 3.6 350 18:22 27.12.2020
4396 Clear 24 1004 69 10000 3.1 360 17:59 27.12.2020
4397 Clear 25 1004 69 10000 3.1 360 17:39 27.12.2020
4398 Clear 24 1004 69 10000 3.1 340 17:18 27.12.2020
4399 Clear 24 1005 65 10000 3.61 333 16:25 27.12.2020
4400 Clear 24 1005 65 10000 3.61 333 15:37 27.12.2020
4401 Clear 24 1005 69 10000 3.77 336 14:57 27.12.2020
4402 Clouds 24 997 83 10000 0.45 85 14:38 27.12.2020
4403 Clouds 24 998 83 10000 0.89 115 13:42 27.12.2020
4404 Clouds 24 998 84 10000 0.45 79 13:19 27.12.2020
4405 Clear 24 1007 65 10000 9.8 30 12:38 27.12.2020
4406 Clear 24 1007 65 10000 10.3 30 11:46 27.12.2020
4407 Clear 24 1007 69 10000 9.8 30 11:28 27.12.2020
4408 Clouds 24 999 86 10000 0.89 329 10:51 27.12.2020
4409 Clouds 24 999 85 10000 0.45 332 10:23 27.12.2020
4410 Clouds 24 999 85 10000 1.34 140 09:41 27.12.2020
4411 Clouds 25 998 83 10000 0.45 1 08:29 27.12.2020
4412 Clouds 25 998 83 10000 0.45 1 08:29 27.12.2020
4413 Clear 26 1007 51 10000 8.7 40 07:59 27.12.2020
4414 Clear 27 1007 51 10000 8.7 40 07:25 27.12.2020
4415 Clear 27 1008 54 10000 8.2 50 05:44 27.12.2020
4416 Clouds 29 1010 48 10000 2.6 70 03:26 27.12.2020
4417 Clouds 27 1011 51 10000 2.6 40 02:42 27.12.2020
4418 Clouds 25 1012 61 10000 2.6 310 01:32 27.12.2020
4419 Clouds 22 1013 69 10000 2.6 290 23:57 26.12.2020
4420 Rain 20 1013 73 10000 2.6 270 23:27 26.12.2020
4421 Rain 20 1013 77 10000 3.1 270 22:47 26.12.2020
4422 Clouds 19 1013 82 10000 2.6 250 22:20 26.12.2020
4423 Clouds 18 1013 88 10000 2.6 270 21:57 26.12.2020
4424 Clouds 18 1013 88 10000 2.6 270 21:38 26.12.2020
4425 Clouds 18 1013 93 10000 2.6 250 21:19 26.12.2020
4426 Clouds 17 1013 93 10000 2.6 270 20:41 26.12.2020
4427 Clear 17 1012 96 10000 2.24 340 20:18 26.12.2020
4428 Rain 17 1012 95 10000 1.34 0 19:26 26.12.2020
4429 Rain 17 1012 88 10000 2.1 10 18:52 26.12.2020
4430 Clear 18 1012 88 10000 2.1 10 18:28 26.12.2020
4431 Clouds 18 1013 82 10000 2.1 300 17:41 26.12.2020
4432 Clouds 18 1013 77 10000 1 300 17:21 26.12.2020
4433 Clouds 18 1014 94 10000 1.79 290 16:36 26.12.2020
4434 Rain 19 1015 77 10000 2.6 10 15:38 26.12.2020
4435 Rain 19 1015 77 10000 2.6 10 15:18 26.12.2020
4436 Rain 19 1016 77 10000 2.6 310 14:29 26.12.2020
4437 Rain 19 1016 73 10000 7.2 20 13:54 26.12.2020
4438 Rain 19 1007 90 10000 1.34 301 13:32 26.12.2020
4439 Rain 19 1015 77 10000 6.7 30 12:50 26.12.2020
4440 Rain 19 1015 77 10000 7.7 20 12:30 26.12.2020
4441 Rain 19 1015 77 10000 7.7 20 11:58 26.12.2020
4442 Rain 19 1006 90 10000 1.34 315 11:39 26.12.2020
4443 Rain 19 1016 64 10000 9.3 20 11:18 26.12.2020
4444 Rain 20 1015 60 10000 8.7 40 10:42 26.12.2020
4445 Rain 20 1015 68 10000 9.8 40 10:22 26.12.2020
4446 Rain 21 1015 68 10000 8.7 50 09:39 26.12.2020
4447 Rain 20 1006 84 10000 0.89 265 08:54 26.12.2020
4448 Rain 21 1007 79 10000 2.24 288 08:18 26.12.2020
4449 Clouds 21 1006 79 10000 0.89 200 07:21 26.12.2020
4450 Clouds 23 1018 57 10000 8.7 40 04:39 26.12.2020
4451 Rain 22 1019 60 10000 8.7 20 02:47 26.12.2020
4452 Rain 21 1020 73 10000 2.1 150 00:36 26.12.2020
4453 Rain 20 1020 82 10000 2.6 100 23:49 25.12.2020
4454 Rain 20 1020 88 10000 2.1 30 23:28 25.12.2020
4455 Rain 19 1020 93 10000 1 170 22:58 25.12.2020
4456 Rain 18 1020 88 10000 2.6 280 22:26 25.12.2020
4457 Drizzle 17 1019 93 10000 3.6 310 21:43 25.12.2020
4458 Rain 17 1019 93 10000 3.6 310 21:25 25.12.2020
4459 Rain 17 1019 88 10000 3.6 330 20:45 25.12.2020
4460 Rain 17 1019 88 10000 3.1 270 20:27 25.12.2020
4461 Rain 17 1019 93 10000 2.1 160 19:43 25.12.2020
4462 Rain 17 1019 88 10000 3.6 180 18:55 25.12.2020
4463 Rain 17 1019 88 10000 3.6 180 18:35 25.12.2020
4464 Rain 17 1019 88 10000 2.1 140 17:35 25.12.2020
4465 Rain 18 1020 88 10000 2.6 150 16:56 25.12.2020
4466 Rain 18 1020 88 10000 3.1 170 16:25 25.12.2020
4467 Rain 18 1020 88 10000 2.6 110 15:51 25.12.2020
4468 Rain 18 1021 82 10000 3.6 20 15:32 25.12.2020
4469 Rain 18 1021 77 10000 1 90 14:44 25.12.2020
4470 Rain 18 1011 88 10000 1.34 147 14:21 25.12.2020
4471 Rain 18 1021 77 10000 3.6 160 13:43 25.12.2020
4472 Rain 18 1021 72 10000 5.1 110 13:24 25.12.2020
4473 Clouds 19 1021 77 10000 5.7 160 12:29 25.12.2020
4474 Rain 19 1021 77 10000 5.7 150 11:50 25.12.2020
4475 Rain 19 1021 72 10000 6.2 130 11:25 25.12.2020
4476 Rain 19 1020 72 10000 6.2 110 10:49 25.12.2020
4477 Clouds 19 1020 77 10000 6.7 110 10:23 25.12.2020
4478 Rain 19 1020 72 10000 7.7 160 09:27 25.12.2020
4479 Rain 19 1019 68 10000 7.7 160 08:47 25.12.2020
4480 Rain 19 1019 72 10000 8.2 170 07:57 25.12.2020
4481 Clouds 20 1019 77 10000 9.3 170 06:44 25.12.2020
4482 Rain 20 1020 77 10000 8.2 170 02:50 25.12.2020
4483 Rain 19 1020 77 10000 9.3 170 01:41 25.12.2020
4484 Rain 19 1019 82 10000 8.7 180 00:18 25.12.2020
4485 Rain 19 1018 82 10000 9.8 170 23:23 24.12.2020
4486 Rain 19 1018 77 10000 8.2 160 22:41 24.12.2020
4487 Rain 18 1018 82 10000 8.2 190 22:20 24.12.2020
4488 Rain 18 1017 88 10000 9.8 170 21:33 24.12.2020
4489 Rain 18 1017 93 10000 9.8 180 20:36 24.12.2020
4490 Rain 19 1016 93 10000 10.8 180 18:51 24.12.2020
4491 Rain 19 1015 93 10000 9.8 190 18:18 24.12.2020
4492 Rain 20 1015 88 5000 9.3 180 17:37 24.12.2020
4493 Rain 20 1015 88 10000 8.7 190 16:45 24.12.2020
4494 Clouds 21 1015 88 10000 8.7 200 16:22 24.12.2020
4495 Clouds 21 1015 85 10000 3.58 160 15:42 24.12.2020
4496 Rain 21 1015 85 10000 3.58 160 15:19 24.12.2020
4497 Rain 21 1014 84 10000 4.47 160 14:49 24.12.2020
4498 Rain 21 1015 78 10000 5.7 150 14:24 24.12.2020
4499 Rain 21 1015 78 10000 6.7 150 13:48 24.12.2020
4500 Rain 21 1015 83 10000 7.2 170 13:29 24.12.2020
4501 Clouds 21 1015 78 10000 4.6 120 12:44 24.12.2020
4502 Clouds 21 1014 78 10000 4.6 90 12:21 24.12.2020
4503 Clouds 22 1014 73 10000 5.7 90 11:47 24.12.2020
4504 Clouds 22 1013 73 10000 3.1 100 11:21 24.12.2020
4505 Clouds 22 1004 85 10000 0.89 94 10:53 24.12.2020
4506 Clouds 22 1004 85 10000 0.89 273 10:35 24.12.2020
4507 Clouds 23 1011 64 10000 9.3 40 09:52 24.12.2020
4508 Clouds 23 1011 64 10000 9.3 40 09:30 24.12.2020
4509 Clouds 24 1011 57 10000 10.8 30 08:43 24.12.2020
4510 Clear 25 1011 54 10000 9.3 30 07:43 24.12.2020
4511 Clear 26 1011 50 10000 9.8 30 07:20 24.12.2020
4512 Clouds 25 1013 51 10000 8.7 30 05:56 24.12.2020
4513 Clouds 25 1015 47 10000 5.1 30 02:33 24.12.2020
4514 Clouds 24 1016 47 10000 5.7 10 01:45 24.12.2020
4515 Clouds 24 1016 47 10000 4.1 320 01:18 24.12.2020
4516 Clouds 22 1016 56 10000 4.6 350 00:22 24.12.2020
4517 Clouds 22 1017 56 10000 4.1 340 23:49 23.12.2020
4518 Clouds 22 1016 56 10000 4.1 360 23:31 23.12.2020
4519 Clouds 21 1016 60 10000 3.1 350 22:59 23.12.2020
4520 Clouds 21 1016 60 10000 3.1 350 22:40 23.12.2020
4521 Clouds 20 1016 64 10000 2.6 350 22:18 23.12.2020
4522 Clouds 18 1016 87 10000 1.79 20 21:31 23.12.2020
4523 Clouds 17 1017 81 10000 1.34 9 20:57 23.12.2020
4524 Clouds 17 1014 86 10000 2.81 348 20:37 23.12.2020
4525 Clouds 17 1016 77 10000 2.1 120 20:19 23.12.2020
4526 Clouds 17 1016 77 10000 3.1 120 19:41 23.12.2020
4527 Clouds 17 1016 77 10000 2.1 120 19:22 23.12.2020
4528 Clouds 17 1016 72 10000 2.1 120 18:52 23.12.2020
4529 Clouds 17 1016 72 10000 2.1 120 18:34 23.12.2020
4530 Clouds 18 1016 72 10000 2.36 343 17:43 23.12.2020
4531 Clouds 17 1016 72 10000 2.55 358 17:22 23.12.2020
4532 Clouds 18 1017 72 10000 1 120 16:56 23.12.2020
4533 Clouds 18 1017 68 10000 2.45 16 16:36 23.12.2020
4534 Clouds 18 1017 68 10000 2.45 16 16:18 23.12.2020
4535 Clouds 18 1017 64 10000 2.45 16 15:39 23.12.2020
4536 Clouds 18 1017 64 10000 2.28 20 15:21 23.12.2020
4537 Clouds 18 1018 68 10000 2.28 20 14:46 23.12.2020
4538 Clouds 18 1018 64 10000 1.5 120 14:25 23.12.2020
4539 Clouds 19 1018 68 10000 2.6 120 13:47 23.12.2020
4540 Clouds 19 1018 68 10000 2.6 120 13:21 23.12.2020
4541 Clouds 19 1017 68 10000 3.1 120 12:58 23.12.2020
4542 Clouds 19 1017 68 10000 3.1 120 12:38 23.12.2020
4543 Clouds 19 1017 68 10000 3.6 110 12:18 23.12.2020
4544 Clouds 20 1017 68 10000 3.6 110 11:45 23.12.2020
4545 Clouds 20 1016 68 10000 4.6 110 10:57 23.12.2020
4546 Clouds 20 1016 68 10000 4.6 110 10:39 23.12.2020
4547 Clouds 20 1016 64 10000 5.7 130 10:21 23.12.2020
4548 Clouds 21 1007 75 10000 2.68 158 09:27 23.12.2020
4549 Clouds 22 1015 60 10000 7.7 130 08:42 23.12.2020
4550 Clouds 22 1015 53 10000 7.2 150 08:18 23.12.2020
4551 Clouds 23 1015 53 10000 8.7 160 07:21 23.12.2020
4552 Clouds 23 1015 56 10000 9.3 160 06:39 23.12.2020
4553 Clouds 23 1015 59 10000 4.02 108 05:26 23.12.2020
4554 Clear 23 1015 64 10000 10.8 160 04:53 23.12.2020
4555 Clear 22 1013 49 10000 7.2 210 00:34 23.12.2020
4556 Clear 22 1013 46 10000 6.7 250 23:48 22.12.2020
4557 Clear 21 1012 49 10000 7.7 250 23:28 22.12.2020
4558 Clear 20 1012 52 10000 8.7 250 22:44 22.12.2020
4559 Clear 19 1011 52 10000 8.2 250 22:25 22.12.2020
4560 Clear 18 1011 55 10000 9.3 240 21:58 22.12.2020
4561 Clear 17 1010 63 10000 9.8 240 21:38 22.12.2020
4562 Clear 17 1010 63 10000 9.8 240 21:19 22.12.2020
4563 Clear 16 1010 59 10000 9.3 250 20:48 22.12.2020
4564 Clear 16 1010 63 10000 5.7 250 20:21 22.12.2020
4565 Clear 16 1009 63 10000 5.1 250 19:44 22.12.2020
4566 Clear 16 1009 59 10000 5.7 250 19:21 22.12.2020
4567 Clear 17 1009 59 10000 5.7 250 18:54 22.12.2020
4568 Clear 17 1008 55 10000 5.7 270 18:30 22.12.2020
4569 Clear 17 1008 55 10000 7.7 280 17:59 22.12.2020
4570 Clear 17 1008 52 10000 5.1 260 17:26 22.12.2020
4571 Clear 17 1008 52 10000 6.2 260 16:56 22.12.2020
4572 Clouds 18 1009 55 10000 2.68 238 16:37 22.12.2020
4573 Clear 18 1008 45 10000 7.7 270 16:19 22.12.2020
4574 Clear 18 1008 45 10000 8.2 270 15:43 22.12.2020
4575 Clear 19 1008 45 10000 8.2 270 15:23 22.12.2020
4576 Clouds 19 1008 40 10000 9.8 260 14:45 22.12.2020
4577 Clouds 19 1011 52 10000 6.06 256 14:27 22.12.2020
4578 Clear 20 1007 33 10000 9.8 280 13:50 22.12.2020
4579 Clear 21 1007 30 10000 9.3 280 13:20 22.12.2020
4580 Clouds 21 1006 39 10000 7.6 270 12:59 22.12.2020
4581 Clouds 21 1006 39 10000 7.6 270 12:40 22.12.2020
4582 Clouds 22 1006 39 10000 7.6 270 12:19 22.12.2020
4583 Clouds 23 1005 41 10000 6.71 270 11:43 22.12.2020
4584 Clear 23 1005 31 10000 7.7 280 11:23 22.12.2020
4585 Clouds 23 1004 38 10000 7.6 290 10:56 22.12.2020
4586 Clouds 24 1004 38 10000 7.6 290 10:28 22.12.2020
4587 Clouds 25 1003 34 10000 6.71 270 09:59 22.12.2020
4588 Clear 25 1003 27 10000 8.7 280 09:31 22.12.2020
4589 Clear 25 1002 31 10000 7.7 260 08:59 22.12.2020
4590 Clear 26 1002 31 10000 7.7 260 08:40 22.12.2020
4591 Clouds 26 1002 37 10000 7.6 270 08:20 22.12.2020
4592 Clear 27 1001 28 10000 7.7 260 07:46 22.12.2020
4593 Clear 27 1001 32 10000 8.2 280 06:37 22.12.2020
4594 Clear 27 1002 34 10000 9.8 280 05:39 22.12.2020
4595 Clouds 25 1002 64 10000 4.1 230 02:36 22.12.2020
4596 Clouds 22 1002 78 10000 3.6 260 00:43 22.12.2020
4597 Clouds 21 1001 88 10000 2.6 290 23:51 21.12.2020
4598 Clouds 20 1001 88 10000 3.1 320 23:24 21.12.2020
4599 Clouds 19 1001 88 10000 3.6 320 22:37 21.12.2020
4600 Rain 19 1000 93 10000 3.6 310 22:19 21.12.2020
4601 Rain 18 1000 10 10000 5.81 290 21:48 21.12.2020
4602 Rain 18 1000 10 10000 5.81 290 21:30 21.12.2020
4603 Rain 18 1000 93 10000 3.1 310 20:50 21.12.2020
4604 Rain 18 1001 10 10000 3.58 270 20:25 21.12.2020
4605 Rain 18 1001 10 10000 3.58 270 19:56 21.12.2020
4606 Rain 17 1001 10 7941 3.58 270 19:37 21.12.2020
4607 Clouds 18 1000 10 7941 4.47 270 19:18 21.12.2020
4608 Rain 18 1000 100 10000 3.6 270 18:50 21.12.2020
4609 Drizzle 18 1000 100 10000 3.6 270 18:32 21.12.2020
4610 Clouds 18 1001 100 10000 4.1 260 17:43 21.12.2020
4611 Rain 18 1001 100 10000 4.1 260 17:24 21.12.2020
4612 Rain 18 1002 93 9000 3.6 250 16:47 21.12.2020
4613 Rain 18 1003 100 6000 3.6 250 16:26 21.12.2020
4614 Rain 18 1004 93 10000 2.6 300 15:45 21.12.2020
4615 Rain 18 1004 93 10000 1 310 15:27 21.12.2020
4616 Rain 18 1005 93 6000 2.1 320 14:56 21.12.2020
4617 Rain 18 1005 93 5000 2.6 340 14:21 21.12.2020
4618 Rain 18 1006 93 8000 3.1 310 13:42 21.12.2020
4619 Rain 18 1007 93 7000 3.1 330 13:24 21.12.2020
4620 Rain 18 1007 93 9000 3.1 340 12:43 21.12.2020
4621 Rain 18 1007 93 10000 2.6 350 12:24 21.12.2020
4622 Rain 18 1007 93 9000 2.6 360 11:55 21.12.2020
4623 Rain 18 1007 93 10000 3.6 10 11:37 21.12.2020
4624 Rain 18 1007 93 10000 3.6 10 11:18 21.12.2020
4625 Rain 18 998 99 5689 0.89 304 10:40 21.12.2020
4626 Rain 18 1007 93 10000 4.1 50 10:21 21.12.2020
4627 Rain 19 1007 93 9000 2.27 33 09:43 21.12.2020
4628 Rain 19 1008 93 9000 0.5 90 09:24 21.12.2020
4629 Rain 19 1008 93 5000 2.1 60 08:50 21.12.2020
4630 Rain 20 1008 88 10000 4.1 40 07:51 21.12.2020
4631 Rain 20 1008 93 10000 2.68 45 06:22 21.12.2020
4632 Rain 21 1010 83 10000 5.1 60 04:46 21.12.2020
4633 Rain 23 1012 78 10000 3.6 130 01:25 21.12.2020
4634 Rain 22 1012 83 10000 3.6 150 00:31 21.12.2020
4635 Clouds 21 1013 88 10000 2.1 210 23:34 20.12.2020
4636 Clouds 20 1013 88 10000 2.1 210 22:59 20.12.2020
4637 Clouds 20 1012 88 10000 2.1 190 22:41 20.12.2020
4638 Clouds 20 1012 94 10000 0.5 170 22:21 20.12.2020
4639 Clouds 19 1012 99 10000 0.89 135 21:40 20.12.2020
4640 Clouds 18 1012 92 10000 0.45 319 21:20 20.12.2020
4641 Clouds 18 1012 92 10000 0.45 319 20:51 20.12.2020
4642 Clouds 18 1012 92 10000 0.64 230 20:24 20.12.2020
4643 Clouds 18 1011 97 10000 0.45 0 19:46 20.12.2020
4644 Clouds 18 1011 97 10000 0.45 0 19:46 20.12.2020
4645 Clouds 18 1011 97 10000 0.45 0 19:28 20.12.2020
4646 Clouds 18 1011 97 10000 0.45 0 18:58 20.12.2020
4647 Rain 18 1011 97 10000 0.45 0 18:38 20.12.2020
4648 Rain 18 1014 94 10000 0.52 327 18:20 20.12.2020
4649 Rain 19 1011 98 10000 0.45 0 17:44 20.12.2020
4650 Rain 19 1011 98 10000 0.45 0 17:23 20.12.2020
4651 Rain 19 1011 98 10000 0.45 0 16:45 20.12.2020
4652 Rain 19 1011 98 10000 0.45 0 16:27 20.12.2020
4653 Rain 19 1012 88 10000 1.45 354 15:48 20.12.2020
4654 Rain 19 1012 88 10000 2.1 360 15:25 20.12.2020
4655 Rain 19 1012 88 10000 1.5 70 14:54 20.12.2020
4656 Rain 19 1012 88 10000 1.5 70 14:33 20.12.2020
4657 Clouds 19 1012 89 10000 1.63 39 13:47 20.12.2020
4658 Clouds 19 1012 89 10000 0.45 31 13:25 20.12.2020
4659 Clouds 19 1012 83 10000 3.1 40 12:58 20.12.2020
4660 Rain 20 1012 83 10000 3.1 40 12:39 20.12.2020
4661 Clouds 20 1012 83 10000 2.1 60 12:20 20.12.2020
4662 Clouds 20 1012 83 10000 2.1 90 11:43 20.12.2020
4663 Clouds 20 1012 83 10000 2.6 90 11:18 20.12.2020
4664 Clouds 20 1011 83 10000 3.6 90 10:45 20.12.2020
4665 Clouds 21 1011 78 10000 3.6 90 10:20 20.12.2020
4666 Clouds 21 1011 78 10000 3.6 90 09:45 20.12.2020
4667 Clouds 21 1011 78 10000 3.6 90 09:27 20.12.2020
4668 Clouds 22 1010 73 10000 3.1 110 08:56 20.12.2020
4669 Clouds 22 1010 73 10000 4.6 140 08:37 20.12.2020
4670 Clouds 22 1011 78 10000 4.6 120 07:25 20.12.2020
4671 Rain 22 1011 78 10000 4.1 120 05:44 20.12.2020
4672 Rain 20 1013 83 10000 4.6 190 02:20 20.12.2020
4673 Rain 19 1013 93 5000 4.6 190 00:38 20.12.2020
4674 Rain 18 1013 93 7000 5.1 190 23:21 19.12.2020
4675 Rain 18 1013 93 6000 4.6 190 22:57 19.12.2020
4676 Rain 18 1013 93 6000 4.6 190 22:38 19.12.2020
4677 Rain 18 1013 93 6000 5.7 200 22:19 19.12.2020
4678 Rain 18 1014 93 10000 1.34 248 21:42 19.12.2020
4679 Rain 18 1013 100 8000 5.1 200 21:24 19.12.2020
4680 Rain 18 1012 100 6000 6.2 190 20:45 19.12.2020
4681 Rain 18 1012 100 6000 5.7 170 20:22 19.12.2020
4682 Rain 18 1012 93 9000 7.2 190 19:55 19.12.2020
4683 Rain 18 1012 93 9000 7.2 190 19:36 19.12.2020
4684 Rain 18 1012 98 10000 2.24 180 19:18 19.12.2020
4685 Rain 18 1012 98 10000 2.24 180 18:31 19.12.2020
4686 Rain 18 1012 93 10000 6.2 190 17:50 19.12.2020
4687 Rain 18 1012 93 10000 6.2 190 17:29 19.12.2020
4688 Rain 18 1013 88 10000 6.7 190 16:56 19.12.2020
4689 Rain 18 1013 88 10000 6.7 190 16:38 19.12.2020
4690 Rain 18 1014 93 10000 6.7 190 16:19 19.12.2020
4691 Rain 18 1015 88 10000 5.7 200 15:47 19.12.2020
4692 Clouds 18 1015 88 10000 5.7 190 15:18 19.12.2020
4693 Clouds 18 1015 88 10000 6.7 180 14:35 19.12.2020
4694 Clouds 18 1016 88 10000 4.6 190 13:42 19.12.2020
4695 Clouds 18 1016 88 10000 4.6 200 13:23 19.12.2020
4696 Clouds 18 1016 88 10000 4.1 190 12:57 19.12.2020
4697 Clouds 18 1016 88 10000 4.1 190 12:38 19.12.2020
4698 Clouds 18 1016 88 10000 3.6 190 12:20 19.12.2020
4699 Rain 18 1016 88 10000 3.1 180 11:44 19.12.2020
4700 Rain 18 1016 88 10000 3.1 190 11:19 19.12.2020
4701 Clouds 18 1016 88 10000 2.6 170 10:42 19.12.2020
4702 Clouds 18 1016 93 10000 2.1 170 10:18 19.12.2020
4703 Rain 18 1016 93 10000 3.1 130 09:41 19.12.2020
4704 Drizzle 18 1016 88 4000 4.1 170 08:59 19.12.2020
4705 Rain 18 1016 93 10000 3.1 170 08:20 19.12.2020
4706 Rain 18 1016 93 5000 4.6 160 07:20 19.12.2020
4707 Rain 18 1016 93 10000 4.1 150 06:50 19.12.2020
4708 Drizzle 18 1017 93 6000 4.6 150 05:24 19.12.2020
4709 Rain 19 1017 82 10000 6.2 170 03:50 19.12.2020
4710 Clouds 18 1017 72 10000 7.2 170 01:21 19.12.2020
4711 Clouds 19 1017 72 10000 8.2 170 00:36 19.12.2020
4712 Rain 19 1017 72 10000 8.2 170 00:18 19.12.2020
4713 Rain 19 1017 72 10000 8.7 170 23:44 18.12.2020
4714 Clouds 19 1016 77 10000 8.7 170 23:21 18.12.2020
4715 Rain 19 1016 77 10000 8.7 160 22:43 18.12.2020
4716 Rain 19 1016 77 10000 9.3 160 22:20 18.12.2020
4717 Rain 19 1016 77 10000 9.3 160 21:47 18.12.2020
4718 Rain 19 1015 77 10000 9.3 160 21:28 18.12.2020
4719 Rain 19 1015 82 10000 8.7 160 20:38 18.12.2020
4720 Rain 19 1015 82 10000 8.2 170 20:19 18.12.2020
4721 Rain 19 1014 82 10000 8.2 160 19:41 18.12.2020
4722 Rain 19 1014 88 10000 9.3 170 19:20 18.12.2020
4723 Rain 20 1014 82 10000 8.7 170 18:39 18.12.2020
4724 Rain 20 1014 82 10000 7.2 160 18:20 18.12.2020
4725 Rain 19 1014 88 10000 5.81 160 17:22 18.12.2020
4726 Rain 19 1013 89 10000 5.36 160 16:49 18.12.2020
4727 Rain 19 1013 89 10000 5.36 160 16:27 18.12.2020
4728 Rain 19 1013 88 10000 10.3 170 15:58 18.12.2020
4729 Rain 19 1013 88 10000 10.3 180 15:39 18.12.2020
4730 Rain 20 1013 88 10000 10.3 180 15:20 18.12.2020
4731 Rain 20 1013 94 9000 8.2 180 14:54 18.12.2020
4732 Rain 21 1013 88 7000 9.8 170 14:21 18.12.2020
4733 Rain 21 1013 88 9000 8.2 170 13:50 18.12.2020
4734 Rain 21 1012 83 10000 7.7 170 13:27 18.12.2020
4735 Rain 22 1012 83 10000 7.7 170 12:47 18.12.2020
4736 Rain 22 1012 88 10000 8.2 170 11:59 18.12.2020
4737 Rain 22 1010 88 10000 9.8 180 11:23 18.12.2020
4738 Rain 22 1010 88 10000 10.3 180 10:40 18.12.2020
4739 Rain 22 1009 94 10000 9.8 180 10:20 18.12.2020
4740 Rain 23 1008 88 10000 8.7 170 09:39 18.12.2020
4741 Rain 23 1008 88 10000 8.7 180 09:21 18.12.2020
4742 Clouds 24 1005 85 10000 7.94 169 08:54 18.12.2020
4743 Rain 23 1007 88 8000 6.7 150 08:30 18.12.2020
4744 Rain 25 1006 65 10000 12.9 190 07:46 18.12.2020
4745 Rain 27 1006 65 10000 3.6 110 07:18 18.12.2020
4746 Rain 27 1005 61 10000 5.7 150 06:51 18.12.2020
4747 Clouds 29 997 64 10000 1.34 308 05:42 18.12.2020
4748 Rain 30 1005 40 10000 6.2 290 04:51 18.12.2020
4749 Rain 28 1007 61 10000 6.7 310 02:24 18.12.2020
4750 Rain 29 1007 58 10000 9.8 300 01:40 18.12.2020
4751 Clear 31 1005 49 10000 6.2 290 00:28 18.12.2020
4752 Clear 31 1005 55 10000 3.6 330 23:50 17.12.2020
4753 Clear 29 1005 62 10000 3.1 310 23:19 17.12.2020
4754 Clear 28 1005 65 10000 3.1 300 22:47 17.12.2020
4755 Clear 26 1004 69 10000 3.1 320 22:27 17.12.2020
4756 Clear 25 1004 69 10000 3.1 320 21:44 17.12.2020
4757 Clear 24 1004 73 10000 3.6 310 21:20 17.12.2020
4758 Clear 23 1004 78 10000 3.1 310 20:45 17.12.2020
4759 Clear 22 1005 96 10000 0.89 250 20:19 17.12.2020
4760 Clear 22 1004 83 10000 2.6 300 19:49 17.12.2020
4761 Clear 22 1004 83 10000 2.99 320 19:25 17.12.2020
4762 Clear 23 1003 88 10000 2.6 290 18:56 17.12.2020
4763 Clear 23 1003 88 10000 2.6 290 18:37 17.12.2020
4764 Clear 23 1004 88 10000 2.6 290 18:18 17.12.2020
4765 Clear 23 1004 88 10000 2.6 280 17:44 17.12.2020
4766 Clear 23 1003 92 10000 0.45 90 17:25 17.12.2020
4767 Clear 23 996 92 10000 2.65 337 16:39 17.12.2020
4768 Clear 24 1004 83 10000 2.1 270 16:19 17.12.2020
4769 Clear 24 1004 87 10000 0.89 0 15:45 17.12.2020
4770 Clear 24 1004 87 10000 0.89 0 15:27 17.12.2020
4771 Clear 25 1004 78 10000 3.1 320 14:49 17.12.2020
4772 Clear 25 1005 74 10000 3.6 350 14:22 17.12.2020
4773 Clear 25 1004 74 10000 5.7 360 13:48 17.12.2020
4774 Clouds 24 997 91 10000 2.24 290 13:23 17.12.2020
4775 Clouds 24 997 92 10000 0.89 2 12:43 17.12.2020
4776 Clear 24 1006 69 10000 5.1 360 12:24 17.12.2020
4777 Clear 24 1005 74 10000 7.7 40 11:43 17.12.2020
4778 Rain 25 1004 69 10000 5.7 40 11:22 17.12.2020
4779 Rain 25 1004 65 10000 4.6 40 10:49 17.12.2020
4780 Rain 28 1004 65 10000 6.2 30 09:42 17.12.2020
4781 Rain 29 1003 58 10000 8.2 20 09:21 17.12.2020
4782 Rain 28 1003 61 10000 11.3 30 07:49 17.12.2020
4783 Rain 27 1003 61 10000 11.3 30 07:28 17.12.2020
4784 Rain 27 1003 61 10000 9.3 40 06:51 17.12.2020
4785 Rain 27 1003 61 10000 9.3 40 06:32 17.12.2020
4786 Rain 29 1005 55 10000 6.2 30 03:55 17.12.2020
4787 Clouds 26 1006 61 10000 5.7 40 00:33 17.12.2020
4788 Rain 26 1006 74 10000 5.1 20 23:51 16.12.2020
4789 Clear 25 1006 74 10000 6.2 20 23:19 16.12.2020
4790 Clear 24 1006 78 10000 4.6 20 22:52 16.12.2020
4791 Clouds 23 999 96 10000 0.45 10 22:32 16.12.2020
4792 Clouds 22 999 99 10000 0.89 44 21:47 16.12.2020
4793 Rain 22 999 99 10000 0.45 133 21:27 16.12.2020
4794 Rain 21 999 99 10000 0.45 84 20:54 16.12.2020
4795 Rain 21 998 99 10000 0.89 34 20:21 16.12.2020
4796 Rain 21 999 99 10000 0.89 297 19:50 16.12.2020
4797 Rain 21 999 99 10000 1.92 341 19:19 16.12.2020
4798 Rain 21 999 99 10000 1.34 317 18:52 16.12.2020
4799 Rain 21 998 99 10000 0.45 7 18:27 16.12.2020
4800 Rain 21 998 98 10000 0.89 70 17:43 16.12.2020
4801 Clouds 21 998 98 10000 0.45 351 17:18 16.12.2020
4802 Clouds 22 1007 88 10000 6.7 10 16:39 16.12.2020
4803 Clouds 22 1007 88 10000 6.7 10 16:20 16.12.2020
4804 Clouds 21 999 98 10000 0.45 23 15:49 16.12.2020
4805 Clouds 22 999 98 10000 1.79 302 15:26 16.12.2020
4806 Clouds 22 1000 96 10000 0.89 23 14:47 16.12.2020
4807 Clouds 22 1000 96 10000 1.34 199 14:28 16.12.2020
4808 Clouds 22 1000 98 10000 1.79 288 13:49 16.12.2020
4809 Rain 22 1000 96 7732 2.68 286 13:28 16.12.2020
4810 Rain 22 1001 96 10000 2.24 289 12:55 16.12.2020
4811 Rain 22 1001 96 10000 2.24 278 12:34 16.12.2020
4812 Rain 22 1001 99 10000 1.34 257 11:40 16.12.2020
4813 Rain 22 1001 99 9757 1.34 299 11:22 16.12.2020
4814 Rain 22 1001 99 9757 1.34 97 10:46 16.12.2020
4815 Rain 22 1001 98 10000 1.34 344 10:25 16.12.2020
4816 Rain 22 1001 98 10000 0.89 298 09:43 16.12.2020
4817 Rain 23 1007 83 10000 8.2 30 08:42 16.12.2020
4818 Rain 23 1007 83 10000 10.8 40 07:57 16.12.2020
4819 Rain 23 1007 83 10000 10.8 40 07:38 16.12.2020
4820 Clouds 23 1000 96 10000 1.34 330 06:52 16.12.2020
4821 Rain 26 1011 69 10000 8.7 40 02:26 16.12.2020
4822 Clouds 25 1011 78 10000 8.7 20 01:20 16.12.2020
4823 Drizzle 23 1012 88 4000 7.7 30 23:45 15.12.2020
4824 Clouds 22 1004 99 10000 1.34 247 22:48 15.12.2020
4825 Rain 22 1012 94 2500 7.2 60 22:25 15.12.2020
4826 Rain 22 1012 100 3000 7.2 60 21:58 15.12.2020
4827 Rain 22 1004 99 10000 1.34 116 21:40 15.12.2020
4828 Rain 22 1011 94 1500 8.7 50 21:21 15.12.2020
4829 Drizzle 22 1011 94 2000 8.7 60 20:44 15.12.2020
4830 Rain 21 1004 99 10000 2.68 135 20:26 15.12.2020
4831 Rain 21 1003 99 10000 1.34 134 19:52 15.12.2020
4832 Rain 21 1011 100 4000 7.2 50 19:26 15.12.2020
4833 Rain 21 1011 94 3000 6.7 50 18:39 15.12.2020
4834 Rain 21 1011 94 5000 7.7 50 18:21 15.12.2020
4835 Rain 21 1011 94 4000 6.2 60 17:44 15.12.2020
4836 Rain 21 1011 94 4000 6.7 60 17:25 15.12.2020
4837 Rain 21 1012 94 4000 7.7 40 16:43 15.12.2020
4838 Rain 21 1004 99 10000 1.34 152 16:25 15.12.2020
4839 Rain 21 1012 94 5000 8.2 60 15:42 15.12.2020
4840 Rain 21 1004 99 10000 1.34 295 15:24 15.12.2020
4841 Rain 21 1013 94 8000 7.7 70 14:43 15.12.2020
4842 Rain 21 1013 94 6000 7.2 70 14:20 15.12.2020
4843 Rain 21 1014 94 7000 6.2 80 13:51 15.12.2020
4844 Rain 21 1014 94 3000 7.2 80 13:26 15.12.2020
4845 Rain 21 1014 94 3000 7.2 80 12:46 15.12.2020
4846 Rain 21 1014 94 8000 7.2 80 12:20 15.12.2020
4847 Rain 21 1013 94 10000 6.2 80 11:54 15.12.2020
4848 Rain 21 1013 94 10000 7.7 70 11:25 15.12.2020
4849 Rain 22 1013 94 10000 8.2 60 10:53 15.12.2020
4850 Rain 21 1013 94 9000 8.2 60 10:23 15.12.2020
4851 Rain 22 1013 88 10000 9.8 70 09:49 15.12.2020
4852 Clouds 22 1005 99 10000 3.13 149 09:31 15.12.2020
4853 Clouds 22 1005 99 10000 3.13 137 08:49 15.12.2020
4854 Clouds 22 1005 98 10000 2.68 145 08:26 15.12.2020
4855 Clouds 23 1013 83 10000 8.2 60 07:49 15.12.2020
4856 Rain 22 1005 96 10000 2.68 147 07:24 15.12.2020
4857 Rain 22 1006 98 4684 1.34 139 06:28 15.12.2020
4858 Rain 23 1015 78 10000 8.7 60 03:25 15.12.2020
4859 Rain 21 1017 94 3000 3.6 100 00:34 15.12.2020
4860 Rain 21 1017 94 3000 4.1 80 23:26 14.12.2020
4861 Rain 20 1009 99 9765 2.24 152 22:56 14.12.2020
4862 Rain 20 1008 99 10000 1.79 141 22:32 14.12.2020
4863 Rain 20 1016 100 4000 4.6 80 21:45 14.12.2020
4864 Rain 20 1016 94 5000 4.1 90 21:22 14.12.2020
4865 Drizzle 19 1016 94 5000 4.6 100 20:51 14.12.2020
4866 Rain 19 1013 88 10000 1.34 155 20:30 14.12.2020
4867 Rain 19 1016 100 6000 3.6 90 19:54 14.12.2020
4868 Rain 19 1016 93 5000 2.6 50 19:29 14.12.2020
4869 Rain 19 1016 93 5000 1 20 18:51 14.12.2020
4870 Rain 19 1016 93 5000 1 20 18:51 14.12.2020
4871 Rain 19 1016 98 10000 2.24 110 18:31 14.12.2020
4872 Rain 19 1016 98 10000 1.79 0 17:47 14.12.2020
4873 Rain 19 1016 98 10000 1.79 0 17:24 14.12.2020
4874 Rain 19 1017 90 10000 4.16 71 16:52 14.12.2020
4875 Rain 19 1017 96 10000 3.13 90 16:29 14.12.2020
4876 Rain 19 1017 96 10000 3.13 90 15:44 14.12.2020
4877 Rain 19 1018 93 7000 3.1 20 15:22 14.12.2020
4878 Rain 19 1018 95 10000 4.02 70 14:43 14.12.2020
4879 Rain 19 1018 95 10000 4.02 70 14:24 14.12.2020
4880 Drizzle 20 1018 83 10000 3.1 120 13:44 14.12.2020
4881 Rain 20 1018 83 10000 3.6 90 13:22 14.12.2020
4882 Clouds 20 1018 88 10000 2.1 100 12:53 14.12.2020
4883 Clouds 20 1018 88 10000 1.5 50 12:28 14.12.2020
4884 Rain 20 1018 88 10000 2.6 30 11:35 14.12.2020
4885 Rain 21 1018 68 10000 4.1 80 10:48 14.12.2020
4886 Rain 21 1018 68 10000 5.1 70 10:27 14.12.2020
4887 Rain 22 1018 64 10000 5.7 70 09:44 14.12.2020
4888 Clouds 22 1018 64 10000 7.2 70 08:49 14.12.2020
4889 Clouds 22 1018 71 10000 3.13 90 08:30 14.12.2020
4890 Clouds 23 1018 60 10000 6.7 80 07:49 14.12.2020
4891 Clouds 22 1019 74 10000 3.13 143 06:48 14.12.2020
4892 Clouds 22 1019 73 10000 2.68 30 05:37 14.12.2020
4893 Clouds 22 1020 64 10000 4.1 80 03:29 14.12.2020
4894 Rain 21 1021 80 10000 1.79 336 00:57 14.12.2020
4895 Rain 22 1021 69 10000 5.7 70 00:34 14.12.2020
4896 Rain 22 1021 68 10000 4.1 80 23:58 13.12.2020
4897 Rain 21 1021 68 10000 4.1 80 23:40 13.12.2020
4898 Rain 21 1020 77 10000 5.7 100 22:51 13.12.2020
4899 Clouds 20 1020 88 10000 6.7 90 22:21 13.12.2020
4900 Rain 19 1020 93 10000 6.2 100 21:56 13.12.2020
4901 Rain 19 1020 93 10000 6.2 100 21:35 13.12.2020
4902 Rain 18 1020 93 10000 2.6 90 20:49 13.12.2020
4903 Rain 18 1020 88 5000 5.1 90 20:25 13.12.2020
4904 Rain 18 1020 88 10000 5.7 110 19:45 13.12.2020
4905 Rain 18 1019 91 10000 2.24 110 19:23 13.12.2020
4906 Rain 18 1020 82 10000 2.6 110 18:54 13.12.2020
4907 Rain 18 1020 88 10000 4.1 130 18:36 13.12.2020
4908 Rain 18 1020 88 10000 4.1 130 18:18 13.12.2020
4909 Rain 19 1021 88 10000 3.6 140 17:43 13.12.2020
4910 Rain 18 1021 88 10000 5.1 120 17:18 13.12.2020
4911 Rain 18 1020 94 10000 3.13 110 16:44 13.12.2020
4912 Rain 19 1021 77 10000 5.7 90 16:21 13.12.2020
4913 Rain 19 1021 77 10000 5.7 90 15:45 13.12.2020
4914 Rain 19 1021 77 10000 5.7 90 15:45 13.12.2020
4915 Rain 18 1021 77 10000 5.7 90 15:45 13.12.2020
4916 Rain 18 1013 88 10000 1.34 155 15:25 13.12.2020
4917 Rain 18 1022 82 10000 4.1 80 14:46 13.12.2020
4918 Rain 18 1023 82 10000 3.1 70 14:28 13.12.2020
4919 Rain 19 1023 77 10000 4.1 80 13:46 13.12.2020
4920 Rain 18 1023 77 10000 4.1 80 13:27 13.12.2020
4921 Rain 19 1023 73 10000 6.7 80 12:55 13.12.2020
4922 Rain 19 1023 68 10000 5.1 80 12:24 13.12.2020
4923 Rain 19 1023 68 10000 5.1 80 12:24 13.12.2020
4924 Rain 20 1023 73 10000 7.7 70 11:53 13.12.2020
4925 Rain 20 1023 68 10000 5.1 70 11:28 13.12.2020
4926 Rain 20 1023 68 10000 6.2 70 10:42 13.12.2020
4927 Clouds 20 1023 68 10000 7.2 70 10:21 13.12.2020
4928 Clouds 21 1014 79 10000 2.68 155 09:37 13.12.2020
4929 Rain 21 1022 60 10000 7.7 80 08:47 13.12.2020
4930 Clouds 22 1022 56 10000 7.2 80 08:28 13.12.2020
4931 Rain 23 1023 50 10000 7.2 80 06:28 13.12.2020
4932 Clouds 23 1025 44 10000 7.2 70 02:44 13.12.2020
4933 Clouds 23 1025 41 10000 6.7 90 01:59 13.12.2020
4934 Clouds 22 1025 53 10000 5.1 120 01:34 13.12.2020
4935 Clouds 22 1025 53 10000 5.1 120 00:37 13.12.2020
4936 Clouds 21 1025 65 10000 3.58 110 23:37 12.12.2020
4937 Clouds 21 1026 64 10000 1.79 117 23:19 12.12.2020
4938 Clouds 20 1025 49 10000 4.6 80 22:29 12.12.2020
4939 Rain 19 1025 60 10000 4.6 120 21:46 12.12.2020
4940 Rain 17 1025 68 10000 4.1 110 21:20 12.12.2020
4941 Clouds 16 1025 72 10000 3.6 90 20:45 12.12.2020
4942 Clouds 16 1025 72 10000 3.1 120 20:21 12.12.2020
4943 Clouds 16 1025 72 10000 3.6 130 19:52 12.12.2020
4944 Clouds 16 1025 72 10000 3.6 130 19:33 12.12.2020
4945 Rain 17 1025 77 10000 3.1 120 18:56 12.12.2020
4946 Rain 17 1025 77 10000 3.1 120 18:38 12.12.2020
4947 Clouds 16 1025 77 10000 3.6 120 18:18 12.12.2020
4948 Clouds 17 1025 77 10000 3.6 120 17:40 12.12.2020
4949 Clouds 17 1025 68 10000 4.6 60 16:44 12.12.2020
4950 Clouds 18 1026 68 10000 4.6 70 15:58 12.12.2020
4951 Clouds 18 1026 68 10000 4.6 70 15:58 12.12.2020
4952 Clouds 18 1026 68 10000 4.6 70 15:39 12.12.2020
4953 Clouds 17 1027 68 10000 3.6 90 14:54 12.12.2020
4954 Rain 18 1027 68 10000 4.1 80 14:22 12.12.2020
4955 Rain 18 1027 63 10000 3.6 90 13:44 12.12.2020
4956 Rain 18 1027 63 10000 4.6 80 13:25 12.12.2020
4957 Clouds 18 1028 64 10000 5.1 80 12:37 12.12.2020
4958 Rain 18 1027 64 10000 4.6 120 11:28 12.12.2020
4959 Clouds 18 1027 72 10000 5.81 110 10:46 12.12.2020
4960 Clouds 20 1027 64 10000 6.7 140 09:24 12.12.2020
4961 Clouds 20 1027 56 10000 5.7 130 08:41 12.12.2020
4962 Clouds 22 1030 33 10000 7.7 130 01:59 12.12.2020
4963 Rain 20 1031 54 10000 4.02 132 23:31 11.12.2020
4964 Clouds 17 1028 72 10000 3.1 70 21:32 11.12.2020
4965 Rain 16 1028 68 10000 3.6 60 19:57 11.12.2020
4966 Rain 17 1027 69 10000 6.26 160 17:30 11.12.2020
4967 Clouds 18 1029 52 10000 8.2 120 14:39 11.12.2020
4968 Clouds 18 1029 55 10000 7.2 130 13:46 11.12.2020
4969 Drizzle 18 1029 55 10000 7.7 140 12:36 11.12.2020
4970 Clouds 18 1029 59 10000 7.7 140 11:56 11.12.2020
4971 Clouds 18 1029 59 10000 7.7 140 11:37 11.12.2020
4972 Clouds 19 1028 59 10000 7.7 140 10:41 11.12.2020
4973 Rain 19 1027 60 10000 6.7 150 08:23 11.12.2020
4974 Clouds 20 1028 46 10000 7.2 150 05:38 11.12.2020
4975 Clouds 19 1028 56 10000 8.7 170 04:47 11.12.2020
4976 Rain 20 1028 40 10000 7.2 150 01:20 11.12.2020
4977 Clouds 19 1028 49 10000 7.7 140 23:38 10.12.2020
4978 Clouds 18 1027 52 10000 7.7 130 22:24 10.12.2020
4979 Clouds 18 1026 52 10000 7.2 150 21:35 10.12.2020
4980 Clouds 17 1026 48 10000 7.7 150 20:39 10.12.2020
4981 Rain 17 1025 52 10000 8.7 140 19:37 10.12.2020
4982 Clouds 17 1025 55 10000 8.7 150 18:50 10.12.2020
4983 Rain 18 1025 52 10000 9.3 150 17:45 10.12.2020
4984 Rain 18 1025 68 10000 10.8 140 16:25 10.12.2020
4985 Rain 18 1025 68 10000 8.7 150 15:25 10.12.2020
4986 Rain 18 1025 72 10000 10.8 160 14:48 10.12.2020
4987 Rain 18 1026 76 10000 3.58 101 14:25 10.12.2020
4988 Rain 19 1025 64 10000 10.3 160 12:38 10.12.2020
4989 Rain 19 1024 68 10000 10.3 160 11:32 10.12.2020
4990 Clouds 20 1021 68 10000 11.3 160 08:51 10.12.2020
4991 Clouds 20 1020 73 10000 12.9 160 07:38 10.12.2020
4992 Clouds 21 1020 73 10000 13.9 170 06:41 10.12.2020
4993 Clouds 23 1019 73 10000 11.8 170 02:53 10.12.2020
4994 Clouds 24 1018 50 10000 8.2 150 01:58 10.12.2020
4995 Clear 24 1017 53 10000 2.6 240 23:50 09.12.2020
4996 Clouds 17 1015 85 10000 0.45 0 20:51 09.12.2020
4997 Clouds 16 1016 77 10000 1.78 312 20:26 09.12.2020
4998 Clear 17 1015 72 10000 2.1 290 19:20 09.12.2020
4999 Clear 17 1016 72 10000 2.57 344 17:42 09.12.2020
5000 Clear 17 1016 72 10000 2.6 310 16:40 09.12.2020
5001 Clear 17 1017 72 10000 3.1 320 16:20 09.12.2020
5002 Clear 17 1017 72 10000 3.1 320 16:20 09.12.2020
5003 Clouds 18 1017 76 10000 0.89 340 14:58 09.12.2020
5004 Clear 18 1017 76 10000 0.89 340 14:27 09.12.2020
5005 Clear 19 1018 74 10000 3.58 20 13:51 09.12.2020
5006 Clear 19 1018 64 10000 6.2 20 13:19 09.12.2020
5007 Clouds 20 1010 74 10000 3.58 301 12:44 09.12.2020
5008 Clouds 20 1017 72 10000 4.02 70 11:49 09.12.2020
5009 Clouds 20 1016 70 10000 4.92 70 10:39 09.12.2020
5010 Clear 22 1015 49 10000 9.8 60 08:46 09.12.2020
5011 Clear 22 1008 68 10000 1.34 275 07:43 09.12.2020
5012 Clear 23 1016 44 10000 8.7 60 05:48 09.12.2020
5013 Clear 24 1018 40 10000 7.7 70 03:26 09.12.2020
5014 Clouds 23 1019 38 10000 2.6 280 01:52 09.12.2020
5015 Clouds 21 1020 49 10000 4.1 310 23:43 08.12.2020
5016 Clouds 19 1019 52 10000 3.1 290 22:52 08.12.2020
5017 Clouds 15 1018 63 10000 2.6 300 21:22 08.12.2020
5018 Clouds 14 1017 67 10000 2.6 300 19:33 08.12.2020
5019 Clouds 15 1017 67 10000 2.6 300 18:59 08.12.2020
5020 Clouds 15 1017 67 10000 2.6 250 17:55 08.12.2020
5021 Clouds 16 1018 63 10000 3.6 250 15:51 08.12.2020
5022 Clouds 16 1018 59 10000 3.6 210 14:28 08.12.2020
5023 Clouds 17 1018 59 10000 4.1 190 13:29 08.12.2020
5024 Clouds 17 1018 55 10000 4.6 160 12:29 08.12.2020
5025 Clouds 17 1017 55 10000 6.2 170 11:51 08.12.2020
5026 Clouds 18 1016 52 10000 4.6 160 10:47 08.12.2020
5027 Clouds 18 1016 52 10000 5.7 160 10:28 08.12.2020
5028 Clouds 19 1014 45 10000 6.7 140 08:39 08.12.2020
5029 Clear 20 1014 52 10000 7.7 170 06:52 08.12.2020
5030 Clear 21 1013 42 10000 8.2 160 03:42 08.12.2020
5031 Clouds 20 1013 48 10000 9.3 190 00:47 08.12.2020
5032 Clouds 19 1012 45 10000 9.8 200 00:22 08.12.2020
5033 Clouds 17 1011 45 10000 8.7 240 22:43 07.12.2020
5034 Clouds 16 1011 44 10000 7.7 250 21:56 07.12.2020
5035 Clear 16 1009 48 10000 8.7 260 20:31 07.12.2020
5036 Clear 16 1008 48 10000 8.2 260 18:44 07.12.2020
5037 Clear 17 1007 45 10000 6.2 250 17:28 07.12.2020
5038 Clear 18 1007 45 10000 8.7 250 16:55 07.12.2020
5039 Clear 18 1006 45 10000 12.3 240 15:47 07.12.2020
5040 Clear 19 1006 48 10000 12.3 230 15:19 07.12.2020
5041 Clear 20 1009 45 10000 7.62 228 14:24 07.12.2020
5042 Clear 22 1005 27 10000 4.6 240 13:33 07.12.2020
5043 Clear 24 1004 22 10000 5.7 250 11:45 07.12.2020
5044 Clear 24 1004 28 10000 4.02 250 11:20 07.12.2020
5045 Clear 25 1003 28 10000 4.92 270 10:20 07.12.2020
5046 Clear 29 1001 15 10000 10.3 290 08:30 07.12.2020
5047 Clear 30 1002 15 10000 8.2 280 06:45 07.12.2020
5048 Clear 30 1002 16 10000 5.7 250 05:21 07.12.2020
5049 Clear 28 1004 21 10000 6.7 280 01:57 07.12.2020
5050 Clear 25 1005 22 10000 5.7 280 00:30 07.12.2020
5051 Clear 23 1005 29 10000 6.7 350 22:45 06.12.2020
5052 Clear 20 1005 37 10000 4.6 360 21:44 06.12.2020
5053 Clear 18 1005 42 10000 3.6 360 20:35 06.12.2020
5054 Clear 18 1004 45 10000 0.5 360 19:57 06.12.2020
5055 Clear 18 1004 45 10000 2.1 330 18:52 06.12.2020
5056 Clear 19 1005 45 10000 1 200 17:24 06.12.2020
5057 Clear 19 1005 40 10000 2.1 170 16:27 06.12.2020
5058 Clear 21 1006 30 10000 4.1 270 14:46 06.12.2020
5059 Clear 23 1006 25 10000 6.7 270 12:53 06.12.2020
5060 Clear 23 1006 25 10000 6.7 270 12:27 06.12.2020
5061 Clear 24 1005 25 10000 7.2 260 11:41 06.12.2020
5062 Clouds 24 1004 32 10000 3.58 270 11:22 06.12.2020
5063 Clear 26 1004 29 10000 5.36 270 10:32 06.12.2020
5064 Clear 28 1001 22 10000 7.6 270 08:57 06.12.2020
5065 Clear 30 1000 16 10000 8.7 290 07:26 06.12.2020
5066 Clear 30 1001 19 10000 8.2 290 04:41 06.12.2020
5067 Clouds 26 1002 31 10000 8.7 280 00:45 06.12.2020
5068 Clouds 26 1002 31 10000 8.7 280 00:26 06.12.2020
5069 Clouds 25 1002 36 10000 7.2 290 23:55 05.12.2020
5070 Rain 23 1001 47 10000 3.6 310 22:24 05.12.2020
5071 Rain 22 1000 49 10000 4.1 300 21:53 05.12.2020
5072 Clouds 21 1000 60 10000 4.6 270 21:28 05.12.2020
5073 Clouds 21 998 78 10000 4.1 360 19:50 05.12.2020
5074 Clouds 21 998 78 10000 3.6 10 18:45 05.12.2020
5075 Clouds 21 998 78 10000 6.7 340 17:36 05.12.2020
5076 Clear 21 998 83 10000 6.2 360 16:44 05.12.2020
5077 Clear 21 998 83 10000 7.7 350 16:24 05.12.2020
5078 Rain 21 1000 83 10000 7.7 10 14:30 05.12.2020
5079 Rain 21 999 83 10000 8.2 10 12:35 05.12.2020
5080 Rain 22 1003 88 6000 7.7 350 11:50 05.12.2020
5081 Clouds 22 1001 88 10000 9.8 20 10:34 05.12.2020
5082 Rain 23 1001 78 10000 7.2 30 08:27 05.12.2020
5083 Rain 23 1003 73 10000 4.6 20 07:47 05.12.2020
5084 Rain 24 1007 61 10000 5.1 360 05:30 05.12.2020
5085 Rain 21 1013 68 10000 5.1 40 23:59 04.12.2020
5086 Clouds 21 1013 73 10000 4.6 80 23:20 04.12.2020
5087 Clouds 20 1013 77 10000 4.1 120 20:39 04.12.2020
5088 Clouds 20 1013 77 10000 4.6 150 18:54 04.12.2020
5089 Clouds 20 1013 77 10000 4.6 150 18:30 04.12.2020
5090 Clouds 20 1013 82 10000 4.6 150 17:44 04.12.2020
5091 Clouds 20 1014 82 10000 6.2 170 16:30 04.12.2020
5092 Clouds 20 1015 83 10000 6.2 170 15:21 04.12.2020
5093 Clouds 20 1015 88 10000 8.7 170 13:36 04.12.2020
5094 Clouds 21 1014 83 10000 9.3 170 13:18 04.12.2020
5095 Clouds 22 1013 88 10000 6.7 160 12:20 04.12.2020
5096 Clear 23 1011 57 10000 3.6 30 10:37 04.12.2020
5097 Clear 25 1003 77 10000 0.45 273 09:24 04.12.2020
5098 Clear 27 1010 37 10000 6.7 80 06:40 04.12.2020
5099 Clear 29 1011 48 10000 5.7 70 04:53 04.12.2020
5100 Clear 28 1014 50 10000 4.6 110 01:53 04.12.2020
5101 Clouds 22 1015 77 10000 2.6 210 22:49 03.12.2020
5102 Clouds 19 1013 94 10000 2.24 270 21:23 03.12.2020
5103 Clouds 19 1014 93 10000 3.1 230 20:46 03.12.2020
5104 Clouds 18 1013 88 10000 3.1 250 19:24 03.12.2020
5105 Clouds 18 1014 88 10000 2.1 260 18:47 03.12.2020
5106 Clouds 18 1014 93 10000 1.34 315 17:21 03.12.2020
5107 Rain 19 1015 92 10000 1.34 270 15:59 03.12.2020
5108 Clouds 19 1015 92 10000 1.34 270 15:33 03.12.2020
5109 Clouds 19 1016 92 10000 0.89 0 14:49 03.12.2020
5110 Clouds 20 1017 83 10000 3.1 340 13:55 03.12.2020
5111 Clouds 20 1017 83 10000 3.1 340 13:55 03.12.2020
5112 Clouds 20 1017 91 10000 3.13 0 12:50 03.12.2020
5113 Clouds 20 1017 90 10000 1.79 20 12:23 03.12.2020
5114 Clouds 20 1017 84 10000 4.47 20 10:54 03.12.2020
5115 Clouds 20 1017 79 10000 3.58 45 08:49 03.12.2020
5116 Clouds 21 1020 72 10000 4.92 45 04:21 03.12.2020
5117 Clouds 21 1021 73 10000 4.47 70 02:20 03.12.2020
5118 Rain 20 1023 70 10000 3.58 45 00:32 03.12.2020
5119 Clouds 20 1022 73 10000 3.58 70 22:47 02.12.2020
5120 Clouds 19 1022 75 10000 3.13 45 21:56 02.12.2020
5121 Clouds 19 1022 68 10000 5.1 50 20:52 02.12.2020
5122 Clouds 19 1022 68 10000 5.1 50 20:34 02.12.2020
5123 Rain 19 1022 72 10000 5.1 60 19:55 02.12.2020
5124 Rain 19 1022 77 10000 4.6 150 17:53 02.12.2020
5125 Clouds 19 1023 77 10000 3.1 120 17:34 02.12.2020
5126 Rain 18 1023 83 10000 4.67 91 16:57 02.12.2020
5127 Rain 17 1025 88 10000 3.1 70 14:47 02.12.2020
5128 Rain 19 1023 77 10000 6.2 110 11:34 02.12.2020
5129 Rain 19 1022 72 10000 6.2 100 10:28 02.12.2020
5130 Rain 20 1021 64 10000 5.7 110 08:29 02.12.2020
5131 Clouds 22 1019 68 10000 6.7 150 01:39 02.12.2020
5132 Clouds 20 1016 82 8000 7.7 170 22:21 01.12.2020
5133 Clouds 19 1014 87 10000 5.36 180 20:46 01.12.2020
5134 Rain 19 1012 88 7000 11.8 180 19:34 01.12.2020
5135 Clouds 22 1011 88 6000 12.9 180 17:34 01.12.2020
5136 Clear 22 1010 88 10000 0.5 260 15:44 01.12.2020
5137 Clouds 22 1003 96 10000 1.34 297 13:37 01.12.2020
5138 Rain 22 1008 88 9000 6.2 30 11:46 01.12.2020
5139 Rain 22 1008 88 9000 9.3 40 11:26 01.12.2020
5140 Rain 22 1008 94 7000 9.8 40 10:38 01.12.2020
5141 Clear 26 1005 61 10000 9.3 40 08:21 01.12.2020
5142 Clear 26 1005 54 10000 12.9 40 06:47 01.12.2020
5143 Clouds 26 1011 65 10000 6.7 20 01:52 01.12.2020
5144 Clouds 24 1012 64 10000 6.2 20 00:55 01.12.2020
5145 Clouds 21 1006 85 10000 2.68 299 23:21 30.11.2020
5146 Clouds 21 1005 84 10000 4.02 290 22:44 30.11.2020
5147 Clouds 21 1006 83 10000 2.24 286 22:25 30.11.2020
5148 Clouds 19 1013 77 10000 3.1 40 20:48 30.11.2020
5149 Clouds 20 1013 77 10000 4.1 20 19:42 30.11.2020
5150 Clouds 20 1014 74 10000 2.68 45 18:24 30.11.2020
5151 Clouds 20 1014 74 10000 2.68 45 17:47 30.11.2020
5152 Clouds 20 1015 64 10000 5.1 20 16:55 30.11.2020
5153 Clouds 20 1016 72 10000 4.02 20 15:59 30.11.2020
5154 Clouds 20 1008 75 10000 0.89 306 14:47 30.11.2020
5155 Clouds 20 1009 75 10000 0.89 258 13:53 30.11.2020
5156 Clouds 19 1017 73 10000 2.68 70 12:26 30.11.2020
5157 Clouds 19 1016 72 10000 4.02 70 11:58 30.11.2020
5158 Clouds 19 1016 72 10000 4.02 70 11:58 30.11.2020
5159 Clouds 20 1016 64 10000 7.7 60 10:26 30.11.2020
5160 Clouds 20 1016 64 10000 7.2 50 09:50 30.11.2020
5161 Rain 22 1015 56 10000 7.2 60 07:18 30.11.2020
5162 Clouds 21 1018 64 10000 4.1 150 00:54 30.11.2020
5163 Clouds 19 1017 68 10000 5.7 160 21:53 29.11.2020
5164 Clouds 19 1017 68 10000 5.7 160 21:53 29.11.2020
5165 Clouds 19 1017 68 10000 5.7 160 21:32 29.11.2020
5166 Clouds 19 1016 68 10000 6.2 150 20:38 29.11.2020
5167 Clouds 19 1015 68 10000 8.7 160 17:48 29.11.2020
5168 Clouds 19 1015 64 10000 7.2 160 16:29 29.11.2020
5169 Clouds 20 1013 68 10000 9.8 160 13:24 29.11.2020
5170 Clouds 21 1011 60 10000 10.8 150 11:49 29.11.2020
5171 Clouds 21 1009 60 10000 9.3 150 10:54 29.11.2020
5172 Clouds 24 1004 73 9000 9.3 140 08:39 29.11.2020
5173 Clouds 36 998 20 10000 13.4 290 06:33 29.11.2020
5174 Rain 38 998 15 10000 14.4 320 01:42 29.11.2020
5175 Clear 32 1000 27 10000 7.7 320 22:57 28.11.2020
5176 Clouds 29 1001 40 10000 3.58 331 20:56 28.11.2020
5177 Clear 31 999 33 10000 9.8 330 19:53 28.11.2020
5178 Rain 31 1000 33 10000 9.3 320 19:25 28.11.2020
5179 Rain 31 1001 31 10000 10.8 330 18:52 28.11.2020
5180 Rain 31 1002 33 10000 9.3 320 17:52 28.11.2020
5181 Drizzle 30 1002 40 10000 7.2 350 16:52 28.11.2020
5182 Rain 25 1007 78 10000 5.1 200 14:58 28.11.2020
5183 Clear 27 1004 65 10000 11.3 170 13:31 28.11.2020
5184 Clear 30 1004 43 10000 4.6 20 11:24 28.11.2020
5185 Clear 39 1003 12 10000 8.7 330 08:18 28.11.2020
5186 Clouds 39 1008 27 10000 4.02 315 03:34 28.11.2020
5187 Clear 37 1007 24 10000 8.2 320 01:51 28.11.2020
5188 Clear 29 1009 61 10000 3.6 300 23:19 27.11.2020
5189 Clear 24 1009 73 10000 3.6 330 21:57 27.11.2020
5190 Clouds 20 1011 95 10000 0.45 45 20:38 27.11.2020
5191 Clear 21 1009 83 10000 2.6 330 19:31 27.11.2020
5192 Clear 21 1009 83 10000 3.1 350 18:51 27.11.2020
5193 Clouds 21 1004 94 10000 0.89 334 15:50 27.11.2020
5194 Clear 21 1012 78 10000 2.1 350 14:22 27.11.2020
5195 Clouds 22 1006 92 10000 0.45 351 12:48 27.11.2020
5196 Clouds 22 1006 92 10000 0.45 321 12:20 27.11.2020
5197 Clouds 22 1006 91 10000 1.34 268 10:51 27.11.2020
5198 Clouds 22 1006 91 10000 0.89 219 10:31 27.11.2020
5199 Clear 23 1012 64 10000 8.2 30 09:27 27.11.2020
5200 Clouds 20 1019 72 10000 3.13 200 22:59 26.11.2020
5201 Rain 20 1019 72 10000 3.13 200 22:23 26.11.2020
5202 Rain 19 1019 77 10000 5.7 190 21:42 26.11.2020
5203 Rain 19 1018 77 10000 6.2 190 20:43 26.11.2020
5204 Rain 19 1017 77 10000 7.7 190 18:36 26.11.2020
5205 Clouds 19 1017 70 10000 6.71 200 17:20 26.11.2020
5206 Rain 20 1017 82 10000 11.8 180 13:44 26.11.2020
5207 Clouds 21 1016 83 10000 12.3 180 12:57 26.11.2020
5208 Clouds 21 1016 83 10000 12.3 180 12:38 26.11.2020
5209 Clouds 23 1013 60 10000 9.3 180 10:46 26.11.2020
5210 Clear 23 1011 57 10000 5.1 30 10:23 26.11.2020
5211 Clear 25 1011 54 10000 4.6 30 09:34 26.11.2020
5212 Clear 25 1010 51 10000 5.1 30 08:58 26.11.2020
5213 Clear 26 1010 54 10000 5.1 30 08:34 26.11.2020
5214 Clear 29 1011 35 10000 2.6 80 02:19 26.11.2020
5215 Clear 21 1012 64 10000 2.6 310 22:20 25.11.2020
5216 Clear 18 1011 77 10000 2.6 320 20:37 25.11.2020
5217 Clear 17 1011 85 10000 1.34 45 19:26 25.11.2020
5218 Clear 17 1011 72 10000 4.1 340 17:29 25.11.2020
5219 Clear 18 1012 72 10000 4.1 340 15:47 25.11.2020
5220 Clear 18 1012 78 10000 0.89 340 15:23 25.11.2020
5221 Clear 19 1013 76 10000 4.92 20 13:46 25.11.2020
5222 Clear 19 1013 77 10000 4.92 20 12:58 25.11.2020
5223 Clear 19 1013 76 10000 4.92 20 11:26 25.11.2020
5224 Clear 21 1011 56 10000 8.7 30 09:22 25.11.2020
5225 Rain 21 1012 65 10000 4.47 45 08:50 25.11.2020
5226 Clouds 22 1011 56 10000 7.7 60 07:53 25.11.2020
5227 Clouds 22 1014 68 10000 5.1 70 03:55 25.11.2020
5228 Rain 21 1015 82 10000 3.6 170 01:50 25.11.2020
5229 Rain 21 1015 75 10000 3.13 90 00:22 25.11.2020
5230 Rain 20 1015 82 10000 3.6 170 23:36 24.11.2020
5231 Rain 19 1015 82 10000 2.1 240 22:52 24.11.2020
5232 Rain 18 1014 93 10000 2.6 210 21:50 24.11.2020
5233 Rain 18 1014 93 10000 2.1 250 21:28 24.11.2020
5234 Clouds 17 1013 93 10000 3.6 230 20:19 24.11.2020
5235 Rain 18 1013 82 10000 3.1 350 18:39 24.11.2020
5236 Rain 18 1013 88 10000 3.6 190 17:29 24.11.2020
5237 Rain 18 1013 82 10000 3.6 190 16:38 24.11.2020
5238 Clouds 18 1013 82 10000 3.1 180 15:58 24.11.2020
5239 Clouds 19 1014 82 10000 3.6 190 15:40 24.11.2020
5240 Clouds 19 1014 82 10000 3.6 180 15:18 24.11.2020
5241 Clouds 19 1015 82 10000 1.79 160 14:33 24.11.2020
5242 Clouds 19 1015 81 10000 2.68 160 12:44 24.11.2020
5243 Clouds 19 1014 77 10000 4.6 150 12:22 24.11.2020
5244 Clouds 19 1015 81 10000 2.68 160 11:38 24.11.2020
5245 Clouds 19 1013 72 10000 5.7 150 10:39 24.11.2020
5246 Clouds 19 1012 72 10000 5.1 140 10:19 24.11.2020
5247 Clouds 20 1012 72 10000 5.7 140 09:35 24.11.2020
5248 Clouds 21 1011 68 10000 6.7 150 07:37 24.11.2020
5249 Clouds 22 1011 64 10000 8.2 170 04:19 24.11.2020
5250 Rain 19 1011 77 10000 8.7 170 22:34 23.11.2020
5251 Rain 19 1010 82 10000 8.7 180 21:37 23.11.2020
5252 Rain 18 1010 88 10000 2.68 180 20:50 23.11.2020
5253 Rain 18 1009 82 10000 6.2 190 20:26 23.11.2020
5254 Clouds 18 1009 81 10000 2.68 117 19:24 23.11.2020
5255 Clouds 18 1009 83 10000 4.02 180 17:26 23.11.2020
5256 Clouds 19 1009 83 10000 6.26 200 16:28 23.11.2020
5257 Rain 19 1009 84 10000 4.02 180 14:49 23.11.2020
5258 Clouds 19 1008 77 10000 8.7 180 13:33 23.11.2020
5259 Clouds 20 1008 82 10000 9.3 170 12:38 23.11.2020
5260 Clear 21 1007 73 10000 6.7 170 11:49 23.11.2020
5261 Clouds 21 1006 73 10000 6.7 180 11:21 23.11.2020
5262 Rain 23 1005 64 10000 11.3 170 09:32 23.11.2020
5263 Clouds 24 997 64 10000 1.34 289 08:49 23.11.2020
5264 Clear 25 1004 57 10000 4.1 180 07:29 23.11.2020
5265 Rain 24 1007 73 10000 5.7 320 00:39 23.11.2020
5266 Rain 22 1008 94 10000 2.24 290 23:41 22.11.2020
5267 Rain 21 1009 94 10000 0.89 45 22:19 22.11.2020
5268 Rain 21 1009 88 10000 2.6 170 21:23 22.11.2020
5269 Rain 21 1009 83 10000 5.7 210 19:59 22.11.2020
5270 Rain 22 1010 73 10000 7.7 230 18:57 22.11.2020
5271 Clear 22 1008 88 10000 2.68 310 17:59 22.11.2020
5272 Clear 23 1008 73 10000 2.1 270 16:25 22.11.2020
5273 Clear 23 1010 65 10000 3.1 330 14:58 22.11.2020
5274 Clear 23 1011 65 10000 1.5 10 13:23 22.11.2020
5275 Clouds 23 1004 85 10000 0.45 318 12:42 22.11.2020
5276 Clear 24 1011 69 10000 3.1 10 11:39 22.11.2020
5277 Clear 24 1011 65 10000 3.6 30 10:50 22.11.2020
5278 Clear 24 1011 65 10000 3.6 30 10:32 22.11.2020
5279 Clouds 25 1014 61 10000 5.7 50 04:33 22.11.2020
5280 Clouds 24 1017 60 10000 3.1 360 23:56 21.11.2020
5281 Clear 21 1017 68 10000 3.1 340 22:41 21.11.2020
5282 Clear 19 1017 72 10000 2.6 270 21:31 21.11.2020
5283 Clouds 18 1017 82 10000 2.6 270 20:49 21.11.2020
5284 Clouds 18 1017 82 10000 2.6 290 20:20 21.11.2020
5285 Clouds 18 1017 77 10000 3.1 280 19:42 21.11.2020
5286 Clouds 18 1017 77 10000 3.1 280 19:18 21.11.2020
5287 Clouds 19 1018 77 10000 2.6 250 17:31 21.11.2020
5288 Clouds 19 1019 77 10000 4.1 250 16:45 21.11.2020
5289 Clouds 19 1020 82 10000 3.6 230 15:41 21.11.2020
5290 Clouds 19 1020 82 10000 3.6 200 15:20 21.11.2020
5291 Clouds 19 1020 82 10000 3.6 190 14:42 21.11.2020
5292 Clouds 19 1020 82 10000 4.6 190 12:59 21.11.2020
5293 Clouds 19 1021 77 10000 3.6 160 12:23 21.11.2020
5294 Clouds 19 1020 77 10000 5.1 140 11:49 21.11.2020
5295 Clouds 19 1020 77 10000 3.6 130 10:28 21.11.2020
5296 Rain 20 1020 72 10000 5.1 150 09:19 21.11.2020
5297 Clouds 20 1019 68 10000 5.1 150 08:44 21.11.2020
5298 Clouds 23 1020 60 10000 6.2 130 05:42 21.11.2020
5299 Clouds 23 1021 68 10000 7.2 160 03:36 21.11.2020
5300 Clouds 21 1023 72 10000 7.2 190 00:22 21.11.2020
5301 Clouds 20 1022 72 10000 7.2 190 23:19 20.11.2020
5302 Clouds 19 1021 82 10000 7.7 190 21:46 20.11.2020
5303 Clouds 19 1021 82 10000 7.7 190 21:26 20.11.2020
5304 Clouds 18 1021 77 10000 7.7 190 20:42 20.11.2020
5305 Clouds 18 1020 82 10000 7.7 190 19:33 20.11.2020
5306 Clouds 19 1020 82 10000 8.7 200 18:27 20.11.2020
5307 Clouds 19 1020 82 10000 8.7 190 17:32 20.11.2020
5308 Clouds 19 1020 88 10000 9.8 200 16:48 20.11.2020
5309 Clouds 19 1020 82 10000 9.8 190 16:29 20.11.2020
5310 Clouds 19 1020 77 10000 10.3 190 15:47 20.11.2020
5311 Clouds 20 1019 73 10000 9.8 190 14:18 20.11.2020
5312 Clouds 21 1019 83 10000 11.8 180 13:29 20.11.2020
5313 Clouds 21 1019 83 10000 11.8 180 12:59 20.11.2020
5314 Clouds 21 1017 88 10000 13.9 190 12:25 20.11.2020
5315 Clouds 22 1017 88 10000 14.4 190 11:35 20.11.2020
5316 Clear 24 1014 61 10000 6.7 170 09:56 20.11.2020
5317 Clouds 25 1013 54 10000 6.7 50 08:35 20.11.2020
5318 Thunderstorm 27 1013 61 10000 7.7 40 07:52 20.11.2020
5319 Clouds 29 1013 48 10000 8.7 50 05:20 20.11.2020
5320 Clear 29 1014 48 10000 7.2 50 03:42 20.11.2020
5321 Clear 21 1017 64 10000 3.6 340 22:33 19.11.2020
5322 Clear 21 1017 68 10000 2.6 10 21:54 19.11.2020
5323 Clouds 19 1018 91 10000 0.45 20 20:59 19.11.2020
5324 Clouds 18 1018 91 10000 0.45 20 20:30 19.11.2020
5325 Clouds 18 1018 90 10000 1.34 45 19:44 19.11.2020
5326 Clouds 18 1017 90 10000 1.34 45 19:22 19.11.2020
5327 Clouds 18 1017 91 10000 0.45 20 17:38 19.11.2020
5328 Clouds 18 1010 87 10000 0.89 300 16:48 19.11.2020
5329 Clear 19 1018 77 10000 5.1 10 15:31 19.11.2020
5330 Clear 20 1019 77 10000 7.7 10 14:31 19.11.2020
5331 Clear 20 1019 77 10000 7.7 20 13:44 19.11.2020
5332 Clouds 20 1012 86 10000 1.34 116 12:57 19.11.2020
5333 Clouds 20 1012 86 10000 2.24 356 12:34 19.11.2020
5334 Clouds 20 1012 85 10000 0.89 333 11:42 19.11.2020
5335 Clouds 20 1019 78 10000 3.58 61 11:23 19.11.2020
5336 Clouds 20 1020 75 10000 5.36 45 10:52 19.11.2020
5337 Clouds 21 1011 82 10000 0.89 172 09:55 19.11.2020
5338 Clouds 21 1011 82 10000 1.34 159 09:36 19.11.2020
5339 Clouds 21 1011 79 10000 0.89 320 09:18 19.11.2020
5340 Clear 23 1018 57 10000 10.3 40 07:59 19.11.2020
5341 Clouds 23 1022 53 10000 7.7 30 01:53 19.11.2020
5342 Clouds 23 1023 56 10000 7.7 40 00:56 19.11.2020
5343 Clouds 22 1023 60 10000 6.7 30 23:47 18.11.2020
5344 Clouds 22 1023 60 10000 6.7 30 23:47 18.11.2020
5345 Clouds 20 1023 64 10000 3.1 40 23:24 18.11.2020
5346 Clouds 20 1023 72 10000 2.1 290 22:30 18.11.2020
5347 Clouds 18 1023 77 10000 0.5 270 21:47 18.11.2020
5348 Clouds 17 1023 77 10000 0.5 270 21:27 18.11.2020
5349 Clear 15 1023 95 10000 1.79 270 20:41 18.11.2020
5350 Clouds 15 1022 82 10000 2.1 250 19:45 18.11.2020
5351 Clouds 15 1022 82 10000 1.5 310 19:25 18.11.2020
5352 Clouds 16 1021 82 10000 2.1 310 18:49 18.11.2020
5353 Clouds 16 1022 77 10000 2.6 290 17:55 18.11.2020
5354 Clouds 16 1022 77 10000 2.6 290 17:35 18.11.2020
5355 Clouds 17 1023 72 10000 3.6 10 16:22 18.11.2020
5356 Clouds 18 1024 82 10000 3.58 45 14:49 18.11.2020
5357 Clouds 18 1023 68 10000 4.6 20 14:29 18.11.2020
5358 Clouds 18 1024 68 10000 5.1 30 13:42 18.11.2020
5359 Clear 18 1016 81 10000 1.34 332 12:47 18.11.2020
5360 Clear 18 1016 79 10000 1.34 321 12:18 18.11.2020
5361 Clear 18 1024 77 10000 4.92 70 11:27 18.11.2020
5362 Clear 19 1022 64 10000 7.7 40 10:31 18.11.2020
5363 Clear 19 1015 78 10000 1.34 327 09:41 18.11.2020
5364 Clear 21 1022 46 10000 8.7 60 07:37 18.11.2020
5365 Clouds 22 1022 43 10000 7.7 60 06:29 18.11.2020
5366 Clouds 20 1025 64 10000 7.2 50 00:23 18.11.2020
5367 Clouds 19 1025 79 10000 4.02 70 23:31 17.11.2020
5368 Rain 19 1024 68 10000 4.6 50 22:46 17.11.2020
5369 Rain 19 1024 68 10000 3.1 30 22:28 17.11.2020
5370 Rain 18 1024 72 10000 2.6 30 21:49 17.11.2020
5371 Clouds 18 1024 72 10000 2.6 30 21:29 17.11.2020
5372 Clouds 18 1023 77 10000 3.1 30 20:44 17.11.2020
5373 Clouds 17 1023 77 10000 2.6 30 20:24 17.11.2020
5374 Clouds 17 1023 77 10000 3.1 30 19:50 17.11.2020
5375 Rain 17 1023 77 10000 2.6 60 18:24 17.11.2020
5376 Rain 17 1023 82 10000 3.6 110 17:33 17.11.2020
5377 Rain 17 1024 88 10000 4.1 100 16:49 17.11.2020
5378 Rain 17 1024 77 10000 5.7 130 16:18 17.11.2020
5379 Rain 18 1024 68 10000 5.1 70 15:39 17.11.2020
5380 Drizzle 17 1024 72 10000 4.6 110 15:21 17.11.2020
5381 Clouds 17 1024 68 10000 4.1 90 14:41 17.11.2020
5382 Rain 17 1024 77 10000 3.1 90 13:54 17.11.2020
5383 Rain 17 1024 77 10000 3.6 70 13:30 17.11.2020
5384 Rain 17 1024 88 10000 3.6 80 12:43 17.11.2020
5385 Rain 17 1023 82 9000 4.6 130 11:46 17.11.2020
5386 Drizzle 17 1023 88 10000 4.6 130 11:28 17.11.2020
5387 Drizzle 18 1022 82 8000 5.1 120 10:39 17.11.2020
5388 Drizzle 19 1022 72 10000 5.1 130 10:20 17.11.2020
5389 Clouds 19 1021 68 10000 5.7 120 09:48 17.11.2020
5390 Clouds 19 1021 68 10000 6.2 110 08:54 17.11.2020
5391 Clouds 19 1020 64 10000 6.2 100 08:20 17.11.2020
5392 Clouds 20 1020 64 10000 6.2 100 07:34 17.11.2020
5393 Clouds 21 1019 56 10000 6.7 100 04:32 17.11.2020
5394 Clouds 22 1020 60 10000 5.7 120 03:29 17.11.2020
5395 Clouds 21 1020 60 10000 6.7 130 02:29 17.11.2020
5396 Clouds 21 1020 60 10000 6.2 120 00:57 17.11.2020
5397 Clouds 20 1019 64 10000 7.2 120 23:57 16.11.2020
5398 Clouds 20 1019 64 10000 7.2 120 23:37 16.11.2020
5399 Clouds 20 1019 64 10000 6.7 130 23:19 16.11.2020
5400 Clouds 20 1018 68 10000 5.7 140 22:26 16.11.2020
5401 Clouds 20 1018 68 10000 5.7 140 21:59 16.11.2020
5402 Clouds 19 1018 72 10000 5.1 150 21:40 16.11.2020
5403 Clouds 19 1017 77 10000 5.1 150 21:20 16.11.2020
5404 Clouds 19 1016 77 10000 6.7 160 20:26 16.11.2020
5405 Clear 19 1017 78 10000 3.13 180 19:55 16.11.2020
5406 Clear 19 1017 78 10000 3.13 180 19:31 16.11.2020
5407 Clouds 19 1014 77 10000 8.2 170 18:53 16.11.2020
5408 Clouds 19 1014 77 10000 8.2 160 18:26 16.11.2020
5409 Clouds 19 1015 73 10000 7.15 160 17:41 16.11.2020
5410 Clouds 19 1015 82 10000 8.7 180 17:19 16.11.2020
5411 Clouds 19 1014 77 10000 9.8 180 16:51 16.11.2020
5412 Clouds 20 1014 77 10000 9.8 180 16:26 16.11.2020
5413 Clear 20 1014 82 10000 10.8 180 15:47 16.11.2020
5414 Clear 20 1014 82 10000 11.8 190 15:28 16.11.2020
5415 Clear 20 1014 82 10000 11.8 180 14:53 16.11.2020
5416 Clouds 21 1014 77 10000 9.8 160 13:50 16.11.2020
5417 Drizzle 23 1013 83 10000 9.8 170 13:21 16.11.2020
5418 Clear 25 1011 73 10000 4.1 120 12:32 16.11.2020
5419 Clear 26 1011 78 10000 3.1 130 11:43 16.11.2020
5420 Clear 26 1010 88 10000 3.6 210 11:23 16.11.2020
5421 Clear 26 1009 83 10000 3.1 230 10:44 16.11.2020
5422 Clear 27 1009 83 10000 2.6 140 10:26 16.11.2020
5423 Clear 26 1009 83 10000 2.6 140 09:53 16.11.2020
5424 Clear 26 1009 83 10000 3.1 150 09:34 16.11.2020
5425 Clear 28 1008 58 10000 3.6 140 08:48 16.11.2020
5426 Clear 33 1007 33 10000 4.6 140 08:22 16.11.2020
5427 Clear 36 1007 23 10000 8.7 250 07:29 16.11.2020
5428 Clear 37 1006 17 10000 9.8 260 06:46 16.11.2020
5429 Clear 37 1007 25 10000 7.7 290 05:49 16.11.2020
5430 Clear 36 1007 36 10000 6.7 30 03:54 16.11.2020
5431 Clear 32 1009 51 10000 5.7 20 01:45 16.11.2020
5432 Clear 28 1010 57 10000 5.7 30 00:42 16.11.2020
5433 Clear 25 1011 57 10000 4.6 30 23:32 15.11.2020
5434 Clear 25 1011 61 10000 3.1 350 22:58 15.11.2020
5435 Clear 23 1011 69 10000 5.7 50 22:26 15.11.2020
5436 Clear 22 1011 69 10000 5.7 50 21:56 15.11.2020
5437 Clear 21 1012 73 10000 3.6 40 21:36 15.11.2020
5438 Clouds 20 1013 91 10000 0.89 0 21:18 15.11.2020
5439 Clouds 19 1013 91 10000 0.89 0 20:39 15.11.2020
5440 Clear 19 1012 82 10000 2.1 40 19:57 15.11.2020
5441 Clear 19 1012 82 10000 2.1 40 19:39 15.11.2020
5442 Clear 19 1012 82 10000 2.1 40 19:39 15.11.2020
5443 Clear 19 1012 82 10000 2.1 360 19:20 15.11.2020
5444 Clear 18 1012 82 10000 2.6 30 18:45 15.11.2020
5445 Clear 19 1010 80 10000 2.41 355 18:25 15.11.2020
5446 Clear 19 1012 77 10000 3.1 30 17:58 15.11.2020
5447 Clear 20 1013 77 10000 2.1 10 17:39 15.11.2020
5448 Clear 20 1013 77 10000 2.6 360 17:20 15.11.2020
5449 Clear 20 1013 83 10000 2.6 30 16:41 15.11.2020
5450 Clear 20 1013 83 10000 3.1 50 16:19 15.11.2020
5451 Clear 20 1014 77 10000 3.1 50 15:43 15.11.2020
5452 Clear 21 1014 68 10000 2.57 353 15:24 15.11.2020
5453 Clear 21 1015 64 10000 2.6 170 14:53 15.11.2020
5454 Clear 21 1015 64 10000 2.6 170 14:26 15.11.2020
5455 Clear 22 1008 86 10000 0.89 40 13:44 15.11.2020
5456 Clear 22 1015 53 10000 3.6 350 13:25 15.11.2020
5457 Clear 22 1008 83 10000 0.89 354 12:46 15.11.2020
5458 Clear 22 1008 83 10000 2.68 154 12:19 15.11.2020
5459 Clear 22 1008 85 10000 3.58 148 11:44 15.11.2020
5460 Clear 22 1014 69 10000 8.7 20 11:19 15.11.2020
5461 Clear 23 1014 69 10000 8.7 30 10:53 15.11.2020
5462 Clear 22 1014 69 10000 8.7 30 10:31 15.11.2020
5463 Clear 23 1014 64 10000 9.8 30 09:55 15.11.2020
5464 Clear 23 1014 64 10000 9.8 30 09:32 15.11.2020
5465 Clear 24 1014 64 10000 7.7 30 08:59 15.11.2020
5466 Clear 24 1013 57 10000 9.8 30 08:41 15.11.2020
5467 Clouds 24 1013 65 10000 8.7 60 07:46 15.11.2020
5468 Clouds 25 1013 57 10000 8.2 60 06:42 15.11.2020
5469 Clear 26 1014 57 10000 8.7 60 04:54 15.11.2020
5470 Clear 27 1015 51 10000 6.2 80 02:27 15.11.2020
5471 Clear 26 1015 47 10000 5.1 360 00:36 15.11.2020
5472 Clear 25 1015 53 10000 4.1 360 00:18 15.11.2020
5473 Clear 22 1016 64 10000 3.1 310 23:20 14.11.2020
5474 Clear 21 1015 68 10000 2.6 360 22:45 14.11.2020
5475 Rain 20 1015 77 10000 3.1 360 22:20 14.11.2020
5476 Rain 18 1015 82 10000 2.1 320 21:39 14.11.2020
5477 Clear 17 1015 88 10000 1.5 330 21:21 14.11.2020
5478 Clear 16 1016 98 10000 1.34 340 20:48 14.11.2020
5479 Clouds 16 1014 88 10000 1.96 309 20:24 14.11.2020
5480 Rain 16 1015 97 10000 0.89 45 19:39 14.11.2020
5481 Rain 16 1015 97 10000 0.89 45 19:20 14.11.2020
5482 Clear 16 1015 96 10000 0.45 315 18:42 14.11.2020
5483 Clear 16 1014 95 10000 0.89 315 18:22 14.11.2020
5484 Clear 17 1013 88 10000 3.1 290 17:47 14.11.2020
5485 Clear 17 1013 88 10000 3.1 290 17:47 14.11.2020
5486 Clear 17 1014 95 10000 0.89 315 17:29 14.11.2020
5487 Clear 17 1014 94 10000 2.24 270 16:53 14.11.2020
5488 Clear 17 1014 94 10000 2.24 270 16:34 14.11.2020
5489 Clear 17 1014 93 10000 1.34 315 15:58 14.11.2020
5490 Clear 17 1014 93 10000 1.34 315 15:33 14.11.2020
5491 Clear 18 1015 94 10000 0.89 20 14:59 14.11.2020
5492 Clear 18 1015 94 10000 0.89 20 14:38 14.11.2020
5493 Clear 18 1007 90 10000 0.89 308 14:19 14.11.2020
5494 Clear 18 1015 93 10000 1.34 45 13:40 14.11.2020
5495 Clouds 19 1014 82 10000 3.1 30 13:21 14.11.2020
5496 Clear 19 1015 92 10000 2.24 70 12:43 14.11.2020
5497 Clouds 19 1013 82 10000 3.6 40 12:23 14.11.2020
5498 Clouds 19 1013 82 10000 3.6 50 11:41 14.11.2020
5499 Clouds 19 1012 82 10000 3.6 70 11:22 14.11.2020
5500 Clouds 19 1012 77 10000 4.1 70 10:41 14.11.2020
5501 Clouds 20 1011 73 10000 4.6 80 10:23 14.11.2020
5502 Clouds 20 1010 73 10000 5.1 70 09:45 14.11.2020
5503 Clouds 21 1010 64 10000 5.1 80 09:27 14.11.2020
5504 Clouds 21 1009 64 10000 5.7 80 08:48 14.11.2020
5505 Clouds 21 1009 68 10000 5.7 90 08:26 14.11.2020
5506 Clouds 22 1008 60 10000 6.7 90 07:43 14.11.2020
5507 Clouds 22 1008 60 10000 6.2 80 07:22 14.11.2020
5508 Clear 23 1001 73 10000 3.58 164 06:30 14.11.2020
5509 Clouds 24 1008 53 10000 5.7 110 05:29 14.11.2020
5510 Clear 24 1008 57 10000 7.2 110 03:52 14.11.2020
5511 Clouds 24 1009 53 10000 3.6 210 00:54 14.11.2020
5512 Rain 22 1009 56 10000 4.6 250 23:46 13.11.2020
5513 Clouds 22 1009 68 10000 3.1 230 23:23 13.11.2020
5514 Clouds 21 1008 77 10000 2.6 220 22:44 13.11.2020
5515 Clouds 19 1008 82 10000 3.1 210 22:25 13.11.2020
5516 Clouds 19 1008 88 10000 3.6 200 21:55 13.11.2020
5517 Clouds 18 1008 88 10000 3.6 200 21:37 13.11.2020
5518 Clouds 17 1007 88 10000 3.6 210 21:19 13.11.2020
5519 Clouds 17 1007 88 10000 4.1 200 20:41 13.11.2020
5520 Clouds 17 1007 93 10000 3.6 200 20:21 13.11.2020
5521 Clouds 17 1006 93 10000 4.1 200 19:46 13.11.2020
5522 Rain 17 1006 93 10000 4.1 190 19:23 13.11.2020
5523 Clouds 16 1006 93 10000 4.1 190 18:56 13.11.2020
5524 Clouds 17 1006 82 10000 4.1 200 18:23 13.11.2020
5525 Clouds 17 1006 77 10000 2.6 250 17:41 13.11.2020
5526 Clouds 16 1006 81 10000 2.24 205 17:19 13.11.2020
5527 Clear 17 1005 77 10000 4.1 220 16:49 13.11.2020
5528 Clouds 17 1006 81 10000 3.58 290 16:24 13.11.2020
5529 Clouds 17 1006 81 10000 3.58 290 15:49 13.11.2020
5530 Clouds 17 1006 81 10000 3.58 290 15:27 13.11.2020
5531 Clouds 17 1006 80 10000 1.79 315 14:48 13.11.2020
5532 Clouds 17 1006 76 10000 0.89 329 14:24 13.11.2020
5533 Clear 18 1005 60 10000 2.6 310 13:47 13.11.2020
5534 Clouds 18 1006 71 10000 1.34 20 13:25 13.11.2020
5535 Clouds 18 1006 71 10000 1.34 20 12:48 13.11.2020
5536 Clouds 19 1006 68 10000 3.58 315 12:25 13.11.2020
5537 Clouds 19 1006 68 10000 3.58 315 11:50 13.11.2020
5538 Clouds 19 1006 68 10000 3.58 315 11:32 13.11.2020
5539 Rain 20 1005 72 10000 3.13 0 10:58 13.11.2020
5540 Rain 20 1005 72 10000 3.13 0 10:39 13.11.2020
5541 Clear 20 1004 60 10000 3.1 40 10:21 13.11.2020
5542 Clear 21 1004 53 10000 2.1 120 09:43 13.11.2020
5543 Clear 21 1003 56 10000 2.6 140 09:23 13.11.2020
5544 Clear 22 1003 60 10000 2.1 60 08:52 13.11.2020
5545 Clear 22 1003 68 10000 3.1 190 08:21 13.11.2020
5546 Rain 22 1002 68 10000 2.6 290 07:47 13.11.2020
5547 Thunderstorm 21 1003 82 10000 7.7 270 07:26 13.11.2020
5548 Rain 22 1003 55 10000 10.28 270 06:50 13.11.2020
5549 Thunderstorm 23 1002 38 10000 15.9 260 06:19 13.11.2020
5550 Rain 27 994 70 10000 1.34 248 05:39 13.11.2020
5551 Clouds 26 1003 45 10000 8.7 310 02:22 13.11.2020
5552 Clouds 26 1004 53 10000 7.7 350 01:36 13.11.2020
5553 Clouds 24 998 73 10000 2.24 296 00:34 13.11.2020
5554 Clouds 23 1005 69 10000 4.6 30 23:43 12.11.2020
5555 Rain 22 998 85 10000 2.24 305 23:20 12.11.2020
5556 Rain 21 1005 73 10000 3.1 20 22:52 12.11.2020
5557 Rain 21 1005 78 10000 2.6 20 22:33 12.11.2020
5558 Clear 21 1005 78 10000 2.6 20 21:57 12.11.2020
5559 Clear 20 1004 83 10000 2.6 40 21:38 12.11.2020
5560 Rain 19 1004 82 10000 3.1 30 21:18 12.11.2020
5561 Clear 19 1004 83 10000 2.1 30 20:40 12.11.2020
5562 Clear 19 1004 82 10000 3.1 60 20:22 12.11.2020
5563 Rain 19 1004 88 10000 4.6 40 19:52 12.11.2020
5564 Rain 19 1004 88 10000 4.6 40 19:33 12.11.2020
5565 Rain 19 1006 88 10000 0.89 250 18:56 12.11.2020
5566 Rain 19 1005 88 10000 0.89 250 18:37 12.11.2020
5567 Rain 20 1005 83 10000 3.45 347 18:18 12.11.2020
5568 Rain 20 1005 83 10000 2.6 30 17:39 12.11.2020
5569 Rain 20 1005 77 10000 2.6 290 17:21 12.11.2020
5570 Rain 20 1005 73 10000 4.1 360 16:44 12.11.2020
5571 Rain 21 1005 73 10000 4.1 340 16:23 12.11.2020
5572 Rain 20 1006 68 10000 4.1 330 15:47 12.11.2020
5573 Rain 20 1006 77 10000 1.34 0 15:27 12.11.2020
5574 Rain 21 1007 68 10000 9.8 270 14:47 12.11.2020
5575 Rain 21 1007 68 10000 9.8 270 14:47 12.11.2020
5576 Rain 22 1005 73 10000 5.7 360 14:27 12.11.2020
5577 Clear 22 1005 73 10000 7.7 30 13:58 12.11.2020
5578 Clear 22 1005 73 10000 7.7 30 13:39 12.11.2020
5579 Clear 23 1005 60 10000 8.2 20 13:19 12.11.2020
5580 Clear 23 1005 50 10000 8.7 20 12:44 12.11.2020
5581 Clear 23 1005 61 10000 9.3 20 12:24 12.11.2020
5582 Clear 24 1005 64 10000 12.3 30 11:53 12.11.2020
5583 Clear 23 1005 64 10000 12.3 30 11:30 12.11.2020
5584 Clear 23 1005 69 10000 9.8 30 10:49 12.11.2020
5585 Rain 23 1005 69 10000 11.3 30 10:29 12.11.2020
5586 Clear 23 1005 64 10000 10.8 30 09:51 12.11.2020
5587 Rain 24 1005 64 10000 11.8 30 09:27 12.11.2020
5588 Rain 24 1005 61 10000 10.3 30 08:58 12.11.2020
5589 Rain 25 1005 61 10000 10.3 30 08:40 12.11.2020
5590 Rain 25 1005 57 10000 9.8 30 08:20 12.11.2020
5591 Rain 25 1005 57 10000 9.8 30 07:54 12.11.2020
5592 Clear 26 1005 54 10000 9.8 30 07:31 12.11.2020
5593 Clear 26 1006 57 10000 10.3 30 06:51 12.11.2020
5594 Rain 28 1006 54 10000 8.2 50 06:22 12.11.2020
5595 Rain 29 1007 35 10000 7.2 40 03:45 12.11.2020
5596 Rain 29 1008 35 10000 5.7 30 03:19 12.11.2020
5597 Rain 25 1009 54 10000 4.1 30 00:32 12.11.2020
5598 Clear 23 1010 64 10000 5.1 30 23:43 11.11.2020
5599 Rain 22 1010 69 10000 5.7 30 23:24 11.11.2020
5600 Clear 21 1010 68 10000 4.6 30 22:48 11.11.2020
5601 Rain 21 1010 73 10000 4.1 30 22:23 11.11.2020
5602 Rain 20 1012 91 10000 1.79 70 21:57 11.11.2020
5603 Rain 19 1012 91 10000 1.79 70 21:38 11.11.2020
5604 Clouds 18 1012 94 10000 2.24 45 21:20 11.11.2020
5605 Clouds 17 1012 94 10000 2.24 45 20:43 11.11.2020
5606 Clear 18 1010 82 10000 4.1 10 20:22 11.11.2020
5607 Clear 18 1010 82 10000 4.1 10 19:57 11.11.2020
5608 Clear 18 1010 82 10000 4.1 10 19:38 11.11.2020
5609 Clouds 17 1003 91 10000 0.89 292 19:20 11.11.2020
5610 Clouds 17 1011 93 10000 3.13 70 18:44 11.11.2020
5611 Clouds 17 1012 93 10000 3.13 70 18:26 11.11.2020
5612 Clouds 18 1004 91 10000 2.24 290 17:41 11.11.2020
5613 Clouds 18 1004 92 10000 0.89 267 17:21 11.11.2020
5614 Clear 18 1012 82 10000 5.1 40 16:44 11.11.2020
5615 Clear 19 1012 77 10000 4.6 30 16:25 11.11.2020
5616 Clouds 18 1005 90 10000 1.34 11 15:44 11.11.2020
5617 Clear 19 1013 82 10000 5.7 30 15:26 11.11.2020
5618 Clouds 19 1006 90 10000 1.34 288 14:52 11.11.2020
5619 Clear 19 1014 77 10000 5.7 20 14:31 11.11.2020
5620 Rain 20 1014 77 10000 8.7 10 13:52 11.11.2020
5621 Rain 20 1014 77 10000 8.7 10 13:52 11.11.2020
5622 Clear 19 1007 90 10000 1.34 78 13:32 11.11.2020
5623 Clouds 20 1013 77 10000 9.3 30 12:41 11.11.2020
5624 Clouds 20 1013 83 10000 9.8 30 12:20 11.11.2020
5625 Clear 20 1006 90 10000 1.34 348 11:49 11.11.2020
5626 Rain 20 1005 90 10000 1.34 293 11:29 11.11.2020
5627 Clear 20 1005 90 10000 0.89 340 10:41 11.11.2020
5628 Rain 20 1006 90 10000 1.79 42 10:21 11.11.2020
5629 Clear 21 1006 87 10000 0.89 279 09:45 11.11.2020
5630 Clear 21 1006 86 10000 0.89 324 09:26 11.11.2020
5631 Clouds 22 1013 64 10000 9.8 40 08:46 11.11.2020
5632 Rain 22 1006 85 10000 1.34 12 08:27 11.11.2020
5633 Clear 22 1006 85 10000 2.24 339 07:49 11.11.2020
5634 Clouds 22 1013 60 10000 9.8 50 07:30 11.11.2020
5635 Clouds 23 1014 57 10000 9.8 50 06:27 11.11.2020
5636 Clouds 24 1015 57 10000 8.2 40 04:30 11.11.2020
5637 Clouds 23 1018 60 10000 5.7 30 01:31 11.11.2020
5638 Clouds 23 1019 60 10000 5.1 30 00:34 11.11.2020
5639 Clouds 21 1019 68 10000 4.1 10 23:55 10.11.2020
5640 Clouds 20 1019 72 10000 3.1 350 23:24 10.11.2020
5641 Clouds 19 1019 72 10000 3.1 350 22:57 10.11.2020
5642 Clouds 18 1019 72 10000 3.6 350 22:28 10.11.2020
5643 Clouds 17 1019 72 10000 3.6 350 21:56 10.11.2020
5644 Clear 15 1019 94 10000 2.24 290 21:38 10.11.2020
5645 Clouds 15 1019 82 10000 2.6 320 21:18 10.11.2020
5646 Clouds 14 1019 82 10000 2.6 320 20:42 10.11.2020
5647 Clouds 14 1019 82 10000 2.6 300 20:23 10.11.2020
5648 Clouds 14 1018 87 10000 2.6 340 19:53 10.11.2020
5649 Clouds 14 1018 87 10000 2.6 340 19:35 10.11.2020
5650 Clouds 14 1018 87 10000 2.47 350 18:59 10.11.2020
5651 Clear 14 1018 87 10000 2.82 353 18:41 10.11.2020
5652 Clear 14 1019 82 10000 3.15 3 18:20 10.11.2020
5653 Clear 14 1019 82 10000 2.1 340 17:44 10.11.2020
5654 Clouds 14 1019 77 10000 2.1 340 17:26 10.11.2020
5655 Clouds 14 1019 77 10000 2.1 340 16:57 10.11.2020
5656 Clouds 14 1020 82 10000 2.6 340 16:38 10.11.2020
5657 Clouds 15 1020 77 10000 2.6 340 16:20 10.11.2020
5658 Clear 15 1019 85 10000 0.45 290 15:46 10.11.2020
5659 Clear 15 1020 85 10000 0.45 290 15:25 10.11.2020
5660 Clear 15 1020 82 10000 1.79 20 14:42 10.11.2020
5661 Clouds 16 1021 72 10000 4.1 350 14:23 10.11.2020
5662 Clouds 16 1021 72 10000 4.6 10 13:57 10.11.2020
5663 Clouds 16 1021 72 10000 4.6 10 13:36 10.11.2020
5664 Clear 17 1013 82 10000 2.68 297 13:18 10.11.2020
5665 Clear 17 1021 80 10000 2.68 20 12:44 10.11.2020
5666 Clear 17 1013 81 10000 2.24 301 12:24 10.11.2020
5667 Clear 17 1020 63 10000 6.7 30 11:40 10.11.2020
5668 Clear 18 1020 63 10000 6.7 30 11:21 10.11.2020
5669 Clear 17 1020 63 10000 7.2 40 10:48 10.11.2020
5670 Clear 18 1020 63 10000 7.2 40 10:27 10.11.2020
5671 Clear 18 1012 75 10000 0.89 294 09:57 10.11.2020
5672 Clear 18 1012 74 10000 1.34 321 09:39 10.11.2020
5673 Clear 18 1012 74 10000 1.34 330 09:39 10.11.2020
5674 Clear 19 1019 52 10000 8.2 40 09:19 10.11.2020
5675 Clear 19 1019 52 10000 8.2 60 08:48 10.11.2020
5676 Clear 20 1019 52 10000 8.7 60 08:25 10.11.2020
5677 Clear 20 1019 49 10000 8.7 60 07:43 10.11.2020
5678 Clear 20 1019 49 10000 8.2 60 07:20 10.11.2020
5679 Clear 21 1019 46 10000 9.3 70 06:39 10.11.2020
5680 Clouds 21 1020 46 10000 8.2 60 05:41 10.11.2020
5681 Clouds 21 1021 46 10000 7.7 60 04:49 10.11.2020
5682 Clouds 21 1023 49 10000 4.1 90 02:18 10.11.2020
5683 Clouds 20 1024 49 10000 1.5 40 01:25 10.11.2020
5684 Clouds 19 1024 52 10000 3.1 280 23:54 09.11.2020
5685 Clouds 18 1025 59 10000 2.6 300 23:24 09.11.2020
5686 Clouds 16 1025 67 10000 2.6 310 22:44 09.11.2020
5687 Clouds 16 1025 67 10000 2.6 310 22:24 09.11.2020
5688 Clouds 14 1024 77 10000 3.6 290 21:46 09.11.2020
5689 Clouds 14 1024 77 10000 3.6 290 21:27 09.11.2020
5690 Clouds 14 1024 72 10000 2.6 320 21:27 09.11.2020
5691 Clouds 14 1024 77 10000 2.6 310 20:58 09.11.2020
5692 Clouds 13 1024 77 10000 2.6 310 20:36 09.11.2020
5693 Clear 13 1025 89 10000 2.68 290 20:18 09.11.2020
5694 Clouds 13 1023 77 10000 1.5 250 19:40 09.11.2020
5695 Clouds 13 1023 72 10000 2.1 250 19:21 09.11.2020
5696 Clouds 13 1023 72 10000 2.6 250 18:41 09.11.2020
5697 Clouds 13 1023 72 10000 2.6 250 18:41 09.11.2020
5698 Clouds 13 1023 77 10000 2.1 250 18:20 09.11.2020
5699 Clouds 13 1023 72 10000 2.6 260 17:50 09.11.2020
5700 Clouds 13 1023 72 10000 2.6 260 17:30 09.11.2020
5701 Clouds 14 1024 67 10000 2.1 300 16:46 09.11.2020
5702 Clear 14 1025 79 10000 1.79 290 16:27 09.11.2020
5703 Clear 14 1025 79 10000 1.79 290 16:27 09.11.2020
5704 Clear 15 1025 75 10000 2.68 270 15:51 09.11.2020
5705 Clear 15 1025 75 10000 2.68 270 15:30 09.11.2020
5706 Clear 15 1025 74 10000 0.89 340 14:59 09.11.2020
5707 Clear 15 1026 74 10000 0.89 340 14:40 09.11.2020
5708 Clouds 15 1025 63 10000 2.6 30 14:22 09.11.2020
5709 Clouds 15 1025 63 10000 2.1 10 13:43 09.11.2020
5710 Clear 15 1025 63 10000 2.6 40 13:20 09.11.2020
5711 Clear 16 1025 59 10000 3.1 40 12:47 09.11.2020
5712 Clear 16 1025 55 10000 3.1 40 12:21 09.11.2020
5713 Clear 16 1025 55 10000 3.6 40 11:56 09.11.2020
5714 Clear 16 1025 55 10000 3.6 40 11:37 09.11.2020
5715 Clouds 17 1025 55 10000 4.6 50 11:18 09.11.2020
5716 Clouds 17 1024 55 10000 5.1 50 10:42 09.11.2020
5717 Clouds 17 1024 55 10000 5.1 50 10:23 09.11.2020
5718 Clouds 18 1024 52 10000 6.2 50 09:41 09.11.2020
5719 Clouds 18 1024 52 10000 6.2 50 09:23 09.11.2020
5720 Clear 18 1016 69 10000 0.89 188 08:39 09.11.2020
5721 Clouds 19 1024 52 10000 6.2 50 08:19 09.11.2020
5722 Clouds 19 1024 52 10000 5.7 70 07:39 09.11.2020
5723 Clouds 19 1024 52 10000 6.7 80 07:19 09.11.2020
5724 Clouds 20 1024 52 10000 5.1 80 06:23 09.11.2020
5725 Clouds 20 1027 55 10000 0.5 50 03:22 09.11.2020
5726 Clear 18 1027 68 10000 3.13 20 01:43 09.11.2020
5727 Rain 17 1028 67 10000 2.6 210 00:58 09.11.2020
5728 Rain 17 1028 59 10000 3.6 280 23:53 08.11.2020
5729 Rain 17 1028 77 10000 3.13 290 23:30 08.11.2020
5730 Rain 17 1028 72 10000 2.1 280 22:55 08.11.2020
5731 Rain 17 1028 72 10000 2.1 280 22:36 08.11.2020
5732 Clouds 15 1028 77 10000 2.1 330 22:18 08.11.2020
5733 Clouds 15 1028 82 10000 1.5 360 21:38 08.11.2020
5734 Rain 14 1028 82 10000 2.6 160 21:19 08.11.2020
5735 Rain 14 1027 82 10000 3.1 130 20:39 08.11.2020
5736 Rain 14 1027 82 10000 1.01 290 20:21 08.11.2020
5737 Rain 14 1027 82 10000 1.01 290 19:57 08.11.2020
5738 Rain 14 1027 82 10000 2.6 290 19:39 08.11.2020
5739 Rain 14 1027 82 10000 3.1 310 19:20 08.11.2020
5740 Rain 14 1027 82 10000 4.1 310 18:47 08.11.2020
5741 Clouds 14 1027 82 10000 3.1 320 18:22 08.11.2020
5742 Clouds 14 1027 82 10000 3.1 320 17:57 08.11.2020
5743 Clouds 14 1027 82 10000 3.6 340 17:38 08.11.2020
5744 Clouds 14 1027 77 10000 3.6 340 17:19 08.11.2020
5745 Clouds 15 1027 77 10000 2.1 360 16:48 08.11.2020
5746 Clouds 15 1027 77 10000 2.1 360 16:48 08.11.2020
5747 Rain 15 1027 72 10000 2.6 70 16:22 08.11.2020
5748 Rain 15 1028 77 10000 3.1 80 15:58 08.11.2020
5749 Rain 15 1028 77 10000 3.1 80 15:40 08.11.2020
5750 Rain 15 1028 72 10000 2.6 60 15:21 08.11.2020
5751 Rain 15 1028 67 10000 4.1 80 14:41 08.11.2020
5752 Clouds 15 1028 63 10000 4.1 80 14:21 08.11.2020
5753 Clouds 16 1028 63 10000 3.6 70 13:47 08.11.2020
5754 Clouds 16 1028 63 10000 3.6 80 13:24 08.11.2020
5755 Clouds 15 1029 63 10000 3.6 90 12:46 08.11.2020
5756 Clouds 16 1029 63 10000 3.6 110 12:28 08.11.2020
5757 Clouds 16 1028 63 10000 3.6 100 11:58 08.11.2020
5758 Clouds 16 1028 63 10000 3.6 100 11:40 08.11.2020
5759 Clouds 16 1028 63 10000 4.1 110 11:20 08.11.2020
5760 Clouds 16 1028 63 10000 3.6 70 10:50 08.11.2020
5761 Clouds 16 1028 63 10000 4.1 70 10:19 08.11.2020
5762 Clouds 16 1028 63 10000 4.1 70 09:57 08.11.2020
5763 Clouds 17 1028 63 10000 4.6 100 09:39 08.11.2020
5764 Clouds 17 1028 63 10000 5.1 110 09:18 08.11.2020
5765 Clouds 17 1019 73 10000 1.79 159 08:39 08.11.2020
5766 Clouds 17 1019 73 10000 1.79 153 08:20 08.11.2020
5767 Clouds 18 1019 72 10000 2.68 160 07:52 08.11.2020
5768 Clouds 18 1027 52 10000 6.2 130 07:28 08.11.2020
5769 Clouds 19 1019 68 10000 2.68 158 06:24 08.11.2020
5770 Clouds 19 1027 55 10000 7.7 130 05:53 08.11.2020
5771 Clouds 18 1028 56 10000 7.7 120 04:50 08.11.2020
5772 Rain 18 1029 48 10000 6.2 170 01:53 08.11.2020
5773 Rain 18 1029 52 10000 5.7 160 01:19 08.11.2020
5774 Clouds 18 1029 55 10000 5.1 180 00:30 08.11.2020
5775 Clouds 18 1029 63 10000 4.6 200 23:47 07.11.2020
5776 Clouds 18 1029 55 10000 4.6 190 23:29 07.11.2020
5777 Clouds 17 1028 67 10000 6.2 200 22:47 07.11.2020
5778 Clouds 16 1028 63 10000 5.1 200 22:27 07.11.2020
5779 Clouds 16 1028 63 10000 5.1 200 21:56 07.11.2020
5780 Clouds 16 1028 63 10000 5.1 200 21:56 07.11.2020
5781 Rain 16 1028 63 10000 5.1 200 21:37 07.11.2020
5782 Rain 15 1027 63 10000 5.1 200 21:18 07.11.2020
5783 Clouds 15 1027 55 10000 6.2 150 20:44 07.11.2020
5784 Clouds 15 1019 68 10000 1.34 169 20:25 07.11.2020
5785 Clouds 15 1027 59 10000 6.2 160 19:45 07.11.2020
5786 Clouds 15 1027 59 10000 6.2 150 19:27 07.11.2020
5787 Clouds 15 1027 59 10000 5.1 160 18:43 07.11.2020
5788 Clouds 15 1027 59 10000 5.1 160 18:43 07.11.2020
5789 Clouds 15 1026 59 10000 5.7 160 18:24 07.11.2020
5790 Clouds 15 1026 59 10000 6.7 150 17:48 07.11.2020
5791 Clouds 16 1026 59 10000 6.7 150 17:29 07.11.2020
5792 Clouds 16 1019 70 10000 1.79 166 16:46 07.11.2020
5793 Clouds 16 1019 70 10000 1.34 177 16:26 07.11.2020
5794 Clouds 16 1027 59 10000 7.2 150 15:58 07.11.2020
5795 Clouds 16 1027 59 10000 7.2 150 15:39 07.11.2020
5796 Clouds 16 1027 59 10000 7.2 160 15:19 07.11.2020
5797 Clouds 16 1027 63 10000 7.7 160 14:42 07.11.2020
5798 Clouds 16 1027 63 10000 7.7 160 14:24 07.11.2020
5799 Rain 16 1027 67 10000 7.2 160 13:50 07.11.2020
5800 Rain 16 1027 72 10000 6.7 150 13:29 07.11.2020
5801 Clouds 16 1027 67 10000 8.2 160 12:44 07.11.2020
5802 Clouds 16 1026 67 10000 9.3 160 12:20 07.11.2020
5803 Clouds 16 1026 67 10000 9.8 160 11:41 07.11.2020
5804 Clouds 16 1026 72 10000 9.3 160 11:22 07.11.2020
5805 Clouds 16 1025 72 10000 9.3 160 10:45 07.11.2020
5806 Clouds 16 1025 72 10000 9.8 170 10:25 07.11.2020
5807 Clouds 16 1024 72 10000 10.3 170 09:52 07.11.2020
5808 Clouds 16 1024 72 10000 10.3 170 09:32 07.11.2020
5809 Clouds 16 1023 72 10000 11.3 170 08:53 07.11.2020
5810 Clouds 16 1023 72 10000 11.3 170 08:34 07.11.2020
5811 Clouds 17 1023 59 10000 11.8 170 07:51 07.11.2020
5812 Clouds 17 1022 59 10000 11.3 170 07:29 07.11.2020
5813 Clouds 18 1022 55 10000 11.8 170 06:47 07.11.2020
5814 Clouds 18 1022 63 10000 10.8 170 05:34 07.11.2020
5815 Clouds 18 1022 68 10000 8.7 170 03:24 07.11.2020
5816 Clouds 20 1021 72 10000 7.7 160 01:29 07.11.2020
5817 Clouds 19 1021 63 10000 4.6 170 00:59 07.11.2020
5818 Clouds 19 1020 72 10000 5.1 170 00:22 07.11.2020
5819 Clouds 17 1020 77 10000 3.1 210 23:24 06.11.2020
5820 Clouds 15 1020 77 10000 3.1 250 22:44 06.11.2020
5821 Clouds 15 1019 77 10000 3.6 300 22:20 06.11.2020
5822 Clouds 14 1019 77 10000 1.5 270 21:54 06.11.2020
5823 Clouds 14 1019 77 10000 1.5 270 21:36 06.11.2020
5824 Clouds 14 1019 77 10000 1.5 270 21:36 06.11.2020
5825 Clouds 13 1018 82 10000 2.1 300 21:18 06.11.2020
5826 Clouds 13 1018 77 10000 2.6 250 20:43 06.11.2020
5827 Clouds 12 1019 86 10000 1.34 300 20:19 06.11.2020
5828 Clouds 12 1017 82 10000 2.1 260 19:45 06.11.2020
5829 Clouds 12 1017 82 10000 2.1 280 19:26 06.11.2020
5830 Clouds 12 1018 94 10000 3.13 290 18:47 06.11.2020
5831 Clouds 12 1017 82 10000 3.1 250 18:26 06.11.2020
5832 Clouds 13 1017 82 10000 3.1 240 17:52 06.11.2020
5833 Clouds 13 1017 82 10000 3.1 240 17:31 06.11.2020
5834 Clouds 13 1017 82 10000 3.1 240 16:58 06.11.2020
5835 Clouds 13 1017 82 10000 3.1 240 16:33 06.11.2020
5836 Clouds 13 1018 77 10000 2.6 250 15:55 06.11.2020
5837 Clouds 14 1018 77 10000 2.6 250 15:33 06.11.2020
5838 Clear 14 1018 77 10000 3.1 240 14:54 06.11.2020
5839 Clouds 14 1018 89 10000 2.68 290 14:29 06.11.2020
5840 Clouds 14 1018 77 10000 2.6 240 13:54 06.11.2020
5841 Clouds 14 1018 79 10000 0.89 200 13:26 06.11.2020
5842 Clouds 15 1018 79 10000 0.89 200 12:59 06.11.2020
5843 Clouds 15 1018 72 10000 3.1 160 12:40 06.11.2020
5844 Clouds 15 1018 72 10000 3.6 150 12:21 06.11.2020
5845 Clear 16 1017 67 10000 3.6 140 11:37 06.11.2020
5846 Clear 16 1017 67 10000 4.1 130 10:58 06.11.2020
5847 Clear 16 1017 67 10000 4.1 130 10:35 06.11.2020
5848 Clear 16 1017 67 10000 4.1 140 09:58 06.11.2020
5849 Clear 17 1017 63 10000 3.6 150 09:38 06.11.2020
5850 Clear 17 1017 59 10000 5.1 140 09:20 06.11.2020
5851 Clear 17 1016 63 10000 5.1 140 08:47 06.11.2020
5852 Clear 17 1016 63 10000 5.1 140 08:28 06.11.2020
5853 Clouds 18 1016 59 10000 7.2 130 07:44 06.11.2020
5854 Clouds 18 1016 55 10000 7.2 140 07:21 06.11.2020
5855 Clouds 19 1016 59 10000 7.2 150 06:41 06.11.2020
5856 Clouds 19 1016 55 10000 8.2 160 05:39 06.11.2020
5857 Clouds 18 1018 59 10000 8.7 170 02:53 06.11.2020
5858 Clouds 16 1018 67 10000 9.8 190 00:35 06.11.2020
5859 Clouds 14 1018 67 10000 10.3 200 23:57 05.11.2020
5860 Rain 14 1018 77 10000 8.7 210 23:26 05.11.2020
5861 Rain 13 1018 77 10000 8.7 210 22:49 05.11.2020
5862 Rain 13 1018 85 10000 4.02 270 22:26 05.11.2020
5863 Rain 13 1018 81 10000 5.36 225 21:59 05.11.2020
5864 Rain 13 1017 82 10000 8.7 210 21:41 05.11.2020
5865 Rain 13 1018 79 10000 3.13 136 21:21 05.11.2020
5866 Rain 13 1016 82 10000 8.7 210 20:44 05.11.2020
5867 Rain 13 1016 82 10000 10.8 210 20:25 05.11.2020
5868 Rain 13 1016 82 10000 10.8 210 19:58 05.11.2020
5869 Clouds 13 1016 82 10000 4.47 225 19:40 05.11.2020
5870 Clouds 13 1016 85 10000 4.02 225 19:20 05.11.2020
5871 Clouds 13 1016 85 10000 4.02 225 18:42 05.11.2020
5872 Rain 13 1015 86 10000 6.71 200 18:23 05.11.2020
5873 Clouds 13 1015 86 10000 6.71 200 17:51 05.11.2020
5874 Clouds 13 1015 88 10000 4.92 200 17:27 05.11.2020
5875 Clouds 13 1015 88 10000 4.92 200 16:53 05.11.2020
5876 Rain 13 1015 88 10000 4.92 200 16:29 05.11.2020
5877 Rain 13 1015 89 10000 6.71 225 15:59 05.11.2020
5878 Rain 13 1015 89 10000 6.71 225 15:40 05.11.2020
5879 Rain 14 1015 89 10000 6.71 225 15:21 05.11.2020
5880 Rain 14 1015 89 10000 5.36 200 14:44 05.11.2020
5881 Rain 14 1015 89 10000 5.36 200 14:24 05.11.2020
5882 Rain 13 1015 89 10000 5.36 200 13:42 05.11.2020
5883 Rain 13 1015 96 10000 5.81 270 13:23 05.11.2020
5884 Rain 13 1015 96 10000 5.81 270 13:23 05.11.2020
5885 Clouds 12 1015 96 10000 5.81 270 12:45 05.11.2020
5886 Rain 12 1015 97 8465 6.71 270 12:23 05.11.2020
5887 Rain 12 1014 93 10000 8.2 240 11:46 05.11.2020
5888 Clouds 12 1014 93 10000 7.7 240 11:25 05.11.2020
5889 Rain 12 1014 93 10000 6.7 250 10:52 05.11.2020
5890 Clouds 12 1014 93 10000 6.7 250 10:30 05.11.2020
5891 Rain 12 1014 93 9000 6.2 240 09:58 05.11.2020
5892 Clouds 12 1013 93 9000 5.7 250 09:38 05.11.2020
5893 Rain 13 1013 87 10000 6.7 260 09:20 05.11.2020
5894 Clouds 13 1012 87 10000 6.7 250 08:43 05.11.2020
5895 Drizzle 13 1012 82 10000 8.2 240 08:24 05.11.2020
5896 Rain 14 1011 77 10000 12.3 210 07:29 05.11.2020
5897 Rain 14 1011 77 10000 11.8 200 06:52 05.11.2020
5898 Rain 14 1011 77 10000 11.8 200 06:33 05.11.2020
5899 Rain 14 1010 87 10000 12.9 190 04:19 05.11.2020
5900 Clouds 14 1009 93 3000 13.4 180 01:22 05.11.2020
5901 Clouds 14 1010 93 5000 14.4 190 00:29 05.11.2020
5902 Clouds 15 1009 93 7000 12.9 180 23:44 04.11.2020
5903 Rain 15 1009 93 7000 12.9 180 23:44 04.11.2020
5904 Clouds 15 1009 93 10000 11.8 190 23:25 04.11.2020
5905 Rain 16 1009 93 8000 12.9 190 22:45 04.11.2020
5906 Rain 16 1008 88 10000 12.9 180 22:24 04.11.2020
5907 Rain 17 1008 88 10000 12.9 180 21:56 04.11.2020
5908 Rain 18 1008 88 10000 13.9 190 21:36 04.11.2020
5909 Clouds 19 1008 88 10000 13.4 190 21:18 04.11.2020
5910 Rain 19 1007 88 10000 12.3 190 20:41 04.11.2020
5911 Rain 19 1007 88 10000 10.3 180 20:23 04.11.2020
5912 Rain 20 1007 82 10000 10.3 190 19:44 04.11.2020
5913 Rain 20 1007 82 10000 10.3 190 19:26 04.11.2020
5914 Rain 20 999 79 10000 0.89 181 18:44 04.11.2020
5915 Rain 20 1006 68 10000 5.1 170 18:25 04.11.2020
5916 Rain 20 1006 68 10000 5.1 170 18:25 04.11.2020
5917 Clear 20 1006 68 10000 5.1 170 17:59 04.11.2020
5918 Clear 20 1006 64 10000 3.6 180 17:40 04.11.2020
5919 Rain 20 1007 73 10000 2.1 140 17:20 04.11.2020
5920 Rain 20 1007 88 10000 3.6 200 16:38 04.11.2020
5921 Rain 20 1007 82 10000 2.6 140 16:20 04.11.2020
5922 Rain 20 1008 88 10000 3.1 190 15:47 04.11.2020
5923 Rain 20 1008 88 10000 3.1 190 15:25 04.11.2020
5924 Rain 19 1008 82 10000 1.32 250 14:57 04.11.2020
5925 Rain 20 1008 82 10000 1.32 250 14:39 04.11.2020
5926 Clear 20 1009 77 10000 0.92 253 14:18 04.11.2020
5927 Clear 20 1008 73 10000 1 10 13:41 04.11.2020
5928 Clear 19 1009 73 10000 2.1 360 13:19 04.11.2020
5929 Clear 20 1008 73 10000 4.1 30 12:50 04.11.2020
5930 Clear 20 1009 73 10000 4.1 50 12:26 04.11.2020
5931 Clear 20 1009 73 10000 4.1 50 11:56 04.11.2020
5932 Clear 20 1009 73 10000 4.1 50 11:56 04.11.2020
5933 Clear 20 1009 68 10000 3.6 40 11:37 04.11.2020
5934 Clear 20 1009 68 10000 3.6 40 11:37 04.11.2020
5935 Rain 20 1009 68 10000 4.1 10 11:19 04.11.2020
5936 Rain 20 1009 68 10000 5.1 10 10:46 04.11.2020
5937 Clear 20 1009 68 10000 6.2 20 10:22 04.11.2020
5938 Clear 21 1009 68 10000 6.2 20 09:51 04.11.2020
5939 Rain 21 1009 60 10000 6.7 20 09:23 04.11.2020
5940 Rain 21 1009 60 10000 9.3 30 08:46 04.11.2020
5941 Clear 22 1009 53 10000 9.8 30 08:20 04.11.2020
5942 Clear 22 1009 53 10000 10.3 30 07:50 04.11.2020
5943 Clear 23 1009 53 10000 10.3 30 07:27 04.11.2020
5944 Clear 23 1010 50 10000 9.3 30 06:46 04.11.2020
5945 Clear 23 1010 50 10000 8.7 40 06:27 04.11.2020
5946 Rain 24 1013 50 10000 5.7 30 03:46 04.11.2020
5947 Clear 24 1015 41 10000 4.1 360 02:20 04.11.2020
5948 Rain 21 1016 66 10000 2.68 0 00:43 04.11.2020
5949 Clear 19 1017 60 10000 5.1 350 23:44 03.11.2020
5950 Clear 18 1018 60 10000 4.6 330 23:23 03.11.2020
5951 Clear 18 1018 63 10000 4.6 330 22:41 03.11.2020
5952 Clear 17 1018 68 10000 3.6 330 22:21 03.11.2020
5953 Clear 16 1018 68 10000 3.6 330 21:59 03.11.2020
5954 Clear 15 1018 72 10000 3.6 310 21:40 03.11.2020
5955 Clouds 14 1018 77 10000 4.1 340 21:21 03.11.2020
5956 Clouds 14 1018 77 10000 4.1 350 20:45 03.11.2020
5957 Clouds 14 1018 82 10000 3.1 360 20:26 03.11.2020
5958 Clouds 13 1018 82 10000 2.6 350 19:44 03.11.2020
5959 Clouds 13 1018 90 10000 1.79 315 19:25 03.11.2020
5960 Clouds 13 1018 90 10000 1.79 315 19:25 03.11.2020
5961 Rain 13 1018 90 10000 1.79 315 18:56 03.11.2020
5962 Rain 13 1019 90 10000 1.79 315 18:38 03.11.2020
5963 Clear 13 1019 90 10000 0.89 315 18:18 03.11.2020
5964 Clear 14 1019 90 10000 0.89 315 17:42 03.11.2020
5965 Clear 14 1020 81 10000 1.79 360 17:23 03.11.2020
5966 Clear 14 1019 89 10000 2.24 290 16:45 03.11.2020
5967 Clear 14 1020 89 10000 2.24 290 16:24 03.11.2020
5968 Clear 14 1020 89 10000 2.24 290 15:48 03.11.2020
5969 Clouds 14 1021 89 10000 2.24 290 15:29 03.11.2020
5970 Clouds 15 1021 80 10000 1.34 20 14:53 03.11.2020
5971 Clouds 15 1021 80 10000 1.34 20 14:33 03.11.2020
5972 Clear 15 1022 80 10000 1.34 20 13:47 03.11.2020
5973 Clear 16 1022 80 10000 1.34 20 13:26 03.11.2020
5974 Clear 16 1022 68 10000 2.1 10 12:59 03.11.2020
5975 Clear 16 1022 68 10000 2.6 30 12:41 03.11.2020
5976 Clear 17 1023 68 10000 2.6 40 12:20 03.11.2020
5977 Clear 16 1022 68 10000 3.1 40 11:46 03.11.2020
5978 Clear 16 1022 68 10000 3.6 40 11:22 03.11.2020
5979 Clear 17 1022 63 10000 4.1 50 10:55 03.11.2020
5980 Clear 17 1022 63 10000 4.1 50 10:36 03.11.2020
5981 Clear 17 1022 63 10000 4.6 50 10:18 03.11.2020
5982 Clear 18 1022 59 10000 4.6 70 09:44 03.11.2020
5983 Clear 18 1022 59 10000 5.7 70 09:20 03.11.2020
5984 Clear 19 1022 56 10000 5.1 80 08:45 03.11.2020
5985 Clear 19 1022 56 10000 5.1 80 08:26 03.11.2020
5986 Clear 20 1022 52 10000 4.6 80 07:37 03.11.2020
5987 Clouds 20 1022 49 10000 5.1 100 06:53 03.11.2020
5988 Clouds 21 1022 49 10000 5.7 120 06:21 03.11.2020
5989 Clouds 21 1024 52 10000 5.7 120 03:59 03.11.2020
5990 Clouds 20 1026 72 10000 6.2 170 00:44 03.11.2020
5991 Clouds 19 1026 63 10000 4.6 170 00:20 03.11.2020
5992 Clouds 19 1026 63 10000 3.6 170 23:42 02.11.2020
5993 Clouds 18 1026 68 10000 4.1 140 22:57 02.11.2020
5994 Clouds 17 1026 67 10000 1.51 218 22:39 02.11.2020
5995 Clouds 16 1026 77 10000 4.1 140 22:21 02.11.2020
5996 Clouds 14 1026 82 10000 2.6 300 21:39 02.11.2020
5997 Clouds 14 1025 82 10000 3.1 300 21:20 02.11.2020
5998 Clouds 13 1025 82 10000 3.1 310 20:55 02.11.2020
5999 Clouds 13 1025 82 10000 3.1 310 20:36 02.11.2020
6000 Clouds 13 1025 82 10000 3.1 330 20:18 02.11.2020
6001 Clouds 13 1025 82 10000 3.1 330 20:18 02.11.2020
6002 Clouds 13 1025 82 10000 2.6 310 19:42 02.11.2020
6003 Clouds 13 1025 82 10000 2.6 300 19:22 02.11.2020
6004 Clouds 13 1025 82 10000 2.6 330 18:42 02.11.2020
6005 Clouds 14 1025 82 10000 2.6 330 18:21 02.11.2020
6006 Clouds 14 1025 82 10000 2.1 280 17:56 02.11.2020
6007 Clouds 14 1025 82 10000 2.1 280 17:56 02.11.2020
6008 Clouds 14 1025 82 10000 2.1 280 17:38 02.11.2020
6009 Clouds 14 1025 82 10000 2.6 290 17:19 02.11.2020
6010 Clouds 14 1026 82 10000 3.1 260 16:40 02.11.2020
6011 Clouds 14 1026 82 10000 3.1 260 16:40 02.11.2020
6012 Clouds 14 1026 77 10000 3.6 230 16:22 02.11.2020
6013 Clouds 14 1026 77 10000 3.1 230 15:41 02.11.2020
6014 Clouds 14 1027 77 10000 3.6 240 15:22 02.11.2020
6015 Clouds 15 1027 77 10000 3.1 240 14:53 02.11.2020
6016 Clouds 15 1027 77 10000 3.1 200 14:20 02.11.2020
6017 Clouds 16 1027 77 10000 3.1 200 13:56 02.11.2020
6018 Clouds 16 1027 77 10000 3.6 180 13:38 02.11.2020
6019 Clouds 15 1027 72 10000 3.6 160 13:19 02.11.2020
6020 Clouds 16 1027 72 10000 4.1 160 12:31 02.11.2020
6021 Clouds 17 1027 68 10000 4.1 160 11:59 02.11.2020
6022 Clouds 17 1027 68 10000 4.1 160 11:38 02.11.2020
6023 Clouds 17 1026 68 10000 6.2 140 11:19 02.11.2020
6024 Clouds 17 1026 68 10000 6.7 140 10:43 02.11.2020
6025 Clouds 17 1026 68 10000 6.7 140 10:22 02.11.2020
6026 Clouds 18 1026 63 10000 6.2 160 09:51 02.11.2020
6027 Clouds 18 1026 68 10000 5.7 160 09:24 02.11.2020
6028 Clouds 19 1026 68 10000 5.7 160 08:46 02.11.2020
6029 Clouds 19 1026 68 10000 5.7 160 08:26 02.11.2020
6030 Clouds 19 1026 72 10000 7.2 180 07:53 02.11.2020
6031 Clouds 20 1026 64 10000 6.2 170 07:25 02.11.2020
6032 Clouds 20 1026 64 10000 7.2 170 06:36 02.11.2020
6033 Clouds 20 1026 64 10000 7.2 170 04:55 02.11.2020
6034 Rain 19 1027 63 10000 7.7 160 01:25 02.11.2020
6035 Rain 19 1027 72 10000 6.7 160 00:36 02.11.2020
6036 Rain 19 1027 72 10000 7.7 170 23:55 01.11.2020
6037 Rain 19 1027 72 10000 7.7 170 23:36 01.11.2020
6038 Rain 19 1026 72 10000 8.7 160 23:18 01.11.2020
6039 Clouds 18 1026 68 10000 8.7 170 22:38 01.11.2020
6040 Clouds 17 1026 77 10000 8.7 180 22:18 01.11.2020
6041 Clouds 17 1025 72 10000 9.8 170 21:41 01.11.2020
6042 Clouds 17 1025 72 10000 8.7 170 21:23 01.11.2020
6043 Rain 16 1025 72 10000 10.3 180 20:45 01.11.2020
6044 Rain 16 1025 72 10000 10.3 180 20:25 01.11.2020
6045 Rain 15 1024 72 10000 10.3 180 19:46 01.11.2020
6046 Rain 15 1024 72 10000 10.3 180 19:28 01.11.2020
6047 Clouds 15 1024 72 10000 9.3 180 18:57 01.11.2020
6048 Clouds 14 1017 87 10000 0.89 167 18:37 01.11.2020
6049 Clouds 15 1023 77 10000 9.3 190 18:18 01.11.2020
6050 Clouds 15 1023 77 10000 9.3 180 17:43 01.11.2020
6051 Clouds 15 1023 77 10000 8.7 190 17:25 01.11.2020
6052 Clouds 15 1023 82 10000 7.7 200 16:44 01.11.2020
6053 Clouds 15 1023 82 10000 8.2 210 16:25 01.11.2020
6054 Clouds 15 1023 82 10000 8.2 210 15:57 01.11.2020
6055 Clouds 16 1024 82 10000 8.2 210 15:38 01.11.2020
6056 Clouds 16 1024 82 10000 8.2 210 15:38 01.11.2020
6057 Clouds 16 1024 82 10000 7.7 210 15:18 01.11.2020
6058 Clouds 16 1016 92 10000 0.45 267 14:45 01.11.2020
6059 Clouds 16 1016 91 10000 0.45 203 14:22 01.11.2020
6060 Clouds 16 1016 91 10000 0.45 158 13:57 01.11.2020
6061 Clouds 16 1016 91 10000 0.45 211 13:39 01.11.2020
6062 Clouds 16 1016 90 10000 0.45 194 13:20 01.11.2020
6063 Clouds 17 1016 90 10000 0.45 212 12:40 01.11.2020
6064 Clouds 17 1016 90 10000 0.45 198 12:18 01.11.2020
6065 Clouds 17 1016 90 10000 0.89 194 11:48 01.11.2020
6066 Clouds 17 1015 91 10000 0.89 190 11:18 01.11.2020
6067 Clouds 17 1015 91 10000 0.45 158 10:42 01.11.2020
6068 Clouds 17 1015 91 10000 0.89 215 10:24 01.11.2020
6069 Rain 17 1014 91 10000 0.89 176 09:49 01.11.2020
6070 Rain 17 1020 77 10000 11.3 200 09:26 01.11.2020
6071 Rain 17 1019 82 10000 12.9 190 08:40 01.11.2020
6072 Rain 17 1019 82 10000 12.9 190 07:57 01.11.2020
6073 Rain 16 1018 93 8000 8.7 170 07:21 01.11.2020
6074 Rain 17 1016 88 6000 10.8 210 02:32 01.11.2020
6075 Rain 17 1016 88 10000 9.8 200 01:42 01.11.2020
6076 Rain 17 1014 88 10000 9.8 210 00:22 01.11.2020
6077 Rain 17 1014 82 10000 9.8 210 23:24 31.10.2020
6078 Clouds 16 1014 89 10000 4.92 270 22:45 31.10.2020
6079 Clouds 16 1014 89 10000 4.92 270 22:25 31.10.2020
6080 Clouds 16 1014 89 10000 4.92 270 22:25 31.10.2020
6081 Clouds 15 1013 87 10000 4.1 250 21:47 31.10.2020
6082 Clouds 15 1013 87 10000 4.1 250 21:47 31.10.2020
6083 Rain 15 1012 87 10000 10.3 190 21:23 31.10.2020
6084 Rain 15 1012 87 10000 10.3 190 20:59 31.10.2020
6085 Rain 15 1012 87 10000 10.3 190 20:38 31.10.2020
6086 Rain 14 1011 87 10000 5.7 280 20:18 31.10.2020
6087 Rain 14 1011 87 10000 5.7 280 20:18 31.10.2020
6088 Clouds 14 1011 87 10000 4.6 270 19:39 31.10.2020
6089 Rain 14 1011 87 10000 4.1 290 19:20 31.10.2020
6090 Rain 14 1011 87 10000 4.6 280 18:46 31.10.2020
6091 Clouds 14 1011 87 10000 4.6 290 18:23 31.10.2020
6092 Clouds 14 1011 87 10000 4.6 290 17:40 31.10.2020
6093 Clouds 14 1011 87 10000 5.1 280 17:22 31.10.2020
6094 Rain 14 1010 95 10000 3.13 290 16:43 31.10.2020
6095 Rain 14 1011 87 10000 4.1 310 16:25 31.10.2020
6096 Rain 14 1011 93 10000 4.6 310 15:45 31.10.2020
6097 Rain 14 1011 87 10000 4.1 310 15:24 31.10.2020
6098 Clear 14 1011 87 10000 3.6 270 14:49 31.10.2020
6099 Clear 14 1011 87 10000 4.6 280 14:31 31.10.2020
6100 Rain 15 1011 87 10000 3.6 230 13:50 31.10.2020
6101 Rain 15 1011 93 10000 5.1 210 13:26 31.10.2020
6102 Rain 15 1011 93 10000 7.2 210 12:43 31.10.2020
6103 Rain 15 1011 93 10000 6.7 220 12:18 31.10.2020
6104 Rain 15 1011 93 10000 5.1 230 11:39 31.10.2020
6105 Rain 15 1011 87 10000 2.6 250 11:20 31.10.2020
6106 Rain 15 1011 87 10000 2.6 300 10:37 31.10.2020
6107 Rain 15 1010 87 10000 5.1 290 09:48 31.10.2020
6108 Rain 15 1010 87 10000 5.1 290 09:29 31.10.2020
6109 Rain 17 1009 88 10000 7.7 190 08:57 31.10.2020
6110 Rain 17 1009 82 9000 3.6 180 08:20 31.10.2020
6111 Rain 17 1009 82 9000 3.6 180 08:20 31.10.2020
6112 Thunderstorm 17 1009 77 10000 5.7 180 07:28 31.10.2020
6113 Rain 18 1007 82 10000 11.3 190 06:56 31.10.2020
6114 Rain 18 1007 82 10000 11.3 190 06:36 31.10.2020
6115 Thunderstorm 21 1007 82 3000 10.8 190 03:47 31.10.2020
6116 Clouds 23 1006 77 10000 6.2 170 02:27 31.10.2020
6117 Rain 22 1007 88 10000 3.6 70 00:52 31.10.2020
6118 Rain 19 1006 88 10000 6.7 90 23:54 30.10.2020
6119 Rain 18 1007 93 9000 7.7 60 23:30 30.10.2020
6120 Rain 18 1007 93 9000 7.7 60 23:30 30.10.2020
6121 Rain 18 1007 88 5000 8.7 70 22:59 30.10.2020
6122 Rain 18 1007 88 5000 8.7 70 22:38 30.10.2020
6123 Rain 18 1007 88 5000 8.7 90 22:19 30.10.2020
6124 Rain 18 1007 88 5000 8.7 90 22:19 30.10.2020
6125 Rain 18 1007 88 10000 7.7 80 21:48 30.10.2020
6126 Rain 19 1000 96 10000 4.47 146 21:26 30.10.2020
6127 Rain 19 1008 88 10000 7.7 90 20:45 30.10.2020
6128 Rain 19 1008 88 10000 7.7 90 20:27 30.10.2020
6129 Rain 19 1007 88 10000 6.7 90 19:58 30.10.2020
6130 Rain 19 1007 88 10000 6.7 90 19:39 30.10.2020
6131 Clouds 19 1008 82 10000 6.2 90 19:18 30.10.2020
6132 Clouds 18 1008 88 10000 5.7 80 18:41 30.10.2020
6133 Clouds 18 1008 82 10000 6.7 90 18:22 30.10.2020
6134 Rain 18 1009 88 10000 5.7 80 17:46 30.10.2020
6135 Clouds 19 1009 82 10000 6.7 110 17:21 30.10.2020
6136 Rain 18 1009 82 10000 5.7 110 16:50 30.10.2020
6137 Clouds 18 1010 82 10000 5.1 100 16:25 30.10.2020
6138 Clouds 18 1010 88 10000 5.1 80 15:56 30.10.2020
6139 Clouds 18 1010 88 10000 5.1 80 15:37 30.10.2020
6140 Rain 18 1011 88 10000 4.6 90 15:18 30.10.2020
6141 Rain 18 1011 88 10000 3.1 80 14:42 30.10.2020
6142 Rain 18 1012 82 10000 3.6 60 14:23 30.10.2020
6143 Rain 18 1011 77 10000 3.1 80 13:42 30.10.2020
6144 Clouds 18 1012 77 10000 3.6 70 13:20 30.10.2020
6145 Clouds 18 1011 77 10000 4.1 90 12:49 30.10.2020
6146 Clouds 18 1011 77 10000 3.1 120 12:22 30.10.2020
6147 Clouds 18 1011 77 10000 3.1 120 11:56 30.10.2020
6148 Clouds 18 1010 82 10000 4.1 130 11:22 30.10.2020
6149 Clouds 18 1010 77 10000 4.6 100 10:50 30.10.2020
6150 Clouds 18 1011 72 10000 3.1 80 10:26 30.10.2020
6151 Clouds 19 1011 72 10000 3.1 80 09:57 30.10.2020
6152 Clouds 19 1010 72 10000 4.6 130 09:38 30.10.2020
6153 Rain 19 1004 81 10000 0.89 160 09:19 30.10.2020
6154 Rain 19 1002 79 10000 2.24 158 08:32 30.10.2020
6155 Clouds 19 1008 68 10000 6.7 110 07:54 30.10.2020
6156 Clouds 19 1008 68 10000 6.7 110 07:36 30.10.2020
6157 Clouds 19 1009 64 10000 5.7 110 07:18 30.10.2020
6158 Clouds 20 1010 68 10000 5.1 130 06:19 30.10.2020
6159 Clouds 21 1010 64 10000 5.7 120 03:59 30.10.2020
6160 Clouds 20 1010 64 10000 5.1 140 01:26 30.10.2020
6161 Clouds 20 1011 72 10000 2.6 150 00:31 30.10.2020
6162 Clouds 19 1011 72 10000 2.6 260 23:46 29.10.2020
6163 Clouds 19 1011 72 10000 3.6 300 23:28 29.10.2020
6164 Clouds 17 1011 77 10000 3.1 310 22:48 29.10.2020
6165 Clouds 16 1011 77 10000 3.1 310 22:27 29.10.2020
6166 Clouds 15 1010 82 10000 4.1 320 21:51 29.10.2020
6167 Clouds 13 1010 82 10000 3.1 330 21:26 29.10.2020
6168 Clouds 13 1010 82 10000 3.1 330 20:59 29.10.2020
6169 Clouds 13 1009 87 10000 1.71 210 20:39 29.10.2020
6170 Clouds 12 1009 87 10000 2.6 330 20:18 29.10.2020
6171 Clouds 13 1009 82 10000 2.1 280 19:39 29.10.2020
6172 Clear 13 1009 87 10000 2.6 300 19:20 29.10.2020
6173 Clear 13 1009 87 10000 1.43 262 18:46 29.10.2020
6174 Clear 13 1009 87 10000 3.1 270 18:26 29.10.2020
6175 Clear 13 1009 87 10000 2.6 260 17:43 29.10.2020
6176 Clear 13 1009 87 10000 3.6 250 17:24 29.10.2020
6177 Clear 13 1009 87 10000 3.6 270 16:58 29.10.2020
6178 Clear 13 1009 87 10000 3.6 270 16:37 29.10.2020
6179 Clear 13 1009 91 10000 2.24 315 16:18 29.10.2020
6180 Clear 13 1009 91 10000 2.24 315 15:41 29.10.2020
6181 Clear 13 1010 91 10000 2.24 315 15:22 29.10.2020
6182 Clear 14 1010 82 10000 3.6 320 14:59 29.10.2020
6183 Clear 14 1010 77 10000 3.1 310 14:40 29.10.2020
6184 Clouds 14 1010 77 10000 3.6 310 14:20 29.10.2020
6185 Clouds 15 1010 77 10000 4.1 270 13:45 29.10.2020
6186 Clouds 14 1011 81 10000 2.68 304 13:26 29.10.2020
6187 Clouds 15 1011 82 10000 3.6 260 12:43 29.10.2020
6188 Clouds 15 1011 82 10000 3.6 230 12:19 29.10.2020
6189 Clouds 15 1011 82 10000 2.1 240 11:49 29.10.2020
6190 Clouds 16 1011 77 10000 2.6 210 11:27 29.10.2020
6191 Clouds 16 1010 72 10000 2.6 170 10:59 29.10.2020
6192 Clouds 16 1010 72 10000 2.6 170 10:36 29.10.2020
6193 Clouds 16 1010 77 10000 3.1 140 10:18 29.10.2020
6194 Clouds 17 1010 68 10000 4.1 140 09:46 29.10.2020
6195 Clouds 17 1009 63 10000 4.6 130 09:24 29.10.2020
6196 Clouds 18 1009 63 10000 4.6 120 08:40 29.10.2020
6197 Clouds 18 1009 68 10000 5.1 120 08:22 29.10.2020
6198 Clouds 18 1010 63 10000 4.6 150 07:49 29.10.2020
6199 Clouds 19 1010 72 10000 5.1 160 06:59 29.10.2020
6200 Clouds 20 1010 72 10000 5.7 170 06:28 29.10.2020
6201 Clouds 20 1011 72 10000 6.2 170 04:48 29.10.2020
6202 Rain 19 1005 90 10000 0.89 163 02:19 29.10.2020
6203 Rain 17 1012 91 10000 4.47 250 00:38 29.10.2020
6204 Rain 16 1013 91 10000 4.47 250 00:19 29.10.2020
6205 Rain 15 1013 91 10000 4.47 250 23:41 28.10.2020
6206 Rain 15 1013 93 10000 5.1 190 23:20 28.10.2020
6207 Rain 16 1013 93 10000 5.1 190 22:43 28.10.2020
6208 Rain 15 1013 93 10000 5.1 190 22:23 28.10.2020
6209 Drizzle 15 1013 93 10000 4.1 240 21:45 28.10.2020
6210 Drizzle 15 1013 93 10000 4.1 240 21:26 28.10.2020
6211 Rain 15 1012 93 10000 5.1 210 20:44 28.10.2020
6212 Rain 15 1012 93 8000 6.2 220 20:24 28.10.2020
6213 Rain 15 1012 93 10000 5.1 210 19:57 28.10.2020
6214 Rain 15 1012 93 10000 5.1 210 19:39 28.10.2020
6215 Thunderstorm 15 1012 93 10000 5.7 190 19:20 28.10.2020
6216 Rain 16 1012 93 10000 5.7 190 18:43 28.10.2020
6217 Rain 16 1012 93 10000 5.7 190 18:20 28.10.2020
6218 Rain 16 1012 93 10000 5.7 190 18:20 28.10.2020
6219 Rain 16 1012 93 10000 5.7 170 17:43 28.10.2020
6220 Rain 16 1013 93 10000 4.1 170 17:21 28.10.2020
6221 Rain 16 1014 93 10000 4.6 170 16:47 28.10.2020
6222 Rain 16 1014 93 10000 5.7 160 16:29 28.10.2020
6223 Rain 16 1014 82 10000 4.6 160 15:45 28.10.2020
6224 Rain 16 1007 88 10000 0.89 168 15:20 28.10.2020
6225 Rain 16 1007 88 10000 0.89 166 14:53 28.10.2020
6226 Clouds 16 1016 82 10000 3.6 170 14:32 28.10.2020
6227 Rain 16 1008 88 10000 1.34 182 13:59 28.10.2020
6228 Rain 17 1020 86 10000 2.2 150 12:38 28.10.2020
6229 Rain 17 1009 87 10000 2.13 133 12:20 28.10.2020
6230 Rain 17 1010 87 10000 2.13 133 11:43 28.10.2020
6231 Rain 17 1010 87 10000 0.89 167 11:22 28.10.2020
6232 Rain 17 1010 86 10000 0.89 155 10:58 28.10.2020
6233 Clouds 17 1015 77 10000 6.7 130 10:40 28.10.2020
6234 Clouds 17 1015 77 10000 6.7 130 10:22 28.10.2020
6235 Clouds 17 1015 77 10000 6.7 130 09:38 28.10.2020
6236 Clouds 17 1015 77 10000 5.1 140 09:20 28.10.2020
6237 Clouds 18 1015 77 10000 5.1 150 08:47 28.10.2020
6238 Clouds 18 1015 77 10000 6.7 170 08:25 28.10.2020
6239 Clouds 19 1015 77 10000 7.2 170 07:48 28.10.2020
6240 Clouds 18 1015 77 10000 7.2 170 07:30 28.10.2020
6241 Clouds 19 1015 72 10000 7.2 180 06:41 28.10.2020
6242 Clouds 19 1016 77 10000 7.2 160 05:51 28.10.2020
6243 Rain 18 1017 77 10000 5.7 170 04:54 28.10.2020
6244 Clouds 17 1017 77 10000 5.7 170 04:25 28.10.2020
6245 Clouds 17 1019 77 10000 6.7 170 02:26 28.10.2020
6246 Clouds 17 1019 82 10000 5.7 150 01:49 28.10.2020
6247 Clouds 17 1020 72 10000 7.2 160 00:21 28.10.2020
6248 Clouds 17 1020 77 10000 4.6 250 23:38 27.10.2020
6249 Clouds 16 1020 77 10000 4.1 250 23:20 27.10.2020
6250 Clouds 16 1019 82 10000 4.1 240 22:42 27.10.2020
6251 Clouds 15 1019 82 10000 4.1 240 22:19 27.10.2020
6252 Clouds 15 1019 82 10000 4.1 240 22:19 27.10.2020
6253 Clouds 15 1019 82 10000 4.1 240 21:56 27.10.2020
6254 Drizzle 14 1019 87 10000 4.1 280 21:37 27.10.2020
6255 Drizzle 14 1019 87 10000 4.1 280 21:37 27.10.2020
6256 Drizzle 14 1019 87 10000 4.1 280 21:37 27.10.2020
6257 Clouds 14 1019 87 10000 3.6 250 21:19 27.10.2020
6258 Clouds 14 1018 87 10000 4.6 240 20:44 27.10.2020
6259 Rain 14 1018 87 10000 3.6 280 20:22 27.10.2020
6260 Drizzle 14 1018 87 10000 4.1 310 19:40 27.10.2020
6261 Clouds 14 1017 82 10000 0.5 270 19:21 27.10.2020
6262 Clouds 14 1017 82 10000 0.5 270 18:59 27.10.2020
6263 Clouds 14 1017 82 10000 2.6 310 18:40 27.10.2020
6264 Clouds 14 1017 82 10000 2.6 310 18:40 27.10.2020
6265 Clouds 13 1018 82 10000 3.6 300 18:20 27.10.2020
6266 Clouds 13 1018 82 10000 2.6 290 17:44 27.10.2020
6267 Clouds 13 1018 82 10000 3.1 260 17:22 27.10.2020
6268 Clouds 13 1018 82 10000 3.6 280 16:57 27.10.2020
6269 Clouds 13 1018 82 10000 3.6 280 16:39 27.10.2020
6270 Clouds 14 1019 82 10000 4.1 290 16:21 27.10.2020
6271 Clouds 14 1019 82 10000 4.1 290 15:41 27.10.2020
6272 Clouds 14 1019 82 10000 4.6 250 15:23 27.10.2020
6273 Clouds 15 1019 82 10000 5.1 210 14:48 27.10.2020
6274 Clouds 15 1019 82 10000 6.2 200 14:29 27.10.2020
6275 Clouds 15 1019 82 10000 6.2 200 13:56 27.10.2020
6276 Clouds 15 1019 82 10000 5.7 200 13:28 27.10.2020
6277 Clouds 15 1019 77 10000 8.7 170 12:44 27.10.2020
6278 Clouds 16 1019 82 10000 7.2 170 12:25 27.10.2020
6279 Clouds 16 1019 82 10000 7.2 170 11:58 27.10.2020
6280 Clouds 16 1019 82 10000 7.7 170 11:40 27.10.2020
6281 Clouds 16 1019 77 10000 8.2 170 11:20 27.10.2020
6282 Clouds 16 1019 77 10000 8.7 180 10:43 27.10.2020
6283 Clouds 16 1019 82 10000 7.2 180 10:20 27.10.2020
6284 Clouds 16 1018 77 10000 6.7 180 09:28 27.10.2020
6285 Clouds 17 1018 77 10000 8.7 180 08:59 27.10.2020
6286 Clouds 17 1017 77 10000 8.7 170 08:33 27.10.2020
6287 Clouds 18 1017 72 10000 8.7 170 07:54 27.10.2020
6288 Clouds 18 1017 72 10000 8.7 170 07:36 27.10.2020
6289 Clouds 18 1017 72 10000 9.3 180 06:55 27.10.2020
6290 Clouds 18 1018 77 10000 9.3 180 06:20 27.10.2020
6291 Clouds 18 1018 77 10000 9.3 180 06:20 27.10.2020
6292 Clouds 18 1018 72 10000 8.7 180 05:46 27.10.2020
6293 Clouds 18 1019 72 10000 8.7 170 05:24 27.10.2020
6294 Rain 18 1020 72 10000 8.7 180 03:20 27.10.2020
6295 Clouds 16 1021 82 10000 9.8 190 01:22 27.10.2020
6296 Rain 16 1020 82 10000 9.8 200 00:42 27.10.2020
6297 Rain 15 1020 82 10000 9.8 180 23:39 26.10.2020
6298 Clouds 15 1020 82 10000 10.3 180 23:18 26.10.2020
6299 Clouds 15 1019 82 10000 11.3 170 22:44 26.10.2020
6300 Rain 15 1019 82 10000 12.3 170 22:19 26.10.2020
6301 Rain 14 1012 94 10000 2.24 177 21:41 26.10.2020
6302 Rain 14 1012 95 10000 1.79 174 21:19 26.10.2020
6303 Rain 14 1011 95 10000 2.24 165 20:55 26.10.2020
6304 Rain 14 1011 96 10000 0.89 187 20:37 26.10.2020
6305 Rain 14 1018 87 10000 9.3 180 20:18 26.10.2020
6306 Rain 14 1011 98 10000 0.89 267 19:44 26.10.2020
6307 Rain 14 1011 98 10000 0.45 184 19:22 26.10.2020
6308 Rain 14 1018 93 10000 9.8 180 18:44 26.10.2020
6309 Rain 14 1018 93 10000 9.8 180 18:23 26.10.2020
6310 Rain 13 1011 99 10000 1.34 152 17:55 26.10.2020
6311 Rain 13 1011 99 10000 1.34 173 17:37 26.10.2020
6312 Rain 13 1018 87 10000 10.3 170 17:19 26.10.2020
6313 Rain 14 1018 93 10000 9.8 180 16:40 26.10.2020
6314 Rain 13 1018 87 10000 10.3 180 16:21 26.10.2020
6315 Rain 13 1019 87 10000 10.3 170 15:41 26.10.2020
6316 Rain 13 1011 98 10000 1.34 179 15:20 26.10.2020
6317 Rain 13 1012 98 10000 0.45 174 14:52 26.10.2020
6318 Rain 13 1012 98 10000 0.89 205 14:31 26.10.2020
6319 Rain 13 1012 98 10000 0.89 171 13:44 26.10.2020
6320 Rain 13 1012 99 10000 1.34 178 13:24 26.10.2020
6321 Rain 14 1012 96 10000 2.24 171 12:51 26.10.2020
6322 Rain 13 1013 98 10000 1.34 178 12:29 26.10.2020
6323 Rain 13 1012 97 10000 1.34 157 11:57 26.10.2020
6324 Rain 14 1019 87 9000 11.3 190 11:37 26.10.2020
6325 Rain 14 1019 87 10000 10.3 190 11:19 26.10.2020
6326 Rain 14 1019 87 10000 12.3 170 10:46 26.10.2020
6327 Rain 14 1012 95 10000 2.68 158 10:25 26.10.2020
6328 Rain 14 1018 87 10000 12.3 170 09:51 26.10.2020
6329 Rain 14 1018 87 10000 12.3 170 09:28 26.10.2020
6330 Rain 14 1018 87 10000 10.8 190 08:50 26.10.2020
6331 Rain 14 1018 93 10000 10.8 180 08:24 26.10.2020
6332 Rain 14 1017 93 10000 10.3 180 07:38 26.10.2020
6333 Rain 14 1017 87 10000 12.3 170 07:20 26.10.2020
6334 Rain 14 1017 93 8000 13.9 170 05:31 26.10.2020
6335 Rain 14 1017 87 8000 10.8 150 04:19 26.10.2020
6336 Rain 14 1018 93 5000 11.8 150 03:20 26.10.2020
6337 Rain 14 1018 93 5000 11.8 150 03:20 26.10.2020
6338 Rain 14 1018 87 5000 12.3 160 01:34 26.10.2020
6339 Rain 15 1018 93 10000 12.9 160 00:35 26.10.2020
6340 Rain 15 1018 93 10000 12.9 160 00:35 26.10.2020
6341 Rain 15 1017 82 10000 14.4 160 23:47 25.10.2020
6342 Rain 15 1017 72 10000 14.9 150 23:28 25.10.2020
6343 Rain 14 1017 82 9000 12.9 150 22:47 25.10.2020
6344 Rain 14 1017 87 8000 13.9 150 22:28 25.10.2020
6345 Rain 14 1016 87 6000 14.9 150 21:51 25.10.2020
6346 Rain 14 1016 87 6000 14.9 150 21:31 25.10.2020
6347 Rain 14 1009 99 10000 4.47 128 20:59 25.10.2020
6348 Rain 14 1009 99 10000 3.13 141 20:41 25.10.2020
6349 Rain 14 1008 99 10000 2.68 166 20:23 25.10.2020
6350 Rain 14 1015 93 6000 14.9 150 19:55 25.10.2020
6351 Drizzle 14 1015 93 6000 14.9 150 19:37 25.10.2020
6352 Rain 14 1014 93 8000 14.9 150 19:19 25.10.2020
6353 Rain 14 1008 99 10000 4.47 169 18:41 25.10.2020
6354 Rain 14 1008 99 10000 4.47 169 18:41 25.10.2020
6355 Rain 15 1014 93 4000 12.3 150 18:22 25.10.2020
6356 Rain 14 1014 93 4000 12.3 150 18:22 25.10.2020
6357 Rain 14 1014 93 4000 13.4 150 17:56 25.10.2020
6358 Rain 14 1014 93 4000 13.4 150 17:38 25.10.2020
6359 Rain 15 1014 87 10000 12.9 150 17:19 25.10.2020
6360 Rain 14 1014 87 4000 13.9 160 16:44 25.10.2020
6361 Rain 14 1014 87 4000 13.9 160 16:25 25.10.2020
6362 Rain 14 1015 100 4500 14.9 160 15:50 25.10.2020
6363 Rain 14 1015 93 4000 14.9 160 15:29 25.10.2020
6364 Rain 14 1008 99 3928 4.02 171 14:55 25.10.2020
6365 Rain 14 1008 99 3758 2.68 173 14:31 25.10.2020
6366 Rain 14 1008 99 3758 3.13 173 13:55 25.10.2020
6367 Rain 14 1008 99 3758 2.68 168 13:37 25.10.2020
6368 Rain 14 1015 93 3000 13.9 170 13:18 25.10.2020
6369 Rain 14 1008 99 6513 2.68 166 12:40 25.10.2020
6370 Rain 14 1015 93 10000 14.4 170 12:22 25.10.2020
6371 Rain 14 1015 93 9000 14.4 170 11:43 25.10.2020
6372 Rain 14 1008 99 9989 2.68 165 11:21 25.10.2020
6373 Rain 14 1008 99 9989 1.79 210 10:56 25.10.2020
6374 Rain 14 1015 93 6000 11.8 170 10:38 25.10.2020
6375 Rain 14 1015 93 6000 11.3 180 10:19 25.10.2020
6376 Rain 13 1007 99 8389 0.89 170 09:39 25.10.2020
6377 Rain 13 1013 93 3000 10.3 190 09:19 25.10.2020
6378 Rain 13 1013 93 3000 10.3 190 09:19 25.10.2020
6379 Rain 13 1013 93 3000 10.3 190 09:19 25.10.2020
6380 Rain 13 1014 93 2500 10.3 190 08:41 25.10.2020
6381 Rain 13 1014 93 2500 10.3 190 08:41 25.10.2020
6382 Rain 13 1014 93 7000 10.3 200 08:22 25.10.2020
6383 Rain 13 1014 93 5000 10.8 210 07:46 25.10.2020
6384 Drizzle 13 1014 93 7000 9.8 200 07:24 25.10.2020
6385 Rain 13 1013 93 8000 10.3 200 06:45 25.10.2020
6386 Rain 13 1014 87 7000 9.8 190 05:36 25.10.2020
6387 Rain 13 1014 87 8000 11.8 190 04:51 25.10.2020
6388 Drizzle 14 1014 87 9000 12.3 180 02:56 25.10.2020
6389 Clouds 14 1013 87 10000 11.8 180 01:20 25.10.2020
6390 Drizzle 14 1013 82 10000 12.9 180 00:40 25.10.2020
6391 Rain 14 1012 87 10000 12.3 170 00:18 25.10.2020
6392 Rain 14 1012 82 10000 12.9 170 23:43 24.10.2020
6393 Rain 14 1005 90 10000 1.79 176 23:22 24.10.2020
6394 Clouds 14 1011 87 10000 12.9 180 22:42 24.10.2020
6395 Rain 14 1004 92 10000 1.34 172 22:23 24.10.2020
6396 Rain 14 1004 95 10000 1.34 193 21:57 24.10.2020
6397 Rain 14 1009 87 10000 12.9 170 21:38 24.10.2020
6398 Clouds 14 1009 93 10000 11.8 170 21:19 24.10.2020
6399 Rain 14 1008 93 10000 12.3 170 20:45 24.10.2020
6400 Rain 14 1008 93 10000 12.3 170 20:22 24.10.2020
6401 Rain 14 1008 93 10000 11.3 180 19:45 24.10.2020
6402 Drizzle 14 1008 93 9000 10.8 180 19:26 24.10.2020
6403 Clouds 14 1007 93 10000 11.3 180 18:55 24.10.2020
6404 Rain 14 1007 93 10000 12.3 180 18:36 24.10.2020
6405 Rain 14 1007 93 9000 12.3 180 17:57 24.10.2020
6406 Rain 14 1007 93 9000 12.3 180 17:37 24.10.2020
6407 Rain 14 1007 100 6000 12.3 180 17:19 24.10.2020
6408 Rain 15 1007 93 5000 10.8 190 16:41 24.10.2020
6409 Rain 15 1006 100 8000 13.4 190 16:19 24.10.2020
6410 Rain 15 1006 93 3000 13.9 190 15:39 24.10.2020
6411 Rain 16 1005 88 10000 15.9 180 15:19 24.10.2020
6412 Rain 17 1006 89 10000 7.6 162 14:46 24.10.2020
6413 Rain 18 1005 90 4727 0.45 279 14:27 24.10.2020
6414 Rain 18 998 95 10000 0.89 298 13:45 24.10.2020
6415 Rain 18 1004 94 10000 4.6 360 13:22 24.10.2020
6416 Rain 19 998 96 10000 0.45 301 12:42 24.10.2020
6417 Rain 19 998 96 10000 0.89 298 12:21 24.10.2020
6418 Rain 19 998 96 10000 0.89 298 12:21 24.10.2020
6419 Rain 19 1003 94 10000 2.6 10 11:51 24.10.2020
6420 Rain 19 1003 94 10000 2.6 10 11:32 24.10.2020
6421 Rain 20 996 96 10000 1.34 298 10:52 24.10.2020
6422 Rain 20 996 96 10000 0.89 286 10:33 24.10.2020
6423 Rain 20 1003 94 10000 4.1 350 09:50 24.10.2020
6424 Rain 20 1003 94 10000 4.1 350 09:32 24.10.2020
6425 Rain 20 1003 94 5000 4.6 330 08:59 24.10.2020
6426 Rain 21 1002 88 9000 5.1 20 08:19 24.10.2020
6427 Rain 21 1002 88 9000 5.7 10 07:54 24.10.2020
6428 Rain 21 1002 88 9000 5.7 10 07:25 24.10.2020
6429 Rain 21 995 91 10000 1.34 326 06:53 24.10.2020
6430 Rain 21 995 91 10000 1.34 326 06:53 24.10.2020
6431 Rain 22 1003 83 10000 5.7 340 06:23 24.10.2020
6432 Rain 23 1004 73 10000 6.7 360 03:35 24.10.2020
6433 Clouds 22 998 82 10000 4.92 291 02:18 24.10.2020
6434 Clear 22 1005 83 10000 5.1 350 00:42 24.10.2020
6435 Rain 21 1006 88 10000 4.6 30 00:21 24.10.2020
6436 Rain 20 1006 83 10000 5.1 20 23:49 23.10.2020
6437 Clouds 20 999 96 10000 0.89 108 23:26 23.10.2020
6438 Clouds 19 999 96 10000 1.34 297 22:58 23.10.2020
6439 Clouds 19 999 96 10000 1.34 297 22:58 23.10.2020
6440 Clouds 19 999 96 10000 3.13 313 22:40 23.10.2020
6441 Clouds 19 999 96 10000 3.13 304 22:20 23.10.2020
6442 Rain 19 1005 100 10000 3.1 30 21:50 23.10.2020
6443 Rain 19 1005 93 10000 2.6 70 21:25 23.10.2020
6444 Rain 19 1005 93 10000 2.6 60 20:42 23.10.2020
6445 Rain 19 1006 94 10000 3.6 340 20:23 23.10.2020
6446 Rain 19 1006 94 10000 3.6 340 19:58 23.10.2020
6447 Rain 19 1006 94 10000 4.6 350 19:33 23.10.2020
6448 Rain 19 1006 88 5000 3.1 300 18:58 23.10.2020
6449 Rain 19 1006 88 5000 3.1 300 18:39 23.10.2020
6450 Rain 19 1007 88 10000 6.2 290 18:19 23.10.2020
6451 Rain 19 1000 92 10000 1.34 305 17:43 23.10.2020
6452 Clouds 19 1007 88 10000 4.6 20 17:20 23.10.2020
6453 Clouds 19 1000 92 10000 1.79 312 16:46 23.10.2020
6454 Clouds 19 1007 82 10000 5.7 10 16:26 23.10.2020
6455 Clouds 19 1008 83 10000 7.2 10 15:47 23.10.2020
6456 Clouds 19 1008 83 10000 8.2 10 15:25 23.10.2020
6457 Clouds 20 1008 83 10000 8.2 10 14:58 23.10.2020
6458 Clouds 20 1008 83 10000 7.7 10 14:39 23.10.2020
6459 Clouds 20 1008 83 10000 9.3 20 14:21 23.10.2020
6460 Clouds 20 1009 83 10000 8.7 20 13:38 23.10.2020
6461 Clouds 20 1008 83 10000 10.8 40 13:20 23.10.2020
6462 Clouds 20 1008 83 10000 11.8 40 12:48 23.10.2020
6463 Clouds 20 1009 83 10000 10.8 40 12:27 23.10.2020
6464 Clouds 20 1009 83 10000 10.8 30 11:48 23.10.2020
6465 Clouds 20 1009 83 10000 10.8 30 11:22 23.10.2020
6466 Clouds 20 1002 88 10000 1.79 278 10:47 23.10.2020
6467 Clouds 21 1008 73 10000 11.3 40 10:25 23.10.2020
6468 Clouds 21 1008 69 10000 11.8 40 09:47 23.10.2020
6469 Clouds 22 1008 69 10000 11.8 40 09:27 23.10.2020
6470 Clouds 22 1008 64 10000 12.3 30 08:53 23.10.2020
6471 Clouds 23 1008 61 10000 11.8 30 08:35 23.10.2020
6472 Clouds 23 1009 61 10000 11.3 40 07:47 23.10.2020
6473 Clouds 23 1009 61 10000 11.3 40 07:26 23.10.2020
6474 Clear 23 1010 60 10000 10.3 50 06:40 23.10.2020
6475 Clear 23 1010 57 10000 10.3 60 05:59 23.10.2020
6476 Clouds 25 1013 53 10000 6.7 30 02:54 23.10.2020
6477 Clouds 24 1013 57 10000 5.1 30 02:26 23.10.2020
6478 Clouds 22 1014 68 10000 4.6 60 00:48 23.10.2020
6479 Clouds 21 1014 73 10000 2.1 290 23:59 22.10.2020
6480 Clouds 20 1014 73 10000 2.6 10 23:31 22.10.2020
6481 Clear 18 1012 95 10000 1.96 16 22:56 22.10.2020
6482 Clear 18 1014 87 10000 0.45 360 22:38 22.10.2020
6483 Clear 17 1015 88 10000 1.65 305 22:19 22.10.2020
6484 Clear 17 1015 89 10000 1.65 305 21:43 22.10.2020
6485 Clear 17 1014 89 10000 1.74 321 21:24 22.10.2020
6486 Clear 17 1014 88 10000 0.45 302 20:58 22.10.2020
6487 Clear 18 1006 92 10000 1.34 295 20:40 22.10.2020
6488 Clear 18 1006 94 10000 1.79 313 20:20 22.10.2020
6489 Clear 18 1006 94 10000 1.34 323 19:41 22.10.2020
6490 Clear 18 1013 88 10000 1.84 350 19:20 22.10.2020
6491 Clear 18 1013 87 10000 0.45 38 18:43 22.10.2020
6492 Clear 18 1013 82 10000 5.1 20 18:21 22.10.2020
6493 Clouds 19 1014 82 10000 6.2 20 17:47 22.10.2020
6494 Clouds 19 1014 82 10000 7.7 20 17:26 22.10.2020
6495 Clouds 19 1014 82 10000 7.7 20 16:58 22.10.2020
6496 Clouds 19 1014 82 10000 6.2 20 16:40 22.10.2020
6497 Clear 19 1007 91 10000 2.24 301 16:22 22.10.2020
6498 Clouds 19 1015 82 10000 6.7 20 15:44 22.10.2020
6499 Clear 19 1008 91 10000 2.24 295 15:25 22.10.2020
6500 Clear 19 1008 91 10000 1.79 295 14:49 22.10.2020
6501 Clear 19 1008 91 10000 0.89 306 14:26 22.10.2020
6502 Clear 19 1008 91 10000 1.79 317 14:26 22.10.2020
6503 Clear 19 1008 90 10000 1.34 303 13:49 22.10.2020
6504 Clear 19 1008 90 10000 1.34 205 13:24 22.10.2020
6505 Clear 19 1008 90 10000 1.34 205 13:24 22.10.2020
6506 Clear 19 1008 90 10000 1.34 354 12:57 22.10.2020
6507 Clear 19 1008 90 10000 0.89 321 12:27 22.10.2020
6508 Clouds 20 1014 77 10000 7.7 30 11:50 22.10.2020
6509 Clouds 20 1014 77 10000 6.7 30 11:20 22.10.2020
6510 Clear 20 1007 90 10000 1.79 299 10:52 22.10.2020
6511 Clear 20 1007 90 10000 0.89 307 10:30 22.10.2020
6512 Clouds 21 1014 73 10000 7.7 40 09:57 22.10.2020
6513 Clouds 21 1013 73 10000 6.2 40 09:39 22.10.2020
6514 Clouds 22 1013 64 10000 7.2 60 08:57 22.10.2020
6515 Clouds 22 1013 64 10000 7.2 60 08:38 22.10.2020
6516 Clouds 22 1012 56 10000 7.2 60 08:18 22.10.2020
6517 Clouds 22 1013 56 10000 7.7 60 07:43 22.10.2020
6518 Clouds 22 1013 60 10000 7.7 60 06:59 22.10.2020
6519 Clouds 22 1013 77 10000 7.7 60 06:36 22.10.2020
6520 Clouds 22 1014 73 10000 6.2 150 05:42 22.10.2020
6521 Clouds 23 1014 77 10000 6.7 170 05:22 22.10.2020
6522 Clouds 21 1015 82 10000 4.6 170 02:25 22.10.2020
6523 Clouds 19 1015 88 10000 4.6 170 00:36 22.10.2020
6524 Clouds 19 1015 88 10000 4.1 160 00:18 22.10.2020
6525 Rain 18 1015 77 10000 3.1 160 23:38 21.10.2020
6526 Rain 17 1014 82 10000 1.5 100 22:58 21.10.2020
6527 Rain 17 1014 82 10000 1.5 100 22:37 21.10.2020
6528 Rain 16 1014 88 10000 2.1 100 22:18 21.10.2020
6529 Rain 16 1014 88 10000 2.6 190 21:44 21.10.2020
6530 Clouds 16 1013 82 10000 1.29 274 21:19 21.10.2020
6531 Clouds 16 1013 82 10000 1.5 40 20:48 21.10.2020
6532 Clouds 15 1013 82 10000 2.6 40 20:19 21.10.2020
6533 Clouds 15 1017 89 10000 1.39 344 19:59 21.10.2020
6534 Clouds 15 1013 82 10000 1.03 335 19:39 21.10.2020
6535 Clouds 15 1013 87 10000 2.1 40 19:19 21.10.2020
6536 Clouds 15 1017 88 10000 1.43 8 18:47 21.10.2020
6537 Clouds 15 1014 82 10000 2.6 40 18:26 21.10.2020
6538 Clouds 16 1014 77 10000 2.6 20 17:47 21.10.2020
6539 Clouds 16 1015 82 10000 2.25 11 17:21 21.10.2020
6540 Clouds 16 1015 83 10000 2.25 11 16:57 21.10.2020
6541 Clouds 16 1014 91 10000 0.45 306 16:36 21.10.2020
6542 Clouds 17 1015 77 10000 4.1 10 16:18 21.10.2020
6543 Clouds 17 1015 77 10000 5.1 20 15:44 21.10.2020
6544 Clouds 17 1015 77 10000 5.7 20 15:21 21.10.2020
6545 Clouds 17 1015 77 10000 5.1 20 14:48 21.10.2020
6546 Clouds 18 1015 77 10000 5.1 20 14:28 21.10.2020
6547 Clouds 18 1015 72 10000 5.7 10 13:56 21.10.2020
6548 Clouds 18 1007 84 10000 1.34 292 13:38 21.10.2020
6549 Clouds 18 1014 72 10000 8.2 40 13:19 21.10.2020
6550 Clouds 18 1014 72 10000 8.7 30 12:38 21.10.2020
6551 Clouds 18 1007 82 10000 0.89 233 12:19 21.10.2020
6552 Clouds 18 1014 68 10000 8.2 30 11:41 21.10.2020
6553 Clouds 18 1007 81 10000 0.89 2 11:20 21.10.2020
6554 Clouds 18 1006 81 10000 1.34 299 10:47 21.10.2020
6555 Clouds 19 1006 79 10000 1.34 311 10:26 21.10.2020
6556 Clouds 19 1006 78 10000 0.89 101 09:57 21.10.2020
6557 Clouds 20 1013 64 10000 11.3 30 09:34 21.10.2020
6558 Clouds 20 1013 60 10000 10.8 40 08:57 21.10.2020
6559 Clouds 20 1013 60 10000 10.8 30 08:39 21.10.2020
6560 Clouds 20 1006 77 10000 1.34 310 08:21 21.10.2020
6561 Clouds 21 1013 53 10000 9.8 20 07:38 21.10.2020
6562 Clouds 21 1014 56 10000 9.3 40 06:55 21.10.2020
6563 Clouds 22 1014 53 10000 9.8 30 06:32 21.10.2020
6564 Clouds 22 1015 53 10000 9.8 30 04:48 21.10.2020
6565 Clouds 22 1017 53 10000 9.3 30 02:27 21.10.2020
6566 Clouds 18 1017 72 10000 3.1 310 23:55 20.10.2020
6567 Clouds 17 1017 77 10000 7.2 20 23:20 20.10.2020
6568 Clouds 16 1017 82 10000 2.6 310 22:37 20.10.2020
6569 Clouds 15 1016 82 10000 2.1 320 22:18 20.10.2020
6570 Clouds 14 1016 82 10000 2.6 310 21:47 20.10.2020
6571 Clouds 14 1016 82 10000 2.6 290 21:18 20.10.2020
6572 Clear 14 1016 87 10000 2.6 290 20:42 20.10.2020
6573 Clear 14 1016 82 10000 1.5 310 20:23 20.10.2020
6574 Clear 15 1016 82 10000 2.6 340 19:45 20.10.2020
6575 Clear 15 1016 82 10000 2.6 350 19:22 20.10.2020
6576 Clouds 15 1016 82 10000 2.6 340 18:59 20.10.2020
6577 Clouds 15 1016 82 10000 2.6 340 18:37 20.10.2020
6578 Clouds 15 1016 77 10000 2.6 350 17:51 20.10.2020
6579 Clouds 15 1016 77 10000 2.6 350 17:33 20.10.2020
6580 Clouds 16 1017 82 10000 2.6 340 16:59 20.10.2020
6581 Clouds 16 1017 82 10000 2.6 340 16:40 20.10.2020
6582 Clouds 16 1017 77 10000 3.1 360 16:22 20.10.2020
6583 Clear 16 1010 85 10000 0.89 303 15:46 20.10.2020
6584 Clear 16 1010 85 10000 0.89 291 15:27 20.10.2020
6585 Clouds 17 1018 77 10000 3.1 360 14:45 20.10.2020
6586 Clouds 17 1017 77 10000 4.1 40 14:25 20.10.2020
6587 Clouds 17 1017 77 10000 4.1 40 13:58 20.10.2020
6588 Clouds 17 1018 77 10000 4.1 40 13:40 20.10.2020
6589 Clouds 17 1018 68 10000 3.6 20 13:19 20.10.2020
6590 Clouds 17 1018 72 10000 3.6 30 12:49 20.10.2020
6591 Clouds 17 1018 72 10000 3.6 30 12:30 20.10.2020
6592 Clouds 17 1018 72 10000 3.6 30 12:30 20.10.2020
6593 Clouds 17 1018 72 10000 4.6 40 11:47 20.10.2020
6594 Clouds 17 1017 72 10000 5.7 50 11:28 20.10.2020
6595 Clouds 18 1017 63 10000 5.7 50 10:46 20.10.2020
6596 Clouds 18 1017 68 10000 6.2 50 10:25 20.10.2020
6597 Clouds 18 1017 68 10000 7.2 50 09:44 20.10.2020
6598 Clouds 18 1017 68 10000 7.2 50 09:44 20.10.2020
6599 Clouds 18 1017 72 10000 7.7 60 09:20 20.10.2020
6600 Clouds 18 1017 72 10000 7.7 60 09:20 20.10.2020
6601 Clouds 19 1017 68 10000 7.7 50 08:40 20.10.2020
6602 Clouds 19 1017 68 10000 7.7 80 08:21 20.10.2020
6603 Clouds 19 1017 64 10000 7.2 70 07:44 20.10.2020
6604 Clouds 19 1010 81 10000 1.34 146 07:22 20.10.2020
6605 Clouds 20 1018 60 10000 5.1 80 06:20 20.10.2020
6606 Rain 20 1019 72 10000 4.42 81 04:55 20.10.2020
6607 Rain 17 1019 82 10000 4.1 330 02:31 20.10.2020
6608 Rain 17 1019 63 10000 4.6 130 01:30 20.10.2020
6609 Clouds 17 1019 63 10000 4.1 120 00:52 20.10.2020
6610 Clouds 17 1019 63 10000 4.1 120 00:29 20.10.2020
6611 Clouds 17 1019 68 10000 5.7 120 23:54 19.10.2020
6612 Rain 16 1019 68 10000 5.1 130 23:29 19.10.2020
6613 Rain 16 1018 68 10000 4.1 150 22:59 19.10.2020
6614 Clouds 16 1018 68 10000 4.1 150 22:30 19.10.2020
6615 Clouds 16 1018 72 10000 4.6 150 21:58 19.10.2020
6616 Clouds 17 1018 72 10000 4.6 140 21:39 19.10.2020
6617 Rain 16 1018 72 10000 5.1 150 21:19 19.10.2020
6618 Rain 17 1017 72 10000 5.1 150 20:44 19.10.2020
6619 Rain 17 1017 72 10000 4.6 140 20:26 19.10.2020
6620 Rain 17 1017 72 10000 4.1 150 19:46 19.10.2020
6621 Rain 17 1017 77 10000 4.1 140 19:20 19.10.2020
6622 Clouds 17 1017 72 10000 4.6 130 18:51 19.10.2020
6623 Clouds 17 1018 72 10000 4.1 140 18:31 19.10.2020
6624 Clouds 17 1018 72 10000 4.1 140 17:49 19.10.2020
6625 Clouds 17 1018 68 10000 4.1 130 17:29 19.10.2020
6626 Clouds 17 1018 68 10000 4.6 130 16:55 19.10.2020
6627 Clouds 17 1018 68 10000 4.6 130 16:30 19.10.2020
6628 Clouds 17 1011 79 10000 0.89 160 15:59 19.10.2020
6629 Clouds 17 1011 79 10000 0.89 168 15:37 19.10.2020
6630 Clouds 17 1011 79 10000 0.89 170 15:19 19.10.2020
6631 Clouds 17 1011 79 10000 0.89 157 14:47 19.10.2020
6632 Clouds 17 1011 79 10000 0.89 170 14:24 19.10.2020
6633 Clouds 17 1011 79 10000 0.89 168 13:48 19.10.2020
6634 Clouds 17 1011 79 10000 1.34 163 13:30 19.10.2020
6635 Clouds 17 1011 79 10000 0.89 173 12:46 19.10.2020
6636 Clouds 17 1011 79 10000 1.34 135 12:28 19.10.2020
6637 Clouds 17 1011 79 10000 1.79 169 11:51 19.10.2020
6638 Clouds 17 1017 72 10000 6.2 130 11:25 19.10.2020
6639 Clouds 17 1017 72 10000 6.2 130 10:56 19.10.2020
6640 Clouds 17 1017 72 10000 6.2 130 10:36 19.10.2020
6641 Clouds 17 1017 68 10000 6.2 130 10:18 19.10.2020
6642 Clouds 17 1017 68 10000 6.7 130 09:42 19.10.2020
6643 Clouds 17 1017 68 10000 6.7 140 09:19 19.10.2020
6644 Clouds 17 1009 78 10000 2.24 166 08:47 19.10.2020
6645 Clouds 18 1009 77 10000 2.24 174 08:21 19.10.2020
6646 Clouds 19 1016 63 10000 6.7 130 07:37 19.10.2020
6647 Clouds 19 1016